<?xml version="1.0" encoding="UTF-8" standalone="no" ?>
<gpx xmlns="http://www.topografix.com/GPX/1/1" xmlns:xsi="http://www.w3.org/2001/XMLSchema-instance" xsi:schemaLocation="http://www.topografix.com/GPX/1/1 http://www.topografix.com/GPX/1/1/gpx.xsd" version="1.1" creator="VisuGPX - https://www.visugpx.com">
  <metadata>
    <name>Tour d'Europe: étape 092</name>
    <desc><![CDATA[Étape 092]]></desc>
  </metadata>
  <trk>
    <name><![CDATA[Tour d'Europe: étape 092]]></name>
    <trkseg>
      <trkpt lat="64.76218" lon="20.97536">
        <ele>73.08278</ele>
        <time>2020-09-28T09:50:13.674Z</time>
      </trkpt>
      <trkpt lat="64.76199" lon="20.97526">
        <ele>73.08278</ele>
        <time>2020-09-28T09:50:55.687Z</time>
      </trkpt>
      <trkpt lat="64.7618" lon="20.9752">
        <ele>73.08278</ele>
        <time>2020-09-28T09:51:04.662Z</time>
      </trkpt>
      <trkpt lat="64.76146" lon="20.97532">
        <ele>73.08278</ele>
        <time>2020-09-28T09:56:49.399Z</time>
      </trkpt>
      <trkpt lat="64.76143" lon="20.97508">
        <ele>73.08278</ele>
        <time>2020-09-28T10:03:49.551Z</time>
      </trkpt>
      <trkpt lat="64.7614" lon="20.97487">
        <ele>72.960505</ele>
        <time>2020-09-28T10:03:54.558Z</time>
      </trkpt>
      <trkpt lat="64.76135" lon="20.97469">
        <ele>72.617351</ele>
        <time>2020-09-28T10:03:58.560Z</time>
      </trkpt>
      <trkpt lat="64.76128" lon="20.97454">
        <ele>72.269175</ele>
        <time>2020-09-28T10:04:01.602Z</time>
      </trkpt>
      <trkpt lat="64.76123" lon="20.97437">
        <ele>71.919678</ele>
        <time>2020-09-28T10:04:03.561Z</time>
      </trkpt>
      <trkpt lat="64.76116" lon="20.97417">
        <ele>71.520339</ele>
        <time>2020-09-28T10:04:05.560Z</time>
      </trkpt>
      <trkpt lat="64.76109" lon="20.97393">
        <ele>71.050738</ele>
        <time>2020-09-28T10:04:07.546Z</time>
      </trkpt>
      <trkpt lat="64.76102" lon="20.97361">
        <ele>70.467083</ele>
        <time>2020-09-28T10:04:09.556Z</time>
      </trkpt>
      <trkpt lat="64.76097" lon="20.97321">
        <ele>69.789863</ele>
        <time>2020-09-28T10:04:11.578Z</time>
      </trkpt>
      <trkpt lat="64.76095" lon="20.973">
        <ele>69.440761</ele>
        <time>2020-09-28T10:04:12.560Z</time>
      </trkpt>
      <trkpt lat="64.76094" lon="20.97278">
        <ele>69.085769</ele>
        <time>2020-09-28T10:04:13.625Z</time>
      </trkpt>
      <trkpt lat="64.76091" lon="20.97238">
        <ele>68.436602</ele>
        <time>2020-09-28T10:04:15.637Z</time>
      </trkpt>
      <trkpt lat="64.76089" lon="20.97203">
        <ele>67.859237</ele>
        <time>2020-09-28T10:04:17.560Z</time>
      </trkpt>
      <trkpt lat="64.76087" lon="20.97171">
        <ele>67.342452</ele>
        <time>2020-09-28T10:04:19.612Z</time>
      </trkpt>
      <trkpt lat="64.76081" lon="20.97147">
        <ele>66.893986</ele>
        <time>2020-09-28T10:04:21.551Z</time>
      </trkpt>
      <trkpt lat="64.7607" lon="20.97142">
        <ele>66.489466</ele>
        <time>2020-09-28T10:04:23.580Z</time>
      </trkpt>
      <trkpt lat="64.76058" lon="20.97148">
        <ele>66.022993</ele>
        <time>2020-09-28T10:04:25.567Z</time>
      </trkpt>
      <trkpt lat="64.76044" lon="20.97156">
        <ele>65.479454</ele>
        <time>2020-09-28T10:04:27.553Z</time>
      </trkpt>
      <trkpt lat="64.76032" lon="20.97155">
        <ele>65.052649</ele>
        <time>2020-09-28T10:04:29.552Z</time>
      </trkpt>
      <trkpt lat="64.76024" lon="20.97138">
        <ele>64.646333</ele>
        <time>2020-09-28T10:04:31.581Z</time>
      </trkpt>
      <trkpt lat="64.76019" lon="20.97111">
        <ele>64.186011</ele>
        <time>2020-09-28T10:04:33.573Z</time>
      </trkpt>
      <trkpt lat="64.76015" lon="20.97087">
        <ele>63.780468</ele>
        <time>2020-09-28T10:04:35.571Z</time>
      </trkpt>
      <trkpt lat="64.76012" lon="20.97067">
        <ele>63.438527</ele>
        <time>2020-09-28T10:04:37.558Z</time>
      </trkpt>
      <trkpt lat="64.76008" lon="20.97047">
        <ele>63.090674</ele>
        <time>2020-09-28T10:04:39.572Z</time>
      </trkpt>
      <trkpt lat="64.76003" lon="20.97028">
        <ele>62.743485</ele>
        <time>2020-09-28T10:04:41.562Z</time>
      </trkpt>
      <trkpt lat="64.75996" lon="20.97001">
        <ele>62.264052</ele>
        <time>2020-09-28T10:04:44.575Z</time>
      </trkpt>
      <trkpt lat="64.75991" lon="20.96973">
        <ele>61.784716</ele>
        <time>2020-09-28T10:04:47.592Z</time>
      </trkpt>
      <trkpt lat="64.75985" lon="20.96947">
        <ele>61.313644</ele>
        <time>2020-09-28T10:04:50.570Z</time>
      </trkpt>
      <trkpt lat="64.75979" lon="20.96922">
        <ele>60.866011</ele>
        <time>2020-09-28T10:04:53.577Z</time>
      </trkpt>
      <trkpt lat="64.75973" lon="20.96899">
        <ele>60.456564</ele>
        <time>2020-09-28T10:04:56.575Z</time>
      </trkpt>
      <trkpt lat="64.75968" lon="20.96878">
        <ele>60.060125</ele>
        <time>2020-09-28T10:04:59.564Z</time>
      </trkpt>
      <trkpt lat="64.75965" lon="20.96854">
        <ele>59.671941</ele>
        <time>2020-09-28T10:05:02.554Z</time>
      </trkpt>
      <trkpt lat="64.7596" lon="20.96834">
        <ele>59.463412</ele>
        <time>2020-09-28T10:05:05.578Z</time>
      </trkpt>
      <trkpt lat="64.75954" lon="20.96813">
        <ele>59.243609</ele>
        <time>2020-09-28T10:05:08.550Z</time>
      </trkpt>
      <trkpt lat="64.75946" lon="20.96788">
        <ele>58.964529</ele>
        <time>2020-09-28T10:05:11.573Z</time>
      </trkpt>
      <trkpt lat="64.7594" lon="20.96767">
        <ele>58.742795</ele>
        <time>2020-09-28T10:05:13.552Z</time>
      </trkpt>
      <trkpt lat="64.75934" lon="20.96747">
        <ele>58.517476</ele>
        <time>2020-09-28T10:05:15.582Z</time>
      </trkpt>
      <trkpt lat="64.75927" lon="20.96726">
        <ele>58.286005</ele>
        <time>2020-09-28T10:05:17.562Z</time>
      </trkpt>
      <trkpt lat="64.75919" lon="20.96706">
        <ele>58.038899</ele>
        <time>2020-09-28T10:05:19.550Z</time>
      </trkpt>
      <trkpt lat="64.7591" lon="20.96681">
        <ele>57.761167</ele>
        <time>2020-09-28T10:05:21.554Z</time>
      </trkpt>
      <trkpt lat="64.75901" lon="20.96653">
        <ele>57.441252</ele>
        <time>2020-09-28T10:05:23.558Z</time>
      </trkpt>
      <trkpt lat="64.7589" lon="20.96623">
        <ele>57.08981</ele>
        <time>2020-09-28T10:05:25.593Z</time>
      </trkpt>
      <trkpt lat="64.75878" lon="20.96593">
        <ele>56.736709</ele>
        <time>2020-09-28T10:05:27.572Z</time>
      </trkpt>
      <trkpt lat="64.75867" lon="20.96566">
        <ele>56.401331</ele>
        <time>2020-09-28T10:05:29.577Z</time>
      </trkpt>
      <trkpt lat="64.75856" lon="20.96542">
        <ele>56.090989</ele>
        <time>2020-09-28T10:05:31.597Z</time>
      </trkpt>
      <trkpt lat="64.75846" lon="20.96517">
        <ele>55.913457</ele>
        <time>2020-09-28T10:05:33.573Z</time>
      </trkpt>
      <trkpt lat="64.75837" lon="20.96494">
        <ele>55.879216</ele>
        <time>2020-09-28T10:05:35.576Z</time>
      </trkpt>
      <trkpt lat="64.75829" lon="20.96472">
        <ele>55.849162</ele>
        <time>2020-09-28T10:05:37.575Z</time>
      </trkpt>
      <trkpt lat="64.75823" lon="20.96449">
        <ele>55.820553</ele>
        <time>2020-09-28T10:05:39.574Z</time>
      </trkpt>
      <trkpt lat="64.75821" lon="20.96426">
        <ele>55.794757</ele>
        <time>2020-09-28T10:05:41.555Z</time>
      </trkpt>
      <trkpt lat="64.75815" lon="20.96406">
        <ele>55.768918</ele>
        <time>2020-09-28T10:05:45.547Z</time>
      </trkpt>
      <trkpt lat="64.75805" lon="20.96405">
        <ele>55.742398</ele>
        <time>2020-09-28T10:05:49.571Z</time>
      </trkpt>
      <trkpt lat="64.75794" lon="20.96396">
        <ele>55.712926</ele>
        <time>2020-09-28T10:05:52.567Z</time>
      </trkpt>
      <trkpt lat="64.75785" lon="20.96391">
        <ele>55.68923</ele>
        <time>2020-09-28T10:05:54.556Z</time>
      </trkpt>
      <trkpt lat="64.75775" lon="20.96387">
        <ele>55.665061</ele>
        <time>2020-09-28T10:05:56.570Z</time>
      </trkpt>
      <trkpt lat="64.75767" lon="20.96379">
        <ele>55.641741</ele>
        <time>2020-09-28T10:05:58.602Z</time>
      </trkpt>
      <trkpt lat="64.75759" lon="20.96368">
        <ele>55.618042</ele>
        <time>2020-09-28T10:06:00.569Z</time>
      </trkpt>
      <trkpt lat="64.75749" lon="20.96359">
        <ele>55.591991</ele>
        <time>2020-09-28T10:06:02.548Z</time>
      </trkpt>
      <trkpt lat="64.75739" lon="20.96353">
        <ele>55.566713</ele>
        <time>2020-09-28T10:06:04.561Z</time>
      </trkpt>
      <trkpt lat="64.75728" lon="20.96344">
        <ele>55.536732</ele>
        <time>2020-09-28T10:06:07.573Z</time>
      </trkpt>
      <trkpt lat="64.75718" lon="20.96336">
        <ele>55.510473</ele>
        <time>2020-09-28T10:06:10.553Z</time>
      </trkpt>
      <trkpt lat="64.7571" lon="20.96327">
        <ele>55.486937</ele>
        <time>2020-09-28T10:06:13.557Z</time>
      </trkpt>
      <trkpt lat="64.75703" lon="20.96311">
        <ele>55.543661</ele>
        <time>2020-09-28T10:06:17.569Z</time>
      </trkpt>
      <trkpt lat="64.7571" lon="20.96324">
        <ele>55.659714</ele>
        <time>2020-09-28T10:06:28.563Z</time>
      </trkpt>
      <trkpt lat="64.75721" lon="20.96334">
        <ele>55.803351</ele>
        <time>2020-09-28T10:06:31.611Z</time>
      </trkpt>
      <trkpt lat="64.75731" lon="20.96342">
        <ele>55.931252</ele>
        <time>2020-09-28T10:06:34.552Z</time>
      </trkpt>
      <trkpt lat="64.75739" lon="20.96351">
        <ele>56.045139</ele>
        <time>2020-09-28T10:06:37.541Z</time>
      </trkpt>
      <trkpt lat="64.7573" lon="20.96334">
        <ele>56.187139</ele>
        <time>2020-09-28T10:06:47.554Z</time>
      </trkpt>
      <trkpt lat="64.75721" lon="20.96326">
        <ele>56.307226</ele>
        <time>2020-09-28T10:06:50.540Z</time>
      </trkpt>
      <trkpt lat="64.75712" lon="20.96342">
        <ele>56.44604</ele>
        <time>2020-09-28T10:06:54.549Z</time>
      </trkpt>
      <trkpt lat="64.75707" lon="20.96361">
        <ele>56.566685</ele>
        <time>2020-09-28T10:06:57.551Z</time>
      </trkpt>
      <trkpt lat="64.75698" lon="20.96396">
        <ele>56.789502</ele>
        <time>2020-09-28T10:07:00.543Z</time>
      </trkpt>
      <trkpt lat="64.7569" lon="20.96407">
        <ele>56.904108</ele>
        <time>2020-09-28T10:07:02.575Z</time>
      </trkpt>
      <trkpt lat="64.75687" lon="20.96432">
        <ele>57.040538</ele>
        <time>2020-09-28T10:07:05.579Z</time>
      </trkpt>
      <trkpt lat="64.75683" lon="20.96457">
        <ele>57.182489</ele>
        <time>2020-09-28T10:07:08.576Z</time>
      </trkpt>
      <trkpt lat="64.75679" lon="20.96477">
        <ele>57.305215</ele>
        <time>2020-09-28T10:07:11.552Z</time>
      </trkpt>
      <trkpt lat="64.75674" lon="20.96501">
        <ele>57.444713</ele>
        <time>2020-09-28T10:07:14.558Z</time>
      </trkpt>
      <trkpt lat="64.7567" lon="20.9653">
        <ele>57.609805</ele>
        <time>2020-09-28T10:07:17.548Z</time>
      </trkpt>
      <trkpt lat="64.75666" lon="20.96558">
        <ele>57.740375</ele>
        <time>2020-09-28T10:07:20.539Z</time>
      </trkpt>
      <trkpt lat="64.75663" lon="20.96578">
        <ele>57.759738</ele>
        <time>2020-09-28T10:07:22.562Z</time>
      </trkpt>
      <trkpt lat="64.75658" lon="20.96596">
        <ele>57.77924</ele>
        <time>2020-09-28T10:07:24.570Z</time>
      </trkpt>
      <trkpt lat="64.75648" lon="20.96605">
        <ele>57.80167</ele>
        <time>2020-09-28T10:07:27.557Z</time>
      </trkpt>
      <trkpt lat="64.75638" lon="20.96594">
        <ele>57.825688</ele>
        <time>2020-09-28T10:07:30.550Z</time>
      </trkpt>
      <trkpt lat="64.75627" lon="20.96582">
        <ele>57.85274</ele>
        <time>2020-09-28T10:07:33.574Z</time>
      </trkpt>
      <trkpt lat="64.75616" lon="20.96569">
        <ele>57.87878</ele>
        <time>2020-09-28T10:07:36.596Z</time>
      </trkpt>
      <trkpt lat="64.75604" lon="20.96557">
        <ele>57.906542</ele>
        <time>2020-09-28T10:07:39.559Z</time>
      </trkpt>
      <trkpt lat="64.75595" lon="20.96549">
        <ele>57.92716</ele>
        <time>2020-09-28T10:07:41.587Z</time>
      </trkpt>
      <trkpt lat="64.75583" lon="20.96539">
        <ele>57.953628</ele>
        <time>2020-09-28T10:07:44.545Z</time>
      </trkpt>
      <trkpt lat="64.75571" lon="20.96527">
        <ele>57.983403</ele>
        <time>2020-09-28T10:07:47.556Z</time>
      </trkpt>
      <trkpt lat="64.75561" lon="20.96518">
        <ele>58.005626</ele>
        <time>2020-09-28T10:07:49.574Z</time>
      </trkpt>
      <trkpt lat="64.75551" lon="20.9651">
        <ele>58.028605</ele>
        <time>2020-09-28T10:07:51.583Z</time>
      </trkpt>
      <trkpt lat="64.75542" lon="20.96503">
        <ele>58.048579</ele>
        <time>2020-09-28T10:07:53.561Z</time>
      </trkpt>
      <trkpt lat="64.75533" lon="20.96495">
        <ele>58.06853</ele>
        <time>2020-09-28T10:07:55.558Z</time>
      </trkpt>
      <trkpt lat="64.75525" lon="20.96486">
        <ele>58.089288</ele>
        <time>2020-09-28T10:07:57.539Z</time>
      </trkpt>
      <trkpt lat="64.75516" lon="20.96477">
        <ele>58.109324</ele>
        <time>2020-09-28T10:07:59.571Z</time>
      </trkpt>
      <trkpt lat="64.75503" lon="20.96466">
        <ele>57.83397</ele>
        <time>2020-09-28T10:08:02.575Z</time>
      </trkpt>
      <trkpt lat="64.75493" lon="20.96458">
        <ele>57.469544</ele>
        <time>2020-09-28T10:08:04.561Z</time>
      </trkpt>
      <trkpt lat="64.75484" lon="20.9645">
        <ele>57.109655</ele>
        <time>2020-09-28T10:08:06.580Z</time>
      </trkpt>
      <trkpt lat="64.75475" lon="20.96439">
        <ele>56.754614</ele>
        <time>2020-09-28T10:08:08.552Z</time>
      </trkpt>
      <trkpt lat="64.75465" lon="20.96429">
        <ele>56.370341</ele>
        <time>2020-09-28T10:08:10.570Z</time>
      </trkpt>
      <trkpt lat="64.75456" lon="20.96419">
        <ele>56.031196</ele>
        <time>2020-09-28T10:08:12.550Z</time>
      </trkpt>
      <trkpt lat="64.75444" lon="20.96408">
        <ele>55.574963</ele>
        <time>2020-09-28T10:08:15.562Z</time>
      </trkpt>
      <trkpt lat="64.75432" lon="20.964">
        <ele>55.141615</ele>
        <time>2020-09-28T10:08:18.562Z</time>
      </trkpt>
      <trkpt lat="64.7542" lon="20.96406">
        <ele>54.729383</ele>
        <time>2020-09-28T10:08:21.554Z</time>
      </trkpt>
      <trkpt lat="64.75407" lon="20.96396">
        <ele>54.249547</ele>
        <time>2020-09-28T10:08:24.555Z</time>
      </trkpt>
      <trkpt lat="64.75398" lon="20.96382">
        <ele>53.871998</ele>
        <time>2020-09-28T10:08:26.569Z</time>
      </trkpt>
      <trkpt lat="64.75388" lon="20.96367">
        <ele>53.449881</ele>
        <time>2020-09-28T10:08:28.551Z</time>
      </trkpt>
      <trkpt lat="64.75375" lon="20.96353">
        <ele>52.939913</ele>
        <time>2020-09-28T10:08:30.541Z</time>
      </trkpt>
      <trkpt lat="64.75362" lon="20.9634">
        <ele>52.462306</ele>
        <time>2020-09-28T10:08:32.553Z</time>
      </trkpt>
      <trkpt lat="64.75351" lon="20.9633">
        <ele>52.025044</ele>
        <time>2020-09-28T10:08:34.542Z</time>
      </trkpt>
      <trkpt lat="64.7534" lon="20.96327">
        <ele>51.806322</ele>
        <time>2020-09-28T10:08:36.565Z</time>
      </trkpt>
      <trkpt lat="64.75332" lon="20.96337">
        <ele>51.791968</ele>
        <time>2020-09-28T10:08:39.538Z</time>
      </trkpt>
      <trkpt lat="64.75326" lon="20.96354">
        <ele>51.777284</ele>
        <time>2020-09-28T10:08:45.555Z</time>
      </trkpt>
      <trkpt lat="64.75323" lon="20.96379">
        <ele>51.760334</ele>
        <time>2020-09-28T10:08:51.552Z</time>
      </trkpt>
      <trkpt lat="64.75323" lon="20.96402">
        <ele>51.744721</ele>
        <time>2020-09-28T10:08:55.555Z</time>
      </trkpt>
      <trkpt lat="64.75321" lon="20.96423">
        <ele>51.730508</ele>
        <time>2020-09-28T10:08:59.546Z</time>
      </trkpt>
      <trkpt lat="64.7532" lon="20.96447">
        <ele>51.714943</ele>
        <time>2020-09-28T10:09:03.591Z</time>
      </trkpt>
      <trkpt lat="64.75318" lon="20.96471">
        <ele>51.698701</ele>
        <time>2020-09-28T10:09:07.542Z</time>
      </trkpt>
      <trkpt lat="64.75316" lon="20.96497">
        <ele>51.681403</ele>
        <time>2020-09-28T10:09:11.550Z</time>
      </trkpt>
      <trkpt lat="64.75315" lon="20.96521">
        <ele>51.665029</ele>
        <time>2020-09-28T10:09:15.553Z</time>
      </trkpt>
      <trkpt lat="64.75314" lon="20.96544">
        <ele>51.64963</ele>
        <time>2020-09-28T10:09:19.559Z</time>
      </trkpt>
      <trkpt lat="64.75313" lon="20.96569">
        <ele>51.633084</ele>
        <time>2020-09-28T10:09:23.556Z</time>
      </trkpt>
      <trkpt lat="64.7531" lon="20.96593">
        <ele>51.6169</ele>
        <time>2020-09-28T10:09:27.557Z</time>
      </trkpt>
      <trkpt lat="64.75308" lon="20.96619">
        <ele>51.599387</ele>
        <time>2020-09-28T10:09:31.554Z</time>
      </trkpt>
      <trkpt lat="64.75306" lon="20.96641">
        <ele>51.584236</ele>
        <time>2020-09-28T10:09:34.582Z</time>
      </trkpt>
      <trkpt lat="64.75304" lon="20.96664">
        <ele>51.56852</ele>
        <time>2020-09-28T10:09:37.541Z</time>
      </trkpt>
      <trkpt lat="64.75302" lon="20.96687">
        <ele>51.552985</ele>
        <time>2020-09-28T10:09:40.561Z</time>
      </trkpt>
      <trkpt lat="64.75301" lon="20.96709">
        <ele>51.538452</ele>
        <time>2020-09-28T10:09:43.569Z</time>
      </trkpt>
      <trkpt lat="64.75299" lon="20.96732">
        <ele>51.498199</ele>
        <time>2020-09-28T10:09:46.593Z</time>
      </trkpt>
      <trkpt lat="64.75298" lon="20.96756">
        <ele>51.448727</ele>
        <time>2020-09-28T10:09:49.556Z</time>
      </trkpt>
      <trkpt lat="64.75297" lon="20.96777">
        <ele>51.403585</ele>
        <time>2020-09-28T10:09:52.556Z</time>
      </trkpt>
      <trkpt lat="64.75296" lon="20.96798">
        <ele>51.358521</ele>
        <time>2020-09-28T10:09:55.583Z</time>
      </trkpt>
      <trkpt lat="64.75295" lon="20.96823">
        <ele>51.304351</ele>
        <time>2020-09-28T10:09:59.563Z</time>
      </trkpt>
      <trkpt lat="64.75296" lon="20.96844">
        <ele>51.258725</ele>
        <time>2020-09-28T10:10:04.561Z</time>
      </trkpt>
      <trkpt lat="64.75299" lon="20.96822">
        <ele>51.207665</ele>
        <time>2020-09-28T10:10:10.557Z</time>
      </trkpt>
      <trkpt lat="64.753" lon="20.96801">
        <ele>51.162791</ele>
        <time>2020-09-28T10:10:13.553Z</time>
      </trkpt>
      <trkpt lat="64.75302" lon="20.96777">
        <ele>51.112822</ele>
        <time>2020-09-28T10:10:16.573Z</time>
      </trkpt>
      <trkpt lat="64.75302" lon="20.96753">
        <ele>51.061131</ele>
        <time>2020-09-28T10:10:19.554Z</time>
      </trkpt>
      <trkpt lat="64.75303" lon="20.96718">
        <ele>50.986353</ele>
        <time>2020-09-28T10:11:09.571Z</time>
      </trkpt>
      <trkpt lat="64.75305" lon="20.96696">
        <ele>50.938573</ele>
        <time>2020-09-28T10:11:13.538Z</time>
      </trkpt>
      <trkpt lat="64.75306" lon="20.96671">
        <ele>50.885249</ele>
        <time>2020-09-28T10:11:17.548Z</time>
      </trkpt>
      <trkpt lat="64.75307" lon="20.96646">
        <ele>50.831068</ele>
        <time>2020-09-28T10:11:21.573Z</time>
      </trkpt>
      <trkpt lat="64.75309" lon="20.96619">
        <ele>50.773873</ele>
        <time>2020-09-28T10:11:25.557Z</time>
      </trkpt>
      <trkpt lat="64.75311" lon="20.96597">
        <ele>50.725721</ele>
        <time>2020-09-28T10:11:28.605Z</time>
      </trkpt>
      <trkpt lat="64.75312" lon="20.96574">
        <ele>50.676173</ele>
        <time>2020-09-28T10:11:31.561Z</time>
      </trkpt>
      <trkpt lat="64.75314" lon="20.96548">
        <ele>50.575852</ele>
        <time>2020-09-28T10:11:34.631Z</time>
      </trkpt>
      <trkpt lat="64.75316" lon="20.96519">
        <ele>50.366354</ele>
        <time>2020-09-28T10:11:37.566Z</time>
      </trkpt>
      <trkpt lat="64.75317" lon="20.96489">
        <ele>50.147531</ele>
        <time>2020-09-28T10:11:40.555Z</time>
      </trkpt>
      <trkpt lat="64.75318" lon="20.96461">
        <ele>49.940106</ele>
        <time>2020-09-28T10:11:43.615Z</time>
      </trkpt>
      <trkpt lat="64.75319" lon="20.96429">
        <ele>49.705058</ele>
        <time>2020-09-28T10:11:46.555Z</time>
      </trkpt>
      <trkpt lat="64.7532" lon="20.96405">
        <ele>49.533752</ele>
        <time>2020-09-28T10:11:48.562Z</time>
      </trkpt>
      <trkpt lat="64.75321" lon="20.9638">
        <ele>49.348951</ele>
        <time>2020-09-28T10:11:50.573Z</time>
      </trkpt>
      <trkpt lat="64.75323" lon="20.96356">
        <ele>49.173589</ele>
        <time>2020-09-28T10:11:52.554Z</time>
      </trkpt>
      <trkpt lat="64.75324" lon="20.96332">
        <ele>48.996061</ele>
        <time>2020-09-28T10:11:54.555Z</time>
      </trkpt>
      <trkpt lat="64.75325" lon="20.96302">
        <ele>48.781208</ele>
        <time>2020-09-28T10:11:57.553Z</time>
      </trkpt>
      <trkpt lat="64.75325" lon="20.96275">
        <ele>48.583229</ele>
        <time>2020-09-28T10:12:00.571Z</time>
      </trkpt>
      <trkpt lat="64.75323" lon="20.96249">
        <ele>48.390394</ele>
        <time>2020-09-28T10:12:03.577Z</time>
      </trkpt>
      <trkpt lat="64.75324" lon="20.96224">
        <ele>48.211302</ele>
        <time>2020-09-28T10:12:06.557Z</time>
      </trkpt>
      <trkpt lat="64.75326" lon="20.96198">
        <ele>48.013153</ele>
        <time>2020-09-28T10:12:09.593Z</time>
      </trkpt>
      <trkpt lat="64.75328" lon="20.96171">
        <ele>47.812221</ele>
        <time>2020-09-28T10:12:12.563Z</time>
      </trkpt>
      <trkpt lat="64.7533" lon="20.96143">
        <ele>47.607924</ele>
        <time>2020-09-28T10:12:15.581Z</time>
      </trkpt>
      <trkpt lat="64.75332" lon="20.96115">
        <ele>47.372317</ele>
        <time>2020-09-28T10:12:18.596Z</time>
      </trkpt>
      <trkpt lat="64.75337" lon="20.96091">
        <ele>47.148725</ele>
        <time>2020-09-28T10:12:21.545Z</time>
      </trkpt>
      <trkpt lat="64.75341" lon="20.96065">
        <ele>46.915659</ele>
        <time>2020-09-28T10:12:24.563Z</time>
      </trkpt>
      <trkpt lat="64.75348" lon="20.96043">
        <ele>46.682708</ele>
        <time>2020-09-28T10:12:27.563Z</time>
      </trkpt>
      <trkpt lat="64.7536" lon="20.96034">
        <ele>46.444646</ele>
        <time>2020-09-28T10:12:30.570Z</time>
      </trkpt>
      <trkpt lat="64.75369" lon="20.96037">
        <ele>46.252003</ele>
        <time>2020-09-28T10:12:32.601Z</time>
      </trkpt>
      <trkpt lat="64.75377" lon="20.96048">
        <ele>46.073002</ele>
        <time>2020-09-28T10:12:34.613Z</time>
      </trkpt>
      <trkpt lat="64.75384" lon="20.96063">
        <ele>45.884717</ele>
        <time>2020-09-28T10:12:36.568Z</time>
      </trkpt>
      <trkpt lat="64.75386" lon="20.96085">
        <ele>45.691746</ele>
        <time>2020-09-28T10:12:38.570Z</time>
      </trkpt>
      <trkpt lat="64.75381" lon="20.96112">
        <ele>45.441655</ele>
        <time>2020-09-28T10:12:40.564Z</time>
      </trkpt>
      <trkpt lat="64.7537" lon="20.96133">
        <ele>45.161076</ele>
        <time>2020-09-28T10:12:42.559Z</time>
      </trkpt>
      <trkpt lat="64.75356" lon="20.9614">
        <ele>44.867644</ele>
        <time>2020-09-28T10:12:44.545Z</time>
      </trkpt>
      <trkpt lat="64.7534" lon="20.96137">
        <ele>44.557004</ele>
        <time>2020-09-28T10:12:46.563Z</time>
      </trkpt>
      <trkpt lat="64.75327" lon="20.96133">
        <ele>44.284756</ele>
        <time>2020-09-28T10:12:48.564Z</time>
      </trkpt>
      <trkpt lat="64.75315" lon="20.9613">
        <ele>44.047123</ele>
        <time>2020-09-28T10:12:50.551Z</time>
      </trkpt>
      <trkpt lat="64.75302" lon="20.96126">
        <ele>43.822329</ele>
        <time>2020-09-28T10:12:52.553Z</time>
      </trkpt>
      <trkpt lat="64.75291" lon="20.96122">
        <ele>43.637733</ele>
        <time>2020-09-28T10:12:54.550Z</time>
      </trkpt>
      <trkpt lat="64.75277" lon="20.96116">
        <ele>43.40328</ele>
        <time>2020-09-28T10:12:56.552Z</time>
      </trkpt>
      <trkpt lat="64.75262" lon="20.96117">
        <ele>43.158931</ele>
        <time>2020-09-28T10:12:58.553Z</time>
      </trkpt>
      <trkpt lat="64.75249" lon="20.96116">
        <ele>42.941251</ele>
        <time>2020-09-28T10:13:00.573Z</time>
      </trkpt>
      <trkpt lat="64.75238" lon="20.96113">
        <ele>42.747874</ele>
        <time>2020-09-28T10:13:02.578Z</time>
      </trkpt>
      <trkpt lat="64.75229" lon="20.96108">
        <ele>42.594408</ele>
        <time>2020-09-28T10:13:04.558Z</time>
      </trkpt>
      <trkpt lat="64.75219" lon="20.96104">
        <ele>42.422393</ele>
        <time>2020-09-28T10:13:06.546Z</time>
      </trkpt>
      <trkpt lat="64.75206" lon="20.961">
        <ele>42.204858</ele>
        <time>2020-09-28T10:13:09.559Z</time>
      </trkpt>
      <trkpt lat="64.75196" lon="20.96097">
        <ele>42.036084</ele>
        <time>2020-09-28T10:13:11.557Z</time>
      </trkpt>
      <trkpt lat="64.75185" lon="20.96093">
        <ele>41.853565</ele>
        <time>2020-09-28T10:13:13.546Z</time>
      </trkpt>
      <trkpt lat="64.75173" lon="20.96093">
        <ele>41.644418</ele>
        <time>2020-09-28T10:13:15.594Z</time>
      </trkpt>
      <trkpt lat="64.75162" lon="20.9609">
        <ele>41.457546</ele>
        <time>2020-09-28T10:13:17.585Z</time>
      </trkpt>
      <trkpt lat="64.75152" lon="20.96087">
        <ele>41.29209</ele>
        <time>2020-09-28T10:13:19.564Z</time>
      </trkpt>
      <trkpt lat="64.75139" lon="20.9608">
        <ele>41.078176</ele>
        <time>2020-09-28T10:13:22.550Z</time>
      </trkpt>
      <trkpt lat="64.75127" lon="20.96072">
        <ele>41.026263</ele>
        <time>2020-09-28T10:13:25.544Z</time>
      </trkpt>
      <trkpt lat="64.75119" lon="20.96067">
        <ele>41.070553</ele>
        <time>2020-09-28T10:13:27.570Z</time>
      </trkpt>
      <trkpt lat="64.75105" lon="20.96062">
        <ele>41.137499</ele>
        <time>2020-09-28T10:13:30.562Z</time>
      </trkpt>
      <trkpt lat="64.75092" lon="20.96059">
        <ele>41.202642</ele>
        <time>2020-09-28T10:13:33.563Z</time>
      </trkpt>
      <trkpt lat="64.75082" lon="20.96055">
        <ele>41.250726</ele>
        <time>2020-09-28T10:13:35.587Z</time>
      </trkpt>
      <trkpt lat="64.75072" lon="20.96051">
        <ele>41.299957</ele>
        <time>2020-09-28T10:13:37.550Z</time>
      </trkpt>
      <trkpt lat="64.75062" lon="20.96047">
        <ele>41.350591</ele>
        <time>2020-09-28T10:13:39.560Z</time>
      </trkpt>
      <trkpt lat="64.75052" lon="20.96042">
        <ele>41.401226</ele>
        <time>2020-09-28T10:13:41.554Z</time>
      </trkpt>
      <trkpt lat="64.75042" lon="20.96036">
        <ele>41.45313</ele>
        <time>2020-09-28T10:13:43.558Z</time>
      </trkpt>
      <trkpt lat="64.7503" lon="20.96033">
        <ele>41.507824</ele>
        <time>2020-09-28T10:13:45.580Z</time>
      </trkpt>
      <trkpt lat="64.7502" lon="20.96029">
        <ele>41.557706</ele>
        <time>2020-09-28T10:13:47.549Z</time>
      </trkpt>
      <trkpt lat="64.75011" lon="20.96027">
        <ele>41.605384</ele>
        <time>2020-09-28T10:13:49.548Z</time>
      </trkpt>
      <trkpt lat="64.75001" lon="20.96026">
        <ele>41.651856</ele>
        <time>2020-09-28T10:13:51.593Z</time>
      </trkpt>
      <trkpt lat="64.74991" lon="20.96024">
        <ele>41.700422</ele>
        <time>2020-09-28T10:13:53.560Z</time>
      </trkpt>
      <trkpt lat="64.74981" lon="20.96021">
        <ele>41.752433</ele>
        <time>2020-09-28T10:13:55.581Z</time>
      </trkpt>
      <trkpt lat="64.74969" lon="20.96018">
        <ele>41.808692</ele>
        <time>2020-09-28T10:13:57.554Z</time>
      </trkpt>
      <trkpt lat="64.74958" lon="20.96015">
        <ele>41.865139</ele>
        <time>2020-09-28T10:13:59.570Z</time>
      </trkpt>
      <trkpt lat="64.74946" lon="20.96012">
        <ele>41.897635</ele>
        <time>2020-09-28T10:14:01.560Z</time>
      </trkpt>
      <trkpt lat="64.74937" lon="20.9601">
        <ele>41.923964</ele>
        <time>2020-09-28T10:14:03.556Z</time>
      </trkpt>
      <trkpt lat="64.74927" lon="20.96008">
        <ele>41.950628</ele>
        <time>2020-09-28T10:14:06.560Z</time>
      </trkpt>
      <trkpt lat="64.74918" lon="20.96005">
        <ele>41.974886</ele>
        <time>2020-09-28T10:14:10.576Z</time>
      </trkpt>
      <trkpt lat="64.74906" lon="20.96002">
        <ele>42.00692</ele>
        <time>2020-09-28T10:14:13.557Z</time>
      </trkpt>
      <trkpt lat="64.74893" lon="20.96">
        <ele>42.041032</ele>
        <time>2020-09-28T10:14:16.554Z</time>
      </trkpt>
      <trkpt lat="64.74881" lon="20.95996">
        <ele>42.07498</ele>
        <time>2020-09-28T10:14:19.557Z</time>
      </trkpt>
      <trkpt lat="64.74871" lon="20.95993">
        <ele>42.100173</ele>
        <time>2020-09-28T10:14:21.591Z</time>
      </trkpt>
      <trkpt lat="64.74861" lon="20.9599">
        <ele>42.128498</ele>
        <time>2020-09-28T10:14:23.602Z</time>
      </trkpt>
      <trkpt lat="64.7485" lon="20.95988">
        <ele>42.157495</ele>
        <time>2020-09-28T10:14:25.554Z</time>
      </trkpt>
      <trkpt lat="64.7484" lon="20.95985">
        <ele>42.184199</ele>
        <time>2020-09-28T10:14:27.566Z</time>
      </trkpt>
      <trkpt lat="64.74829" lon="20.95979">
        <ele>42.213855</ele>
        <time>2020-09-28T10:14:30.602Z</time>
      </trkpt>
      <trkpt lat="64.7482" lon="20.95982">
        <ele>42.239721</ele>
        <time>2020-09-28T10:14:34.551Z</time>
      </trkpt>
      <trkpt lat="64.74809" lon="20.95991">
        <ele>42.270943</ele>
        <time>2020-09-28T10:14:38.569Z</time>
      </trkpt>
      <trkpt lat="64.74799" lon="20.95988">
        <ele>42.29713</ele>
        <time>2020-09-28T10:14:41.573Z</time>
      </trkpt>
      <trkpt lat="64.74787" lon="20.95985">
        <ele>42.329109</ele>
        <time>2020-09-28T10:14:44.572Z</time>
      </trkpt>
      <trkpt lat="64.74775" lon="20.95982">
        <ele>42.137535</ele>
        <time>2020-09-28T10:14:47.581Z</time>
      </trkpt>
      <trkpt lat="64.74764" lon="20.95977">
        <ele>41.507156</ele>
        <time>2020-09-28T10:14:50.600Z</time>
      </trkpt>
      <trkpt lat="64.74752" lon="20.95974">
        <ele>40.859073</ele>
        <time>2020-09-28T10:14:53.565Z</time>
      </trkpt>
      <trkpt lat="64.7474" lon="20.95972">
        <ele>40.168411</ele>
        <time>2020-09-28T10:14:56.571Z</time>
      </trkpt>
      <trkpt lat="64.74727" lon="20.95971">
        <ele>39.457746</ele>
        <time>2020-09-28T10:14:59.617Z</time>
      </trkpt>
      <trkpt lat="64.74714" lon="20.9597">
        <ele>38.741108</ele>
        <time>2020-09-28T10:15:02.606Z</time>
      </trkpt>
      <trkpt lat="64.74705" lon="20.95969">
        <ele>38.218781</ele>
        <time>2020-09-28T10:15:04.554Z</time>
      </trkpt>
      <trkpt lat="64.74695" lon="20.95968">
        <ele>37.696217</ele>
        <time>2020-09-28T10:15:06.552Z</time>
      </trkpt>
      <trkpt lat="64.74686" lon="20.95966">
        <ele>37.18966</ele>
        <time>2020-09-28T10:15:08.573Z</time>
      </trkpt>
      <trkpt lat="64.74677" lon="20.95965">
        <ele>36.661676</ele>
        <time>2020-09-28T10:15:10.548Z</time>
      </trkpt>
      <trkpt lat="64.74667" lon="20.95965">
        <ele>36.11211</ele>
        <time>2020-09-28T10:15:12.558Z</time>
      </trkpt>
      <trkpt lat="64.74657" lon="20.95964">
        <ele>35.567786</ele>
        <time>2020-09-28T10:15:14.573Z</time>
      </trkpt>
      <trkpt lat="64.74648" lon="20.95963">
        <ele>35.039913</ele>
        <time>2020-09-28T10:15:16.553Z</time>
      </trkpt>
      <trkpt lat="64.74638" lon="20.95962">
        <ele>34.517215</ele>
        <time>2020-09-28T10:15:18.583Z</time>
      </trkpt>
      <trkpt lat="64.74628" lon="20.9596">
        <ele>33.976895</ele>
        <time>2020-09-28T10:15:20.563Z</time>
      </trkpt>
      <trkpt lat="64.74619" lon="20.95957">
        <ele>33.473812</ele>
        <time>2020-09-28T10:15:22.562Z</time>
      </trkpt>
      <trkpt lat="64.74607" lon="20.9595">
        <ele>32.762946</ele>
        <time>2020-09-28T10:15:25.547Z</time>
      </trkpt>
      <trkpt lat="64.74595" lon="20.95941">
        <ele>32.701474</ele>
        <time>2020-09-28T10:15:28.614Z</time>
      </trkpt>
      <trkpt lat="64.74583" lon="20.95936">
        <ele>33.441304</ele>
        <time>2020-09-28T10:15:31.567Z</time>
      </trkpt>
      <trkpt lat="64.7457" lon="20.95934">
        <ele>34.240927</ele>
        <time>2020-09-28T10:15:34.556Z</time>
      </trkpt>
      <trkpt lat="64.74558" lon="20.95932">
        <ele>35.016605</ele>
        <time>2020-09-28T10:15:37.552Z</time>
      </trkpt>
      <trkpt lat="64.74545" lon="20.9593">
        <ele>35.793761</ele>
        <time>2020-09-28T10:15:40.552Z</time>
      </trkpt>
      <trkpt lat="64.74532" lon="20.95926">
        <ele>36.634082</ele>
        <time>2020-09-28T10:15:43.572Z</time>
      </trkpt>
      <trkpt lat="64.74519" lon="20.95921">
        <ele>37.432247</ele>
        <time>2020-09-28T10:15:46.598Z</time>
      </trkpt>
      <trkpt lat="64.74509" lon="20.95918">
        <ele>38.076589</ele>
        <time>2020-09-28T10:15:49.581Z</time>
      </trkpt>
      <trkpt lat="64.74499" lon="20.95916">
        <ele>38.690779</ele>
        <time>2020-09-28T10:15:52.562Z</time>
      </trkpt>
      <trkpt lat="64.74488" lon="20.9592">
        <ele>39.399952</ele>
        <time>2020-09-28T10:15:55.563Z</time>
      </trkpt>
      <trkpt lat="64.74475" lon="20.95924">
        <ele>40.223633</ele>
        <time>2020-09-28T10:15:58.601Z</time>
      </trkpt>
      <trkpt lat="64.74462" lon="20.95925">
        <ele>41.003773</ele>
        <time>2020-09-28T10:16:01.543Z</time>
      </trkpt>
      <trkpt lat="64.74452" lon="20.95925">
        <ele>41.616826</ele>
        <time>2020-09-28T10:16:04.574Z</time>
      </trkpt>
      <trkpt lat="64.74438" lon="20.95936">
        <ele>42.519242</ele>
        <time>2020-09-28T10:16:07.559Z</time>
      </trkpt>
      <trkpt lat="64.74426" lon="20.95946">
        <ele>43.297882</ele>
        <time>2020-09-28T10:16:09.574Z</time>
      </trkpt>
      <trkpt lat="64.74415" lon="20.95952">
        <ele>43.305496</ele>
        <time>2020-09-28T10:16:11.584Z</time>
      </trkpt>
      <trkpt lat="64.74404" lon="20.95955">
        <ele>43.027628</ele>
        <time>2020-09-28T10:16:14.575Z</time>
      </trkpt>
      <trkpt lat="64.74394" lon="20.95961">
        <ele>42.769264</ele>
        <time>2020-09-28T10:16:17.585Z</time>
      </trkpt>
      <trkpt lat="64.74385" lon="20.95962">
        <ele>42.537862</ele>
        <time>2020-09-28T10:16:19.569Z</time>
      </trkpt>
      <trkpt lat="64.74374" lon="20.95962">
        <ele>42.279593</ele>
        <time>2020-09-28T10:16:21.555Z</time>
      </trkpt>
      <trkpt lat="64.74365" lon="20.95963">
        <ele>42.050849</ele>
        <time>2020-09-28T10:16:23.582Z</time>
      </trkpt>
      <trkpt lat="64.74355" lon="20.95963">
        <ele>41.814745</ele>
        <time>2020-09-28T10:16:25.603Z</time>
      </trkpt>
      <trkpt lat="64.74345" lon="20.95964">
        <ele>41.570777</ele>
        <time>2020-09-28T10:16:27.559Z</time>
      </trkpt>
      <trkpt lat="64.74335" lon="20.95966">
        <ele>41.321327</ele>
        <time>2020-09-28T10:16:29.564Z</time>
      </trkpt>
      <trkpt lat="64.74325" lon="20.95969">
        <ele>41.071675</ele>
        <time>2020-09-28T10:16:31.560Z</time>
      </trkpt>
      <trkpt lat="64.74315" lon="20.9597">
        <ele>40.827941</ele>
        <time>2020-09-28T10:16:33.586Z</time>
      </trkpt>
      <trkpt lat="64.7431" lon="20.95988">
        <ele>40.59947</ele>
        <time>2020-09-28T10:16:35.562Z</time>
      </trkpt>
      <trkpt lat="64.74298" lon="20.96005">
        <ele>40.256796</ele>
        <time>2020-09-28T10:16:38.563Z</time>
      </trkpt>
      <trkpt lat="64.74289" lon="20.96021">
        <ele>39.98419</ele>
        <time>2020-09-28T10:16:40.562Z</time>
      </trkpt>
      <trkpt lat="64.74282" lon="20.96036">
        <ele>39.73338</ele>
        <time>2020-09-28T10:16:42.557Z</time>
      </trkpt>
      <trkpt lat="64.74273" lon="20.9605">
        <ele>39.477287</ele>
        <time>2020-09-28T10:16:44.599Z</time>
      </trkpt>
      <trkpt lat="64.74263" lon="20.96063">
        <ele>39.199742</ele>
        <time>2020-09-28T10:16:46.554Z</time>
      </trkpt>
      <trkpt lat="64.74254" lon="20.96076">
        <ele>39.06296</ele>
        <time>2020-09-28T10:16:48.574Z</time>
      </trkpt>
      <trkpt lat="64.74245" lon="20.96087">
        <ele>39.036158</ele>
        <time>2020-09-28T10:16:50.569Z</time>
      </trkpt>
      <trkpt lat="64.74234" lon="20.96099">
        <ele>39.005501</ele>
        <time>2020-09-28T10:16:53.562Z</time>
      </trkpt>
      <trkpt lat="64.74225" lon="20.9611">
        <ele>38.977419</ele>
        <time>2020-09-28T10:16:56.561Z</time>
      </trkpt>
      <trkpt lat="64.74217" lon="20.9612">
        <ele>38.952473</ele>
        <time>2020-09-28T10:16:59.582Z</time>
      </trkpt>
      <trkpt lat="64.74208" lon="20.96129">
        <ele>38.927376</ele>
        <time>2020-09-28T10:17:02.584Z</time>
      </trkpt>
      <trkpt lat="64.74198" lon="20.96135">
        <ele>38.900926</ele>
        <time>2020-09-28T10:17:05.574Z</time>
      </trkpt>
      <trkpt lat="64.74188" lon="20.9614">
        <ele>38.872324</ele>
        <time>2020-09-28T10:17:08.582Z</time>
      </trkpt>
      <trkpt lat="64.74177" lon="20.96143">
        <ele>38.843468</ele>
        <time>2020-09-28T10:17:11.562Z</time>
      </trkpt>
      <trkpt lat="64.74166" lon="20.96145">
        <ele>38.815234</ele>
        <time>2020-09-28T10:17:14.560Z</time>
      </trkpt>
      <trkpt lat="64.74155" lon="20.96147">
        <ele>38.785184</ele>
        <time>2020-09-28T10:17:17.588Z</time>
      </trkpt>
      <trkpt lat="64.74144" lon="20.96148">
        <ele>38.755677</ele>
        <time>2020-09-28T10:17:20.549Z</time>
      </trkpt>
      <trkpt lat="64.74132" lon="20.96151">
        <ele>38.72478</ele>
        <time>2020-09-28T10:17:23.587Z</time>
      </trkpt>
      <trkpt lat="64.7412" lon="20.96154">
        <ele>38.693012</ele>
        <time>2020-09-28T10:17:26.576Z</time>
      </trkpt>
      <trkpt lat="64.7411" lon="20.96155">
        <ele>38.665638</ele>
        <time>2020-09-28T10:17:29.574Z</time>
      </trkpt>
      <trkpt lat="64.74101" lon="20.96156">
        <ele>38.64042</ele>
        <time>2020-09-28T10:17:32.600Z</time>
      </trkpt>
      <trkpt lat="64.7409" lon="20.96158">
        <ele>38.611138</ele>
        <time>2020-09-28T10:17:36.551Z</time>
      </trkpt>
      <trkpt lat="64.74079" lon="20.96159">
        <ele>38.700423</ele>
        <time>2020-09-28T10:17:40.573Z</time>
      </trkpt>
      <trkpt lat="64.74068" lon="20.96161">
        <ele>38.866732</ele>
        <time>2020-09-28T10:17:44.568Z</time>
      </trkpt>
      <trkpt lat="64.74059" lon="20.96162">
        <ele>38.997858</ele>
        <time>2020-09-28T10:17:47.578Z</time>
      </trkpt>
      <trkpt lat="64.74049" lon="20.96163">
        <ele>39.149456</ele>
        <time>2020-09-28T10:17:50.583Z</time>
      </trkpt>
      <trkpt lat="64.74038" lon="20.96162">
        <ele>39.306738</ele>
        <time>2020-09-28T10:17:53.570Z</time>
      </trkpt>
      <trkpt lat="64.74026" lon="20.96161">
        <ele>39.483219</ele>
        <time>2020-09-28T10:17:56.583Z</time>
      </trkpt>
      <trkpt lat="64.74014" lon="20.96157">
        <ele>39.650777</ele>
        <time>2020-09-28T10:17:59.570Z</time>
      </trkpt>
      <trkpt lat="64.74003" lon="20.96152">
        <ele>39.822842</ele>
        <time>2020-09-28T10:18:02.550Z</time>
      </trkpt>
      <trkpt lat="64.73991" lon="20.96146">
        <ele>39.992173</ele>
        <time>2020-09-28T10:18:05.566Z</time>
      </trkpt>
      <trkpt lat="64.7398" lon="20.96142">
        <ele>40.152214</ele>
        <time>2020-09-28T10:18:08.572Z</time>
      </trkpt>
      <trkpt lat="64.73969" lon="20.96137">
        <ele>40.323199</ele>
        <time>2020-09-28T10:18:11.566Z</time>
      </trkpt>
      <trkpt lat="64.73958" lon="20.96132">
        <ele>40.486217</ele>
        <time>2020-09-28T10:18:14.576Z</time>
      </trkpt>
      <trkpt lat="64.73947" lon="20.96127">
        <ele>40.653527</ele>
        <time>2020-09-28T10:18:17.586Z</time>
      </trkpt>
      <trkpt lat="64.73935" lon="20.96123">
        <ele>40.823275</ele>
        <time>2020-09-28T10:18:20.565Z</time>
      </trkpt>
      <trkpt lat="64.73923" lon="20.96116">
        <ele>40.998777</ele>
        <time>2020-09-28T10:18:23.557Z</time>
      </trkpt>
      <trkpt lat="64.73911" lon="20.9611">
        <ele>41.180141</ele>
        <time>2020-09-28T10:18:26.570Z</time>
      </trkpt>
      <trkpt lat="64.73898" lon="20.96105">
        <ele>41.330944</ele>
        <time>2020-09-28T10:18:29.575Z</time>
      </trkpt>
      <trkpt lat="64.73885" lon="20.96099">
        <ele>41.475669</ele>
        <time>2020-09-28T10:18:32.585Z</time>
      </trkpt>
      <trkpt lat="64.73873" lon="20.96092">
        <ele>41.610529</ele>
        <time>2020-09-28T10:18:35.563Z</time>
      </trkpt>
      <trkpt lat="64.73861" lon="20.96088">
        <ele>41.740936</ele>
        <time>2020-09-28T10:18:38.557Z</time>
      </trkpt>
      <trkpt lat="64.7385" lon="20.96083">
        <ele>41.86485</ele>
        <time>2020-09-28T10:18:41.586Z</time>
      </trkpt>
      <trkpt lat="64.73839" lon="20.96077">
        <ele>41.985699</ele>
        <time>2020-09-28T10:18:44.573Z</time>
      </trkpt>
      <trkpt lat="64.73828" lon="20.96071">
        <ele>42.108039</ele>
        <time>2020-09-28T10:18:47.565Z</time>
      </trkpt>
      <trkpt lat="64.73818" lon="20.96065">
        <ele>42.226238</ele>
        <time>2020-09-28T10:18:50.574Z</time>
      </trkpt>
      <trkpt lat="64.73807" lon="20.96061">
        <ele>42.34944</ele>
        <time>2020-09-28T10:18:53.568Z</time>
      </trkpt>
      <trkpt lat="64.73796" lon="20.96054">
        <ele>42.467567</ele>
        <time>2020-09-28T10:18:56.588Z</time>
      </trkpt>
      <trkpt lat="64.73786" lon="20.96047">
        <ele>42.583479</ele>
        <time>2020-09-28T10:18:59.562Z</time>
      </trkpt>
      <trkpt lat="64.73776" lon="20.96036">
        <ele>42.704332</ele>
        <time>2020-09-28T10:19:02.632Z</time>
      </trkpt>
      <trkpt lat="64.73768" lon="20.96015">
        <ele>42.833174</ele>
        <time>2020-09-28T10:19:06.584Z</time>
      </trkpt>
      <trkpt lat="64.73763" lon="20.95992">
        <ele>42.952982</ele>
        <time>2020-09-28T10:19:09.569Z</time>
      </trkpt>
      <trkpt lat="64.73754" lon="20.95973">
        <ele>43.083034</ele>
        <time>2020-09-28T10:19:12.562Z</time>
      </trkpt>
      <trkpt lat="64.73744" lon="20.9596">
        <ele>43.271264</ele>
        <time>2020-09-28T10:19:15.566Z</time>
      </trkpt>
      <trkpt lat="64.73734" lon="20.95947">
        <ele>43.649213</ele>
        <time>2020-09-28T10:19:18.567Z</time>
      </trkpt>
      <trkpt lat="64.73722" lon="20.95935">
        <ele>44.066049</ele>
        <time>2020-09-28T10:19:21.557Z</time>
      </trkpt>
      <trkpt lat="64.73711" lon="20.95928">
        <ele>44.442826</ele>
        <time>2020-09-28T10:19:24.562Z</time>
      </trkpt>
      <trkpt lat="64.73702" lon="20.95933">
        <ele>44.741609</ele>
        <time>2020-09-28T10:19:26.582Z</time>
      </trkpt>
      <trkpt lat="64.73692" lon="20.95934">
        <ele>45.06225</ele>
        <time>2020-09-28T10:19:28.596Z</time>
      </trkpt>
      <trkpt lat="64.73683" lon="20.95928">
        <ele>45.367674</ele>
        <time>2020-09-28T10:19:30.556Z</time>
      </trkpt>
      <trkpt lat="64.73672" lon="20.95915">
        <ele>45.784488</ele>
        <time>2020-09-28T10:19:33.558Z</time>
      </trkpt>
      <trkpt lat="64.73661" lon="20.959">
        <ele>46.183527</ele>
        <time>2020-09-28T10:19:36.580Z</time>
      </trkpt>
      <trkpt lat="64.73651" lon="20.95886">
        <ele>46.582566</ele>
        <time>2020-09-28T10:19:39.555Z</time>
      </trkpt>
      <trkpt lat="64.7364" lon="20.95874">
        <ele>46.965591</ele>
        <time>2020-09-28T10:19:42.561Z</time>
      </trkpt>
      <trkpt lat="64.73631" lon="20.95862">
        <ele>47.320528</ele>
        <time>2020-09-28T10:19:45.564Z</time>
      </trkpt>
      <trkpt lat="64.73622" lon="20.95851">
        <ele>47.657108</ele>
        <time>2020-09-28T10:19:48.561Z</time>
      </trkpt>
      <trkpt lat="64.73613" lon="20.95839">
        <ele>47.973807</ele>
        <time>2020-09-28T10:19:51.547Z</time>
      </trkpt>
      <trkpt lat="64.73606" lon="20.95826">
        <ele>48.281545</ele>
        <time>2020-09-28T10:19:54.573Z</time>
      </trkpt>
      <trkpt lat="64.73598" lon="20.95815">
        <ele>48.588276</ele>
        <time>2020-09-28T10:19:57.581Z</time>
      </trkpt>
      <trkpt lat="64.73589" lon="20.95804">
        <ele>48.912287</ele>
        <time>2020-09-28T10:20:00.557Z</time>
      </trkpt>
      <trkpt lat="64.73578" lon="20.95793">
        <ele>49.207395</ele>
        <time>2020-09-28T10:20:04.557Z</time>
      </trkpt>
      <trkpt lat="64.73568" lon="20.95781">
        <ele>49.437839</ele>
        <time>2020-09-28T10:20:08.566Z</time>
      </trkpt>
      <trkpt lat="64.73558" lon="20.95769">
        <ele>49.682082</ele>
        <time>2020-09-28T10:20:12.579Z</time>
      </trkpt>
      <trkpt lat="64.73548" lon="20.95758">
        <ele>49.903022</ele>
        <time>2020-09-28T10:20:16.594Z</time>
      </trkpt>
      <trkpt lat="64.73539" lon="20.95748">
        <ele>50.110057</ele>
        <time>2020-09-28T10:20:20.560Z</time>
      </trkpt>
      <trkpt lat="64.73529" lon="20.95733">
        <ele>50.35674</ele>
        <time>2020-09-28T10:20:24.557Z</time>
      </trkpt>
      <trkpt lat="64.73521" lon="20.95724">
        <ele>50.549871</ele>
        <time>2020-09-28T10:20:27.588Z</time>
      </trkpt>
      <trkpt lat="64.73512" lon="20.95713">
        <ele>50.752308</ele>
        <time>2020-09-28T10:20:30.571Z</time>
      </trkpt>
      <trkpt lat="64.73504" lon="20.95701">
        <ele>50.957288</ele>
        <time>2020-09-28T10:20:33.562Z</time>
      </trkpt>
      <trkpt lat="64.73495" lon="20.95691">
        <ele>51.162071</ele>
        <time>2020-09-28T10:20:36.600Z</time>
      </trkpt>
      <trkpt lat="64.73485" lon="20.9568">
        <ele>51.384175</ele>
        <time>2020-09-28T10:20:39.570Z</time>
      </trkpt>
      <trkpt lat="64.73475" lon="20.95669">
        <ele>51.606278</ele>
        <time>2020-09-28T10:20:42.608Z</time>
      </trkpt>
      <trkpt lat="64.73466" lon="20.95657">
        <ele>51.837127</ele>
        <time>2020-09-28T10:20:45.563Z</time>
      </trkpt>
      <trkpt lat="64.73455" lon="20.95646">
        <ele>52.068629</ele>
        <time>2020-09-28T10:20:48.567Z</time>
      </trkpt>
      <trkpt lat="64.73445" lon="20.95641">
        <ele>52.287043</ele>
        <time>2020-09-28T10:20:51.570Z</time>
      </trkpt>
      <trkpt lat="64.73434" lon="20.95644">
        <ele>52.526918</ele>
        <time>2020-09-28T10:20:54.577Z</time>
      </trkpt>
      <trkpt lat="64.73424" lon="20.95637">
        <ele>52.739118</ele>
        <time>2020-09-28T10:20:57.568Z</time>
      </trkpt>
      <trkpt lat="64.73415" lon="20.95625">
        <ele>52.721581</ele>
        <time>2020-09-28T10:21:00.561Z</time>
      </trkpt>
      <trkpt lat="64.73405" lon="20.95613">
        <ele>52.637525</ele>
        <time>2020-09-28T10:21:03.554Z</time>
      </trkpt>
      <trkpt lat="64.73395" lon="20.95606">
        <ele>52.552156</ele>
        <time>2020-09-28T10:21:06.547Z</time>
      </trkpt>
      <trkpt lat="64.73383" lon="20.95616">
        <ele>52.460132</ele>
        <time>2020-09-28T10:21:09.587Z</time>
      </trkpt>
      <trkpt lat="64.73377" lon="20.95636">
        <ele>52.373574</ele>
        <time>2020-09-28T10:21:12.560Z</time>
      </trkpt>
      <trkpt lat="64.73368" lon="20.95645">
        <ele>52.300545</ele>
        <time>2020-09-28T10:21:15.562Z</time>
      </trkpt>
      <trkpt lat="64.73358" lon="20.95635">
        <ele>52.212579</ele>
        <time>2020-09-28T10:21:18.571Z</time>
      </trkpt>
      <trkpt lat="64.73347" lon="20.9562">
        <ele>52.117713</ele>
        <time>2020-09-28T10:21:21.558Z</time>
      </trkpt>
      <trkpt lat="64.73338" lon="20.95603">
        <ele>52.029116</ele>
        <time>2020-09-28T10:21:24.559Z</time>
      </trkpt>
      <trkpt lat="64.7333" lon="20.95586">
        <ele>51.94311</ele>
        <time>2020-09-28T10:21:27.549Z</time>
      </trkpt>
      <trkpt lat="64.7332" lon="20.95568">
        <ele>51.845136</ele>
        <time>2020-09-28T10:21:30.559Z</time>
      </trkpt>
      <trkpt lat="64.73309" lon="20.9555">
        <ele>51.743679</ele>
        <time>2020-09-28T10:21:33.571Z</time>
      </trkpt>
      <trkpt lat="64.73302" lon="20.95537">
        <ele>51.672425</ele>
        <time>2020-09-28T10:21:35.569Z</time>
      </trkpt>
      <trkpt lat="64.73295" lon="20.95523">
        <ele>51.599562</ele>
        <time>2020-09-28T10:21:37.557Z</time>
      </trkpt>
      <trkpt lat="64.73285" lon="20.95504">
        <ele>51.499628</ele>
        <time>2020-09-28T10:21:40.545Z</time>
      </trkpt>
      <trkpt lat="64.73275" lon="20.95486">
        <ele>51.404735</ele>
        <time>2020-09-28T10:21:43.588Z</time>
      </trkpt>
      <trkpt lat="64.73266" lon="20.9547">
        <ele>51.888361</ele>
        <time>2020-09-28T10:21:46.553Z</time>
      </trkpt>
      <trkpt lat="64.73257" lon="20.95455">
        <ele>52.474255</ele>
        <time>2020-09-28T10:21:49.567Z</time>
      </trkpt>
      <trkpt lat="64.73248" lon="20.9544">
        <ele>53.085432</ele>
        <time>2020-09-28T10:21:52.555Z</time>
      </trkpt>
      <trkpt lat="64.73238" lon="20.95425">
        <ele>53.695476</ele>
        <time>2020-09-28T10:21:55.551Z</time>
      </trkpt>
      <trkpt lat="64.7323" lon="20.95411">
        <ele>54.245849</ele>
        <time>2020-09-28T10:21:58.571Z</time>
      </trkpt>
      <trkpt lat="64.73222" lon="20.95398">
        <ele>54.764102</ele>
        <time>2020-09-28T10:22:01.566Z</time>
      </trkpt>
      <trkpt lat="64.73215" lon="20.95384">
        <ele>55.27747</ele>
        <time>2020-09-28T10:22:04.587Z</time>
      </trkpt>
      <trkpt lat="64.73205" lon="20.95368">
        <ele>55.904225</ele>
        <time>2020-09-28T10:22:08.558Z</time>
      </trkpt>
      <trkpt lat="64.73197" lon="20.95353">
        <ele>56.472607</ele>
        <time>2020-09-28T10:22:12.562Z</time>
      </trkpt>
      <trkpt lat="64.73188" lon="20.9534">
        <ele>57.041405</ele>
        <time>2020-09-28T10:22:16.570Z</time>
      </trkpt>
      <trkpt lat="64.73178" lon="20.95328">
        <ele>57.624449</ele>
        <time>2020-09-28T10:22:20.600Z</time>
      </trkpt>
      <trkpt lat="64.73169" lon="20.95316">
        <ele>58.186157</ele>
        <time>2020-09-28T10:22:24.577Z</time>
      </trkpt>
      <trkpt lat="64.7316" lon="20.95302">
        <ele>58.773834</ele>
        <time>2020-09-28T10:22:29.567Z</time>
      </trkpt>
      <trkpt lat="64.73153" lon="20.95288">
        <ele>59.273922</ele>
        <time>2020-09-28T10:22:33.563Z</time>
      </trkpt>
      <trkpt lat="64.73145" lon="20.95274">
        <ele>59.824681</ele>
        <time>2020-09-28T10:22:38.578Z</time>
      </trkpt>
      <trkpt lat="64.73136" lon="20.95262">
        <ele>60.380592</ele>
        <time>2020-09-28T10:22:45.576Z</time>
      </trkpt>
      <trkpt lat="64.73128" lon="20.95248">
        <ele>60.891135</ele>
        <time>2020-09-28T10:22:51.558Z</time>
      </trkpt>
      <trkpt lat="64.7312" lon="20.95236">
        <ele>61.695924</ele>
        <time>2020-09-28T10:22:57.585Z</time>
      </trkpt>
      <trkpt lat="64.73111" lon="20.95224">
        <ele>62.569791</ele>
        <time>2020-09-28T10:23:02.579Z</time>
      </trkpt>
      <trkpt lat="64.73103" lon="20.95212">
        <ele>63.461613</ele>
        <time>2020-09-28T10:23:07.542Z</time>
      </trkpt>
      <trkpt lat="64.73095" lon="20.952">
        <ele>64.340099</ele>
        <time>2020-09-28T10:23:12.555Z</time>
      </trkpt>
      <trkpt lat="64.73086" lon="20.95189">
        <ele>65.289562</ele>
        <time>2020-09-28T10:23:17.577Z</time>
      </trkpt>
      <trkpt lat="64.73078" lon="20.95178">
        <ele>66.112192</ele>
        <time>2020-09-28T10:23:22.575Z</time>
      </trkpt>
      <trkpt lat="64.73069" lon="20.95168">
        <ele>67.044086</ele>
        <time>2020-09-28T10:23:28.559Z</time>
      </trkpt>
      <trkpt lat="64.73059" lon="20.95158">
        <ele>67.982532</ele>
        <time>2020-09-28T10:23:34.562Z</time>
      </trkpt>
      <trkpt lat="64.73051" lon="20.95148">
        <ele>68.813439</ele>
        <time>2020-09-28T10:23:39.546Z</time>
      </trkpt>
      <trkpt lat="64.73041" lon="20.95139">
        <ele>69.782204</ele>
        <time>2020-09-28T10:23:45.579Z</time>
      </trkpt>
      <trkpt lat="64.73032" lon="20.95131">
        <ele>70.711742</ele>
        <time>2020-09-28T10:23:51.556Z</time>
      </trkpt>
      <trkpt lat="64.73023" lon="20.95121">
        <ele>71.618794</ele>
        <time>2020-09-28T10:23:56.593Z</time>
      </trkpt>
      <trkpt lat="64.73014" lon="20.95114">
        <ele>72.454253</ele>
        <time>2020-09-28T10:24:01.581Z</time>
      </trkpt>
      <trkpt lat="64.73005" lon="20.9511">
        <ele>73.329507</ele>
        <time>2020-09-28T10:24:06.562Z</time>
      </trkpt>
      <trkpt lat="64.72994" lon="20.95107">
        <ele>74.327234</ele>
        <time>2020-09-28T10:24:11.585Z</time>
      </trkpt>
      <trkpt lat="64.72983" lon="20.95104">
        <ele>75.350606</ele>
        <time>2020-09-28T10:24:16.579Z</time>
      </trkpt>
      <trkpt lat="64.72972" lon="20.95102">
        <ele>76.302881</ele>
        <time>2020-09-28T10:24:21.551Z</time>
      </trkpt>
      <trkpt lat="64.72962" lon="20.95098">
        <ele>77.224155</ele>
        <time>2020-09-28T10:24:26.574Z</time>
      </trkpt>
      <trkpt lat="64.72952" lon="20.95094">
        <ele>77.483133</ele>
        <time>2020-09-28T10:24:31.563Z</time>
      </trkpt>
      <trkpt lat="64.72942" lon="20.95092">
        <ele>77.519258</ele>
        <time>2020-09-28T10:24:35.569Z</time>
      </trkpt>
      <trkpt lat="64.72933" lon="20.95087">
        <ele>77.554006</ele>
        <time>2020-09-28T10:24:39.553Z</time>
      </trkpt>
      <trkpt lat="64.72922" lon="20.95083">
        <ele>77.594651</ele>
        <time>2020-09-28T10:24:44.565Z</time>
      </trkpt>
      <trkpt lat="64.72913" lon="20.9508">
        <ele>77.629704</ele>
        <time>2020-09-28T10:24:48.562Z</time>
      </trkpt>
      <trkpt lat="64.72904" lon="20.95075">
        <ele>77.663656</ele>
        <time>2020-09-28T10:24:52.594Z</time>
      </trkpt>
      <trkpt lat="64.72894" lon="20.95074">
        <ele>77.699999</ele>
        <time>2020-09-28T10:24:56.574Z</time>
      </trkpt>
      <trkpt lat="64.72885" lon="20.9507">
        <ele>77.73556</ele>
        <time>2020-09-28T10:25:00.572Z</time>
      </trkpt>
      <trkpt lat="64.72875" lon="20.95066">
        <ele>77.774542</ele>
        <time>2020-09-28T10:25:04.562Z</time>
      </trkpt>
      <trkpt lat="64.72865" lon="20.95063">
        <ele>77.812251</ele>
        <time>2020-09-28T10:25:08.572Z</time>
      </trkpt>
      <trkpt lat="64.72854" lon="20.9506">
        <ele>77.852162</ele>
        <time>2020-09-28T10:25:12.589Z</time>
      </trkpt>
      <trkpt lat="64.72844" lon="20.95059">
        <ele>77.891082</ele>
        <time>2020-09-28T10:25:16.573Z</time>
      </trkpt>
      <trkpt lat="64.72834" lon="20.95054">
        <ele>77.926697</ele>
        <time>2020-09-28T10:25:20.584Z</time>
      </trkpt>
      <trkpt lat="64.72824" lon="20.95049">
        <ele>77.967828</ele>
        <time>2020-09-28T10:25:25.546Z</time>
      </trkpt>
      <trkpt lat="64.72813" lon="20.95047">
        <ele>78.00792</ele>
        <time>2020-09-28T10:25:29.595Z</time>
      </trkpt>
      <trkpt lat="64.72803" lon="20.95047">
        <ele>78.045657</ele>
        <time>2020-09-28T10:25:33.557Z</time>
      </trkpt>
      <trkpt lat="64.72791" lon="20.95046">
        <ele>78.087887</ele>
        <time>2020-09-28T10:25:38.574Z</time>
      </trkpt>
      <trkpt lat="64.72783" lon="20.9504">
        <ele>78.121863</ele>
        <time>2020-09-28T10:25:42.571Z</time>
      </trkpt>
      <trkpt lat="64.72773" lon="20.95035">
        <ele>78.158261</ele>
        <time>2020-09-28T10:25:46.553Z</time>
      </trkpt>
      <trkpt lat="64.72763" lon="20.95033">
        <ele>78.19428</ele>
        <time>2020-09-28T10:25:50.590Z</time>
      </trkpt>
      <trkpt lat="64.72753" lon="20.95035">
        <ele>78.231831</ele>
        <time>2020-09-28T10:25:54.563Z</time>
      </trkpt>
      <trkpt lat="64.72744" lon="20.95032">
        <ele>78.268043</ele>
        <time>2020-09-28T10:25:58.580Z</time>
      </trkpt>
      <trkpt lat="64.72734" lon="20.95028">
        <ele>78.303138</ele>
        <time>2020-09-28T10:26:02.563Z</time>
      </trkpt>
      <trkpt lat="64.72724" lon="20.95024">
        <ele>78.340272</ele>
        <time>2020-09-28T10:26:06.570Z</time>
      </trkpt>
      <trkpt lat="64.72714" lon="20.95023">
        <ele>78.378781</ele>
        <time>2020-09-28T10:26:10.560Z</time>
      </trkpt>
      <trkpt lat="64.72704" lon="20.95019">
        <ele>78.417302</ele>
        <time>2020-09-28T10:26:14.568Z</time>
      </trkpt>
      <trkpt lat="64.72694" lon="20.95018">
        <ele>78.453949</ele>
        <time>2020-09-28T10:26:18.570Z</time>
      </trkpt>
      <trkpt lat="64.72684" lon="20.95016">
        <ele>78.489572</ele>
        <time>2020-09-28T10:26:22.558Z</time>
      </trkpt>
      <trkpt lat="64.72674" lon="20.95015">
        <ele>78.527007</ele>
        <time>2020-09-28T10:26:26.597Z</time>
      </trkpt>
      <trkpt lat="64.72664" lon="20.95012">
        <ele>78.565362</ele>
        <time>2020-09-28T10:26:30.571Z</time>
      </trkpt>
      <trkpt lat="64.72653" lon="20.95009">
        <ele>78.604182</ele>
        <time>2020-09-28T10:26:34.614Z</time>
      </trkpt>
      <trkpt lat="64.72643" lon="20.95005">
        <ele>78.643482</ele>
        <time>2020-09-28T10:26:38.572Z</time>
      </trkpt>
      <trkpt lat="64.72632" lon="20.95002">
        <ele>78.685217</ele>
        <time>2020-09-28T10:26:42.551Z</time>
      </trkpt>
      <trkpt lat="64.7262" lon="20.95">
        <ele>78.727503</ele>
        <time>2020-09-28T10:26:46.564Z</time>
      </trkpt>
      <trkpt lat="64.72608" lon="20.94998">
        <ele>78.771613</ele>
        <time>2020-09-28T10:26:50.579Z</time>
      </trkpt>
      <trkpt lat="64.72598" lon="20.94996">
        <ele>78.859275</ele>
        <time>2020-09-28T10:26:53.562Z</time>
      </trkpt>
      <trkpt lat="64.72587" lon="20.94993">
        <ele>79.018465</ele>
        <time>2020-09-28T10:26:57.555Z</time>
      </trkpt>
      <trkpt lat="64.72577" lon="20.94991">
        <ele>79.148026</ele>
        <time>2020-09-28T10:27:00.573Z</time>
      </trkpt>
      <trkpt lat="64.72566" lon="20.94988">
        <ele>79.28882</ele>
        <time>2020-09-28T10:27:03.549Z</time>
      </trkpt>
      <trkpt lat="64.72556" lon="20.94985">
        <ele>79.428669</ele>
        <time>2020-09-28T10:27:06.565Z</time>
      </trkpt>
      <trkpt lat="64.72545" lon="20.94981">
        <ele>79.573496</ele>
        <time>2020-09-28T10:27:09.560Z</time>
      </trkpt>
      <trkpt lat="64.72534" lon="20.94979">
        <ele>79.724684</ele>
        <time>2020-09-28T10:27:12.560Z</time>
      </trkpt>
      <trkpt lat="64.72522" lon="20.94975">
        <ele>79.879114</ele>
        <time>2020-09-28T10:27:15.585Z</time>
      </trkpt>
      <trkpt lat="64.72511" lon="20.94972">
        <ele>80.035838</ele>
        <time>2020-09-28T10:27:18.598Z</time>
      </trkpt>
      <trkpt lat="64.72499" lon="20.94968">
        <ele>80.192982</ele>
        <time>2020-09-28T10:27:21.562Z</time>
      </trkpt>
      <trkpt lat="64.72486" lon="20.94964">
        <ele>80.370449</ele>
        <time>2020-09-28T10:27:24.572Z</time>
      </trkpt>
      <trkpt lat="64.72477" lon="20.94963">
        <ele>80.493162</ele>
        <time>2020-09-28T10:27:26.581Z</time>
      </trkpt>
      <trkpt lat="64.72467" lon="20.94962">
        <ele>80.61695</ele>
        <time>2020-09-28T10:27:28.576Z</time>
      </trkpt>
      <trkpt lat="64.72458" lon="20.94962">
        <ele>80.746105</ele>
        <time>2020-09-28T10:27:30.560Z</time>
      </trkpt>
      <trkpt lat="64.72448" lon="20.9496">
        <ele>80.871552</ele>
        <time>2020-09-28T10:27:32.574Z</time>
      </trkpt>
      <trkpt lat="64.72436" lon="20.94958">
        <ele>81.037117</ele>
        <time>2020-09-28T10:27:35.569Z</time>
      </trkpt>
      <trkpt lat="64.72426" lon="20.94959">
        <ele>81.168934</ele>
        <time>2020-09-28T10:27:38.577Z</time>
      </trkpt>
      <trkpt lat="64.72416" lon="20.94968">
        <ele>81.043063</ele>
        <time>2020-09-28T10:27:41.574Z</time>
      </trkpt>
      <trkpt lat="64.72404" lon="20.94972">
        <ele>80.86159</ele>
        <time>2020-09-28T10:27:44.583Z</time>
      </trkpt>
      <trkpt lat="64.72392" lon="20.94965">
        <ele>80.670567</ele>
        <time>2020-09-28T10:27:47.555Z</time>
      </trkpt>
      <trkpt lat="64.7238" lon="20.94956">
        <ele>80.485056</ele>
        <time>2020-09-28T10:27:50.605Z</time>
      </trkpt>
      <trkpt lat="64.72368" lon="20.94946">
        <ele>80.300304</ele>
        <time>2020-09-28T10:27:53.609Z</time>
      </trkpt>
      <trkpt lat="64.72357" lon="20.94939">
        <ele>80.11783</ele>
        <time>2020-09-28T10:27:56.568Z</time>
      </trkpt>
      <trkpt lat="64.72344" lon="20.94932">
        <ele>79.926654</ele>
        <time>2020-09-28T10:27:59.584Z</time>
      </trkpt>
      <trkpt lat="64.72335" lon="20.94926">
        <ele>79.792132</ele>
        <time>2020-09-28T10:28:01.558Z</time>
      </trkpt>
      <trkpt lat="64.72327" lon="20.94922">
        <ele>79.657478</ele>
        <time>2020-09-28T10:28:03.591Z</time>
      </trkpt>
      <trkpt lat="64.72314" lon="20.94916">
        <ele>79.464324</ele>
        <time>2020-09-28T10:28:06.578Z</time>
      </trkpt>
      <trkpt lat="64.72301" lon="20.94911">
        <ele>79.262107</ele>
        <time>2020-09-28T10:28:09.567Z</time>
      </trkpt>
      <trkpt lat="64.72287" lon="20.94907">
        <ele>79.061527</ele>
        <time>2020-09-28T10:28:12.582Z</time>
      </trkpt>
      <trkpt lat="64.72274" lon="20.94903">
        <ele>78.866541</ele>
        <time>2020-09-28T10:28:15.574Z</time>
      </trkpt>
      <trkpt lat="64.72261" lon="20.94898">
        <ele>78.66868</ele>
        <time>2020-09-28T10:28:18.582Z</time>
      </trkpt>
      <trkpt lat="64.72248" lon="20.94895">
        <ele>78.526121</ele>
        <time>2020-09-28T10:28:21.559Z</time>
      </trkpt>
      <trkpt lat="64.72235" lon="20.9489">
        <ele>78.812477</ele>
        <time>2020-09-28T10:28:24.592Z</time>
      </trkpt>
      <trkpt lat="64.72222" lon="20.94887">
        <ele>79.091826</ele>
        <time>2020-09-28T10:28:27.562Z</time>
      </trkpt>
      <trkpt lat="64.7221" lon="20.94885">
        <ele>79.36444</ele>
        <time>2020-09-28T10:28:30.574Z</time>
      </trkpt>
      <trkpt lat="64.72198" lon="20.94882">
        <ele>79.629017</ele>
        <time>2020-09-28T10:28:33.570Z</time>
      </trkpt>
      <trkpt lat="64.72185" lon="20.9488">
        <ele>79.894847</ele>
        <time>2020-09-28T10:28:36.588Z</time>
      </trkpt>
      <trkpt lat="64.72173" lon="20.94879">
        <ele>80.16885</ele>
        <time>2020-09-28T10:28:39.570Z</time>
      </trkpt>
      <trkpt lat="64.72161" lon="20.94877">
        <ele>80.432579</ele>
        <time>2020-09-28T10:28:42.596Z</time>
      </trkpt>
      <trkpt lat="64.72149" lon="20.94877">
        <ele>80.697762</ele>
        <time>2020-09-28T10:28:45.551Z</time>
      </trkpt>
      <trkpt lat="64.72136" lon="20.94876">
        <ele>80.965123</ele>
        <time>2020-09-28T10:28:48.554Z</time>
      </trkpt>
      <trkpt lat="64.72125" lon="20.94875">
        <ele>81.219985</ele>
        <time>2020-09-28T10:28:51.553Z</time>
      </trkpt>
      <trkpt lat="64.72113" lon="20.94875">
        <ele>81.465716</ele>
        <time>2020-09-28T10:28:54.553Z</time>
      </trkpt>
      <trkpt lat="64.72102" lon="20.94876">
        <ele>81.702647</ele>
        <time>2020-09-28T10:28:57.593Z</time>
      </trkpt>
      <trkpt lat="64.72091" lon="20.94876">
        <ele>81.939579</ele>
        <time>2020-09-28T10:29:00.595Z</time>
      </trkpt>
      <trkpt lat="64.72081" lon="20.94877">
        <ele>82.168037</ele>
        <time>2020-09-28T10:29:03.681Z</time>
      </trkpt>
      <trkpt lat="64.72071" lon="20.94878">
        <ele>82.387698</ele>
        <time>2020-09-28T10:29:06.554Z</time>
      </trkpt>
      <trkpt lat="64.7206" lon="20.9488">
        <ele>82.890639</ele>
        <time>2020-09-28T10:29:09.583Z</time>
      </trkpt>
      <trkpt lat="64.72051" lon="20.9488">
        <ele>83.3753</ele>
        <time>2020-09-28T10:29:12.554Z</time>
      </trkpt>
      <trkpt lat="64.72041" lon="20.94881">
        <ele>83.845073</ele>
        <time>2020-09-28T10:29:15.579Z</time>
      </trkpt>
      <trkpt lat="64.72032" lon="20.94882">
        <ele>84.310165</ele>
        <time>2020-09-28T10:29:18.594Z</time>
      </trkpt>
      <trkpt lat="64.72023" lon="20.94884">
        <ele>84.761208</ele>
        <time>2020-09-28T10:29:21.556Z</time>
      </trkpt>
      <trkpt lat="64.72014" lon="20.94887">
        <ele>85.213766</ele>
        <time>2020-09-28T10:29:24.550Z</time>
      </trkpt>
      <trkpt lat="64.72003" lon="20.9489">
        <ele>85.792838</ele>
        <time>2020-09-28T10:29:28.607Z</time>
      </trkpt>
      <trkpt lat="64.71991" lon="20.94893">
        <ele>86.385078</ele>
        <time>2020-09-28T10:29:32.580Z</time>
      </trkpt>
      <trkpt lat="64.71982" lon="20.94895">
        <ele>86.836927</ele>
        <time>2020-09-28T10:29:35.557Z</time>
      </trkpt>
      <trkpt lat="64.7197" lon="20.94897">
        <ele>87.422152</ele>
        <time>2020-09-28T10:29:39.553Z</time>
      </trkpt>
      <trkpt lat="64.7196" lon="20.949">
        <ele>87.930528</ele>
        <time>2020-09-28T10:29:42.614Z</time>
      </trkpt>
      <trkpt lat="64.71951" lon="20.94903">
        <ele>88.403691</ele>
        <time>2020-09-28T10:29:45.591Z</time>
      </trkpt>
      <trkpt lat="64.71941" lon="20.94906">
        <ele>88.889859</ele>
        <time>2020-09-28T10:29:48.578Z</time>
      </trkpt>
      <trkpt lat="64.71932" lon="20.94911">
        <ele>89.36938</ele>
        <time>2020-09-28T10:29:51.585Z</time>
      </trkpt>
      <trkpt lat="64.7192" lon="20.94916">
        <ele>89.966366</ele>
        <time>2020-09-28T10:29:55.562Z</time>
      </trkpt>
      <trkpt lat="64.71911" lon="20.9492">
        <ele>90.41081</ele>
        <time>2020-09-28T10:29:58.560Z</time>
      </trkpt>
      <trkpt lat="64.71902" lon="20.94923">
        <ele>90.860761</ele>
        <time>2020-09-28T10:30:01.554Z</time>
      </trkpt>
      <trkpt lat="64.71891" lon="20.94928">
        <ele>91.398798</ele>
        <time>2020-09-28T10:30:05.586Z</time>
      </trkpt>
      <trkpt lat="64.71879" lon="20.94932">
        <ele>91.553394</ele>
        <time>2020-09-28T10:30:09.565Z</time>
      </trkpt>
      <trkpt lat="64.71867" lon="20.94935">
        <ele>91.709641</ele>
        <time>2020-09-28T10:30:13.565Z</time>
      </trkpt>
      <trkpt lat="64.71858" lon="20.94938">
        <ele>91.837116</ele>
        <time>2020-09-28T10:30:16.564Z</time>
      </trkpt>
      <trkpt lat="64.71848" lon="20.94942">
        <ele>91.965602</ele>
        <time>2020-09-28T10:30:19.582Z</time>
      </trkpt>
      <trkpt lat="64.71839" lon="20.94946">
        <ele>92.08855</ele>
        <time>2020-09-28T10:30:22.560Z</time>
      </trkpt>
      <trkpt lat="64.7183" lon="20.9495">
        <ele>92.209098</ele>
        <time>2020-09-28T10:30:25.554Z</time>
      </trkpt>
      <trkpt lat="64.71821" lon="20.94953">
        <ele>92.333062</ele>
        <time>2020-09-28T10:30:28.559Z</time>
      </trkpt>
      <trkpt lat="64.71812" lon="20.94957">
        <ele>92.45807</ele>
        <time>2020-09-28T10:30:31.572Z</time>
      </trkpt>
      <trkpt lat="64.71802" lon="20.9496">
        <ele>92.585468</ele>
        <time>2020-09-28T10:30:34.611Z</time>
      </trkpt>
      <trkpt lat="64.71793" lon="20.94965">
        <ele>92.711116</ele>
        <time>2020-09-28T10:30:37.575Z</time>
      </trkpt>
      <trkpt lat="64.71784" lon="20.94969">
        <ele>92.831889</ele>
        <time>2020-09-28T10:30:40.594Z</time>
      </trkpt>
      <trkpt lat="64.71776" lon="20.94973">
        <ele>92.951025</ele>
        <time>2020-09-28T10:30:43.556Z</time>
      </trkpt>
      <trkpt lat="64.71766" lon="20.94978">
        <ele>93.077589</ele>
        <time>2020-09-28T10:30:46.555Z</time>
      </trkpt>
      <trkpt lat="64.71756" lon="20.94982">
        <ele>93.214852</ele>
        <time>2020-09-28T10:30:49.550Z</time>
      </trkpt>
      <trkpt lat="64.71747" lon="20.94985">
        <ele>93.338911</ele>
        <time>2020-09-28T10:30:52.550Z</time>
      </trkpt>
      <trkpt lat="64.71738" lon="20.94989">
        <ele>93.461564</ele>
        <time>2020-09-28T10:30:55.583Z</time>
      </trkpt>
      <trkpt lat="64.71728" lon="20.94992">
        <ele>93.596869</ele>
        <time>2020-09-28T10:30:58.597Z</time>
      </trkpt>
      <trkpt lat="64.71718" lon="20.94996">
        <ele>93.726359</ele>
        <time>2020-09-28T10:31:01.556Z</time>
      </trkpt>
      <trkpt lat="64.71708" lon="20.95">
        <ele>93.766204</ele>
        <time>2020-09-28T10:31:04.635Z</time>
      </trkpt>
      <trkpt lat="64.71699" lon="20.95004">
        <ele>93.75533</ele>
        <time>2020-09-28T10:31:07.567Z</time>
      </trkpt>
      <trkpt lat="64.71689" lon="20.95008">
        <ele>93.744597</ele>
        <time>2020-09-28T10:31:10.560Z</time>
      </trkpt>
      <trkpt lat="64.71679" lon="20.95012">
        <ele>93.733444</ele>
        <time>2020-09-28T10:31:13.602Z</time>
      </trkpt>
      <trkpt lat="64.71669" lon="20.95013">
        <ele>93.722714</ele>
        <time>2020-09-28T10:31:16.562Z</time>
      </trkpt>
      <trkpt lat="64.71659" lon="20.95018">
        <ele>93.711522</ele>
        <time>2020-09-28T10:31:19.597Z</time>
      </trkpt>
      <trkpt lat="64.7165" lon="20.95022">
        <ele>93.700648</ele>
        <time>2020-09-28T10:31:22.556Z</time>
      </trkpt>
      <trkpt lat="64.7164" lon="20.95025">
        <ele>93.690093</ele>
        <time>2020-09-28T10:31:25.585Z</time>
      </trkpt>
      <trkpt lat="64.7163" lon="20.95029">
        <ele>93.678467</ele>
        <time>2020-09-28T10:31:28.563Z</time>
      </trkpt>
      <trkpt lat="64.71619" lon="20.95032">
        <ele>93.666994</ele>
        <time>2020-09-28T10:31:31.571Z</time>
      </trkpt>
      <trkpt lat="64.71609" lon="20.95036">
        <ele>93.655158</ele>
        <time>2020-09-28T10:31:34.637Z</time>
      </trkpt>
      <trkpt lat="64.71598" lon="20.9504">
        <ele>93.642864</ele>
        <time>2020-09-28T10:31:37.569Z</time>
      </trkpt>
      <trkpt lat="64.71587" lon="20.95043">
        <ele>93.630786</ele>
        <time>2020-09-28T10:31:40.576Z</time>
      </trkpt>
      <trkpt lat="64.71576" lon="20.95046">
        <ele>93.618369</ele>
        <time>2020-09-28T10:31:43.578Z</time>
      </trkpt>
      <trkpt lat="64.71566" lon="20.95047">
        <ele>93.607213</ele>
        <time>2020-09-28T10:31:46.564Z</time>
      </trkpt>
      <trkpt lat="64.71555" lon="20.95048">
        <ele>93.595966</ele>
        <time>2020-09-28T10:31:49.592Z</time>
      </trkpt>
      <trkpt lat="64.71545" lon="20.9505">
        <ele>93.58477</ele>
        <time>2020-09-28T10:31:52.584Z</time>
      </trkpt>
      <trkpt lat="64.71534" lon="20.95051">
        <ele>93.611178</ele>
        <time>2020-09-28T10:31:55.557Z</time>
      </trkpt>
      <trkpt lat="64.71524" lon="20.95052">
        <ele>93.808071</ele>
        <time>2020-09-28T10:31:58.562Z</time>
      </trkpt>
      <trkpt lat="64.71513" lon="20.95053">
        <ele>94.0146</ele>
        <time>2020-09-28T10:32:01.553Z</time>
      </trkpt>
      <trkpt lat="64.71501" lon="20.95053">
        <ele>94.233744</ele>
        <time>2020-09-28T10:32:04.576Z</time>
      </trkpt>
      <trkpt lat="64.71489" lon="20.95052">
        <ele>94.453163</ele>
        <time>2020-09-28T10:32:07.560Z</time>
      </trkpt>
      <trkpt lat="64.71477" lon="20.95051">
        <ele>94.670516</ele>
        <time>2020-09-28T10:32:10.558Z</time>
      </trkpt>
      <trkpt lat="64.71466" lon="20.95052">
        <ele>94.889659</ele>
        <time>2020-09-28T10:32:13.563Z</time>
      </trkpt>
      <trkpt lat="64.71453" lon="20.95052">
        <ele>95.118096</ele>
        <time>2020-09-28T10:32:16.558Z</time>
      </trkpt>
      <trkpt lat="64.71441" lon="20.95051">
        <ele>95.346686</ele>
        <time>2020-09-28T10:32:19.615Z</time>
      </trkpt>
      <trkpt lat="64.71429" lon="20.95049">
        <ele>95.56796</ele>
        <time>2020-09-28T10:32:22.573Z</time>
      </trkpt>
      <trkpt lat="64.71417" lon="20.95048">
        <ele>95.800364</ele>
        <time>2020-09-28T10:32:25.576Z</time>
      </trkpt>
      <trkpt lat="64.71408" lon="20.95047">
        <ele>95.969585</ele>
        <time>2020-09-28T10:32:27.567Z</time>
      </trkpt>
      <trkpt lat="64.71394" lon="20.95044">
        <ele>96.217439</ele>
        <time>2020-09-28T10:32:30.584Z</time>
      </trkpt>
      <trkpt lat="64.71385" lon="20.95042">
        <ele>96.393316</ele>
        <time>2020-09-28T10:32:32.555Z</time>
      </trkpt>
      <trkpt lat="64.71372" lon="20.95038">
        <ele>96.638361</ele>
        <time>2020-09-28T10:32:35.555Z</time>
      </trkpt>
      <trkpt lat="64.71362" lon="20.95036">
        <ele>96.813879</ele>
        <time>2020-09-28T10:32:37.554Z</time>
      </trkpt>
      <trkpt lat="64.71353" lon="20.95033">
        <ele>96.890108</ele>
        <time>2020-09-28T10:32:39.576Z</time>
      </trkpt>
      <trkpt lat="64.7134" lon="20.95028">
        <ele>96.804186</ele>
        <time>2020-09-28T10:32:42.571Z</time>
      </trkpt>
      <trkpt lat="64.71331" lon="20.95024">
        <ele>96.743988</ele>
        <time>2020-09-28T10:32:44.573Z</time>
      </trkpt>
      <trkpt lat="64.71321" lon="20.95021">
        <ele>96.682459</ele>
        <time>2020-09-28T10:32:46.572Z</time>
      </trkpt>
      <trkpt lat="64.71311" lon="20.95017">
        <ele>96.61875</ele>
        <time>2020-09-28T10:32:48.559Z</time>
      </trkpt>
      <trkpt lat="64.71302" lon="20.95014">
        <ele>96.556853</ele>
        <time>2020-09-28T10:32:50.570Z</time>
      </trkpt>
      <trkpt lat="64.71292" lon="20.9501">
        <ele>96.493144</ele>
        <time>2020-09-28T10:32:52.563Z</time>
      </trkpt>
      <trkpt lat="64.71282" lon="20.95006">
        <ele>96.426178</ele>
        <time>2020-09-28T10:32:54.571Z</time>
      </trkpt>
      <trkpt lat="64.71272" lon="20.95002">
        <ele>96.360148</ele>
        <time>2020-09-28T10:32:56.597Z</time>
      </trkpt>
      <trkpt lat="64.71261" lon="20.94996">
        <ele>96.290924</ele>
        <time>2020-09-28T10:32:58.578Z</time>
      </trkpt>
      <trkpt lat="64.71251" lon="20.9499">
        <ele>96.221135</ele>
        <time>2020-09-28T10:33:00.559Z</time>
      </trkpt>
      <trkpt lat="64.7124" lon="20.94985">
        <ele>96.150837</ele>
        <time>2020-09-28T10:33:02.574Z</time>
      </trkpt>
      <trkpt lat="64.7123" lon="20.94978">
        <ele>96.082416</ele>
        <time>2020-09-28T10:33:04.577Z</time>
      </trkpt>
      <trkpt lat="64.71219" lon="20.9497">
        <ele>96.00991</ele>
        <time>2020-09-28T10:33:06.582Z</time>
      </trkpt>
      <trkpt lat="64.71208" lon="20.94962">
        <ele>95.938038</ele>
        <time>2020-09-28T10:33:08.601Z</time>
      </trkpt>
      <trkpt lat="64.71197" lon="20.94953">
        <ele>95.863716</ele>
        <time>2020-09-28T10:33:10.604Z</time>
      </trkpt>
      <trkpt lat="64.71186" lon="20.94944">
        <ele>95.790017</ele>
        <time>2020-09-28T10:33:12.559Z</time>
      </trkpt>
      <trkpt lat="64.71176" lon="20.94936">
        <ele>95.756062</ele>
        <time>2020-09-28T10:33:14.590Z</time>
      </trkpt>
      <trkpt lat="64.71165" lon="20.94927">
        <ele>95.749624</ele>
        <time>2020-09-28T10:33:16.565Z</time>
      </trkpt>
      <trkpt lat="64.71155" lon="20.94919">
        <ele>95.743227</ele>
        <time>2020-09-28T10:33:18.561Z</time>
      </trkpt>
      <trkpt lat="64.71145" lon="20.9491">
        <ele>95.736919</ele>
        <time>2020-09-28T10:33:20.572Z</time>
      </trkpt>
      <trkpt lat="64.71135" lon="20.949">
        <ele>95.730582</ele>
        <time>2020-09-28T10:33:22.567Z</time>
      </trkpt>
      <trkpt lat="64.71125" lon="20.94891">
        <ele>95.724274</ele>
        <time>2020-09-28T10:33:24.563Z</time>
      </trkpt>
      <trkpt lat="64.71114" lon="20.94881">
        <ele>95.717812</ele>
        <time>2020-09-28T10:33:26.585Z</time>
      </trkpt>
      <trkpt lat="64.71104" lon="20.94872">
        <ele>95.711467</ele>
        <time>2020-09-28T10:33:28.565Z</time>
      </trkpt>
      <trkpt lat="64.71094" lon="20.94863">
        <ele>95.705168</ele>
        <time>2020-09-28T10:33:30.563Z</time>
      </trkpt>
      <trkpt lat="64.71084" lon="20.94853">
        <ele>95.698742</ele>
        <time>2020-09-28T10:33:32.561Z</time>
      </trkpt>
      <trkpt lat="64.71074" lon="20.94844">
        <ele>95.692424</ele>
        <time>2020-09-28T10:33:34.598Z</time>
      </trkpt>
      <trkpt lat="64.71064" lon="20.94834">
        <ele>95.686216</ele>
        <time>2020-09-28T10:33:36.599Z</time>
      </trkpt>
      <trkpt lat="64.71054" lon="20.94825">
        <ele>95.680126</ele>
        <time>2020-09-28T10:33:38.574Z</time>
      </trkpt>
      <trkpt lat="64.71045" lon="20.94816">
        <ele>95.674027</ele>
        <time>2020-09-28T10:33:40.570Z</time>
      </trkpt>
      <trkpt lat="64.71035" lon="20.94808">
        <ele>95.667927</ele>
        <time>2020-09-28T10:33:42.574Z</time>
      </trkpt>
      <trkpt lat="64.71025" lon="20.94798">
        <ele>95.661799</ele>
        <time>2020-09-28T10:33:44.575Z</time>
      </trkpt>
      <trkpt lat="64.71016" lon="20.94789">
        <ele>95.655862</ele>
        <time>2020-09-28T10:33:46.574Z</time>
      </trkpt>
      <trkpt lat="64.71007" lon="20.9478">
        <ele>95.927475</ele>
        <time>2020-09-28T10:33:48.608Z</time>
      </trkpt>
      <trkpt lat="64.70999" lon="20.94771">
        <ele>96.226032</ele>
        <time>2020-09-28T10:33:50.607Z</time>
      </trkpt>
      <trkpt lat="64.7099" lon="20.94762">
        <ele>96.534688</ele>
        <time>2020-09-28T10:33:52.589Z</time>
      </trkpt>
      <trkpt lat="64.70978" lon="20.94748">
        <ele>96.975998</ele>
        <time>2020-09-28T10:33:55.558Z</time>
      </trkpt>
      <trkpt lat="64.7097" lon="20.94737">
        <ele>97.272173</ele>
        <time>2020-09-28T10:33:57.562Z</time>
      </trkpt>
      <trkpt lat="64.70959" lon="20.94722">
        <ele>97.70974</ele>
        <time>2020-09-28T10:34:00.545Z</time>
      </trkpt>
      <trkpt lat="64.70948" lon="20.94706">
        <ele>98.128132</ele>
        <time>2020-09-28T10:34:03.551Z</time>
      </trkpt>
      <trkpt lat="64.70937" lon="20.9469">
        <ele>98.548825</ele>
        <time>2020-09-28T10:34:06.583Z</time>
      </trkpt>
      <trkpt lat="64.70927" lon="20.94673">
        <ele>98.962494</ele>
        <time>2020-09-28T10:34:09.558Z</time>
      </trkpt>
      <trkpt lat="64.70916" lon="20.94657">
        <ele>99.372795</ele>
        <time>2020-09-28T10:34:12.558Z</time>
      </trkpt>
      <trkpt lat="64.70907" lon="20.9464">
        <ele>99.775097</ele>
        <time>2020-09-28T10:34:15.589Z</time>
      </trkpt>
      <trkpt lat="64.70897" lon="20.94623">
        <ele>100.175993</ele>
        <time>2020-09-28T10:34:18.578Z</time>
      </trkpt>
      <trkpt lat="64.70886" lon="20.94607">
        <ele>100.583836</ele>
        <time>2020-09-28T10:34:21.581Z</time>
      </trkpt>
      <trkpt lat="64.70876" lon="20.94592">
        <ele>100.993672</ele>
        <time>2020-09-28T10:34:24.568Z</time>
      </trkpt>
      <trkpt lat="64.70865" lon="20.94575">
        <ele>101.406968</ele>
        <time>2020-09-28T10:34:27.574Z</time>
      </trkpt>
      <trkpt lat="64.70855" lon="20.94559">
        <ele>101.569124</ele>
        <time>2020-09-28T10:34:30.570Z</time>
      </trkpt>
      <trkpt lat="64.70845" lon="20.94543">
        <ele>101.583357</ele>
        <time>2020-09-28T10:34:33.598Z</time>
      </trkpt>
      <trkpt lat="64.70836" lon="20.94528">
        <ele>101.597075</ele>
        <time>2020-09-28T10:34:36.584Z</time>
      </trkpt>
      <trkpt lat="64.70826" lon="20.94512">
        <ele>101.611068</ele>
        <time>2020-09-28T10:34:39.572Z</time>
      </trkpt>
      <trkpt lat="64.70816" lon="20.94496">
        <ele>101.625525</ele>
        <time>2020-09-28T10:34:42.575Z</time>
      </trkpt>
      <trkpt lat="64.70806" lon="20.9448">
        <ele>101.639505</ele>
        <time>2020-09-28T10:34:45.589Z</time>
      </trkpt>
      <trkpt lat="64.70797" lon="20.94464">
        <ele>101.653475</ele>
        <time>2020-09-28T10:34:48.577Z</time>
      </trkpt>
      <trkpt lat="64.70788" lon="20.9445">
        <ele>101.666398</ele>
        <time>2020-09-28T10:34:51.554Z</time>
      </trkpt>
      <trkpt lat="64.70778" lon="20.94434">
        <ele>101.680494</ele>
        <time>2020-09-28T10:34:54.566Z</time>
      </trkpt>
      <trkpt lat="64.70768" lon="20.9442">
        <ele>101.694588</ele>
        <time>2020-09-28T10:34:57.574Z</time>
      </trkpt>
      <trkpt lat="64.70758" lon="20.94403">
        <ele>101.709131</ele>
        <time>2020-09-28T10:35:00.576Z</time>
      </trkpt>
      <trkpt lat="64.70748" lon="20.94388">
        <ele>101.723349</ele>
        <time>2020-09-28T10:35:03.595Z</time>
      </trkpt>
      <trkpt lat="64.70737" lon="20.94372">
        <ele>101.738983</ele>
        <time>2020-09-28T10:35:06.575Z</time>
      </trkpt>
      <trkpt lat="64.70726" lon="20.94356">
        <ele>101.754335</ele>
        <time>2020-09-28T10:35:09.578Z</time>
      </trkpt>
      <trkpt lat="64.70715" lon="20.94341">
        <ele>101.768761</ele>
        <time>2020-09-28T10:35:12.551Z</time>
      </trkpt>
      <trkpt lat="64.70705" lon="20.94328">
        <ele>101.764465</ele>
        <time>2020-09-28T10:35:15.576Z</time>
      </trkpt>
      <trkpt lat="64.70693" lon="20.94313">
        <ele>101.748536</ele>
        <time>2020-09-28T10:35:18.593Z</time>
      </trkpt>
      <trkpt lat="64.70685" lon="20.94302">
        <ele>101.737554</ele>
        <time>2020-09-28T10:35:20.580Z</time>
      </trkpt>
      <trkpt lat="64.70674" lon="20.94287">
        <ele>101.721859</ele>
        <time>2020-09-28T10:35:23.578Z</time>
      </trkpt>
      <trkpt lat="64.70662" lon="20.94275">
        <ele>101.706599</ele>
        <time>2020-09-28T10:35:26.570Z</time>
      </trkpt>
      <trkpt lat="64.7065" lon="20.94262">
        <ele>101.691097</ele>
        <time>2020-09-28T10:35:29.562Z</time>
      </trkpt>
      <trkpt lat="64.70642" lon="20.94254">
        <ele>101.680135</ele>
        <time>2020-09-28T10:35:31.557Z</time>
      </trkpt>
      <trkpt lat="64.7063" lon="20.94242">
        <ele>101.664495</ele>
        <time>2020-09-28T10:35:34.562Z</time>
      </trkpt>
      <trkpt lat="64.70618" lon="20.94231">
        <ele>101.649325</ele>
        <time>2020-09-28T10:35:37.554Z</time>
      </trkpt>
      <trkpt lat="64.70606" lon="20.94221">
        <ele>101.633244</ele>
        <time>2020-09-28T10:35:40.565Z</time>
      </trkpt>
      <trkpt lat="64.70597" lon="20.94214">
        <ele>101.622284</ele>
        <time>2020-09-28T10:35:42.572Z</time>
      </trkpt>
      <trkpt lat="64.70588" lon="20.94208">
        <ele>101.610781</ele>
        <time>2020-09-28T10:35:44.582Z</time>
      </trkpt>
      <trkpt lat="64.70578" lon="20.94202">
        <ele>101.59914</ele>
        <time>2020-09-28T10:35:46.583Z</time>
      </trkpt>
      <trkpt lat="64.70569" lon="20.94197">
        <ele>101.587358</ele>
        <time>2020-09-28T10:35:48.560Z</time>
      </trkpt>
      <trkpt lat="64.70559" lon="20.94191">
        <ele>101.575754</ele>
        <time>2020-09-28T10:35:50.558Z</time>
      </trkpt>
      <trkpt lat="64.7055" lon="20.94186">
        <ele>101.563531</ele>
        <time>2020-09-28T10:35:52.561Z</time>
      </trkpt>
      <trkpt lat="64.7054" lon="20.9418">
        <ele>101.452715</ele>
        <time>2020-09-28T10:35:54.577Z</time>
      </trkpt>
      <trkpt lat="64.7053" lon="20.94175">
        <ele>101.254057</ele>
        <time>2020-09-28T10:35:56.565Z</time>
      </trkpt>
      <trkpt lat="64.70521" lon="20.9417">
        <ele>101.056952</ele>
        <time>2020-09-28T10:35:58.567Z</time>
      </trkpt>
      <trkpt lat="64.70511" lon="20.94165">
        <ele>100.865325</ele>
        <time>2020-09-28T10:36:00.557Z</time>
      </trkpt>
      <trkpt lat="64.70502" lon="20.9416">
        <ele>100.67666</ele>
        <time>2020-09-28T10:36:02.572Z</time>
      </trkpt>
      <trkpt lat="64.70493" lon="20.94155">
        <ele>100.485033</ele>
        <time>2020-09-28T10:36:04.579Z</time>
      </trkpt>
      <trkpt lat="64.70484" lon="20.94151">
        <ele>100.29047</ele>
        <time>2020-09-28T10:36:06.578Z</time>
      </trkpt>
      <trkpt lat="64.70474" lon="20.94148">
        <ele>100.089824</ele>
        <time>2020-09-28T10:36:08.569Z</time>
      </trkpt>
      <trkpt lat="64.70464" lon="20.94145">
        <ele>99.892527</ele>
        <time>2020-09-28T10:36:10.558Z</time>
      </trkpt>
      <trkpt lat="64.70454" lon="20.94142">
        <ele>99.687683</ele>
        <time>2020-09-28T10:36:12.611Z</time>
      </trkpt>
      <trkpt lat="64.70444" lon="20.9414">
        <ele>99.481295</ele>
        <time>2020-09-28T10:36:14.563Z</time>
      </trkpt>
      <trkpt lat="64.70434" lon="20.94138">
        <ele>99.278831</ele>
        <time>2020-09-28T10:36:16.601Z</time>
      </trkpt>
      <trkpt lat="64.70424" lon="20.94135">
        <ele>99.078088</ele>
        <time>2020-09-28T10:36:18.571Z</time>
      </trkpt>
      <trkpt lat="64.70414" lon="20.94132">
        <ele>98.879345</ele>
        <time>2020-09-28T10:36:20.564Z</time>
      </trkpt>
      <trkpt lat="64.70404" lon="20.9413">
        <ele>98.682979</ele>
        <time>2020-09-28T10:36:22.578Z</time>
      </trkpt>
      <trkpt lat="64.70395" lon="20.94128">
        <ele>98.495099</ele>
        <time>2020-09-28T10:36:24.575Z</time>
      </trkpt>
      <trkpt lat="64.70385" lon="20.94127">
        <ele>98.303203</ele>
        <time>2020-09-28T10:36:26.569Z</time>
      </trkpt>
      <trkpt lat="64.70376" lon="20.94124">
        <ele>98.108926</ele>
        <time>2020-09-28T10:36:28.565Z</time>
      </trkpt>
      <trkpt lat="64.70366" lon="20.94123">
        <ele>97.942511</ele>
        <time>2020-09-28T10:36:30.565Z</time>
      </trkpt>
      <trkpt lat="64.70356" lon="20.94121">
        <ele>98.006325</ele>
        <time>2020-09-28T10:36:32.579Z</time>
      </trkpt>
      <trkpt lat="64.70347" lon="20.94119">
        <ele>98.068278</ele>
        <time>2020-09-28T10:36:34.616Z</time>
      </trkpt>
      <trkpt lat="64.70338" lon="20.94117">
        <ele>98.129629</ele>
        <time>2020-09-28T10:36:36.575Z</time>
      </trkpt>
      <trkpt lat="64.70329" lon="20.94115">
        <ele>98.190354</ele>
        <time>2020-09-28T10:36:38.597Z</time>
      </trkpt>
      <trkpt lat="64.70315" lon="20.94113">
        <ele>98.278522</ele>
        <time>2020-09-28T10:36:41.586Z</time>
      </trkpt>
      <trkpt lat="64.70306" lon="20.94112">
        <ele>98.339026</ele>
        <time>2020-09-28T10:36:43.588Z</time>
      </trkpt>
      <trkpt lat="64.70297" lon="20.9411">
        <ele>98.399671</ele>
        <time>2020-09-28T10:36:45.553Z</time>
      </trkpt>
      <trkpt lat="64.70287" lon="20.94109">
        <ele>98.460847</ele>
        <time>2020-09-28T10:36:47.574Z</time>
      </trkpt>
      <trkpt lat="64.70278" lon="20.94108">
        <ele>98.520654</ele>
        <time>2020-09-28T10:36:49.558Z</time>
      </trkpt>
      <trkpt lat="64.70269" lon="20.94107">
        <ele>98.580413</ele>
        <time>2020-09-28T10:36:51.596Z</time>
      </trkpt>
      <trkpt lat="64.7026" lon="20.94106">
        <ele>98.639591</ele>
        <time>2020-09-28T10:36:53.589Z</time>
      </trkpt>
      <trkpt lat="64.70251" lon="20.94106">
        <ele>98.70066</ele>
        <time>2020-09-28T10:36:55.564Z</time>
      </trkpt>
      <trkpt lat="64.70241" lon="20.94108">
        <ele>98.767787</ele>
        <time>2020-09-28T10:36:57.561Z</time>
      </trkpt>
      <trkpt lat="64.70231" lon="20.94109">
        <ele>98.834259</ele>
        <time>2020-09-28T10:36:59.583Z</time>
      </trkpt>
      <trkpt lat="64.70221" lon="20.94111">
        <ele>98.900771</ele>
        <time>2020-09-28T10:37:01.566Z</time>
      </trkpt>
      <trkpt lat="64.70211" lon="20.94113">
        <ele>98.965259</ele>
        <time>2020-09-28T10:37:03.586Z</time>
      </trkpt>
      <trkpt lat="64.70201" lon="20.94114">
        <ele>99.028371</ele>
        <time>2020-09-28T10:37:05.558Z</time>
      </trkpt>
      <trkpt lat="64.70192" lon="20.94115">
        <ele>99.090172</ele>
        <time>2020-09-28T10:37:07.573Z</time>
      </trkpt>
      <trkpt lat="64.70182" lon="20.94116">
        <ele>99.129084</ele>
        <time>2020-09-28T10:37:09.598Z</time>
      </trkpt>
      <trkpt lat="64.70172" lon="20.94118">
        <ele>99.150535</ele>
        <time>2020-09-28T10:37:11.570Z</time>
      </trkpt>
      <trkpt lat="64.70163" lon="20.94119">
        <ele>99.172408</ele>
        <time>2020-09-28T10:37:13.590Z</time>
      </trkpt>
      <trkpt lat="64.70153" lon="20.94121">
        <ele>99.194588</ele>
        <time>2020-09-28T10:37:15.567Z</time>
      </trkpt>
      <trkpt lat="64.70143" lon="20.94123">
        <ele>99.217009</ele>
        <time>2020-09-28T10:37:17.572Z</time>
      </trkpt>
      <trkpt lat="64.70133" lon="20.94126">
        <ele>99.238554</ele>
        <time>2020-09-28T10:37:19.577Z</time>
      </trkpt>
      <trkpt lat="64.70124" lon="20.94128">
        <ele>99.259625</ele>
        <time>2020-09-28T10:37:21.599Z</time>
      </trkpt>
      <trkpt lat="64.70114" lon="20.94131">
        <ele>99.281414</ele>
        <time>2020-09-28T10:37:23.561Z</time>
      </trkpt>
      <trkpt lat="64.70104" lon="20.94134">
        <ele>99.303903</ele>
        <time>2020-09-28T10:37:25.569Z</time>
      </trkpt>
      <trkpt lat="64.70095" lon="20.94137">
        <ele>99.32525</ele>
        <time>2020-09-28T10:37:27.578Z</time>
      </trkpt>
      <trkpt lat="64.70085" lon="20.9414">
        <ele>99.346455</ele>
        <time>2020-09-28T10:37:29.585Z</time>
      </trkpt>
      <trkpt lat="64.70076" lon="20.94144">
        <ele>99.366957</ele>
        <time>2020-09-28T10:37:31.556Z</time>
      </trkpt>
      <trkpt lat="64.70067" lon="20.94146">
        <ele>99.38764</ele>
        <time>2020-09-28T10:37:33.556Z</time>
      </trkpt>
      <trkpt lat="64.70058" lon="20.9415">
        <ele>99.40795</ele>
        <time>2020-09-28T10:37:35.597Z</time>
      </trkpt>
      <trkpt lat="64.70048" lon="20.94153">
        <ele>99.429361</ele>
        <time>2020-09-28T10:37:37.561Z</time>
      </trkpt>
      <trkpt lat="64.70039" lon="20.94156">
        <ele>99.451214</ele>
        <time>2020-09-28T10:37:39.587Z</time>
      </trkpt>
      <trkpt lat="64.70029" lon="20.9416">
        <ele>99.472921</ele>
        <time>2020-09-28T10:37:41.550Z</time>
      </trkpt>
      <trkpt lat="64.70019" lon="20.94163">
        <ele>99.494567</ele>
        <time>2020-09-28T10:37:43.559Z</time>
      </trkpt>
      <trkpt lat="64.7001" lon="20.94167">
        <ele>99.515978</ele>
        <time>2020-09-28T10:37:45.575Z</time>
      </trkpt>
      <trkpt lat="64.70001" lon="20.9417">
        <ele>99.573644</ele>
        <time>2020-09-28T10:37:47.561Z</time>
      </trkpt>
      <trkpt lat="64.69991" lon="20.94175">
        <ele>99.639838</ele>
        <time>2020-09-28T10:37:49.555Z</time>
      </trkpt>
      <trkpt lat="64.69982" lon="20.9418">
        <ele>99.704916</ele>
        <time>2020-09-28T10:37:51.580Z</time>
      </trkpt>
      <trkpt lat="64.69972" lon="20.94184">
        <ele>99.770243</ele>
        <time>2020-09-28T10:37:53.591Z</time>
      </trkpt>
      <trkpt lat="64.69959" lon="20.9419">
        <ele>99.857867</ele>
        <time>2020-09-28T10:37:56.590Z</time>
      </trkpt>
      <trkpt lat="64.69946" lon="20.94197">
        <ele>99.942915</ele>
        <time>2020-09-28T10:37:59.566Z</time>
      </trkpt>
      <trkpt lat="64.69934" lon="20.94201">
        <ele>100.027909</ele>
        <time>2020-09-28T10:38:02.588Z</time>
      </trkpt>
      <trkpt lat="64.69922" lon="20.94206">
        <ele>100.109071</ele>
        <time>2020-09-28T10:38:05.600Z</time>
      </trkpt>
      <trkpt lat="64.6991" lon="20.94211">
        <ele>100.184414</ele>
        <time>2020-09-28T10:38:08.574Z</time>
      </trkpt>
      <trkpt lat="64.69899" lon="20.94215">
        <ele>100.262266</ele>
        <time>2020-09-28T10:38:11.596Z</time>
      </trkpt>
      <trkpt lat="64.69887" lon="20.9422">
        <ele>100.338161</ele>
        <time>2020-09-28T10:38:14.563Z</time>
      </trkpt>
      <trkpt lat="64.69877" lon="20.94224">
        <ele>100.409953</ele>
        <time>2020-09-28T10:38:17.627Z</time>
      </trkpt>
      <trkpt lat="64.69865" lon="20.94228">
        <ele>100.486926</ele>
        <time>2020-09-28T10:38:20.622Z</time>
      </trkpt>
      <trkpt lat="64.69854" lon="20.94232">
        <ele>100.563817</ele>
        <time>2020-09-28T10:38:23.564Z</time>
      </trkpt>
      <trkpt lat="64.69843" lon="20.94237">
        <ele>100.638266</ele>
        <time>2020-09-28T10:38:26.600Z</time>
      </trkpt>
      <trkpt lat="64.69832" lon="20.9424">
        <ele>100.727206</ele>
        <time>2020-09-28T10:38:29.566Z</time>
      </trkpt>
      <trkpt lat="64.69821" lon="20.94243">
        <ele>101.066079</ele>
        <time>2020-09-28T10:38:32.554Z</time>
      </trkpt>
      <trkpt lat="64.69809" lon="20.94244">
        <ele>101.409059</ele>
        <time>2020-09-28T10:38:35.563Z</time>
      </trkpt>
      <trkpt lat="64.69798" lon="20.94247">
        <ele>101.762309</ele>
        <time>2020-09-28T10:38:38.581Z</time>
      </trkpt>
      <trkpt lat="64.69786" lon="20.94248">
        <ele>102.132543</ele>
        <time>2020-09-28T10:38:41.556Z</time>
      </trkpt>
      <trkpt lat="64.69774" lon="20.94248">
        <ele>102.48428</ele>
        <time>2020-09-28T10:38:44.584Z</time>
      </trkpt>
      <trkpt lat="64.69763" lon="20.94248">
        <ele>102.826929</ele>
        <time>2020-09-28T10:38:47.563Z</time>
      </trkpt>
      <trkpt lat="64.69752" lon="20.94248">
        <ele>103.172549</ele>
        <time>2020-09-28T10:38:50.580Z</time>
      </trkpt>
      <trkpt lat="64.6974" lon="20.94249">
        <ele>103.527402</ele>
        <time>2020-09-28T10:38:53.583Z</time>
      </trkpt>
      <trkpt lat="64.69729" lon="20.94248">
        <ele>103.873059</ele>
        <time>2020-09-28T10:38:56.586Z</time>
      </trkpt>
      <trkpt lat="64.69718" lon="20.94247">
        <ele>104.213203</ele>
        <time>2020-09-28T10:38:59.602Z</time>
      </trkpt>
      <trkpt lat="64.69706" lon="20.94247">
        <ele>104.571055</ele>
        <time>2020-09-28T10:39:02.586Z</time>
      </trkpt>
      <trkpt lat="64.69695" lon="20.94246">
        <ele>104.91977</ele>
        <time>2020-09-28T10:39:05.589Z</time>
      </trkpt>
      <trkpt lat="64.69683" lon="20.94245">
        <ele>105.27497</ele>
        <time>2020-09-28T10:39:08.604Z</time>
      </trkpt>
      <trkpt lat="64.69672" lon="20.94246">
        <ele>105.617569</ele>
        <time>2020-09-28T10:39:11.589Z</time>
      </trkpt>
      <trkpt lat="64.69661" lon="20.94245">
        <ele>105.966366</ele>
        <time>2020-09-28T10:39:14.581Z</time>
      </trkpt>
      <trkpt lat="64.69649" lon="20.94246">
        <ele>106.220348</ele>
        <time>2020-09-28T10:39:17.588Z</time>
      </trkpt>
      <trkpt lat="64.69636" lon="20.94246">
        <ele>106.25571</ele>
        <time>2020-09-28T10:39:20.560Z</time>
      </trkpt>
      <trkpt lat="64.69624" lon="20.94246">
        <ele>106.289357</ele>
        <time>2020-09-28T10:39:23.575Z</time>
      </trkpt>
      <trkpt lat="64.69613" lon="20.94247">
        <ele>106.322165</ele>
        <time>2020-09-28T10:39:26.562Z</time>
      </trkpt>
      <trkpt lat="64.69601" lon="20.94247">
        <ele>106.356666</ele>
        <time>2020-09-28T10:39:29.554Z</time>
      </trkpt>
      <trkpt lat="64.69589" lon="20.94246">
        <ele>106.389756</ele>
        <time>2020-09-28T10:39:32.567Z</time>
      </trkpt>
      <trkpt lat="64.69577" lon="20.94244">
        <ele>106.424076</ele>
        <time>2020-09-28T10:39:35.567Z</time>
      </trkpt>
      <trkpt lat="64.69565" lon="20.94243">
        <ele>106.459743</ele>
        <time>2020-09-28T10:39:38.574Z</time>
      </trkpt>
      <trkpt lat="64.69552" lon="20.94246">
        <ele>106.495855</ele>
        <time>2020-09-28T10:39:41.597Z</time>
      </trkpt>
      <trkpt lat="64.6954" lon="20.94246">
        <ele>106.530641</ele>
        <time>2020-09-28T10:39:44.561Z</time>
      </trkpt>
      <trkpt lat="64.69527" lon="20.94244">
        <ele>106.56665</ele>
        <time>2020-09-28T10:39:47.581Z</time>
      </trkpt>
      <trkpt lat="64.69514" lon="20.94243">
        <ele>106.604047</ele>
        <time>2020-09-28T10:39:50.602Z</time>
      </trkpt>
      <trkpt lat="64.69501" lon="20.94244">
        <ele>106.641409</ele>
        <time>2020-09-28T10:39:53.560Z</time>
      </trkpt>
      <trkpt lat="64.69492" lon="20.94244">
        <ele>106.668211</ele>
        <time>2020-09-28T10:39:55.552Z</time>
      </trkpt>
      <trkpt lat="64.69482" lon="20.94243">
        <ele>106.695306</ele>
        <time>2020-09-28T10:39:57.574Z</time>
      </trkpt>
      <trkpt lat="64.69473" lon="20.94243">
        <ele>106.720323</ele>
        <time>2020-09-28T10:39:59.570Z</time>
      </trkpt>
      <trkpt lat="64.69464" lon="20.94242">
        <ele>106.600837</ele>
        <time>2020-09-28T10:40:01.587Z</time>
      </trkpt>
      <trkpt lat="64.69454" lon="20.94242">
        <ele>106.477455</ele>
        <time>2020-09-28T10:40:03.591Z</time>
      </trkpt>
      <trkpt lat="64.69445" lon="20.94242">
        <ele>106.356644</ele>
        <time>2020-09-28T10:40:05.573Z</time>
      </trkpt>
      <trkpt lat="64.69435" lon="20.9424">
        <ele>106.229167</ele>
        <time>2020-09-28T10:40:07.551Z</time>
      </trkpt>
      <trkpt lat="64.69425" lon="20.9424">
        <ele>106.103162</ele>
        <time>2020-09-28T10:40:09.556Z</time>
      </trkpt>
      <trkpt lat="64.69415" lon="20.94239">
        <ele>105.97456</ele>
        <time>2020-09-28T10:40:11.612Z</time>
      </trkpt>
      <trkpt lat="64.69406" lon="20.94239">
        <ele>105.851172</ele>
        <time>2020-09-28T10:40:13.555Z</time>
      </trkpt>
      <trkpt lat="64.69396" lon="20.94239">
        <ele>105.718694</ele>
        <time>2020-09-28T10:40:15.572Z</time>
      </trkpt>
      <trkpt lat="64.69385" lon="20.94239">
        <ele>105.584923</ele>
        <time>2020-09-28T10:40:17.594Z</time>
      </trkpt>
      <trkpt lat="64.69375" lon="20.94241">
        <ele>105.445745</ele>
        <time>2020-09-28T10:40:19.571Z</time>
      </trkpt>
      <trkpt lat="64.69365" lon="20.9424">
        <ele>105.313272</ele>
        <time>2020-09-28T10:40:21.563Z</time>
      </trkpt>
      <trkpt lat="64.69354" lon="20.94239">
        <ele>105.176795</ele>
        <time>2020-09-28T10:40:23.557Z</time>
      </trkpt>
      <trkpt lat="64.69343" lon="20.94239">
        <ele>105.039123</ele>
        <time>2020-09-28T10:40:25.555Z</time>
      </trkpt>
      <trkpt lat="64.69333" lon="20.94239">
        <ele>104.897563</ele>
        <time>2020-09-28T10:40:27.601Z</time>
      </trkpt>
      <trkpt lat="64.69321" lon="20.94239">
        <ele>104.749494</ele>
        <time>2020-09-28T10:40:29.549Z</time>
      </trkpt>
      <trkpt lat="64.69309" lon="20.94239">
        <ele>104.596247</ele>
        <time>2020-09-28T10:40:31.573Z</time>
      </trkpt>
      <trkpt lat="64.69297" lon="20.9424">
        <ele>104.431042</ele>
        <time>2020-09-28T10:40:33.571Z</time>
      </trkpt>
      <trkpt lat="64.69284" lon="20.94242">
        <ele>104.153326</ele>
        <time>2020-09-28T10:40:35.573Z</time>
      </trkpt>
      <trkpt lat="64.69271" lon="20.94243">
        <ele>103.830682</ele>
        <time>2020-09-28T10:40:37.560Z</time>
      </trkpt>
      <trkpt lat="64.69258" lon="20.94242">
        <ele>103.520361</ele>
        <time>2020-09-28T10:40:39.581Z</time>
      </trkpt>
      <trkpt lat="64.69246" lon="20.94241">
        <ele>103.214791</ele>
        <time>2020-09-28T10:40:41.555Z</time>
      </trkpt>
      <trkpt lat="64.69233" lon="20.94241">
        <ele>102.899522</ele>
        <time>2020-09-28T10:40:43.604Z</time>
      </trkpt>
      <trkpt lat="64.6922" lon="20.94241">
        <ele>102.571967</ele>
        <time>2020-09-28T10:40:45.572Z</time>
      </trkpt>
      <trkpt lat="64.69206" lon="20.94241">
        <ele>102.239472</ele>
        <time>2020-09-28T10:40:47.574Z</time>
      </trkpt>
      <trkpt lat="64.69192" lon="20.94241">
        <ele>101.894653</ele>
        <time>2020-09-28T10:40:49.580Z</time>
      </trkpt>
      <trkpt lat="64.69178" lon="20.9424">
        <ele>101.557142</ele>
        <time>2020-09-28T10:40:51.572Z</time>
      </trkpt>
      <trkpt lat="64.69164" lon="20.9424">
        <ele>101.20496</ele>
        <time>2020-09-28T10:40:53.584Z</time>
      </trkpt>
      <trkpt lat="64.69149" lon="20.9424">
        <ele>100.842913</ele>
        <time>2020-09-28T10:40:55.594Z</time>
      </trkpt>
      <trkpt lat="64.69135" lon="20.9424">
        <ele>100.488261</ele>
        <time>2020-09-28T10:40:57.574Z</time>
      </trkpt>
      <trkpt lat="64.69121" lon="20.9424">
        <ele>100.136079</ele>
        <time>2020-09-28T10:40:59.572Z</time>
      </trkpt>
      <trkpt lat="64.69107" lon="20.9424">
        <ele>99.842929</ele>
        <time>2020-09-28T10:41:01.558Z</time>
      </trkpt>
      <trkpt lat="64.69092" lon="20.9424">
        <ele>99.601325</ele>
        <time>2020-09-28T10:41:03.561Z</time>
      </trkpt>
      <trkpt lat="64.69078" lon="20.9424">
        <ele>99.359705</ele>
        <time>2020-09-28T10:41:05.553Z</time>
      </trkpt>
      <trkpt lat="64.69065" lon="20.9424">
        <ele>99.131614</ele>
        <time>2020-09-28T10:41:07.557Z</time>
      </trkpt>
      <trkpt lat="64.69052" lon="20.9424">
        <ele>98.911971</ele>
        <time>2020-09-28T10:41:09.575Z</time>
      </trkpt>
      <trkpt lat="64.69039" lon="20.94239">
        <ele>98.700775</ele>
        <time>2020-09-28T10:41:11.599Z</time>
      </trkpt>
      <trkpt lat="64.69027" lon="20.9424">
        <ele>98.492943</ele>
        <time>2020-09-28T10:41:13.600Z</time>
      </trkpt>
      <trkpt lat="64.69015" lon="20.94239">
        <ele>98.293566</ele>
        <time>2020-09-28T10:41:15.560Z</time>
      </trkpt>
      <trkpt lat="64.69004" lon="20.94238">
        <ele>98.10586</ele>
        <time>2020-09-28T10:41:17.570Z</time>
      </trkpt>
      <trkpt lat="64.68993" lon="20.94238">
        <ele>97.9233</ele>
        <time>2020-09-28T10:41:19.553Z</time>
      </trkpt>
      <trkpt lat="64.68982" lon="20.94237">
        <ele>97.744204</ele>
        <time>2020-09-28T10:41:21.584Z</time>
      </trkpt>
      <trkpt lat="64.68971" lon="20.94238">
        <ele>97.556644</ele>
        <time>2020-09-28T10:41:23.566Z</time>
      </trkpt>
      <trkpt lat="64.6896" lon="20.94238">
        <ele>97.363989</ele>
        <time>2020-09-28T10:41:25.578Z</time>
      </trkpt>
      <trkpt lat="64.68949" lon="20.94237">
        <ele>97.171273</ele>
        <time>2020-09-28T10:41:27.580Z</time>
      </trkpt>
      <trkpt lat="64.68937" lon="20.94238">
        <ele>96.971897</ele>
        <time>2020-09-28T10:41:29.565Z</time>
      </trkpt>
      <trkpt lat="64.68925" lon="20.94238">
        <ele>96.981268</ele>
        <time>2020-09-28T10:41:31.588Z</time>
      </trkpt>
      <trkpt lat="64.68914" lon="20.94238">
        <ele>97.071793</ele>
        <time>2020-09-28T10:41:33.576Z</time>
      </trkpt>
      <trkpt lat="64.68902" lon="20.94238">
        <ele>97.161528</ele>
        <time>2020-09-28T10:41:35.560Z</time>
      </trkpt>
      <trkpt lat="64.68891" lon="20.94237">
        <ele>97.252912</ele>
        <time>2020-09-28T10:41:37.564Z</time>
      </trkpt>
      <trkpt lat="64.6888" lon="20.94235">
        <ele>97.340395</ele>
        <time>2020-09-28T10:41:39.547Z</time>
      </trkpt>
      <trkpt lat="64.68869" lon="20.94235">
        <ele>97.427769</ele>
        <time>2020-09-28T10:41:41.577Z</time>
      </trkpt>
      <trkpt lat="64.68858" lon="20.94235">
        <ele>97.513574</ele>
        <time>2020-09-28T10:41:43.567Z</time>
      </trkpt>
      <trkpt lat="64.68846" lon="20.94236">
        <ele>97.602524</ele>
        <time>2020-09-28T10:41:45.562Z</time>
      </trkpt>
      <trkpt lat="64.68835" lon="20.94235">
        <ele>97.690691</ele>
        <time>2020-09-28T10:41:47.590Z</time>
      </trkpt>
      <trkpt lat="64.68824" lon="20.94236">
        <ele>97.781218</ele>
        <time>2020-09-28T10:41:49.569Z</time>
      </trkpt>
      <trkpt lat="64.68813" lon="20.94236">
        <ele>97.867846</ele>
        <time>2020-09-28T10:41:51.586Z</time>
      </trkpt>
      <trkpt lat="64.68802" lon="20.94237">
        <ele>97.953651</ele>
        <time>2020-09-28T10:41:53.567Z</time>
      </trkpt>
      <trkpt lat="64.68792" lon="20.94237">
        <ele>98.033943</ele>
        <time>2020-09-28T10:41:55.575Z</time>
      </trkpt>
      <trkpt lat="64.68782" lon="20.94237">
        <ele>98.113448</ele>
        <time>2020-09-28T10:41:57.595Z</time>
      </trkpt>
      <trkpt lat="64.68772" lon="20.94237">
        <ele>98.190591</ele>
        <time>2020-09-28T10:41:59.558Z</time>
      </trkpt>
      <trkpt lat="64.68762" lon="20.94237">
        <ele>98.263796</ele>
        <time>2020-09-28T10:42:01.554Z</time>
      </trkpt>
      <trkpt lat="64.68749" lon="20.94236">
        <ele>98.425189</ele>
        <time>2020-09-28T10:42:04.591Z</time>
      </trkpt>
      <trkpt lat="64.6874" lon="20.94235">
        <ele>98.606781</ele>
        <time>2020-09-28T10:42:06.564Z</time>
      </trkpt>
      <trkpt lat="64.68731" lon="20.94235">
        <ele>98.792168</ele>
        <time>2020-09-28T10:42:08.562Z</time>
      </trkpt>
      <trkpt lat="64.68721" lon="20.94234">
        <ele>98.975586</ele>
        <time>2020-09-28T10:42:10.559Z</time>
      </trkpt>
      <trkpt lat="64.68708" lon="20.94234">
        <ele>99.244685</ele>
        <time>2020-09-28T10:42:13.562Z</time>
      </trkpt>
      <trkpt lat="64.68698" lon="20.94235">
        <ele>99.43813</ele>
        <time>2020-09-28T10:42:15.565Z</time>
      </trkpt>
      <trkpt lat="64.68689" lon="20.94235">
        <ele>99.617537</ele>
        <time>2020-09-28T10:42:17.603Z</time>
      </trkpt>
      <trkpt lat="64.68676" lon="20.94236">
        <ele>99.878801</ele>
        <time>2020-09-28T10:42:20.576Z</time>
      </trkpt>
      <trkpt lat="64.68664" lon="20.94236">
        <ele>100.126045</ele>
        <time>2020-09-28T10:42:23.576Z</time>
      </trkpt>
      <trkpt lat="64.68651" lon="20.94236">
        <ele>100.373218</ele>
        <time>2020-09-28T10:42:26.585Z</time>
      </trkpt>
      <trkpt lat="64.68639" lon="20.94236">
        <ele>100.624429</ele>
        <time>2020-09-28T10:42:29.596Z</time>
      </trkpt>
      <trkpt lat="64.68627" lon="20.94237">
        <ele>100.865695</ele>
        <time>2020-09-28T10:42:32.609Z</time>
      </trkpt>
      <trkpt lat="64.68614" lon="20.94238">
        <ele>101.127055</ele>
        <time>2020-09-28T10:42:35.610Z</time>
      </trkpt>
      <trkpt lat="64.68604" lon="20.94238">
        <ele>101.308447</ele>
        <time>2020-09-28T10:42:37.561Z</time>
      </trkpt>
      <trkpt lat="64.68591" lon="20.9424">
        <ele>101.574002</ele>
        <time>2020-09-28T10:42:40.620Z</time>
      </trkpt>
      <trkpt lat="64.68582" lon="20.94242">
        <ele>101.753919</ele>
        <time>2020-09-28T10:42:42.566Z</time>
      </trkpt>
      <trkpt lat="64.68569" lon="20.94243">
        <ele>101.865147</ele>
        <time>2020-09-28T10:42:45.577Z</time>
      </trkpt>
      <trkpt lat="64.68556" lon="20.94246">
        <ele>101.726275</ele>
        <time>2020-09-28T10:42:48.556Z</time>
      </trkpt>
      <trkpt lat="64.68543" lon="20.9425">
        <ele>101.587871</ele>
        <time>2020-09-28T10:42:51.573Z</time>
      </trkpt>
      <trkpt lat="64.6853" lon="20.94255">
        <ele>101.445204</ele>
        <time>2020-09-28T10:42:54.570Z</time>
      </trkpt>
      <trkpt lat="64.68521" lon="20.94259">
        <ele>101.344669</ele>
        <time>2020-09-28T10:42:56.553Z</time>
      </trkpt>
      <trkpt lat="64.68511" lon="20.94263">
        <ele>101.244929</ele>
        <time>2020-09-28T10:42:58.577Z</time>
      </trkpt>
      <trkpt lat="64.68498" lon="20.9427">
        <ele>101.102046</ele>
        <time>2020-09-28T10:43:01.576Z</time>
      </trkpt>
      <trkpt lat="64.68486" lon="20.94278">
        <ele>100.964503</ele>
        <time>2020-09-28T10:43:04.559Z</time>
      </trkpt>
      <trkpt lat="64.68473" lon="20.94285">
        <ele>100.821818</ele>
        <time>2020-09-28T10:43:07.571Z</time>
      </trkpt>
      <trkpt lat="64.6846" lon="20.94292">
        <ele>100.683911</ele>
        <time>2020-09-28T10:43:10.574Z</time>
      </trkpt>
      <trkpt lat="64.68451" lon="20.94298">
        <ele>100.585354</ele>
        <time>2020-09-28T10:43:12.596Z</time>
      </trkpt>
      <trkpt lat="64.68442" lon="20.94304">
        <ele>100.487819</ele>
        <time>2020-09-28T10:43:14.573Z</time>
      </trkpt>
      <trkpt lat="64.68434" lon="20.9431">
        <ele>100.389759</ele>
        <time>2020-09-28T10:43:16.575Z</time>
      </trkpt>
      <trkpt lat="64.68424" lon="20.94317">
        <ele>100.28653</ele>
        <time>2020-09-28T10:43:18.578Z</time>
      </trkpt>
      <trkpt lat="64.68415" lon="20.94324">
        <ele>100.184878</ele>
        <time>2020-09-28T10:43:20.594Z</time>
      </trkpt>
      <trkpt lat="64.68406" lon="20.94332">
        <ele>100.083062</ele>
        <time>2020-09-28T10:43:22.562Z</time>
      </trkpt>
      <trkpt lat="64.68396" lon="20.94341">
        <ele>99.91716</ele>
        <time>2020-09-28T10:43:24.558Z</time>
      </trkpt>
      <trkpt lat="64.68385" lon="20.94349">
        <ele>99.620291</ele>
        <time>2020-09-28T10:43:26.597Z</time>
      </trkpt>
      <trkpt lat="64.68375" lon="20.94359">
        <ele>99.326388</ele>
        <time>2020-09-28T10:43:28.568Z</time>
      </trkpt>
      <trkpt lat="64.68363" lon="20.94368">
        <ele>99.015819</ele>
        <time>2020-09-28T10:43:30.591Z</time>
      </trkpt>
      <trkpt lat="64.68352" lon="20.94378">
        <ele>98.693623</ele>
        <time>2020-09-28T10:43:32.570Z</time>
      </trkpt>
      <trkpt lat="64.6834" lon="20.94389">
        <ele>98.356654</ele>
        <time>2020-09-28T10:43:34.631Z</time>
      </trkpt>
      <trkpt lat="64.68328" lon="20.94399">
        <ele>98.022822</ele>
        <time>2020-09-28T10:43:36.602Z</time>
      </trkpt>
      <trkpt lat="64.68315" lon="20.94409">
        <ele>97.680674</ele>
        <time>2020-09-28T10:43:38.584Z</time>
      </trkpt>
      <trkpt lat="64.68303" lon="20.9442">
        <ele>97.351322</ele>
        <time>2020-09-28T10:43:40.561Z</time>
      </trkpt>
      <trkpt lat="64.68291" lon="20.9443">
        <ele>97.023869</ele>
        <time>2020-09-28T10:43:42.577Z</time>
      </trkpt>
      <trkpt lat="64.68279" lon="20.94439">
        <ele>96.690855</ele>
        <time>2020-09-28T10:43:44.569Z</time>
      </trkpt>
      <trkpt lat="64.68267" lon="20.94447">
        <ele>96.355854</ele>
        <time>2020-09-28T10:43:46.611Z</time>
      </trkpt>
      <trkpt lat="64.68254" lon="20.94456">
        <ele>96.016482</ele>
        <time>2020-09-28T10:43:48.573Z</time>
      </trkpt>
      <trkpt lat="64.68241" lon="20.94465">
        <ele>95.665181</ele>
        <time>2020-09-28T10:43:50.591Z</time>
      </trkpt>
      <trkpt lat="64.68228" lon="20.94475">
        <ele>95.29053</ele>
        <time>2020-09-28T10:43:52.551Z</time>
      </trkpt>
      <trkpt lat="64.68214" lon="20.94484">
        <ele>94.757404</ele>
        <time>2020-09-28T10:43:54.555Z</time>
      </trkpt>
      <trkpt lat="64.682" lon="20.94492">
        <ele>94.211555</ele>
        <time>2020-09-28T10:43:56.593Z</time>
      </trkpt>
      <trkpt lat="64.68185" lon="20.945">
        <ele>93.649186</ele>
        <time>2020-09-28T10:43:58.567Z</time>
      </trkpt>
      <trkpt lat="64.6817" lon="20.94508">
        <ele>93.079363</ele>
        <time>2020-09-28T10:44:00.577Z</time>
      </trkpt>
      <trkpt lat="64.68154" lon="20.94514">
        <ele>92.48238</ele>
        <time>2020-09-28T10:44:02.553Z</time>
      </trkpt>
      <trkpt lat="64.68138" lon="20.9452">
        <ele>91.852644</ele>
        <time>2020-09-28T10:44:04.567Z</time>
      </trkpt>
      <trkpt lat="64.6812" lon="20.94526">
        <ele>91.205973</ele>
        <time>2020-09-28T10:44:06.582Z</time>
      </trkpt>
      <trkpt lat="64.68103" lon="20.94531">
        <ele>90.54583</ele>
        <time>2020-09-28T10:44:08.559Z</time>
      </trkpt>
      <trkpt lat="64.68094" lon="20.94534">
        <ele>90.208564</ele>
        <time>2020-09-28T10:44:09.584Z</time>
      </trkpt>
      <trkpt lat="64.68076" lon="20.9454">
        <ele>89.550841</ele>
        <time>2020-09-28T10:44:11.583Z</time>
      </trkpt>
      <trkpt lat="64.68067" lon="20.94543">
        <ele>89.209079</ele>
        <time>2020-09-28T10:44:12.591Z</time>
      </trkpt>
      <trkpt lat="64.68058" lon="20.94545">
        <ele>88.875509</ele>
        <time>2020-09-28T10:44:13.554Z</time>
      </trkpt>
      <trkpt lat="64.68049" lon="20.94547">
        <ele>88.53823</ele>
        <time>2020-09-28T10:44:14.570Z</time>
      </trkpt>
      <trkpt lat="64.6804" lon="20.9455">
        <ele>88.192756</ele>
        <time>2020-09-28T10:44:15.560Z</time>
      </trkpt>
      <trkpt lat="64.6803" lon="20.94552">
        <ele>87.844197</ele>
        <time>2020-09-28T10:44:16.569Z</time>
      </trkpt>
      <trkpt lat="64.68021" lon="20.94555">
        <ele>87.495638</ele>
        <time>2020-09-28T10:44:17.597Z</time>
      </trkpt>
      <trkpt lat="64.68011" lon="20.94557">
        <ele>87.150828</ele>
        <time>2020-09-28T10:44:18.563Z</time>
      </trkpt>
      <trkpt lat="64.68001" lon="20.9456">
        <ele>86.801202</ele>
        <time>2020-09-28T10:44:19.570Z</time>
      </trkpt>
      <trkpt lat="64.67991" lon="20.94563">
        <ele>86.43705</ele>
        <time>2020-09-28T10:44:20.571Z</time>
      </trkpt>
      <trkpt lat="64.67982" lon="20.94566">
        <ele>86.080062</ele>
        <time>2020-09-28T10:44:21.564Z</time>
      </trkpt>
      <trkpt lat="64.67972" lon="20.94569">
        <ele>85.726655</ele>
        <time>2020-09-28T10:44:22.566Z</time>
      </trkpt>
      <trkpt lat="64.67962" lon="20.94571">
        <ele>85.370239</ele>
        <time>2020-09-28T10:44:23.585Z</time>
      </trkpt>
      <trkpt lat="64.67952" lon="20.94574">
        <ele>85.013823</ele>
        <time>2020-09-28T10:44:24.592Z</time>
      </trkpt>
      <trkpt lat="64.67943" lon="20.94577">
        <ele>84.667976</ele>
        <time>2020-09-28T10:44:25.566Z</time>
      </trkpt>
      <trkpt lat="64.67933" lon="20.9458">
        <ele>84.318545</ele>
        <time>2020-09-28T10:44:26.589Z</time>
      </trkpt>
      <trkpt lat="64.67924" lon="20.94582">
        <ele>83.969483</ele>
        <time>2020-09-28T10:44:27.568Z</time>
      </trkpt>
      <trkpt lat="64.67914" lon="20.94585">
        <ele>83.608913</ele>
        <time>2020-09-28T10:44:28.558Z</time>
      </trkpt>
      <trkpt lat="64.67904" lon="20.94588">
        <ele>83.237784</ele>
        <time>2020-09-28T10:44:29.576Z</time>
      </trkpt>
      <trkpt lat="64.67894" lon="20.94591">
        <ele>82.877781</ele>
        <time>2020-09-28T10:44:30.570Z</time>
      </trkpt>
      <trkpt lat="64.67884" lon="20.94593">
        <ele>82.525303</ele>
        <time>2020-09-28T10:44:31.571Z</time>
      </trkpt>
      <trkpt lat="64.67874" lon="20.94596">
        <ele>82.172826</ele>
        <time>2020-09-28T10:44:32.577Z</time>
      </trkpt>
      <trkpt lat="64.67865" lon="20.94598">
        <ele>81.822079</ele>
        <time>2020-09-28T10:44:33.577Z</time>
      </trkpt>
      <trkpt lat="64.67855" lon="20.94601">
        <ele>81.470173</ele>
        <time>2020-09-28T10:44:34.569Z</time>
      </trkpt>
      <trkpt lat="64.67845" lon="20.94605">
        <ele>81.12119</ele>
        <time>2020-09-28T10:44:35.608Z</time>
      </trkpt>
      <trkpt lat="64.67836" lon="20.94608">
        <ele>80.779323</ele>
        <time>2020-09-28T10:44:36.562Z</time>
      </trkpt>
      <trkpt lat="64.67826" lon="20.94611">
        <ele>80.436985</ele>
        <time>2020-09-28T10:44:37.603Z</time>
      </trkpt>
      <trkpt lat="64.67817" lon="20.94615">
        <ele>80.10175</ele>
        <time>2020-09-28T10:44:38.577Z</time>
      </trkpt>
      <trkpt lat="64.67808" lon="20.94618">
        <ele>79.777892</ele>
        <time>2020-09-28T10:44:39.581Z</time>
      </trkpt>
      <trkpt lat="64.67791" lon="20.94624">
        <ele>79.138202</ele>
        <time>2020-09-28T10:44:41.595Z</time>
      </trkpt>
      <trkpt lat="64.67774" lon="20.94631">
        <ele>78.523911</ele>
        <time>2020-09-28T10:44:43.556Z</time>
      </trkpt>
      <trkpt lat="64.67758" lon="20.94638">
        <ele>77.929714</ele>
        <time>2020-09-28T10:44:45.590Z</time>
      </trkpt>
      <trkpt lat="64.67742" lon="20.94643">
        <ele>77.354495</ele>
        <time>2020-09-28T10:44:47.564Z</time>
      </trkpt>
      <trkpt lat="64.67727" lon="20.9465">
        <ele>76.794365</ele>
        <time>2020-09-28T10:44:49.554Z</time>
      </trkpt>
      <trkpt lat="64.67712" lon="20.94656">
        <ele>76.268027</ele>
        <time>2020-09-28T10:44:51.595Z</time>
      </trkpt>
      <trkpt lat="64.67698" lon="20.94662">
        <ele>75.747052</ele>
        <time>2020-09-28T10:44:53.574Z</time>
      </trkpt>
      <trkpt lat="64.67684" lon="20.94667">
        <ele>75.609347</ele>
        <time>2020-09-28T10:44:55.561Z</time>
      </trkpt>
      <trkpt lat="64.67671" lon="20.94672">
        <ele>75.528522</ele>
        <time>2020-09-28T10:44:57.582Z</time>
      </trkpt>
      <trkpt lat="64.67658" lon="20.94676">
        <ele>75.452487</ele>
        <time>2020-09-28T10:44:59.565Z</time>
      </trkpt>
      <trkpt lat="64.67646" lon="20.94681">
        <ele>75.378061</ele>
        <time>2020-09-28T10:45:01.587Z</time>
      </trkpt>
      <trkpt lat="64.67634" lon="20.94686">
        <ele>75.302698</ele>
        <time>2020-09-28T10:45:03.590Z</time>
      </trkpt>
      <trkpt lat="64.67622" lon="20.9469">
        <ele>75.231052</ele>
        <time>2020-09-28T10:45:05.559Z</time>
      </trkpt>
      <trkpt lat="64.6761" lon="20.94694">
        <ele>75.160632</ele>
        <time>2020-09-28T10:45:07.597Z</time>
      </trkpt>
      <trkpt lat="64.67599" lon="20.94698">
        <ele>75.090652</ele>
        <time>2020-09-28T10:45:09.573Z</time>
      </trkpt>
      <trkpt lat="64.67588" lon="20.94701">
        <ele>75.022821</ele>
        <time>2020-09-28T10:45:11.569Z</time>
      </trkpt>
      <trkpt lat="64.67577" lon="20.94704">
        <ele>74.956841</ele>
        <time>2020-09-28T10:45:13.568Z</time>
      </trkpt>
      <trkpt lat="64.67566" lon="20.94707">
        <ele>74.890893</ele>
        <time>2020-09-28T10:45:15.592Z</time>
      </trkpt>
      <trkpt lat="64.67555" lon="20.9471">
        <ele>74.827473</ele>
        <time>2020-09-28T10:45:17.582Z</time>
      </trkpt>
      <trkpt lat="64.67545" lon="20.94712">
        <ele>74.765989</ele>
        <time>2020-09-28T10:45:19.574Z</time>
      </trkpt>
      <trkpt lat="64.67535" lon="20.94715">
        <ele>74.702991</ele>
        <time>2020-09-28T10:45:21.590Z</time>
      </trkpt>
      <trkpt lat="64.67524" lon="20.94717">
        <ele>74.639622</ele>
        <time>2020-09-28T10:45:23.586Z</time>
      </trkpt>
      <trkpt lat="64.67513" lon="20.94722">
        <ele>74.722022</ele>
        <time>2020-09-28T10:45:25.567Z</time>
      </trkpt>
      <trkpt lat="64.67503" lon="20.94726">
        <ele>75.01006</ele>
        <time>2020-09-28T10:45:27.583Z</time>
      </trkpt>
      <trkpt lat="64.67492" lon="20.9473">
        <ele>75.302299</ele>
        <time>2020-09-28T10:45:29.571Z</time>
      </trkpt>
      <trkpt lat="64.6748" lon="20.94735">
        <ele>75.610607</ele>
        <time>2020-09-28T10:45:31.560Z</time>
      </trkpt>
      <trkpt lat="64.67469" lon="20.9474">
        <ele>75.917723</ele>
        <time>2020-09-28T10:45:33.560Z</time>
      </trkpt>
      <trkpt lat="64.67457" lon="20.94744">
        <ele>76.219651</ele>
        <time>2020-09-28T10:45:35.606Z</time>
      </trkpt>
      <trkpt lat="64.67446" lon="20.94748">
        <ele>76.511711</ele>
        <time>2020-09-28T10:45:37.561Z</time>
      </trkpt>
      <trkpt lat="64.67436" lon="20.94752">
        <ele>76.792722</ele>
        <time>2020-09-28T10:45:39.587Z</time>
      </trkpt>
      <trkpt lat="64.67425" lon="20.94755">
        <ele>77.072681</ele>
        <time>2020-09-28T10:45:41.595Z</time>
      </trkpt>
      <trkpt lat="64.67415" lon="20.94757">
        <ele>77.344437</ele>
        <time>2020-09-28T10:45:43.569Z</time>
      </trkpt>
      <trkpt lat="64.67404" lon="20.9476">
        <ele>77.618447</ele>
        <time>2020-09-28T10:45:45.622Z</time>
      </trkpt>
      <trkpt lat="64.67394" lon="20.94762">
        <ele>77.897373</ele>
        <time>2020-09-28T10:45:47.568Z</time>
      </trkpt>
      <trkpt lat="64.67383" lon="20.94766">
        <ele>78.173032</ele>
        <time>2020-09-28T10:45:49.555Z</time>
      </trkpt>
      <trkpt lat="64.67372" lon="20.94769">
        <ele>78.459564</ele>
        <time>2020-09-28T10:45:51.591Z</time>
      </trkpt>
      <trkpt lat="64.67362" lon="20.94774">
        <ele>78.746629</ele>
        <time>2020-09-28T10:45:53.580Z</time>
      </trkpt>
      <trkpt lat="64.67351" lon="20.94777">
        <ele>79.031929</ele>
        <time>2020-09-28T10:45:55.556Z</time>
      </trkpt>
      <trkpt lat="64.6734" lon="20.9478">
        <ele>79.319258</ele>
        <time>2020-09-28T10:45:57.590Z</time>
      </trkpt>
      <trkpt lat="64.67329" lon="20.94784">
        <ele>79.372118</ele>
        <time>2020-09-28T10:45:59.573Z</time>
      </trkpt>
      <trkpt lat="64.67318" lon="20.94788">
        <ele>79.423179</ele>
        <time>2020-09-28T10:46:01.554Z</time>
      </trkpt>
      <trkpt lat="64.67308" lon="20.94792">
        <ele>79.47503</ele>
        <time>2020-09-28T10:46:03.557Z</time>
      </trkpt>
      <trkpt lat="64.67297" lon="20.94796">
        <ele>79.528121</ele>
        <time>2020-09-28T10:46:05.600Z</time>
      </trkpt>
      <trkpt lat="64.67286" lon="20.94801">
        <ele>79.580196</ele>
        <time>2020-09-28T10:46:07.549Z</time>
      </trkpt>
      <trkpt lat="64.67275" lon="20.94804">
        <ele>79.633056</ele>
        <time>2020-09-28T10:46:09.573Z</time>
      </trkpt>
      <trkpt lat="64.67265" lon="20.94807">
        <ele>79.681441</ele>
        <time>2020-09-28T10:46:11.606Z</time>
      </trkpt>
      <trkpt lat="64.67255" lon="20.94811">
        <ele>79.731839</ele>
        <time>2020-09-28T10:46:13.568Z</time>
      </trkpt>
      <trkpt lat="64.67244" lon="20.94814">
        <ele>79.781651</ele>
        <time>2020-09-28T10:46:15.559Z</time>
      </trkpt>
      <trkpt lat="64.67234" lon="20.94818">
        <ele>79.833562</ele>
        <time>2020-09-28T10:46:17.561Z</time>
      </trkpt>
      <trkpt lat="64.67223" lon="20.94822">
        <ele>79.88699</ele>
        <time>2020-09-28T10:46:19.572Z</time>
      </trkpt>
      <trkpt lat="64.67212" lon="20.94826">
        <ele>79.937953</ele>
        <time>2020-09-28T10:46:21.604Z</time>
      </trkpt>
      <trkpt lat="64.67202" lon="20.9483">
        <ele>79.988948</ele>
        <time>2020-09-28T10:46:23.618Z</time>
      </trkpt>
      <trkpt lat="64.67192" lon="20.94833">
        <ele>80.034604</ele>
        <time>2020-09-28T10:46:25.557Z</time>
      </trkpt>
      <trkpt lat="64.67182" lon="20.94837">
        <ele>80.084146</ele>
        <time>2020-09-28T10:46:27.578Z</time>
      </trkpt>
      <trkpt lat="64.67172" lon="20.9484">
        <ele>80.132083</ele>
        <time>2020-09-28T10:46:29.557Z</time>
      </trkpt>
      <trkpt lat="64.67162" lon="20.94843">
        <ele>80.180048</ele>
        <time>2020-09-28T10:46:31.573Z</time>
      </trkpt>
      <trkpt lat="64.67152" lon="20.94847">
        <ele>80.221436</ele>
        <time>2020-09-28T10:46:33.557Z</time>
      </trkpt>
      <trkpt lat="64.67143" lon="20.94851">
        <ele>80.261685</ele>
        <time>2020-09-28T10:46:35.625Z</time>
      </trkpt>
      <trkpt lat="64.67133" lon="20.94855">
        <ele>80.301068</ele>
        <time>2020-09-28T10:46:37.555Z</time>
      </trkpt>
      <trkpt lat="64.67124" lon="20.94859">
        <ele>80.340514</ele>
        <time>2020-09-28T10:46:39.560Z</time>
      </trkpt>
      <trkpt lat="64.67114" lon="20.94863">
        <ele>80.380644</ele>
        <time>2020-09-28T10:46:41.594Z</time>
      </trkpt>
      <trkpt lat="64.67105" lon="20.94866">
        <ele>80.418573</ele>
        <time>2020-09-28T10:46:43.554Z</time>
      </trkpt>
      <trkpt lat="64.67096" lon="20.94869">
        <ele>80.45524</ele>
        <time>2020-09-28T10:46:45.609Z</time>
      </trkpt>
      <trkpt lat="64.67086" lon="20.94872">
        <ele>80.493978</ele>
        <time>2020-09-28T10:46:47.570Z</time>
      </trkpt>
      <trkpt lat="64.67073" lon="20.94876">
        <ele>80.548709</ele>
        <time>2020-09-28T10:46:50.575Z</time>
      </trkpt>
      <trkpt lat="64.67064" lon="20.94878">
        <ele>80.585353</ele>
        <time>2020-09-28T10:46:52.566Z</time>
      </trkpt>
      <trkpt lat="64.67051" lon="20.94883">
        <ele>80.639039</ele>
        <time>2020-09-28T10:46:55.557Z</time>
      </trkpt>
      <trkpt lat="64.67038" lon="20.94887">
        <ele>80.692173</ele>
        <time>2020-09-28T10:46:58.577Z</time>
      </trkpt>
      <trkpt lat="64.67026" lon="20.94891">
        <ele>80.741262</ele>
        <time>2020-09-28T10:47:01.591Z</time>
      </trkpt>
      <trkpt lat="64.67015" lon="20.94894">
        <ele>80.790256</ele>
        <time>2020-09-28T10:47:04.563Z</time>
      </trkpt>
      <trkpt lat="64.67003" lon="20.94898">
        <ele>80.839228</ele>
        <time>2020-09-28T10:47:07.592Z</time>
      </trkpt>
      <trkpt lat="64.66991" lon="20.94902">
        <ele>80.887413</ele>
        <time>2020-09-28T10:47:10.572Z</time>
      </trkpt>
      <trkpt lat="64.6698" lon="20.94906">
        <ele>81.035556</ele>
        <time>2020-09-28T10:47:13.570Z</time>
      </trkpt>
      <trkpt lat="64.66968" lon="20.9491">
        <ele>81.328389</ele>
        <time>2020-09-28T10:47:16.568Z</time>
      </trkpt>
      <trkpt lat="64.66956" lon="20.94914">
        <ele>81.624045</ele>
        <time>2020-09-28T10:47:19.563Z</time>
      </trkpt>
      <trkpt lat="64.66945" lon="20.94919">
        <ele>81.919365</ele>
        <time>2020-09-28T10:47:22.558Z</time>
      </trkpt>
      <trkpt lat="64.66933" lon="20.94922">
        <ele>82.210484</ele>
        <time>2020-09-28T10:47:25.584Z</time>
      </trkpt>
      <trkpt lat="64.66922" lon="20.94925">
        <ele>82.489362</ele>
        <time>2020-09-28T10:47:28.599Z</time>
      </trkpt>
      <trkpt lat="64.66911" lon="20.94929">
        <ele>82.774573</ele>
        <time>2020-09-28T10:47:31.581Z</time>
      </trkpt>
      <trkpt lat="64.669" lon="20.94933">
        <ele>83.061946</ele>
        <time>2020-09-28T10:47:34.573Z</time>
      </trkpt>
      <trkpt lat="64.66889" lon="20.94937">
        <ele>83.348039</ele>
        <time>2020-09-28T10:47:37.598Z</time>
      </trkpt>
      <trkpt lat="64.66878" lon="20.94941">
        <ele>83.629686</ele>
        <time>2020-09-28T10:47:40.560Z</time>
      </trkpt>
      <trkpt lat="64.66867" lon="20.94943">
        <ele>83.905338</ele>
        <time>2020-09-28T10:47:43.594Z</time>
      </trkpt>
      <trkpt lat="64.66855" lon="20.94947">
        <ele>84.18921</ele>
        <time>2020-09-28T10:47:46.563Z</time>
      </trkpt>
      <trkpt lat="64.66844" lon="20.94953">
        <ele>84.486873</ele>
        <time>2020-09-28T10:47:49.574Z</time>
      </trkpt>
      <trkpt lat="64.66832" lon="20.94957">
        <ele>84.799157</ele>
        <time>2020-09-28T10:47:52.559Z</time>
      </trkpt>
      <trkpt lat="64.6682" lon="20.94962">
        <ele>85.095917</ele>
        <time>2020-09-28T10:47:55.584Z</time>
      </trkpt>
      <trkpt lat="64.66809" lon="20.94966">
        <ele>85.365398</ele>
        <time>2020-09-28T10:47:58.601Z</time>
      </trkpt>
      <trkpt lat="64.66799" lon="20.94969">
        <ele>85.440556</ele>
        <time>2020-09-28T10:48:01.594Z</time>
      </trkpt>
      <trkpt lat="64.66787" lon="20.94972">
        <ele>85.441258</ele>
        <time>2020-09-28T10:48:04.584Z</time>
      </trkpt>
      <trkpt lat="64.66775" lon="20.94975">
        <ele>85.441958</ele>
        <time>2020-09-28T10:48:07.555Z</time>
      </trkpt>
      <trkpt lat="64.66763" lon="20.94981">
        <ele>85.44267</ele>
        <time>2020-09-28T10:48:10.582Z</time>
      </trkpt>
      <trkpt lat="64.66751" lon="20.94984">
        <ele>85.443409</ele>
        <time>2020-09-28T10:48:13.579Z</time>
      </trkpt>
      <trkpt lat="64.66739" lon="20.94988">
        <ele>85.444141</ele>
        <time>2020-09-28T10:48:16.558Z</time>
      </trkpt>
      <trkpt lat="64.66726" lon="20.94991">
        <ele>85.444868</ele>
        <time>2020-09-28T10:48:19.570Z</time>
      </trkpt>
      <trkpt lat="64.66714" lon="20.94994">
        <ele>85.445607</ele>
        <time>2020-09-28T10:48:22.572Z</time>
      </trkpt>
      <trkpt lat="64.66701" lon="20.94998">
        <ele>85.446378</ele>
        <time>2020-09-28T10:48:25.579Z</time>
      </trkpt>
      <trkpt lat="64.66689" lon="20.95">
        <ele>85.447122</ele>
        <time>2020-09-28T10:48:28.561Z</time>
      </trkpt>
      <trkpt lat="64.66676" lon="20.95004">
        <ele>85.447892</ele>
        <time>2020-09-28T10:48:31.564Z</time>
      </trkpt>
      <trkpt lat="64.66666" lon="20.95008">
        <ele>85.448469</ele>
        <time>2020-09-28T10:48:33.582Z</time>
      </trkpt>
      <trkpt lat="64.66653" lon="20.95013">
        <ele>85.449273</ele>
        <time>2020-09-28T10:48:36.559Z</time>
      </trkpt>
      <trkpt lat="64.66643" lon="20.95015">
        <ele>85.449833</ele>
        <time>2020-09-28T10:48:38.580Z</time>
      </trkpt>
      <trkpt lat="64.66634" lon="20.95017">
        <ele>85.450412</ele>
        <time>2020-09-28T10:48:40.573Z</time>
      </trkpt>
      <trkpt lat="64.66625" lon="20.95019">
        <ele>85.379337</ele>
        <time>2020-09-28T10:48:42.583Z</time>
      </trkpt>
      <trkpt lat="64.66615" lon="20.95024">
        <ele>85.179449</ele>
        <time>2020-09-28T10:48:44.552Z</time>
      </trkpt>
      <trkpt lat="64.66605" lon="20.95031">
        <ele>84.968128</ele>
        <time>2020-09-28T10:48:46.585Z</time>
      </trkpt>
      <trkpt lat="64.66595" lon="20.95037">
        <ele>84.75841</ele>
        <time>2020-09-28T10:48:48.561Z</time>
      </trkpt>
      <trkpt lat="64.66586" lon="20.95042">
        <ele>84.560717</ele>
        <time>2020-09-28T10:48:50.599Z</time>
      </trkpt>
      <trkpt lat="64.66576" lon="20.95045">
        <ele>84.347193</ele>
        <time>2020-09-28T10:48:52.572Z</time>
      </trkpt>
      <trkpt lat="64.66566" lon="20.95047">
        <ele>84.143221</ele>
        <time>2020-09-28T10:48:54.587Z</time>
      </trkpt>
      <trkpt lat="64.66555" lon="20.95051">
        <ele>83.921444</ele>
        <time>2020-09-28T10:48:56.570Z</time>
      </trkpt>
      <trkpt lat="64.66545" lon="20.9506">
        <ele>83.6938</ele>
        <time>2020-09-28T10:48:58.598Z</time>
      </trkpt>
      <trkpt lat="64.66536" lon="20.95082">
        <ele>83.435542</ele>
        <time>2020-09-28T10:49:00.575Z</time>
      </trkpt>
      <trkpt lat="64.66532" lon="20.95112">
        <ele>83.153282</ele>
        <time>2020-09-28T10:49:02.594Z</time>
      </trkpt>
      <trkpt lat="64.66533" lon="20.95141">
        <ele>82.89614</ele>
        <time>2020-09-28T10:49:04.567Z</time>
      </trkpt>
      <trkpt lat="64.66535" lon="20.9517">
        <ele>82.641599</ele>
        <time>2020-09-28T10:49:06.558Z</time>
      </trkpt>
      <trkpt lat="64.66536" lon="20.95197">
        <ele>82.399001</ele>
        <time>2020-09-28T10:49:08.577Z</time>
      </trkpt>
      <trkpt lat="64.66536" lon="20.95225">
        <ele>82.155275</ele>
        <time>2020-09-28T10:49:10.569Z</time>
      </trkpt>
      <trkpt lat="64.66536" lon="20.95254">
        <ele>81.903055</ele>
        <time>2020-09-28T10:49:12.590Z</time>
      </trkpt>
      <trkpt lat="64.66534" lon="20.95283">
        <ele>81.594354</ele>
        <time>2020-09-28T10:49:14.580Z</time>
      </trkpt>
      <trkpt lat="64.66531" lon="20.95311">
        <ele>81.215957</ele>
        <time>2020-09-28T10:49:16.558Z</time>
      </trkpt>
      <trkpt lat="64.66526" lon="20.95339">
        <ele>80.825795</ele>
        <time>2020-09-28T10:49:18.601Z</time>
      </trkpt>
      <trkpt lat="64.6652" lon="20.95367">
        <ele>80.417511</ele>
        <time>2020-09-28T10:49:20.580Z</time>
      </trkpt>
      <trkpt lat="64.66513" lon="20.95396">
        <ele>79.984243</ele>
        <time>2020-09-28T10:49:22.574Z</time>
      </trkpt>
      <trkpt lat="64.66504" lon="20.95423">
        <ele>79.546256</ele>
        <time>2020-09-28T10:49:24.570Z</time>
      </trkpt>
      <trkpt lat="64.66494" lon="20.95448">
        <ele>79.103532</ele>
        <time>2020-09-28T10:49:26.582Z</time>
      </trkpt>
      <trkpt lat="64.66483" lon="20.95471">
        <ele>78.659629</ele>
        <time>2020-09-28T10:49:28.589Z</time>
      </trkpt>
      <trkpt lat="64.66472" lon="20.95494">
        <ele>78.222774</ele>
        <time>2020-09-28T10:49:30.560Z</time>
      </trkpt>
      <trkpt lat="64.66462" lon="20.95517">
        <ele>77.789001</ele>
        <time>2020-09-28T10:49:32.592Z</time>
      </trkpt>
      <trkpt lat="64.66451" lon="20.95539">
        <ele>77.358583</ele>
        <time>2020-09-28T10:49:34.564Z</time>
      </trkpt>
      <trkpt lat="64.66441" lon="20.95563">
        <ele>76.927401</ele>
        <time>2020-09-28T10:49:36.561Z</time>
      </trkpt>
      <trkpt lat="64.66431" lon="20.95586">
        <ele>76.506274</ele>
        <time>2020-09-28T10:49:38.570Z</time>
      </trkpt>
      <trkpt lat="64.66422" lon="20.95608">
        <ele>76.191201</ele>
        <time>2020-09-28T10:49:40.567Z</time>
      </trkpt>
      <trkpt lat="64.66412" lon="20.95628">
        <ele>75.943854</ele>
        <time>2020-09-28T10:49:42.598Z</time>
      </trkpt>
      <trkpt lat="64.66403" lon="20.95647">
        <ele>75.712251</ele>
        <time>2020-09-28T10:49:44.596Z</time>
      </trkpt>
      <trkpt lat="64.66394" lon="20.95667">
        <ele>75.471937</ele>
        <time>2020-09-28T10:49:46.612Z</time>
      </trkpt>
      <trkpt lat="64.66386" lon="20.95687">
        <ele>75.239049</ele>
        <time>2020-09-28T10:49:48.569Z</time>
      </trkpt>
      <trkpt lat="64.66378" lon="20.95707">
        <ele>75.015488</ele>
        <time>2020-09-28T10:49:50.581Z</time>
      </trkpt>
      <trkpt lat="64.6637" lon="20.95727">
        <ele>74.78529</ele>
        <time>2020-09-28T10:49:52.565Z</time>
      </trkpt>
      <trkpt lat="64.66361" lon="20.95746">
        <ele>74.562148</ele>
        <time>2020-09-28T10:49:54.614Z</time>
      </trkpt>
      <trkpt lat="64.66353" lon="20.95765">
        <ele>74.334897</ele>
        <time>2020-09-28T10:49:56.576Z</time>
      </trkpt>
      <trkpt lat="64.66345" lon="20.95785">
        <ele>74.106627</ele>
        <time>2020-09-28T10:49:58.570Z</time>
      </trkpt>
      <trkpt lat="64.66336" lon="20.95804">
        <ele>73.88039</ele>
        <time>2020-09-28T10:50:00.580Z</time>
      </trkpt>
      <trkpt lat="64.66327" lon="20.95823">
        <ele>73.654154</ele>
        <time>2020-09-28T10:50:02.569Z</time>
      </trkpt>
      <trkpt lat="64.66319" lon="20.95842">
        <ele>73.427859</ele>
        <time>2020-09-28T10:50:04.581Z</time>
      </trkpt>
      <trkpt lat="64.66311" lon="20.9586">
        <ele>73.213823</ele>
        <time>2020-09-28T10:50:06.558Z</time>
      </trkpt>
      <trkpt lat="64.66304" lon="20.95879">
        <ele>72.99816</ele>
        <time>2020-09-28T10:50:08.575Z</time>
      </trkpt>
      <trkpt lat="64.66296" lon="20.95898">
        <ele>72.773159</ele>
        <time>2020-09-28T10:50:10.568Z</time>
      </trkpt>
      <trkpt lat="64.66288" lon="20.95918">
        <ele>72.533923</ele>
        <time>2020-09-28T10:50:12.559Z</time>
      </trkpt>
      <trkpt lat="64.66281" lon="20.95937">
        <ele>72.291221</ele>
        <time>2020-09-28T10:50:14.568Z</time>
      </trkpt>
      <trkpt lat="64.66272" lon="20.95956">
        <ele>72.040059</ele>
        <time>2020-09-28T10:50:16.609Z</time>
      </trkpt>
      <trkpt lat="64.66263" lon="20.95976">
        <ele>71.777909</ele>
        <time>2020-09-28T10:50:18.566Z</time>
      </trkpt>
      <trkpt lat="64.66255" lon="20.95998">
        <ele>71.504447</ele>
        <time>2020-09-28T10:50:20.567Z</time>
      </trkpt>
      <trkpt lat="64.66246" lon="20.96018">
        <ele>71.236792</ele>
        <time>2020-09-28T10:50:22.550Z</time>
      </trkpt>
      <trkpt lat="64.66237" lon="20.96038">
        <ele>70.983057</ele>
        <time>2020-09-28T10:50:24.589Z</time>
      </trkpt>
      <trkpt lat="64.66229" lon="20.96057">
        <ele>70.731333</ele>
        <time>2020-09-28T10:50:26.593Z</time>
      </trkpt>
      <trkpt lat="64.6622" lon="20.96077">
        <ele>70.477448</ele>
        <time>2020-09-28T10:50:28.600Z</time>
      </trkpt>
      <trkpt lat="64.66212" lon="20.96097">
        <ele>70.226064</ele>
        <time>2020-09-28T10:50:30.555Z</time>
      </trkpt>
      <trkpt lat="64.66204" lon="20.96116">
        <ele>69.981593</ele>
        <time>2020-09-28T10:50:32.558Z</time>
      </trkpt>
      <trkpt lat="64.66196" lon="20.96135">
        <ele>69.738425</ele>
        <time>2020-09-28T10:50:34.582Z</time>
      </trkpt>
      <trkpt lat="64.66188" lon="20.96153">
        <ele>69.495423</ele>
        <time>2020-09-28T10:50:36.570Z</time>
      </trkpt>
      <trkpt lat="64.6618" lon="20.96172">
        <ele>69.254582</ele>
        <time>2020-09-28T10:50:38.576Z</time>
      </trkpt>
      <trkpt lat="64.66173" lon="20.96191">
        <ele>69.026014</ele>
        <time>2020-09-28T10:50:40.579Z</time>
      </trkpt>
      <trkpt lat="64.66165" lon="20.96209">
        <ele>68.974737</ele>
        <time>2020-09-28T10:50:42.567Z</time>
      </trkpt>
      <trkpt lat="64.66158" lon="20.96225">
        <ele>68.926131</ele>
        <time>2020-09-28T10:50:44.561Z</time>
      </trkpt>
      <trkpt lat="64.66151" lon="20.96241">
        <ele>68.876459</ele>
        <time>2020-09-28T10:50:46.602Z</time>
      </trkpt>
      <trkpt lat="64.66143" lon="20.96258">
        <ele>68.828122</ele>
        <time>2020-09-28T10:50:48.563Z</time>
      </trkpt>
      <trkpt lat="64.66137" lon="20.96273">
        <ele>68.783061</ele>
        <time>2020-09-28T10:50:50.580Z</time>
      </trkpt>
      <trkpt lat="64.6613" lon="20.96289">
        <ele>68.734432</ele>
        <time>2020-09-28T10:50:52.587Z</time>
      </trkpt>
      <trkpt lat="64.66123" lon="20.96303">
        <ele>68.69042</ele>
        <time>2020-09-28T10:50:54.587Z</time>
      </trkpt>
      <trkpt lat="64.66116" lon="20.96317">
        <ele>68.646717</ele>
        <time>2020-09-28T10:50:56.574Z</time>
      </trkpt>
      <trkpt lat="64.66107" lon="20.96337">
        <ele>68.585551</ele>
        <time>2020-09-28T10:50:59.577Z</time>
      </trkpt>
      <trkpt lat="64.661" lon="20.96353">
        <ele>68.536969</ele>
        <time>2020-09-28T10:51:01.572Z</time>
      </trkpt>
      <trkpt lat="64.66092" lon="20.96373">
        <ele>68.481674</ele>
        <time>2020-09-28T10:51:03.560Z</time>
      </trkpt>
      <trkpt lat="64.66084" lon="20.96392">
        <ele>68.426503</ele>
        <time>2020-09-28T10:51:05.577Z</time>
      </trkpt>
      <trkpt lat="64.66077" lon="20.96412">
        <ele>68.370916</ele>
        <time>2020-09-28T10:51:07.597Z</time>
      </trkpt>
      <trkpt lat="64.66069" lon="20.96433">
        <ele>68.312173</ele>
        <time>2020-09-28T10:51:09.559Z</time>
      </trkpt>
      <trkpt lat="64.6606" lon="20.96456">
        <ele>68.250587</ele>
        <time>2020-09-28T10:51:11.599Z</time>
      </trkpt>
      <trkpt lat="64.66051" lon="20.96478">
        <ele>68.186122</ele>
        <time>2020-09-28T10:51:13.561Z</time>
      </trkpt>
      <trkpt lat="64.66043" lon="20.96502">
        <ele>68.129058</ele>
        <time>2020-09-28T10:51:15.554Z</time>
      </trkpt>
      <trkpt lat="64.66034" lon="20.96527">
        <ele>68.074895</ele>
        <time>2020-09-28T10:51:17.565Z</time>
      </trkpt>
      <trkpt lat="64.66026" lon="20.96552">
        <ele>68.019823</ele>
        <time>2020-09-28T10:51:19.583Z</time>
      </trkpt>
      <trkpt lat="64.66018" lon="20.96578">
        <ele>67.96576</ele>
        <time>2020-09-28T10:51:21.574Z</time>
      </trkpt>
      <trkpt lat="64.6601" lon="20.96603">
        <ele>67.911971</ele>
        <time>2020-09-28T10:51:23.570Z</time>
      </trkpt>
      <trkpt lat="64.66002" lon="20.96629">
        <ele>67.858403</ele>
        <time>2020-09-28T10:51:25.564Z</time>
      </trkpt>
      <trkpt lat="64.65995" lon="20.96656">
        <ele>67.805139</ele>
        <time>2020-09-28T10:51:27.581Z</time>
      </trkpt>
      <trkpt lat="64.65988" lon="20.96681">
        <ele>67.753221</ele>
        <time>2020-09-28T10:51:29.585Z</time>
      </trkpt>
      <trkpt lat="64.65981" lon="20.96705">
        <ele>67.703656</ele>
        <time>2020-09-28T10:51:31.575Z</time>
      </trkpt>
      <trkpt lat="64.65974" lon="20.96729">
        <ele>67.656318</ele>
        <time>2020-09-28T10:51:33.574Z</time>
      </trkpt>
      <trkpt lat="64.65968" lon="20.96753">
        <ele>67.609183</ele>
        <time>2020-09-28T10:51:35.580Z</time>
      </trkpt>
      <trkpt lat="64.65962" lon="20.96776">
        <ele>67.563434</ele>
        <time>2020-09-28T10:51:37.569Z</time>
      </trkpt>
      <trkpt lat="64.65956" lon="20.968">
        <ele>67.516172</ele>
        <time>2020-09-28T10:51:39.574Z</time>
      </trkpt>
      <trkpt lat="64.6595" lon="20.96823">
        <ele>67.469619</ele>
        <time>2020-09-28T10:51:41.560Z</time>
      </trkpt>
      <trkpt lat="64.65944" lon="20.96845">
        <ele>67.496289</ele>
        <time>2020-09-28T10:51:43.586Z</time>
      </trkpt>
      <trkpt lat="64.65938" lon="20.96866">
        <ele>67.629702</ele>
        <time>2020-09-28T10:51:45.578Z</time>
      </trkpt>
      <trkpt lat="64.65932" lon="20.96887">
        <ele>67.763564</ele>
        <time>2020-09-28T10:51:47.573Z</time>
      </trkpt>
      <trkpt lat="64.65926" lon="20.96908">
        <ele>67.896609</ele>
        <time>2020-09-28T10:51:49.585Z</time>
      </trkpt>
      <trkpt lat="64.65921" lon="20.96926">
        <ele>68.013743</ele>
        <time>2020-09-28T10:51:51.567Z</time>
      </trkpt>
      <trkpt lat="64.65915" lon="20.96943">
        <ele>68.128273</ele>
        <time>2020-09-28T10:51:53.581Z</time>
      </trkpt>
      <trkpt lat="64.65907" lon="20.96968">
        <ele>68.293561</ele>
        <time>2020-09-28T10:51:56.567Z</time>
      </trkpt>
      <trkpt lat="64.659" lon="20.96993">
        <ele>68.453885</ele>
        <time>2020-09-28T10:51:59.564Z</time>
      </trkpt>
      <trkpt lat="64.65892" lon="20.97018">
        <ele>68.618624</ele>
        <time>2020-09-28T10:52:02.599Z</time>
      </trkpt>
      <trkpt lat="64.65887" lon="20.97035">
        <ele>68.731711</ele>
        <time>2020-09-28T10:52:04.578Z</time>
      </trkpt>
      <trkpt lat="64.65882" lon="20.97053">
        <ele>68.844272</ele>
        <time>2020-09-28T10:52:06.561Z</time>
      </trkpt>
      <trkpt lat="64.65878" lon="20.97072">
        <ele>68.956276</ele>
        <time>2020-09-28T10:52:08.576Z</time>
      </trkpt>
      <trkpt lat="64.65873" lon="20.97091">
        <ele>69.073679</ele>
        <time>2020-09-28T10:52:10.584Z</time>
      </trkpt>
      <trkpt lat="64.65868" lon="20.97111">
        <ele>69.201303</ele>
        <time>2020-09-28T10:52:12.565Z</time>
      </trkpt>
      <trkpt lat="64.65863" lon="20.97132">
        <ele>69.332595</ele>
        <time>2020-09-28T10:52:14.584Z</time>
      </trkpt>
      <trkpt lat="64.65857" lon="20.97154">
        <ele>69.466355</ele>
        <time>2020-09-28T10:52:16.561Z</time>
      </trkpt>
      <trkpt lat="64.65851" lon="20.97175">
        <ele>69.597071</ele>
        <time>2020-09-28T10:52:18.593Z</time>
      </trkpt>
      <trkpt lat="64.65846" lon="20.97195">
        <ele>69.772498</ele>
        <time>2020-09-28T10:52:20.574Z</time>
      </trkpt>
      <trkpt lat="64.65841" lon="20.97215">
        <ele>70.041517</ele>
        <time>2020-09-28T10:52:22.572Z</time>
      </trkpt>
      <trkpt lat="64.65836" lon="20.97234">
        <ele>70.29193</ele>
        <time>2020-09-28T10:52:24.576Z</time>
      </trkpt>
      <trkpt lat="64.65831" lon="20.97253">
        <ele>70.550892</ele>
        <time>2020-09-28T10:52:26.556Z</time>
      </trkpt>
      <trkpt lat="64.65825" lon="20.97272">
        <ele>70.807947</ele>
        <time>2020-09-28T10:52:28.589Z</time>
      </trkpt>
      <trkpt lat="64.65819" lon="20.97291">
        <ele>71.078097</ele>
        <time>2020-09-28T10:52:30.600Z</time>
      </trkpt>
      <trkpt lat="64.65814" lon="20.97311">
        <ele>71.336584</ele>
        <time>2020-09-28T10:52:32.576Z</time>
      </trkpt>
      <trkpt lat="64.65809" lon="20.97331">
        <ele>71.606133</ele>
        <time>2020-09-28T10:52:34.584Z</time>
      </trkpt>
      <trkpt lat="64.65803" lon="20.9735">
        <ele>71.874231</ele>
        <time>2020-09-28T10:52:36.552Z</time>
      </trkpt>
      <trkpt lat="64.65797" lon="20.97369">
        <ele>72.152547</ele>
        <time>2020-09-28T10:52:38.583Z</time>
      </trkpt>
      <trkpt lat="64.65791" lon="20.97389">
        <ele>72.42457</ele>
        <time>2020-09-28T10:52:40.603Z</time>
      </trkpt>
      <trkpt lat="64.65784" lon="20.97409">
        <ele>72.717106</ele>
        <time>2020-09-28T10:52:42.561Z</time>
      </trkpt>
      <trkpt lat="64.65778" lon="20.9743">
        <ele>72.999286</ele>
        <time>2020-09-28T10:52:44.607Z</time>
      </trkpt>
      <trkpt lat="64.65772" lon="20.9745">
        <ele>73.279311</ele>
        <time>2020-09-28T10:52:46.564Z</time>
      </trkpt>
      <trkpt lat="64.65767" lon="20.97471">
        <ele>73.558882</ele>
        <time>2020-09-28T10:52:48.568Z</time>
      </trkpt>
      <trkpt lat="64.65761" lon="20.97491">
        <ele>73.832422</ele>
        <time>2020-09-28T10:52:50.581Z</time>
      </trkpt>
      <trkpt lat="64.65755" lon="20.97512">
        <ele>74.119178</ele>
        <time>2020-09-28T10:52:52.570Z</time>
      </trkpt>
      <trkpt lat="64.65748" lon="20.97533">
        <ele>74.422399</ele>
        <time>2020-09-28T10:52:54.580Z</time>
      </trkpt>
      <trkpt lat="64.65742" lon="20.97555">
        <ele>74.458725</ele>
        <time>2020-09-28T10:52:56.559Z</time>
      </trkpt>
      <trkpt lat="64.65736" lon="20.97577">
        <ele>74.454482</ele>
        <time>2020-09-28T10:52:58.565Z</time>
      </trkpt>
      <trkpt lat="64.6573" lon="20.97599">
        <ele>74.450225</ele>
        <time>2020-09-28T10:53:00.650Z</time>
      </trkpt>
      <trkpt lat="64.65724" lon="20.9762">
        <ele>74.446064</ele>
        <time>2020-09-28T10:53:02.568Z</time>
      </trkpt>
      <trkpt lat="64.65719" lon="20.97642">
        <ele>74.441957</ele>
        <time>2020-09-28T10:53:04.583Z</time>
      </trkpt>
      <trkpt lat="64.65714" lon="20.97665">
        <ele>74.437778</ele>
        <time>2020-09-28T10:53:06.565Z</time>
      </trkpt>
      <trkpt lat="64.65709" lon="20.97685">
        <ele>74.433887</ele>
        <time>2020-09-28T10:53:08.563Z</time>
      </trkpt>
      <trkpt lat="64.65703" lon="20.97704">
        <ele>74.43011</ele>
        <time>2020-09-28T10:53:10.565Z</time>
      </trkpt>
      <trkpt lat="64.65698" lon="20.97724">
        <ele>74.426346</ele>
        <time>2020-09-28T10:53:12.555Z</time>
      </trkpt>
      <trkpt lat="64.65693" lon="20.97744">
        <ele>74.422649</ele>
        <time>2020-09-28T10:53:14.559Z</time>
      </trkpt>
      <trkpt lat="64.65688" lon="20.97763">
        <ele>74.419012</ele>
        <time>2020-09-28T10:53:16.602Z</time>
      </trkpt>
      <trkpt lat="64.65682" lon="20.97783">
        <ele>74.415035</ele>
        <time>2020-09-28T10:53:18.562Z</time>
      </trkpt>
      <trkpt lat="64.65677" lon="20.97803">
        <ele>74.41106</ele>
        <time>2020-09-28T10:53:20.562Z</time>
      </trkpt>
      <trkpt lat="64.65672" lon="20.97823">
        <ele>74.407327</ele>
        <time>2020-09-28T10:53:22.577Z</time>
      </trkpt>
      <trkpt lat="64.65666" lon="20.97843">
        <ele>74.403318</ele>
        <time>2020-09-28T10:53:24.574Z</time>
      </trkpt>
      <trkpt lat="64.65661" lon="20.97863">
        <ele>74.39948</ele>
        <time>2020-09-28T10:53:26.570Z</time>
      </trkpt>
      <trkpt lat="64.65655" lon="20.97884">
        <ele>74.395395</ele>
        <time>2020-09-28T10:53:28.590Z</time>
      </trkpt>
      <trkpt lat="64.65649" lon="20.97903">
        <ele>74.406311</ele>
        <time>2020-09-28T10:53:30.574Z</time>
      </trkpt>
      <trkpt lat="64.65644" lon="20.97922">
        <ele>74.428685</ele>
        <time>2020-09-28T10:53:32.574Z</time>
      </trkpt>
      <trkpt lat="64.65639" lon="20.97942">
        <ele>74.451732</ele>
        <time>2020-09-28T10:53:34.573Z</time>
      </trkpt>
      <trkpt lat="64.65634" lon="20.97962">
        <ele>74.474653</ele>
        <time>2020-09-28T10:53:36.577Z</time>
      </trkpt>
      <trkpt lat="64.65629" lon="20.97981">
        <ele>74.496709</ele>
        <time>2020-09-28T10:53:38.561Z</time>
      </trkpt>
      <trkpt lat="64.65625" lon="20.98">
        <ele>74.518101</ele>
        <time>2020-09-28T10:53:40.558Z</time>
      </trkpt>
      <trkpt lat="64.6562" lon="20.9802">
        <ele>74.540938</ele>
        <time>2020-09-28T10:53:42.583Z</time>
      </trkpt>
      <trkpt lat="64.65616" lon="20.9804">
        <ele>74.563404</ele>
        <time>2020-09-28T10:53:44.561Z</time>
      </trkpt>
      <trkpt lat="64.6561" lon="20.98066">
        <ele>74.592841</ele>
        <time>2020-09-28T10:53:47.580Z</time>
      </trkpt>
      <trkpt lat="64.65602" lon="20.98091">
        <ele>74.623179</ele>
        <time>2020-09-28T10:53:50.558Z</time>
      </trkpt>
      <trkpt lat="64.65597" lon="20.98111">
        <ele>74.646447</ele>
        <time>2020-09-28T10:53:52.593Z</time>
      </trkpt>
      <trkpt lat="64.65591" lon="20.98129">
        <ele>74.669227</ele>
        <time>2020-09-28T10:53:54.569Z</time>
      </trkpt>
      <trkpt lat="64.65584" lon="20.98155">
        <ele>74.699815</ele>
        <time>2020-09-28T10:53:57.561Z</time>
      </trkpt>
      <trkpt lat="64.65577" lon="20.98181">
        <ele>74.730696</ele>
        <time>2020-09-28T10:54:00.562Z</time>
      </trkpt>
      <trkpt lat="64.65572" lon="20.98199">
        <ele>74.752035</ele>
        <time>2020-09-28T10:54:02.579Z</time>
      </trkpt>
      <trkpt lat="64.65567" lon="20.98218">
        <ele>74.773686</ele>
        <time>2020-09-28T10:54:04.553Z</time>
      </trkpt>
      <trkpt lat="64.65562" lon="20.98237">
        <ele>74.796118</ele>
        <time>2020-09-28T10:54:06.594Z</time>
      </trkpt>
      <trkpt lat="64.65557" lon="20.98257">
        <ele>74.741343</ele>
        <time>2020-09-28T10:54:08.578Z</time>
      </trkpt>
      <trkpt lat="64.65552" lon="20.98277">
        <ele>74.529125</ele>
        <time>2020-09-28T10:54:10.573Z</time>
      </trkpt>
      <trkpt lat="64.65545" lon="20.98303">
        <ele>74.222322</ele>
        <time>2020-09-28T10:54:13.569Z</time>
      </trkpt>
      <trkpt lat="64.6554" lon="20.98321">
        <ele>74.018141</ele>
        <time>2020-09-28T10:54:15.579Z</time>
      </trkpt>
      <trkpt lat="64.65535" lon="20.98339">
        <ele>73.807924</ele>
        <time>2020-09-28T10:54:17.615Z</time>
      </trkpt>
      <trkpt lat="64.65529" lon="20.98359">
        <ele>73.579013</ele>
        <time>2020-09-28T10:54:19.593Z</time>
      </trkpt>
      <trkpt lat="64.65524" lon="20.98378">
        <ele>73.36155</ele>
        <time>2020-09-28T10:54:21.561Z</time>
      </trkpt>
      <trkpt lat="64.65518" lon="20.98397">
        <ele>73.142447</ele>
        <time>2020-09-28T10:54:23.606Z</time>
      </trkpt>
      <trkpt lat="64.65513" lon="20.98417">
        <ele>72.916491</ele>
        <time>2020-09-28T10:54:25.571Z</time>
      </trkpt>
      <trkpt lat="64.65508" lon="20.98436">
        <ele>72.693324</ele>
        <time>2020-09-28T10:54:27.573Z</time>
      </trkpt>
      <trkpt lat="64.65501" lon="20.98457">
        <ele>72.451098</ele>
        <time>2020-09-28T10:54:29.571Z</time>
      </trkpt>
      <trkpt lat="64.65496" lon="20.98478">
        <ele>72.208573</ele>
        <time>2020-09-28T10:54:31.594Z</time>
      </trkpt>
      <trkpt lat="64.65489" lon="20.985">
        <ele>71.961113</ele>
        <time>2020-09-28T10:54:33.572Z</time>
      </trkpt>
      <trkpt lat="64.65483" lon="20.98521">
        <ele>71.716031</ele>
        <time>2020-09-28T10:54:35.606Z</time>
      </trkpt>
      <trkpt lat="64.65477" lon="20.98541">
        <ele>71.474595</ele>
        <time>2020-09-28T10:54:37.581Z</time>
      </trkpt>
      <trkpt lat="64.65471" lon="20.98562">
        <ele>71.230302</ele>
        <time>2020-09-28T10:54:39.557Z</time>
      </trkpt>
      <trkpt lat="64.65466" lon="20.98581">
        <ele>71.010395</ele>
        <time>2020-09-28T10:54:41.577Z</time>
      </trkpt>
      <trkpt lat="64.6546" lon="20.98599">
        <ele>70.802873</ele>
        <time>2020-09-28T10:54:43.562Z</time>
      </trkpt>
      <trkpt lat="64.65454" lon="20.98617">
        <ele>70.817366</ele>
        <time>2020-09-28T10:54:45.572Z</time>
      </trkpt>
      <trkpt lat="64.65447" lon="20.98637">
        <ele>70.867685</ele>
        <time>2020-09-28T10:54:47.571Z</time>
      </trkpt>
      <trkpt lat="64.65441" lon="20.98656">
        <ele>70.918602</ele>
        <time>2020-09-28T10:54:49.574Z</time>
      </trkpt>
      <trkpt lat="64.65434" lon="20.98675">
        <ele>70.968172</ele>
        <time>2020-09-28T10:54:51.597Z</time>
      </trkpt>
      <trkpt lat="64.65428" lon="20.98694">
        <ele>71.019075</ele>
        <time>2020-09-28T10:54:53.576Z</time>
      </trkpt>
      <trkpt lat="64.65421" lon="20.98712">
        <ele>71.068106</ele>
        <time>2020-09-28T10:54:55.586Z</time>
      </trkpt>
      <trkpt lat="64.65414" lon="20.98729">
        <ele>71.115562</ele>
        <time>2020-09-28T10:54:57.566Z</time>
      </trkpt>
      <trkpt lat="64.65406" lon="20.98745">
        <ele>71.164397</ele>
        <time>2020-09-28T10:54:59.577Z</time>
      </trkpt>
      <trkpt lat="64.654" lon="20.98761">
        <ele>71.210044</ele>
        <time>2020-09-28T10:55:01.567Z</time>
      </trkpt>
      <trkpt lat="64.65393" lon="20.98777">
        <ele>71.256871</ele>
        <time>2020-09-28T10:55:03.576Z</time>
      </trkpt>
      <trkpt lat="64.65386" lon="20.98793">
        <ele>71.302977</ele>
        <time>2020-09-28T10:55:05.572Z</time>
      </trkpt>
      <trkpt lat="64.65379" lon="20.98808">
        <ele>71.350553</ele>
        <time>2020-09-28T10:55:07.567Z</time>
      </trkpt>
      <trkpt lat="64.65371" lon="20.98824">
        <ele>71.39742</ele>
        <time>2020-09-28T10:55:09.554Z</time>
      </trkpt>
      <trkpt lat="64.65364" lon="20.98841">
        <ele>71.447051</ele>
        <time>2020-09-28T10:55:11.599Z</time>
      </trkpt>
      <trkpt lat="64.65357" lon="20.98857">
        <ele>71.494131</ele>
        <time>2020-09-28T10:55:13.600Z</time>
      </trkpt>
      <trkpt lat="64.6535" lon="20.98873">
        <ele>71.539367</ele>
        <time>2020-09-28T10:55:15.572Z</time>
      </trkpt>
      <trkpt lat="64.65343" lon="20.98888">
        <ele>71.584698</ele>
        <time>2020-09-28T10:55:17.564Z</time>
      </trkpt>
      <trkpt lat="64.65336" lon="20.98903">
        <ele>71.633486</ele>
        <time>2020-09-28T10:55:19.571Z</time>
      </trkpt>
      <trkpt lat="64.65328" lon="20.98917">
        <ele>71.666585</ele>
        <time>2020-09-28T10:55:21.564Z</time>
      </trkpt>
      <trkpt lat="64.65321" lon="20.98932">
        <ele>71.698259</ele>
        <time>2020-09-28T10:55:23.569Z</time>
      </trkpt>
      <trkpt lat="64.65313" lon="20.98947">
        <ele>71.733344</ele>
        <time>2020-09-28T10:55:25.573Z</time>
      </trkpt>
      <trkpt lat="64.65306" lon="20.98962">
        <ele>71.767102</ele>
        <time>2020-09-28T10:55:27.570Z</time>
      </trkpt>
      <trkpt lat="64.65298" lon="20.98976">
        <ele>71.801206</ele>
        <time>2020-09-28T10:55:29.577Z</time>
      </trkpt>
      <trkpt lat="64.6529" lon="20.9899">
        <ele>71.834618</ele>
        <time>2020-09-28T10:55:31.587Z</time>
      </trkpt>
      <trkpt lat="64.65281" lon="20.99001">
        <ele>71.868461</ele>
        <time>2020-09-28T10:55:33.641Z</time>
      </trkpt>
      <trkpt lat="64.65272" lon="20.99015">
        <ele>71.904787</ele>
        <time>2020-09-28T10:55:35.563Z</time>
      </trkpt>
      <trkpt lat="64.65263" lon="20.99029">
        <ele>71.941837</ele>
        <time>2020-09-28T10:55:37.567Z</time>
      </trkpt>
      <trkpt lat="64.65254" lon="20.99043">
        <ele>71.97927</ele>
        <time>2020-09-28T10:55:39.573Z</time>
      </trkpt>
      <trkpt lat="64.65245" lon="20.99056">
        <ele>72.013716</ele>
        <time>2020-09-28T10:55:41.579Z</time>
      </trkpt>
      <trkpt lat="64.65236" lon="20.99068">
        <ele>72.049756</ele>
        <time>2020-09-28T10:55:43.606Z</time>
      </trkpt>
      <trkpt lat="64.65226" lon="20.99081">
        <ele>72.086233</ele>
        <time>2020-09-28T10:55:45.562Z</time>
      </trkpt>
      <trkpt lat="64.65218" lon="20.99093">
        <ele>72.120587</ele>
        <time>2020-09-28T10:55:47.562Z</time>
      </trkpt>
      <trkpt lat="64.65208" lon="20.99105">
        <ele>72.157064</ele>
        <time>2020-09-28T10:55:49.572Z</time>
      </trkpt>
      <trkpt lat="64.65199" lon="20.99117">
        <ele>72.193627</ele>
        <time>2020-09-28T10:55:51.562Z</time>
      </trkpt>
      <trkpt lat="64.6519" lon="20.99127">
        <ele>72.22786</ele>
        <time>2020-09-28T10:55:53.559Z</time>
      </trkpt>
      <trkpt lat="64.6518" lon="20.99138">
        <ele>72.036136</ele>
        <time>2020-09-28T10:55:55.570Z</time>
      </trkpt>
      <trkpt lat="64.65171" lon="20.99149">
        <ele>71.641353</ele>
        <time>2020-09-28T10:55:57.577Z</time>
      </trkpt>
      <trkpt lat="64.65162" lon="20.9916">
        <ele>71.263627</ele>
        <time>2020-09-28T10:55:59.602Z</time>
      </trkpt>
      <trkpt lat="64.65154" lon="20.99169">
        <ele>70.926026</ele>
        <time>2020-09-28T10:56:01.578Z</time>
      </trkpt>
      <trkpt lat="64.65145" lon="20.99179">
        <ele>70.565807</ele>
        <time>2020-09-28T10:56:03.575Z</time>
      </trkpt>
      <trkpt lat="64.65136" lon="20.99191">
        <ele>70.171752</ele>
        <time>2020-09-28T10:56:05.577Z</time>
      </trkpt>
      <trkpt lat="64.65127" lon="20.99202">
        <ele>69.785562</ele>
        <time>2020-09-28T10:56:07.597Z</time>
      </trkpt>
      <trkpt lat="64.65118" lon="20.99214">
        <ele>69.385885</ele>
        <time>2020-09-28T10:56:09.572Z</time>
      </trkpt>
      <trkpt lat="64.65108" lon="20.99226">
        <ele>68.981127</ele>
        <time>2020-09-28T10:56:11.611Z</time>
      </trkpt>
      <trkpt lat="64.65099" lon="20.99236">
        <ele>68.587809</ele>
        <time>2020-09-28T10:56:13.565Z</time>
      </trkpt>
      <trkpt lat="64.65089" lon="20.99248">
        <ele>68.189378</ele>
        <time>2020-09-28T10:56:15.588Z</time>
      </trkpt>
      <trkpt lat="64.6508" lon="20.9926">
        <ele>67.802801</ele>
        <time>2020-09-28T10:56:17.591Z</time>
      </trkpt>
      <trkpt lat="64.65071" lon="20.99271">
        <ele>67.40845</ele>
        <time>2020-09-28T10:56:19.558Z</time>
      </trkpt>
      <trkpt lat="64.65062" lon="20.99281">
        <ele>67.033534</ele>
        <time>2020-09-28T10:56:21.609Z</time>
      </trkpt>
      <trkpt lat="64.65053" lon="20.99291">
        <ele>66.673313</ele>
        <time>2020-09-28T10:56:23.602Z</time>
      </trkpt>
      <trkpt lat="64.65045" lon="20.99301">
        <ele>66.319752</ele>
        <time>2020-09-28T10:56:25.566Z</time>
      </trkpt>
      <trkpt lat="64.65036" lon="20.99311">
        <ele>65.942795</ele>
        <time>2020-09-28T10:56:27.597Z</time>
      </trkpt>
      <trkpt lat="64.65028" lon="20.99321">
        <ele>65.593103</ele>
        <time>2020-09-28T10:56:29.562Z</time>
      </trkpt>
      <trkpt lat="64.65019" lon="20.9933">
        <ele>65.556577</ele>
        <time>2020-09-28T10:56:31.569Z</time>
      </trkpt>
      <trkpt lat="64.65011" lon="20.9934">
        <ele>65.668126</ele>
        <time>2020-09-28T10:56:33.595Z</time>
      </trkpt>
      <trkpt lat="64.65002" lon="20.9935">
        <ele>65.784427</ele>
        <time>2020-09-28T10:56:35.603Z</time>
      </trkpt>
      <trkpt lat="64.64994" lon="20.9936">
        <ele>65.897278</ele>
        <time>2020-09-28T10:56:37.560Z</time>
      </trkpt>
      <trkpt lat="64.64985" lon="20.9937">
        <ele>66.009671</ele>
        <time>2020-09-28T10:56:39.585Z</time>
      </trkpt>
      <trkpt lat="64.64977" lon="20.99379">
        <ele>66.117547</ele>
        <time>2020-09-28T10:56:41.577Z</time>
      </trkpt>
      <trkpt lat="64.64969" lon="20.99389">
        <ele>66.225804</ele>
        <time>2020-09-28T10:56:43.558Z</time>
      </trkpt>
      <trkpt lat="64.64958" lon="20.99402">
        <ele>66.381874</ele>
        <time>2020-09-28T10:56:46.576Z</time>
      </trkpt>
      <trkpt lat="64.64946" lon="20.99415">
        <ele>66.5388</ele>
        <time>2020-09-28T10:56:49.560Z</time>
      </trkpt>
      <trkpt lat="64.64938" lon="20.99424">
        <ele>66.646386</ele>
        <time>2020-09-28T10:56:51.580Z</time>
      </trkpt>
      <trkpt lat="64.64927" lon="20.99435">
        <ele>66.785267</ele>
        <time>2020-09-28T10:56:54.565Z</time>
      </trkpt>
      <trkpt lat="64.64916" lon="20.99447">
        <ele>66.928535</ele>
        <time>2020-09-28T10:56:57.571Z</time>
      </trkpt>
      <trkpt lat="64.64906" lon="20.99459">
        <ele>67.068072</ele>
        <time>2020-09-28T10:57:00.606Z</time>
      </trkpt>
      <trkpt lat="64.64896" lon="20.99469">
        <ele>67.191821</ele>
        <time>2020-09-28T10:57:03.557Z</time>
      </trkpt>
      <trkpt lat="64.64887" lon="20.99477">
        <ele>67.310113</ele>
        <time>2020-09-28T10:57:06.583Z</time>
      </trkpt>
      <trkpt lat="64.64878" lon="20.99487">
        <ele>67.427493</ele>
        <time>2020-09-28T10:57:09.580Z</time>
      </trkpt>
      <trkpt lat="64.6487" lon="20.99495">
        <ele>67.535306</ele>
        <time>2020-09-28T10:57:12.562Z</time>
      </trkpt>
      <trkpt lat="64.64862" lon="20.99505">
        <ele>67.682956</ele>
        <time>2020-09-28T10:57:15.569Z</time>
      </trkpt>
      <trkpt lat="64.64853" lon="20.99514">
        <ele>68.266316</ele>
        <time>2020-09-28T10:57:18.567Z</time>
      </trkpt>
      <trkpt lat="64.64844" lon="20.99526">
        <ele>68.898771</ele>
        <time>2020-09-28T10:57:21.574Z</time>
      </trkpt>
      <trkpt lat="64.64835" lon="20.99539">
        <ele>69.560508</ele>
        <time>2020-09-28T10:57:24.591Z</time>
      </trkpt>
      <trkpt lat="64.64825" lon="20.99551">
        <ele>70.250829</ele>
        <time>2020-09-28T10:57:27.599Z</time>
      </trkpt>
      <trkpt lat="64.64816" lon="20.99563">
        <ele>70.918165</ele>
        <time>2020-09-28T10:57:30.592Z</time>
      </trkpt>
      <trkpt lat="64.64806" lon="20.99573">
        <ele>71.593257</ele>
        <time>2020-09-28T10:57:33.562Z</time>
      </trkpt>
      <trkpt lat="64.64796" lon="20.99586">
        <ele>72.279378</ele>
        <time>2020-09-28T10:57:36.594Z</time>
      </trkpt>
      <trkpt lat="64.64787" lon="20.99597">
        <ele>72.903397</ele>
        <time>2020-09-28T10:57:39.583Z</time>
      </trkpt>
      <trkpt lat="64.64777" lon="20.99608">
        <ele>73.605386</ele>
        <time>2020-09-28T10:57:42.578Z</time>
      </trkpt>
      <trkpt lat="64.64766" lon="20.99622">
        <ele>74.384639</ele>
        <time>2020-09-28T10:57:45.577Z</time>
      </trkpt>
      <trkpt lat="64.64758" lon="20.99633">
        <ele>74.941185</ele>
        <time>2020-09-28T10:57:47.578Z</time>
      </trkpt>
      <trkpt lat="64.64746" lon="20.99648">
        <ele>75.758719</ele>
        <time>2020-09-28T10:57:50.558Z</time>
      </trkpt>
      <trkpt lat="64.64737" lon="20.9966">
        <ele>76.393087</ele>
        <time>2020-09-28T10:57:52.559Z</time>
      </trkpt>
      <trkpt lat="64.64728" lon="20.9967">
        <ele>76.997787</ele>
        <time>2020-09-28T10:57:54.579Z</time>
      </trkpt>
      <trkpt lat="64.64719" lon="20.99679">
        <ele>77.618146</ele>
        <time>2020-09-28T10:57:56.565Z</time>
      </trkpt>
      <trkpt lat="64.6471" lon="20.99691">
        <ele>78.244154</ele>
        <time>2020-09-28T10:57:58.571Z</time>
      </trkpt>
      <trkpt lat="64.64701" lon="20.99701">
        <ele>78.603829</ele>
        <time>2020-09-28T10:58:00.592Z</time>
      </trkpt>
      <trkpt lat="64.64691" lon="20.99713">
        <ele>78.086213</ele>
        <time>2020-09-28T10:58:02.574Z</time>
      </trkpt>
      <trkpt lat="64.64681" lon="20.99723">
        <ele>77.598299</ele>
        <time>2020-09-28T10:58:04.561Z</time>
      </trkpt>
      <trkpt lat="64.64672" lon="20.99733">
        <ele>77.120515</ele>
        <time>2020-09-28T10:58:06.600Z</time>
      </trkpt>
      <trkpt lat="64.64662" lon="20.99743">
        <ele>76.61392</ele>
        <time>2020-09-28T10:58:08.616Z</time>
      </trkpt>
      <trkpt lat="64.64652" lon="20.99752">
        <ele>76.1061</ele>
        <time>2020-09-28T10:58:10.597Z</time>
      </trkpt>
      <trkpt lat="64.64641" lon="20.99763">
        <ele>75.564287</ele>
        <time>2020-09-28T10:58:12.561Z</time>
      </trkpt>
      <trkpt lat="64.6463" lon="20.99776">
        <ele>74.988757</ele>
        <time>2020-09-28T10:58:14.578Z</time>
      </trkpt>
      <trkpt lat="64.64619" lon="20.99788">
        <ele>74.413227</ele>
        <time>2020-09-28T10:58:16.573Z</time>
      </trkpt>
      <trkpt lat="64.64608" lon="20.99799">
        <ele>73.855394</ele>
        <time>2020-09-28T10:58:18.568Z</time>
      </trkpt>
      <trkpt lat="64.64598" lon="20.99812">
        <ele>73.340416</ele>
        <time>2020-09-28T10:58:20.573Z</time>
      </trkpt>
      <trkpt lat="64.64589" lon="20.99825">
        <ele>72.837695</ele>
        <time>2020-09-28T10:58:22.593Z</time>
      </trkpt>
      <trkpt lat="64.6458" lon="20.99835">
        <ele>72.371818</ele>
        <time>2020-09-28T10:58:24.597Z</time>
      </trkpt>
      <trkpt lat="64.64571" lon="20.99844">
        <ele>71.932942</ele>
        <time>2020-09-28T10:58:26.573Z</time>
      </trkpt>
      <trkpt lat="64.64562" lon="20.99855">
        <ele>71.457077</ele>
        <time>2020-09-28T10:58:28.580Z</time>
      </trkpt>
      <trkpt lat="64.64553" lon="20.99867">
        <ele>70.95186</ele>
        <time>2020-09-28T10:58:30.617Z</time>
      </trkpt>
      <trkpt lat="64.64543" lon="20.99878">
        <ele>70.451418</ele>
        <time>2020-09-28T10:58:32.571Z</time>
      </trkpt>
      <trkpt lat="64.64533" lon="20.99888">
        <ele>70.23892</ele>
        <time>2020-09-28T10:58:34.578Z</time>
      </trkpt>
      <trkpt lat="64.64524" lon="20.999">
        <ele>70.092214</ele>
        <time>2020-09-28T10:58:36.580Z</time>
      </trkpt>
      <trkpt lat="64.64514" lon="20.99911">
        <ele>69.946785</ele>
        <time>2020-09-28T10:58:38.558Z</time>
      </trkpt>
      <trkpt lat="64.64504" lon="20.99922">
        <ele>69.805194</ele>
        <time>2020-09-28T10:58:40.578Z</time>
      </trkpt>
      <trkpt lat="64.64494" lon="20.99933">
        <ele>69.65544</ele>
        <time>2020-09-28T10:58:42.598Z</time>
      </trkpt>
      <trkpt lat="64.64484" lon="20.99944">
        <ele>69.50831</ele>
        <time>2020-09-28T10:58:44.567Z</time>
      </trkpt>
      <trkpt lat="64.64474" lon="20.99954">
        <ele>69.367011</ele>
        <time>2020-09-28T10:58:46.560Z</time>
      </trkpt>
      <trkpt lat="64.64465" lon="20.99964">
        <ele>69.23199</ele>
        <time>2020-09-28T10:58:48.563Z</time>
      </trkpt>
      <trkpt lat="64.64457" lon="20.99975">
        <ele>69.104083</ele>
        <time>2020-09-28T10:58:50.567Z</time>
      </trkpt>
      <trkpt lat="64.64448" lon="20.99985">
        <ele>68.975773</ele>
        <time>2020-09-28T10:58:52.578Z</time>
      </trkpt>
      <trkpt lat="64.6444" lon="20.99994">
        <ele>68.854698</ele>
        <time>2020-09-28T10:58:54.591Z</time>
      </trkpt>
      <trkpt lat="64.64432" lon="21.00004">
        <ele>68.731492</ele>
        <time>2020-09-28T10:58:56.558Z</time>
      </trkpt>
      <trkpt lat="64.6442" lon="21.00017">
        <ele>68.557289</ele>
        <time>2020-09-28T10:58:59.572Z</time>
      </trkpt>
      <trkpt lat="64.64409" lon="21.0003">
        <ele>68.395597</ele>
        <time>2020-09-28T10:59:02.580Z</time>
      </trkpt>
      <trkpt lat="64.64399" lon="21.00041">
        <ele>68.248695</ele>
        <time>2020-09-28T10:59:05.559Z</time>
      </trkpt>
      <trkpt lat="64.6439" lon="21.00051">
        <ele>68.109086</ele>
        <time>2020-09-28T10:59:08.578Z</time>
      </trkpt>
      <trkpt lat="64.64381" lon="21.00059">
        <ele>67.982176</ele>
        <time>2020-09-28T10:59:11.571Z</time>
      </trkpt>
      <trkpt lat="64.64371" lon="21.00068">
        <ele>68.257344</ele>
        <time>2020-09-28T10:59:14.595Z</time>
      </trkpt>
      <trkpt lat="64.64362" lon="21.0008">
        <ele>68.645202</ele>
        <time>2020-09-28T10:59:17.573Z</time>
      </trkpt>
      <trkpt lat="64.64353" lon="21.00091">
        <ele>69.026848</ele>
        <time>2020-09-28T10:59:20.578Z</time>
      </trkpt>
      <trkpt lat="64.64343" lon="21.00102">
        <ele>69.431327</ele>
        <time>2020-09-28T10:59:23.571Z</time>
      </trkpt>
      <trkpt lat="64.64334" lon="21.00113">
        <ele>69.809664</ele>
        <time>2020-09-28T10:59:26.578Z</time>
      </trkpt>
      <trkpt lat="64.64325" lon="21.00123">
        <ele>70.166827</ele>
        <time>2020-09-28T10:59:29.622Z</time>
      </trkpt>
      <trkpt lat="64.64317" lon="21.00133">
        <ele>70.520429</ele>
        <time>2020-09-28T10:59:32.591Z</time>
      </trkpt>
      <trkpt lat="64.64308" lon="21.00145">
        <ele>70.884306</ele>
        <time>2020-09-28T10:59:35.581Z</time>
      </trkpt>
      <trkpt lat="64.643" lon="21.00155">
        <ele>71.234938</ele>
        <time>2020-09-28T10:59:38.569Z</time>
      </trkpt>
      <trkpt lat="64.64291" lon="21.00165">
        <ele>71.592546</ele>
        <time>2020-09-28T10:59:41.567Z</time>
      </trkpt>
      <trkpt lat="64.64283" lon="21.00175">
        <ele>71.936063</ele>
        <time>2020-09-28T10:59:44.594Z</time>
      </trkpt>
      <trkpt lat="64.64274" lon="21.00187">
        <ele>72.312779</ele>
        <time>2020-09-28T10:59:47.560Z</time>
      </trkpt>
      <trkpt lat="64.64265" lon="21.00198">
        <ele>72.685231</ele>
        <time>2020-09-28T10:59:50.566Z</time>
      </trkpt>
      <trkpt lat="64.64256" lon="21.00207">
        <ele>73.047444</ele>
        <time>2020-09-28T10:59:53.573Z</time>
      </trkpt>
      <trkpt lat="64.64247" lon="21.00217">
        <ele>73.398978</ele>
        <time>2020-09-28T10:59:56.573Z</time>
      </trkpt>
      <trkpt lat="64.64239" lon="21.00226">
        <ele>73.741816</ele>
        <time>2020-09-28T10:59:59.582Z</time>
      </trkpt>
      <trkpt lat="64.6423" lon="21.00235">
        <ele>74.089368</ele>
        <time>2020-09-28T11:00:02.586Z</time>
      </trkpt>
      <trkpt lat="64.64221" lon="21.00244">
        <ele>74.457837</ele>
        <time>2020-09-28T11:00:05.591Z</time>
      </trkpt>
      <trkpt lat="64.64212" lon="21.00255">
        <ele>74.483564</ele>
        <time>2020-09-28T11:00:08.576Z</time>
      </trkpt>
      <trkpt lat="64.64202" lon="21.00266">
        <ele>74.314976</ele>
        <time>2020-09-28T11:00:11.601Z</time>
      </trkpt>
      <trkpt lat="64.64192" lon="21.0028">
        <ele>74.123322</ele>
        <time>2020-09-28T11:00:14.576Z</time>
      </trkpt>
      <trkpt lat="64.6418" lon="21.00293">
        <ele>73.921855</ele>
        <time>2020-09-28T11:00:17.564Z</time>
      </trkpt>
      <trkpt lat="64.6417" lon="21.00307">
        <ele>73.728928</ele>
        <time>2020-09-28T11:00:20.558Z</time>
      </trkpt>
      <trkpt lat="64.64158" lon="21.0032">
        <ele>73.529779</ele>
        <time>2020-09-28T11:00:23.614Z</time>
      </trkpt>
      <trkpt lat="64.6415" lon="21.00329">
        <ele>73.380342</ele>
        <time>2020-09-28T11:00:25.567Z</time>
      </trkpt>
      <trkpt lat="64.64141" lon="21.0034">
        <ele>73.226832</ele>
        <time>2020-09-28T11:00:27.594Z</time>
      </trkpt>
      <trkpt lat="64.64132" lon="21.00351">
        <ele>73.066651</ele>
        <time>2020-09-28T11:00:29.573Z</time>
      </trkpt>
      <trkpt lat="64.64122" lon="21.00361">
        <ele>72.894684</ele>
        <time>2020-09-28T11:00:31.581Z</time>
      </trkpt>
      <trkpt lat="64.64112" lon="21.00373">
        <ele>72.724683</ele>
        <time>2020-09-28T11:00:33.579Z</time>
      </trkpt>
      <trkpt lat="64.64103" lon="21.00385">
        <ele>72.55161</ele>
        <time>2020-09-28T11:00:35.565Z</time>
      </trkpt>
      <trkpt lat="64.64093" lon="21.00396">
        <ele>72.376183</ele>
        <time>2020-09-28T11:00:37.605Z</time>
      </trkpt>
      <trkpt lat="64.64083" lon="21.00408">
        <ele>72.200756</ele>
        <time>2020-09-28T11:00:39.596Z</time>
      </trkpt>
      <trkpt lat="64.64073" lon="21.00418">
        <ele>72.031066</ele>
        <time>2020-09-28T11:00:41.563Z</time>
      </trkpt>
      <trkpt lat="64.64063" lon="21.00429">
        <ele>71.866785</ele>
        <time>2020-09-28T11:00:43.581Z</time>
      </trkpt>
      <trkpt lat="64.64053" lon="21.0044">
        <ele>71.687358</ele>
        <time>2020-09-28T11:00:45.598Z</time>
      </trkpt>
      <trkpt lat="64.64043" lon="21.00451">
        <ele>71.504022</ele>
        <time>2020-09-28T11:00:47.562Z</time>
      </trkpt>
      <trkpt lat="64.64033" lon="21.00463">
        <ele>71.326232</ele>
        <time>2020-09-28T11:00:49.649Z</time>
      </trkpt>
      <trkpt lat="64.64024" lon="21.00474">
        <ele>71.155856</ele>
        <time>2020-09-28T11:00:51.582Z</time>
      </trkpt>
      <trkpt lat="64.64014" lon="21.00485">
        <ele>70.977748</ele>
        <time>2020-09-28T11:00:53.573Z</time>
      </trkpt>
      <trkpt lat="64.64005" lon="21.00497">
        <ele>70.801413</ele>
        <time>2020-09-28T11:00:55.567Z</time>
      </trkpt>
      <trkpt lat="64.63995" lon="21.00508">
        <ele>70.618615</ele>
        <time>2020-09-28T11:00:57.581Z</time>
      </trkpt>
      <trkpt lat="64.63984" lon="21.00521">
        <ele>70.426155</ele>
        <time>2020-09-28T11:00:59.578Z</time>
      </trkpt>
      <trkpt lat="64.63974" lon="21.00533">
        <ele>70.238032</ele>
        <time>2020-09-28T11:01:01.609Z</time>
      </trkpt>
      <trkpt lat="64.63964" lon="21.00546">
        <ele>70.050736</ele>
        <time>2020-09-28T11:01:03.590Z</time>
      </trkpt>
      <trkpt lat="64.63953" lon="21.00558">
        <ele>69.848161</ele>
        <time>2020-09-28T11:01:05.602Z</time>
      </trkpt>
      <trkpt lat="64.63941" lon="21.0057">
        <ele>69.644405</ele>
        <time>2020-09-28T11:01:07.577Z</time>
      </trkpt>
      <trkpt lat="64.6393" lon="21.00583">
        <ele>69.432058</ele>
        <time>2020-09-28T11:01:09.571Z</time>
      </trkpt>
      <trkpt lat="64.63917" lon="21.00596">
        <ele>69.208459</ele>
        <time>2020-09-28T11:01:11.599Z</time>
      </trkpt>
      <trkpt lat="64.63904" lon="21.00609">
        <ele>68.973625</ele>
        <time>2020-09-28T11:01:13.595Z</time>
      </trkpt>
      <trkpt lat="64.63891" lon="21.00622">
        <ele>68.592639</ele>
        <time>2020-09-28T11:01:15.586Z</time>
      </trkpt>
      <trkpt lat="64.63878" lon="21.00635">
        <ele>67.951478</ele>
        <time>2020-09-28T11:01:17.576Z</time>
      </trkpt>
      <trkpt lat="64.63866" lon="21.00649">
        <ele>67.309569</ele>
        <time>2020-09-28T11:01:19.589Z</time>
      </trkpt>
      <trkpt lat="64.63854" lon="21.00664">
        <ele>66.670445</ele>
        <time>2020-09-28T11:01:21.581Z</time>
      </trkpt>
      <trkpt lat="64.63842" lon="21.00678">
        <ele>66.004558</ele>
        <time>2020-09-28T11:01:23.589Z</time>
      </trkpt>
      <trkpt lat="64.6383" lon="21.00691">
        <ele>65.404753</ele>
        <time>2020-09-28T11:01:25.575Z</time>
      </trkpt>
      <trkpt lat="64.63818" lon="21.00705">
        <ele>64.774288</ele>
        <time>2020-09-28T11:01:27.558Z</time>
      </trkpt>
      <trkpt lat="64.63806" lon="21.00719">
        <ele>64.139282</ele>
        <time>2020-09-28T11:01:29.584Z</time>
      </trkpt>
      <trkpt lat="64.63795" lon="21.00732">
        <ele>63.534926</ele>
        <time>2020-09-28T11:01:31.558Z</time>
      </trkpt>
      <trkpt lat="64.63784" lon="21.00744">
        <ele>62.957408</ele>
        <time>2020-09-28T11:01:33.556Z</time>
      </trkpt>
      <trkpt lat="64.63773" lon="21.00757">
        <ele>62.377836</ele>
        <time>2020-09-28T11:01:35.569Z</time>
      </trkpt>
      <trkpt lat="64.63763" lon="21.0077">
        <ele>61.826281</ele>
        <time>2020-09-28T11:01:37.556Z</time>
      </trkpt>
      <trkpt lat="64.63752" lon="21.00781">
        <ele>61.277964</ele>
        <time>2020-09-28T11:01:39.582Z</time>
      </trkpt>
      <trkpt lat="64.63742" lon="21.00793">
        <ele>60.724497</ele>
        <time>2020-09-28T11:01:41.559Z</time>
      </trkpt>
      <trkpt lat="64.63731" lon="21.00804">
        <ele>60.362613</ele>
        <time>2020-09-28T11:01:43.577Z</time>
      </trkpt>
      <trkpt lat="64.63722" lon="21.00814">
        <ele>60.647886</ele>
        <time>2020-09-28T11:01:45.619Z</time>
      </trkpt>
      <trkpt lat="64.63712" lon="21.00826">
        <ele>60.933811</ele>
        <time>2020-09-28T11:01:47.568Z</time>
      </trkpt>
      <trkpt lat="64.63702" lon="21.00839">
        <ele>61.223275</ele>
        <time>2020-09-28T11:01:49.564Z</time>
      </trkpt>
      <trkpt lat="64.63692" lon="21.00851">
        <ele>61.522931</ele>
        <time>2020-09-28T11:01:51.581Z</time>
      </trkpt>
      <trkpt lat="64.63682" lon="21.00862">
        <ele>61.808208</ele>
        <time>2020-09-28T11:01:53.595Z</time>
      </trkpt>
      <trkpt lat="64.63673" lon="21.00873">
        <ele>62.082571</ele>
        <time>2020-09-28T11:01:55.561Z</time>
      </trkpt>
      <trkpt lat="64.63663" lon="21.00883">
        <ele>62.358808</ele>
        <time>2020-09-28T11:01:57.575Z</time>
      </trkpt>
      <trkpt lat="64.63655" lon="21.00894">
        <ele>62.613423</ele>
        <time>2020-09-28T11:01:59.552Z</time>
      </trkpt>
      <trkpt lat="64.63646" lon="21.00905">
        <ele>62.868897</ele>
        <time>2020-09-28T11:02:01.575Z</time>
      </trkpt>
      <trkpt lat="64.63638" lon="21.00917">
        <ele>63.118709</ele>
        <time>2020-09-28T11:02:03.620Z</time>
      </trkpt>
      <trkpt lat="64.6363" lon="21.00927">
        <ele>63.370769</ele>
        <time>2020-09-28T11:02:05.590Z</time>
      </trkpt>
      <trkpt lat="64.63621" lon="21.00936">
        <ele>63.610392</ele>
        <time>2020-09-28T11:02:07.569Z</time>
      </trkpt>
      <trkpt lat="64.6361" lon="21.00948">
        <ele>63.937054</ele>
        <time>2020-09-28T11:02:10.599Z</time>
      </trkpt>
      <trkpt lat="64.636" lon="21.0096">
        <ele>64.231015</ele>
        <time>2020-09-28T11:02:13.584Z</time>
      </trkpt>
      <trkpt lat="64.6359" lon="21.00974">
        <ele>64.530117</ele>
        <time>2020-09-28T11:02:16.562Z</time>
      </trkpt>
      <trkpt lat="64.63581" lon="21.00987">
        <ele>64.818621</ele>
        <time>2020-09-28T11:02:19.570Z</time>
      </trkpt>
      <trkpt lat="64.63571" lon="21.01">
        <ele>65.219145</ele>
        <time>2020-09-28T11:02:22.579Z</time>
      </trkpt>
      <trkpt lat="64.63563" lon="21.01012">
        <ele>65.822343</ele>
        <time>2020-09-28T11:02:25.566Z</time>
      </trkpt>
      <trkpt lat="64.63553" lon="21.01027">
        <ele>66.544248</ele>
        <time>2020-09-28T11:02:29.558Z</time>
      </trkpt>
      <trkpt lat="64.63545" lon="21.01042">
        <ele>67.208176</ele>
        <time>2020-09-28T11:02:33.578Z</time>
      </trkpt>
      <trkpt lat="64.63535" lon="21.01059">
        <ele>67.939362</ele>
        <time>2020-09-28T11:02:37.567Z</time>
      </trkpt>
      <trkpt lat="64.63528" lon="21.01072">
        <ele>68.493053</ele>
        <time>2020-09-28T11:02:40.598Z</time>
      </trkpt>
      <trkpt lat="64.63519" lon="21.01088">
        <ele>69.190466</ele>
        <time>2020-09-28T11:02:44.602Z</time>
      </trkpt>
      <trkpt lat="64.6351" lon="21.01102">
        <ele>69.864995</ele>
        <time>2020-09-28T11:02:48.577Z</time>
      </trkpt>
      <trkpt lat="64.63502" lon="21.01121">
        <ele>70.562823</ele>
        <time>2020-09-28T11:02:52.597Z</time>
      </trkpt>
      <trkpt lat="64.63494" lon="21.01139">
        <ele>71.265124</ele>
        <time>2020-09-28T11:02:56.579Z</time>
      </trkpt>
      <trkpt lat="64.63486" lon="21.0116">
        <ele>71.955806</ele>
        <time>2020-09-28T11:03:00.578Z</time>
      </trkpt>
      <trkpt lat="64.6348" lon="21.01177">
        <ele>72.556625</ele>
        <time>2020-09-28T11:03:03.595Z</time>
      </trkpt>
      <trkpt lat="64.63473" lon="21.01198">
        <ele>73.240173</ele>
        <time>2020-09-28T11:03:06.601Z</time>
      </trkpt>
      <trkpt lat="64.63466" lon="21.01218">
        <ele>73.915131</ele>
        <time>2020-09-28T11:03:09.576Z</time>
      </trkpt>
      <trkpt lat="64.63459" lon="21.01234">
        <ele>74.553964</ele>
        <time>2020-09-28T11:03:12.594Z</time>
      </trkpt>
      <trkpt lat="64.63451" lon="21.01252">
        <ele>75.201258</ele>
        <time>2020-09-28T11:03:15.607Z</time>
      </trkpt>
      <trkpt lat="64.63444" lon="21.01272">
        <ele>75.878268</ele>
        <time>2020-09-28T11:03:18.660Z</time>
      </trkpt>
      <trkpt lat="64.63438" lon="21.01292">
        <ele>75.926065</ele>
        <time>2020-09-28T11:03:21.571Z</time>
      </trkpt>
      <trkpt lat="64.63433" lon="21.01314">
        <ele>75.749789</ele>
        <time>2020-09-28T11:03:24.569Z</time>
      </trkpt>
      <trkpt lat="64.63428" lon="21.01335">
        <ele>75.57714</ele>
        <time>2020-09-28T11:03:27.572Z</time>
      </trkpt>
      <trkpt lat="64.63423" lon="21.01355">
        <ele>75.415009</ele>
        <time>2020-09-28T11:03:30.582Z</time>
      </trkpt>
      <trkpt lat="64.63418" lon="21.01374">
        <ele>75.258045</ele>
        <time>2020-09-28T11:03:33.602Z</time>
      </trkpt>
      <trkpt lat="64.63413" lon="21.01398">
        <ele>75.078236</ele>
        <time>2020-09-28T11:03:37.585Z</time>
      </trkpt>
      <trkpt lat="64.63409" lon="21.0142">
        <ele>74.903967</ele>
        <time>2020-09-28T11:03:40.572Z</time>
      </trkpt>
      <trkpt lat="64.63404" lon="21.01442">
        <ele>74.724545</ele>
        <time>2020-09-28T11:03:43.559Z</time>
      </trkpt>
      <trkpt lat="64.63399" lon="21.01471">
        <ele>74.505811</ele>
        <time>2020-09-28T11:03:46.569Z</time>
      </trkpt>
      <trkpt lat="64.63395" lon="21.01493">
        <ele>74.342263</ele>
        <time>2020-09-28T11:03:48.592Z</time>
      </trkpt>
      <trkpt lat="64.63391" lon="21.01514">
        <ele>74.177393</ele>
        <time>2020-09-28T11:03:50.583Z</time>
      </trkpt>
      <trkpt lat="64.63387" lon="21.01535">
        <ele>74.014493</ele>
        <time>2020-09-28T11:03:52.593Z</time>
      </trkpt>
      <trkpt lat="64.63383" lon="21.0156">
        <ele>73.828002</ele>
        <time>2020-09-28T11:03:54.565Z</time>
      </trkpt>
      <trkpt lat="64.6338" lon="21.01588">
        <ele>73.620717</ele>
        <time>2020-09-28T11:03:56.574Z</time>
      </trkpt>
      <trkpt lat="64.63378" lon="21.0162">
        <ele>73.397798</ele>
        <time>2020-09-28T11:03:58.559Z</time>
      </trkpt>
      <trkpt lat="64.63377" lon="21.01652">
        <ele>73.165782</ele>
        <time>2020-09-28T11:04:00.578Z</time>
      </trkpt>
      <trkpt lat="64.63374" lon="21.01685">
        <ele>72.63766</ele>
        <time>2020-09-28T11:04:02.564Z</time>
      </trkpt>
      <trkpt lat="64.63372" lon="21.01717">
        <ele>72.014196</ele>
        <time>2020-09-28T11:04:04.615Z</time>
      </trkpt>
      <trkpt lat="64.6337" lon="21.01746">
        <ele>71.440206</ele>
        <time>2020-09-28T11:04:06.565Z</time>
      </trkpt>
      <trkpt lat="64.63368" lon="21.01774">
        <ele>70.883184</ele>
        <time>2020-09-28T11:04:08.557Z</time>
      </trkpt>
      <trkpt lat="64.63367" lon="21.01803">
        <ele>70.298101</ele>
        <time>2020-09-28T11:04:10.563Z</time>
      </trkpt>
      <trkpt lat="64.63365" lon="21.01833">
        <ele>69.707477</ele>
        <time>2020-09-28T11:04:12.580Z</time>
      </trkpt>
      <trkpt lat="64.63363" lon="21.01863">
        <ele>69.131598</ele>
        <time>2020-09-28T11:04:14.583Z</time>
      </trkpt>
      <trkpt lat="64.63362" lon="21.01891">
        <ele>68.563495</ele>
        <time>2020-09-28T11:04:16.611Z</time>
      </trkpt>
      <trkpt lat="64.6336" lon="21.0192">
        <ele>68.00326</ele>
        <time>2020-09-28T11:04:18.577Z</time>
      </trkpt>
      <trkpt lat="64.63358" lon="21.01946">
        <ele>67.470962</ele>
        <time>2020-09-28T11:04:20.572Z</time>
      </trkpt>
      <trkpt lat="64.63356" lon="21.01973">
        <ele>66.94517</ele>
        <time>2020-09-28T11:04:22.577Z</time>
      </trkpt>
      <trkpt lat="64.63354" lon="21.02001">
        <ele>66.376496</ele>
        <time>2020-09-28T11:04:24.605Z</time>
      </trkpt>
      <trkpt lat="64.63353" lon="21.0203">
        <ele>65.81087</ele>
        <time>2020-09-28T11:04:26.561Z</time>
      </trkpt>
      <trkpt lat="64.63351" lon="21.02059">
        <ele>65.233195</ele>
        <time>2020-09-28T11:04:28.566Z</time>
      </trkpt>
      <trkpt lat="64.63349" lon="21.02088">
        <ele>64.87274</ele>
        <time>2020-09-28T11:04:30.579Z</time>
      </trkpt>
      <trkpt lat="64.63347" lon="21.02117">
        <ele>64.87679</ele>
        <time>2020-09-28T11:04:32.587Z</time>
      </trkpt>
      <trkpt lat="64.63345" lon="21.02146">
        <ele>64.880895</ele>
        <time>2020-09-28T11:04:34.588Z</time>
      </trkpt>
      <trkpt lat="64.63344" lon="21.02173">
        <ele>64.884664</ele>
        <time>2020-09-28T11:04:36.575Z</time>
      </trkpt>
      <trkpt lat="64.63342" lon="21.02198">
        <ele>64.888212</ele>
        <time>2020-09-28T11:04:38.562Z</time>
      </trkpt>
      <trkpt lat="64.63341" lon="21.02226">
        <ele>64.892159</ele>
        <time>2020-09-28T11:04:40.577Z</time>
      </trkpt>
      <trkpt lat="64.6334" lon="21.02257">
        <ele>64.896409</ele>
        <time>2020-09-28T11:04:42.610Z</time>
      </trkpt>
      <trkpt lat="64.6334" lon="21.02286">
        <ele>64.900571</ele>
        <time>2020-09-28T11:04:44.565Z</time>
      </trkpt>
      <trkpt lat="64.63341" lon="21.02315">
        <ele>64.904586</ele>
        <time>2020-09-28T11:04:46.608Z</time>
      </trkpt>
      <trkpt lat="64.63341" lon="21.02342">
        <ele>64.908301</ele>
        <time>2020-09-28T11:04:48.605Z</time>
      </trkpt>
      <trkpt lat="64.63342" lon="21.02367">
        <ele>64.911895</ele>
        <time>2020-09-28T11:04:50.559Z</time>
      </trkpt>
      <trkpt lat="64.63342" lon="21.02395">
        <ele>64.915698</ele>
        <time>2020-09-28T11:04:52.562Z</time>
      </trkpt>
      <trkpt lat="64.63343" lon="21.02423">
        <ele>64.919623</ele>
        <time>2020-09-28T11:04:54.580Z</time>
      </trkpt>
      <trkpt lat="64.63343" lon="21.0245">
        <ele>64.92348</ele>
        <time>2020-09-28T11:04:56.568Z</time>
      </trkpt>
      <trkpt lat="64.63344" lon="21.02478">
        <ele>64.927391</ele>
        <time>2020-09-28T11:04:58.565Z</time>
      </trkpt>
      <trkpt lat="64.63343" lon="21.02505">
        <ele>64.934961</ele>
        <time>2020-09-28T11:05:00.579Z</time>
      </trkpt>
      <trkpt lat="64.63343" lon="21.02531">
        <ele>64.949402</ele>
        <time>2020-09-28T11:05:02.593Z</time>
      </trkpt>
      <trkpt lat="64.63342" lon="21.02556">
        <ele>64.963249</ele>
        <time>2020-09-28T11:05:04.563Z</time>
      </trkpt>
      <trkpt lat="64.6334" lon="21.02581">
        <ele>64.977013</ele>
        <time>2020-09-28T11:05:06.587Z</time>
      </trkpt>
      <trkpt lat="64.63338" lon="21.02604">
        <ele>64.989837</ele>
        <time>2020-09-28T11:05:08.616Z</time>
      </trkpt>
      <trkpt lat="64.63336" lon="21.02625">
        <ele>65.00174</ele>
        <time>2020-09-28T11:05:10.573Z</time>
      </trkpt>
      <trkpt lat="64.63333" lon="21.02648">
        <ele>65.014814</ele>
        <time>2020-09-28T11:05:12.612Z</time>
      </trkpt>
      <trkpt lat="64.63331" lon="21.02671">
        <ele>65.028286</ele>
        <time>2020-09-28T11:05:14.567Z</time>
      </trkpt>
      <trkpt lat="64.63328" lon="21.02695">
        <ele>65.041597</ele>
        <time>2020-09-28T11:05:16.570Z</time>
      </trkpt>
      <trkpt lat="64.63326" lon="21.02717">
        <ele>65.054351</ele>
        <time>2020-09-28T11:05:18.580Z</time>
      </trkpt>
      <trkpt lat="64.63323" lon="21.02739">
        <ele>65.06706</ele>
        <time>2020-09-28T11:05:20.595Z</time>
      </trkpt>
      <trkpt lat="64.6332" lon="21.02761">
        <ele>65.079623</ele>
        <time>2020-09-28T11:05:22.575Z</time>
      </trkpt>
      <trkpt lat="64.63317" lon="21.02781">
        <ele>65.091507</ele>
        <time>2020-09-28T11:05:24.599Z</time>
      </trkpt>
      <trkpt lat="64.63314" lon="21.02802">
        <ele>65.103219</ele>
        <time>2020-09-28T11:05:26.593Z</time>
      </trkpt>
      <trkpt lat="64.63311" lon="21.02823">
        <ele>65.115968</ele>
        <time>2020-09-28T11:05:28.601Z</time>
      </trkpt>
      <trkpt lat="64.63308" lon="21.02844">
        <ele>65.128125</ele>
        <time>2020-09-28T11:05:30.570Z</time>
      </trkpt>
      <trkpt lat="64.63305" lon="21.02864">
        <ele>65.139934</ele>
        <time>2020-09-28T11:05:32.571Z</time>
      </trkpt>
      <trkpt lat="64.63301" lon="21.02884">
        <ele>65.151684</ele>
        <time>2020-09-28T11:05:34.556Z</time>
      </trkpt>
      <trkpt lat="64.63297" lon="21.02903">
        <ele>65.14828</ele>
        <time>2020-09-28T11:05:36.572Z</time>
      </trkpt>
      <trkpt lat="64.6329" lon="21.0293">
        <ele>65.056675</ele>
        <time>2020-09-28T11:05:39.579Z</time>
      </trkpt>
      <trkpt lat="64.63285" lon="21.02949">
        <ele>64.99224</ele>
        <time>2020-09-28T11:05:41.580Z</time>
      </trkpt>
      <trkpt lat="64.6328" lon="21.02968">
        <ele>64.924413</ele>
        <time>2020-09-28T11:05:43.557Z</time>
      </trkpt>
      <trkpt lat="64.63275" lon="21.02987">
        <ele>64.856107</ele>
        <time>2020-09-28T11:05:45.554Z</time>
      </trkpt>
      <trkpt lat="64.63269" lon="21.03008">
        <ele>64.780786</ele>
        <time>2020-09-28T11:05:47.578Z</time>
      </trkpt>
      <trkpt lat="64.63263" lon="21.03029">
        <ele>64.705604</ele>
        <time>2020-09-28T11:05:49.563Z</time>
      </trkpt>
      <trkpt lat="64.63257" lon="21.03049">
        <ele>64.634668</ele>
        <time>2020-09-28T11:05:51.620Z</time>
      </trkpt>
      <trkpt lat="64.63252" lon="21.03071">
        <ele>64.560513</ele>
        <time>2020-09-28T11:05:53.566Z</time>
      </trkpt>
      <trkpt lat="64.63246" lon="21.03093">
        <ele>64.484895</ele>
        <time>2020-09-28T11:05:55.560Z</time>
      </trkpt>
      <trkpt lat="64.63241" lon="21.03114">
        <ele>64.412197</ele>
        <time>2020-09-28T11:05:57.557Z</time>
      </trkpt>
      <trkpt lat="64.63235" lon="21.03135">
        <ele>64.337644</ele>
        <time>2020-09-28T11:05:59.581Z</time>
      </trkpt>
      <trkpt lat="64.63229" lon="21.03156">
        <ele>64.262175</ele>
        <time>2020-09-28T11:06:01.601Z</time>
      </trkpt>
      <trkpt lat="64.63224" lon="21.03176">
        <ele>64.191741</ele>
        <time>2020-09-28T11:06:03.613Z</time>
      </trkpt>
      <trkpt lat="64.63218" lon="21.03196">
        <ele>64.121306</ele>
        <time>2020-09-28T11:06:05.560Z</time>
      </trkpt>
      <trkpt lat="64.63212" lon="21.03215">
        <ele>64.05333</ele>
        <time>2020-09-28T11:06:07.626Z</time>
      </trkpt>
      <trkpt lat="64.63206" lon="21.03233">
        <ele>63.984495</ele>
        <time>2020-09-28T11:06:09.594Z</time>
      </trkpt>
      <trkpt lat="64.632" lon="21.0325">
        <ele>63.919279</ele>
        <time>2020-09-28T11:06:11.585Z</time>
      </trkpt>
      <trkpt lat="64.63194" lon="21.03268">
        <ele>63.906756</ele>
        <time>2020-09-28T11:06:13.558Z</time>
      </trkpt>
      <trkpt lat="64.63189" lon="21.03287">
        <ele>63.897964</ele>
        <time>2020-09-28T11:06:15.588Z</time>
      </trkpt>
      <trkpt lat="64.63183" lon="21.03305">
        <ele>63.88944</ele>
        <time>2020-09-28T11:06:17.572Z</time>
      </trkpt>
      <trkpt lat="64.63177" lon="21.03323">
        <ele>63.880906</ele>
        <time>2020-09-28T11:06:19.571Z</time>
      </trkpt>
      <trkpt lat="64.63172" lon="21.03339">
        <ele>63.872915</ele>
        <time>2020-09-28T11:06:21.566Z</time>
      </trkpt>
      <trkpt lat="64.63166" lon="21.03356">
        <ele>63.864774</ele>
        <time>2020-09-28T11:06:23.593Z</time>
      </trkpt>
      <trkpt lat="64.6316" lon="21.03373">
        <ele>63.856264</ele>
        <time>2020-09-28T11:06:25.574Z</time>
      </trkpt>
      <trkpt lat="64.63151" lon="21.03398">
        <ele>63.844482</ele>
        <time>2020-09-28T11:06:28.582Z</time>
      </trkpt>
      <trkpt lat="64.63146" lon="21.03415">
        <ele>63.83642</ele>
        <time>2020-09-28T11:06:30.566Z</time>
      </trkpt>
      <trkpt lat="64.6314" lon="21.03431">
        <ele>63.828482</ele>
        <time>2020-09-28T11:06:32.570Z</time>
      </trkpt>
      <trkpt lat="64.63134" lon="21.03447">
        <ele>63.820402</ele>
        <time>2020-09-28T11:06:34.624Z</time>
      </trkpt>
      <trkpt lat="64.63128" lon="21.03463">
        <ele>63.812151</ele>
        <time>2020-09-28T11:06:36.602Z</time>
      </trkpt>
      <trkpt lat="64.63122" lon="21.0348">
        <ele>63.803955</ele>
        <time>2020-09-28T11:06:38.570Z</time>
      </trkpt>
      <trkpt lat="64.63117" lon="21.03497">
        <ele>63.795753</ele>
        <time>2020-09-28T11:06:40.574Z</time>
      </trkpt>
      <trkpt lat="64.63111" lon="21.03515">
        <ele>63.787227</ele>
        <time>2020-09-28T11:06:42.571Z</time>
      </trkpt>
      <trkpt lat="64.63106" lon="21.03533">
        <ele>63.779023</ele>
        <time>2020-09-28T11:06:44.584Z</time>
      </trkpt>
      <trkpt lat="64.631" lon="21.0355">
        <ele>63.770725</ele>
        <time>2020-09-28T11:06:46.601Z</time>
      </trkpt>
      <trkpt lat="64.63095" lon="21.03568">
        <ele>63.762295</ele>
        <time>2020-09-28T11:06:48.616Z</time>
      </trkpt>
      <trkpt lat="64.63089" lon="21.03587">
        <ele>63.750055</ele>
        <time>2020-09-28T11:06:50.600Z</time>
      </trkpt>
      <trkpt lat="64.63083" lon="21.03605">
        <ele>63.725123</ele>
        <time>2020-09-28T11:06:52.565Z</time>
      </trkpt>
      <trkpt lat="64.63077" lon="21.03624">
        <ele>63.700692</ele>
        <time>2020-09-28T11:06:54.563Z</time>
      </trkpt>
      <trkpt lat="64.63072" lon="21.03642">
        <ele>63.676025</ele>
        <time>2020-09-28T11:06:56.565Z</time>
      </trkpt>
      <trkpt lat="64.63066" lon="21.03659">
        <ele>63.652622</ele>
        <time>2020-09-28T11:06:58.579Z</time>
      </trkpt>
      <trkpt lat="64.6306" lon="21.03676">
        <ele>63.629412</ele>
        <time>2020-09-28T11:07:00.602Z</time>
      </trkpt>
      <trkpt lat="64.63055" lon="21.03694">
        <ele>63.60577</ele>
        <time>2020-09-28T11:07:02.559Z</time>
      </trkpt>
      <trkpt lat="64.63049" lon="21.03712">
        <ele>63.581751</ele>
        <time>2020-09-28T11:07:04.569Z</time>
      </trkpt>
      <trkpt lat="64.63043" lon="21.03731">
        <ele>63.556171</ele>
        <time>2020-09-28T11:07:06.600Z</time>
      </trkpt>
      <trkpt lat="64.63038" lon="21.0375">
        <ele>63.530766</ele>
        <time>2020-09-28T11:07:08.582Z</time>
      </trkpt>
      <trkpt lat="64.63032" lon="21.03768">
        <ele>63.505885</ele>
        <time>2020-09-28T11:07:10.593Z</time>
      </trkpt>
      <trkpt lat="64.63026" lon="21.03787">
        <ele>63.480831</ele>
        <time>2020-09-28T11:07:12.618Z</time>
      </trkpt>
      <trkpt lat="64.6302" lon="21.03805">
        <ele>63.456554</ele>
        <time>2020-09-28T11:07:14.563Z</time>
      </trkpt>
      <trkpt lat="64.63014" lon="21.03821">
        <ele>63.432548</ele>
        <time>2020-09-28T11:07:16.556Z</time>
      </trkpt>
      <trkpt lat="64.63008" lon="21.03839">
        <ele>63.408597</ele>
        <time>2020-09-28T11:07:18.600Z</time>
      </trkpt>
      <trkpt lat="64.63003" lon="21.03856">
        <ele>63.384843</ele>
        <time>2020-09-28T11:07:20.561Z</time>
      </trkpt>
      <trkpt lat="64.62997" lon="21.03874">
        <ele>63.361502</ele>
        <time>2020-09-28T11:07:22.583Z</time>
      </trkpt>
      <trkpt lat="64.62992" lon="21.03891">
        <ele>63.337923</ele>
        <time>2020-09-28T11:07:24.565Z</time>
      </trkpt>
      <trkpt lat="64.62986" lon="21.03908">
        <ele>63.314694</ele>
        <time>2020-09-28T11:07:26.573Z</time>
      </trkpt>
      <trkpt lat="64.62981" lon="21.03925">
        <ele>63.336511</ele>
        <time>2020-09-28T11:07:28.576Z</time>
      </trkpt>
      <trkpt lat="64.62973" lon="21.03951">
        <ele>63.508005</ele>
        <time>2020-09-28T11:07:31.573Z</time>
      </trkpt>
      <trkpt lat="64.62965" lon="21.03975">
        <ele>63.676126</ele>
        <time>2020-09-28T11:07:34.603Z</time>
      </trkpt>
      <trkpt lat="64.62958" lon="21.04">
        <ele>63.842857</ele>
        <time>2020-09-28T11:07:37.582Z</time>
      </trkpt>
      <trkpt lat="64.6295" lon="21.04024">
        <ele>64.005064</ele>
        <time>2020-09-28T11:07:40.578Z</time>
      </trkpt>
      <trkpt lat="64.62942" lon="21.04047">
        <ele>64.167493</ele>
        <time>2020-09-28T11:07:43.568Z</time>
      </trkpt>
      <trkpt lat="64.62935" lon="21.04068">
        <ele>64.314106</ele>
        <time>2020-09-28T11:07:46.603Z</time>
      </trkpt>
      <trkpt lat="64.62928" lon="21.04089">
        <ele>64.456253</ele>
        <time>2020-09-28T11:07:49.567Z</time>
      </trkpt>
      <trkpt lat="64.62922" lon="21.04111">
        <ele>64.600175</ele>
        <time>2020-09-28T11:07:52.561Z</time>
      </trkpt>
      <trkpt lat="64.62916" lon="21.04131">
        <ele>64.738941</ele>
        <time>2020-09-28T11:07:55.575Z</time>
      </trkpt>
      <trkpt lat="64.62909" lon="21.0415">
        <ele>64.874838</ele>
        <time>2020-09-28T11:07:58.590Z</time>
      </trkpt>
      <trkpt lat="64.62903" lon="21.04169">
        <ele>65.008217</ele>
        <time>2020-09-28T11:08:01.567Z</time>
      </trkpt>
      <trkpt lat="64.62896" lon="21.04189">
        <ele>65.142385</ele>
        <time>2020-09-28T11:08:04.574Z</time>
      </trkpt>
      <trkpt lat="64.6289" lon="21.04207">
        <ele>65.273564</ele>
        <time>2020-09-28T11:08:07.617Z</time>
      </trkpt>
      <trkpt lat="64.62884" lon="21.04225">
        <ele>65.400346</ele>
        <time>2020-09-28T11:08:10.610Z</time>
      </trkpt>
      <trkpt lat="64.62877" lon="21.04244">
        <ele>65.528263</ele>
        <time>2020-09-28T11:08:13.595Z</time>
      </trkpt>
      <trkpt lat="64.62872" lon="21.04261">
        <ele>65.654545</ele>
        <time>2020-09-28T11:08:16.602Z</time>
      </trkpt>
      <trkpt lat="64.62866" lon="21.04278">
        <ele>65.797266</ele>
        <time>2020-09-28T11:08:19.560Z</time>
      </trkpt>
      <trkpt lat="64.6286" lon="21.04297">
        <ele>65.942575</ele>
        <time>2020-09-28T11:08:22.579Z</time>
      </trkpt>
      <trkpt lat="64.62855" lon="21.04316">
        <ele>66.08173</ele>
        <time>2020-09-28T11:08:25.598Z</time>
      </trkpt>
      <trkpt lat="64.62848" lon="21.04334">
        <ele>66.232088</ele>
        <time>2020-09-28T11:08:28.601Z</time>
      </trkpt>
      <trkpt lat="64.62842" lon="21.04354">
        <ele>66.387418</ele>
        <time>2020-09-28T11:08:31.595Z</time>
      </trkpt>
      <trkpt lat="64.62836" lon="21.04374">
        <ele>66.545062</ele>
        <time>2020-09-28T11:08:34.564Z</time>
      </trkpt>
      <trkpt lat="64.62829" lon="21.04395">
        <ele>66.70735</ele>
        <time>2020-09-28T11:08:37.573Z</time>
      </trkpt>
      <trkpt lat="64.62822" lon="21.04417">
        <ele>66.882025</ele>
        <time>2020-09-28T11:08:40.601Z</time>
      </trkpt>
      <trkpt lat="64.62815" lon="21.04438">
        <ele>67.056416</ele>
        <time>2020-09-28T11:08:43.593Z</time>
      </trkpt>
      <trkpt lat="64.62808" lon="21.04458">
        <ele>67.219203</ele>
        <time>2020-09-28T11:08:46.571Z</time>
      </trkpt>
      <trkpt lat="64.628" lon="21.0448">
        <ele>67.397294</ele>
        <time>2020-09-28T11:08:49.568Z</time>
      </trkpt>
      <trkpt lat="64.62793" lon="21.04503">
        <ele>67.581794</ele>
        <time>2020-09-28T11:08:52.575Z</time>
      </trkpt>
      <trkpt lat="64.62785" lon="21.04526">
        <ele>67.766372</ele>
        <time>2020-09-28T11:08:55.562Z</time>
      </trkpt>
      <trkpt lat="64.62777" lon="21.0455">
        <ele>67.954352</ele>
        <time>2020-09-28T11:08:58.582Z</time>
      </trkpt>
      <trkpt lat="64.62769" lon="21.04575">
        <ele>68.151549</ele>
        <time>2020-09-28T11:09:01.602Z</time>
      </trkpt>
      <trkpt lat="64.62761" lon="21.04599">
        <ele>68.253542</ele>
        <time>2020-09-28T11:09:04.580Z</time>
      </trkpt>
      <trkpt lat="64.62756" lon="21.04616">
        <ele>68.250756</ele>
        <time>2020-09-28T11:09:06.618Z</time>
      </trkpt>
      <trkpt lat="64.6275" lon="21.04633">
        <ele>68.247883</ele>
        <time>2020-09-28T11:09:08.585Z</time>
      </trkpt>
      <trkpt lat="64.62742" lon="21.04658">
        <ele>68.243836</ele>
        <time>2020-09-28T11:09:11.580Z</time>
      </trkpt>
      <trkpt lat="64.62734" lon="21.04684">
        <ele>68.239719</ele>
        <time>2020-09-28T11:09:14.582Z</time>
      </trkpt>
      <trkpt lat="64.62728" lon="21.04701">
        <ele>68.236875</ele>
        <time>2020-09-28T11:09:16.587Z</time>
      </trkpt>
      <trkpt lat="64.62722" lon="21.04718">
        <ele>68.234089</ele>
        <time>2020-09-28T11:09:18.565Z</time>
      </trkpt>
      <trkpt lat="64.62714" lon="21.04743">
        <ele>68.230013</ele>
        <time>2020-09-28T11:09:21.590Z</time>
      </trkpt>
      <trkpt lat="64.62707" lon="21.04767">
        <ele>68.226065</ele>
        <time>2020-09-28T11:09:24.568Z</time>
      </trkpt>
      <trkpt lat="64.62699" lon="21.04791">
        <ele>68.222095</ele>
        <time>2020-09-28T11:09:27.578Z</time>
      </trkpt>
      <trkpt lat="64.62693" lon="21.04808">
        <ele>68.219357</ele>
        <time>2020-09-28T11:09:29.583Z</time>
      </trkpt>
      <trkpt lat="64.62688" lon="21.04825">
        <ele>68.216555</ele>
        <time>2020-09-28T11:09:31.602Z</time>
      </trkpt>
      <trkpt lat="64.62683" lon="21.04843">
        <ele>68.213785</ele>
        <time>2020-09-28T11:09:33.597Z</time>
      </trkpt>
      <trkpt lat="64.62677" lon="21.0486">
        <ele>68.210997</ele>
        <time>2020-09-28T11:09:35.574Z</time>
      </trkpt>
      <trkpt lat="64.62672" lon="21.04877">
        <ele>68.208209</ele>
        <time>2020-09-28T11:09:37.584Z</time>
      </trkpt>
      <trkpt lat="64.62666" lon="21.04894">
        <ele>68.205418</ele>
        <time>2020-09-28T11:09:39.570Z</time>
      </trkpt>
      <trkpt lat="64.62661" lon="21.04912">
        <ele>68.202573</ele>
        <time>2020-09-28T11:09:41.569Z</time>
      </trkpt>
      <trkpt lat="64.62655" lon="21.04929">
        <ele>68.202709</ele>
        <time>2020-09-28T11:09:43.605Z</time>
      </trkpt>
      <trkpt lat="64.62647" lon="21.04952">
        <ele>68.212598</ele>
        <time>2020-09-28T11:09:46.594Z</time>
      </trkpt>
      <trkpt lat="64.62642" lon="21.0497">
        <ele>68.219722</ele>
        <time>2020-09-28T11:09:48.571Z</time>
      </trkpt>
      <trkpt lat="64.62636" lon="21.04987">
        <ele>68.226655</ele>
        <time>2020-09-28T11:09:50.577Z</time>
      </trkpt>
      <trkpt lat="64.6263" lon="21.05004">
        <ele>68.233699</ele>
        <time>2020-09-28T11:09:52.567Z</time>
      </trkpt>
      <trkpt lat="64.62622" lon="21.05028">
        <ele>68.243791</ele>
        <time>2020-09-28T11:09:55.567Z</time>
      </trkpt>
      <trkpt lat="64.62617" lon="21.05045">
        <ele>68.250718</ele>
        <time>2020-09-28T11:09:57.574Z</time>
      </trkpt>
      <trkpt lat="64.62611" lon="21.05062">
        <ele>68.257658</ele>
        <time>2020-09-28T11:09:59.573Z</time>
      </trkpt>
      <trkpt lat="64.62605" lon="21.0508">
        <ele>68.264838</ele>
        <time>2020-09-28T11:10:01.591Z</time>
      </trkpt>
      <trkpt lat="64.626" lon="21.05097">
        <ele>68.271946</ele>
        <time>2020-09-28T11:10:03.591Z</time>
      </trkpt>
      <trkpt lat="64.62594" lon="21.05115">
        <ele>68.278965</ele>
        <time>2020-09-28T11:10:05.623Z</time>
      </trkpt>
      <trkpt lat="64.62587" lon="21.05139">
        <ele>68.288951</ele>
        <time>2020-09-28T11:10:08.574Z</time>
      </trkpt>
      <trkpt lat="64.62578" lon="21.05164">
        <ele>68.299192</ele>
        <time>2020-09-28T11:10:11.573Z</time>
      </trkpt>
      <trkpt lat="64.6257" lon="21.05189">
        <ele>68.309171</ele>
        <time>2020-09-28T11:10:14.571Z</time>
      </trkpt>
      <trkpt lat="64.62565" lon="21.05206">
        <ele>68.316269</ele>
        <time>2020-09-28T11:10:16.580Z</time>
      </trkpt>
      <trkpt lat="64.62559" lon="21.05223">
        <ele>68.323182</ele>
        <time>2020-09-28T11:10:18.605Z</time>
      </trkpt>
      <trkpt lat="64.62554" lon="21.0524">
        <ele>68.33011</ele>
        <time>2020-09-28T11:10:20.578Z</time>
      </trkpt>
      <trkpt lat="64.62546" lon="21.05264">
        <ele>68.404712</ele>
        <time>2020-09-28T11:10:23.581Z</time>
      </trkpt>
      <trkpt lat="64.62538" lon="21.05289">
        <ele>68.654579</ele>
        <time>2020-09-28T11:10:26.603Z</time>
      </trkpt>
      <trkpt lat="64.62532" lon="21.05307">
        <ele>68.82963</ele>
        <time>2020-09-28T11:10:28.609Z</time>
      </trkpt>
      <trkpt lat="64.62526" lon="21.05323">
        <ele>69.001565</ele>
        <time>2020-09-28T11:10:30.601Z</time>
      </trkpt>
      <trkpt lat="64.6252" lon="21.05341">
        <ele>69.179294</ele>
        <time>2020-09-28T11:10:32.576Z</time>
      </trkpt>
      <trkpt lat="64.62515" lon="21.05359">
        <ele>69.357022</ele>
        <time>2020-09-28T11:10:34.601Z</time>
      </trkpt>
      <trkpt lat="64.62508" lon="21.05378">
        <ele>69.542809</ele>
        <time>2020-09-28T11:10:36.567Z</time>
      </trkpt>
      <trkpt lat="64.62502" lon="21.05395">
        <ele>69.717143</ele>
        <time>2020-09-28T11:10:38.633Z</time>
      </trkpt>
      <trkpt lat="64.62497" lon="21.05412">
        <ele>69.884086</ele>
        <time>2020-09-28T11:10:40.619Z</time>
      </trkpt>
      <trkpt lat="64.62491" lon="21.05429">
        <ele>70.057264</ele>
        <time>2020-09-28T11:10:42.587Z</time>
      </trkpt>
      <trkpt lat="64.62486" lon="21.05446">
        <ele>70.225719</ele>
        <time>2020-09-28T11:10:44.573Z</time>
      </trkpt>
      <trkpt lat="64.62478" lon="21.05471">
        <ele>70.4756</ele>
        <time>2020-09-28T11:10:47.590Z</time>
      </trkpt>
      <trkpt lat="64.62471" lon="21.05495">
        <ele>70.71126</ele>
        <time>2020-09-28T11:10:50.563Z</time>
      </trkpt>
      <trkpt lat="64.62465" lon="21.05512">
        <ele>70.87956</ele>
        <time>2020-09-28T11:10:52.577Z</time>
      </trkpt>
      <trkpt lat="64.62459" lon="21.0553">
        <ele>71.059399</ele>
        <time>2020-09-28T11:10:54.578Z</time>
      </trkpt>
      <trkpt lat="64.62451" lon="21.05556">
        <ele>71.309722</ele>
        <time>2020-09-28T11:10:57.579Z</time>
      </trkpt>
      <trkpt lat="64.62443" lon="21.05581">
        <ele>71.557869</ele>
        <time>2020-09-28T11:11:00.577Z</time>
      </trkpt>
      <trkpt lat="64.62435" lon="21.05605">
        <ele>71.748942</ele>
        <time>2020-09-28T11:11:03.604Z</time>
      </trkpt>
      <trkpt lat="64.62426" lon="21.05626">
        <ele>71.888595</ele>
        <time>2020-09-28T11:11:06.564Z</time>
      </trkpt>
      <trkpt lat="64.62416" lon="21.05645">
        <ele>72.031838</ele>
        <time>2020-09-28T11:11:09.590Z</time>
      </trkpt>
      <trkpt lat="64.6241" lon="21.0566">
        <ele>72.134159</ele>
        <time>2020-09-28T11:11:11.581Z</time>
      </trkpt>
      <trkpt lat="64.624" lon="21.05681">
        <ele>72.281163</ele>
        <time>2020-09-28T11:11:14.630Z</time>
      </trkpt>
      <trkpt lat="64.62393" lon="21.05696">
        <ele>72.383989</ele>
        <time>2020-09-28T11:11:16.566Z</time>
      </trkpt>
      <trkpt lat="64.62386" lon="21.0571">
        <ele>72.486707</ele>
        <time>2020-09-28T11:11:18.572Z</time>
      </trkpt>
      <trkpt lat="64.62379" lon="21.05723">
        <ele>72.589584</ele>
        <time>2020-09-28T11:11:20.576Z</time>
      </trkpt>
      <trkpt lat="64.62371" lon="21.05736">
        <ele>72.695393</ele>
        <time>2020-09-28T11:11:22.591Z</time>
      </trkpt>
      <trkpt lat="64.62364" lon="21.05751">
        <ele>72.805285</ele>
        <time>2020-09-28T11:11:24.584Z</time>
      </trkpt>
      <trkpt lat="64.62356" lon="21.05765">
        <ele>72.912568</ele>
        <time>2020-09-28T11:11:26.572Z</time>
      </trkpt>
      <trkpt lat="64.62349" lon="21.05779">
        <ele>73.017227</ele>
        <time>2020-09-28T11:11:28.598Z</time>
      </trkpt>
      <trkpt lat="64.62341" lon="21.05793">
        <ele>73.126245</ele>
        <time>2020-09-28T11:11:30.574Z</time>
      </trkpt>
      <trkpt lat="64.62333" lon="21.05807">
        <ele>73.23643</ele>
        <time>2020-09-28T11:11:32.576Z</time>
      </trkpt>
      <trkpt lat="64.62325" lon="21.05821">
        <ele>73.347223</ele>
        <time>2020-09-28T11:11:34.588Z</time>
      </trkpt>
      <trkpt lat="64.62317" lon="21.05834">
        <ele>73.459186</ele>
        <time>2020-09-28T11:11:36.569Z</time>
      </trkpt>
      <trkpt lat="64.62308" lon="21.05849">
        <ele>73.579402</ele>
        <time>2020-09-28T11:11:38.587Z</time>
      </trkpt>
      <trkpt lat="64.62299" lon="21.05864">
        <ele>73.562946</ele>
        <time>2020-09-28T11:11:40.564Z</time>
      </trkpt>
      <trkpt lat="64.62289" lon="21.05881">
        <ele>73.210338</ele>
        <time>2020-09-28T11:11:42.572Z</time>
      </trkpt>
      <trkpt lat="64.62279" lon="21.05895">
        <ele>72.861191</ele>
        <time>2020-09-28T11:11:44.567Z</time>
      </trkpt>
      <trkpt lat="64.62268" lon="21.05912">
        <ele>72.489972</ele>
        <time>2020-09-28T11:11:46.562Z</time>
      </trkpt>
      <trkpt lat="64.62258" lon="21.05931">
        <ele>72.099965</ele>
        <time>2020-09-28T11:11:48.579Z</time>
      </trkpt>
      <trkpt lat="64.62247" lon="21.0595">
        <ele>71.702123</ele>
        <time>2020-09-28T11:11:50.582Z</time>
      </trkpt>
      <trkpt lat="64.62236" lon="21.05969">
        <ele>71.311204</ele>
        <time>2020-09-28T11:11:52.572Z</time>
      </trkpt>
      <trkpt lat="64.62225" lon="21.05987">
        <ele>70.916796</ele>
        <time>2020-09-28T11:11:54.592Z</time>
      </trkpt>
      <trkpt lat="64.62214" lon="21.06004">
        <ele>70.534818</ele>
        <time>2020-09-28T11:11:56.591Z</time>
      </trkpt>
      <trkpt lat="64.62203" lon="21.06021">
        <ele>70.156407</ele>
        <time>2020-09-28T11:11:58.574Z</time>
      </trkpt>
      <trkpt lat="64.62193" lon="21.06038">
        <ele>69.781109</ele>
        <time>2020-09-28T11:12:00.597Z</time>
      </trkpt>
      <trkpt lat="64.62182" lon="21.06055">
        <ele>69.412034</ele>
        <time>2020-09-28T11:12:02.572Z</time>
      </trkpt>
      <trkpt lat="64.62172" lon="21.06072">
        <ele>69.040811</ele>
        <time>2020-09-28T11:12:04.570Z</time>
      </trkpt>
      <trkpt lat="64.62162" lon="21.06089">
        <ele>68.675557</ele>
        <time>2020-09-28T11:12:06.573Z</time>
      </trkpt>
      <trkpt lat="64.62151" lon="21.06105">
        <ele>68.36599</ele>
        <time>2020-09-28T11:12:08.580Z</time>
      </trkpt>
      <trkpt lat="64.62142" lon="21.06122">
        <ele>68.18884</ele>
        <time>2020-09-28T11:12:10.567Z</time>
      </trkpt>
      <trkpt lat="64.62132" lon="21.06139">
        <ele>68.014193</ele>
        <time>2020-09-28T11:12:12.573Z</time>
      </trkpt>
      <trkpt lat="64.62122" lon="21.06153">
        <ele>67.840072</ele>
        <time>2020-09-28T11:12:14.597Z</time>
      </trkpt>
      <trkpt lat="64.62112" lon="21.06168">
        <ele>67.667515</ele>
        <time>2020-09-28T11:12:16.573Z</time>
      </trkpt>
      <trkpt lat="64.62102" lon="21.06184">
        <ele>67.49979</ele>
        <time>2020-09-28T11:12:18.581Z</time>
      </trkpt>
      <trkpt lat="64.62093" lon="21.062">
        <ele>67.325304</ele>
        <time>2020-09-28T11:12:20.592Z</time>
      </trkpt>
      <trkpt lat="64.62083" lon="21.06216">
        <ele>67.150527</ele>
        <time>2020-09-28T11:12:22.580Z</time>
      </trkpt>
      <trkpt lat="64.62072" lon="21.06232">
        <ele>66.971932</ele>
        <time>2020-09-28T11:12:24.563Z</time>
      </trkpt>
      <trkpt lat="64.62063" lon="21.06246">
        <ele>66.811881</ele>
        <time>2020-09-28T11:12:26.590Z</time>
      </trkpt>
      <trkpt lat="64.62054" lon="21.06261">
        <ele>66.646892</ele>
        <time>2020-09-28T11:12:28.590Z</time>
      </trkpt>
      <trkpt lat="64.62044" lon="21.06277">
        <ele>66.472705</ele>
        <time>2020-09-28T11:12:30.577Z</time>
      </trkpt>
      <trkpt lat="64.62035" lon="21.06294">
        <ele>66.304377</ele>
        <time>2020-09-28T11:12:32.565Z</time>
      </trkpt>
      <trkpt lat="64.62026" lon="21.06309">
        <ele>66.142171</ele>
        <time>2020-09-28T11:12:34.566Z</time>
      </trkpt>
      <trkpt lat="64.62018" lon="21.06322">
        <ele>65.99329</ele>
        <time>2020-09-28T11:12:36.573Z</time>
      </trkpt>
      <trkpt lat="64.62009" lon="21.06335">
        <ele>65.83962</ele>
        <time>2020-09-28T11:12:38.579Z</time>
      </trkpt>
      <trkpt lat="64.61999" lon="21.06351">
        <ele>65.819252</ele>
        <time>2020-09-28T11:12:40.570Z</time>
      </trkpt>
      <trkpt lat="64.6199" lon="21.06367">
        <ele>65.846383</ele>
        <time>2020-09-28T11:12:42.573Z</time>
      </trkpt>
      <trkpt lat="64.6198" lon="21.06383">
        <ele>65.873678</ele>
        <time>2020-09-28T11:12:44.592Z</time>
      </trkpt>
      <trkpt lat="64.6197" lon="21.06397">
        <ele>65.900976</ele>
        <time>2020-09-28T11:12:46.573Z</time>
      </trkpt>
      <trkpt lat="64.61961" lon="21.06413">
        <ele>65.927402</ele>
        <time>2020-09-28T11:12:48.600Z</time>
      </trkpt>
      <trkpt lat="64.61952" lon="21.06427">
        <ele>65.952645</ele>
        <time>2020-09-28T11:12:50.578Z</time>
      </trkpt>
      <trkpt lat="64.61943" lon="21.06441">
        <ele>65.976715</ele>
        <time>2020-09-28T11:12:52.589Z</time>
      </trkpt>
      <trkpt lat="64.61935" lon="21.06454">
        <ele>66.000071</ele>
        <time>2020-09-28T11:12:54.574Z</time>
      </trkpt>
      <trkpt lat="64.61927" lon="21.06468">
        <ele>66.022961</ele>
        <time>2020-09-28T11:12:56.585Z</time>
      </trkpt>
      <trkpt lat="64.61919" lon="21.06482">
        <ele>66.04524</ele>
        <time>2020-09-28T11:12:58.598Z</time>
      </trkpt>
      <trkpt lat="64.61912" lon="21.06494">
        <ele>66.066087</ele>
        <time>2020-09-28T11:13:00.593Z</time>
      </trkpt>
      <trkpt lat="64.61904" lon="21.06507">
        <ele>66.087164</ele>
        <time>2020-09-28T11:13:02.596Z</time>
      </trkpt>
      <trkpt lat="64.61897" lon="21.06519">
        <ele>66.108256</ele>
        <time>2020-09-28T11:13:04.564Z</time>
      </trkpt>
      <trkpt lat="64.61889" lon="21.06531">
        <ele>66.129068</ele>
        <time>2020-09-28T11:13:06.581Z</time>
      </trkpt>
      <trkpt lat="64.61882" lon="21.06543">
        <ele>66.149716</ele>
        <time>2020-09-28T11:13:08.595Z</time>
      </trkpt>
      <trkpt lat="64.61871" lon="21.0656">
        <ele>66.18046</ele>
        <time>2020-09-28T11:13:11.607Z</time>
      </trkpt>
      <trkpt lat="64.61863" lon="21.06572">
        <ele>66.201463</ele>
        <time>2020-09-28T11:13:13.574Z</time>
      </trkpt>
      <trkpt lat="64.61853" lon="21.06591">
        <ele>66.723691</ele>
        <time>2020-09-28T11:13:16.590Z</time>
      </trkpt>
      <trkpt lat="64.61842" lon="21.06607">
        <ele>67.530474</ele>
        <time>2020-09-28T11:13:19.588Z</time>
      </trkpt>
      <trkpt lat="64.61833" lon="21.06625">
        <ele>68.314035</ele>
        <time>2020-09-28T11:13:22.573Z</time>
      </trkpt>
      <trkpt lat="64.61823" lon="21.0664">
        <ele>69.067487</ele>
        <time>2020-09-28T11:13:25.573Z</time>
      </trkpt>
      <trkpt lat="64.61814" lon="21.06657">
        <ele>69.815724</ele>
        <time>2020-09-28T11:13:28.588Z</time>
      </trkpt>
      <trkpt lat="64.61805" lon="21.06672">
        <ele>70.482873</ele>
        <time>2020-09-28T11:13:31.569Z</time>
      </trkpt>
      <trkpt lat="64.61797" lon="21.06686">
        <ele>71.160306</ele>
        <time>2020-09-28T11:13:34.572Z</time>
      </trkpt>
      <trkpt lat="64.61788" lon="21.067">
        <ele>71.821763</ele>
        <time>2020-09-28T11:13:37.600Z</time>
      </trkpt>
      <trkpt lat="64.61779" lon="21.06713">
        <ele>72.514714</ele>
        <time>2020-09-28T11:13:40.597Z</time>
      </trkpt>
      <trkpt lat="64.6177" lon="21.06727">
        <ele>73.192898</ele>
        <time>2020-09-28T11:13:43.614Z</time>
      </trkpt>
      <trkpt lat="64.61762" lon="21.0674">
        <ele>73.839143</ele>
        <time>2020-09-28T11:13:46.617Z</time>
      </trkpt>
      <trkpt lat="64.61753" lon="21.06754">
        <ele>74.51738</ele>
        <time>2020-09-28T11:13:49.590Z</time>
      </trkpt>
      <trkpt lat="64.61745" lon="21.06768">
        <ele>75.183335</ele>
        <time>2020-09-28T11:13:52.596Z</time>
      </trkpt>
      <trkpt lat="64.61736" lon="21.06783">
        <ele>75.852188</ele>
        <time>2020-09-28T11:13:55.586Z</time>
      </trkpt>
      <trkpt lat="64.61729" lon="21.06796">
        <ele>76.455332</ele>
        <time>2020-09-28T11:13:58.582Z</time>
      </trkpt>
      <trkpt lat="64.61722" lon="21.0681">
        <ele>77.056781</ele>
        <time>2020-09-28T11:14:01.571Z</time>
      </trkpt>
      <trkpt lat="64.61714" lon="21.06824">
        <ele>77.668852</ele>
        <time>2020-09-28T11:14:04.570Z</time>
      </trkpt>
      <trkpt lat="64.61706" lon="21.06839">
        <ele>78.054366</ele>
        <time>2020-09-28T11:14:07.618Z</time>
      </trkpt>
      <trkpt lat="64.61698" lon="21.06853">
        <ele>78.406196</ele>
        <time>2020-09-28T11:14:10.585Z</time>
      </trkpt>
      <trkpt lat="64.61689" lon="21.06867">
        <ele>78.793951</ele>
        <time>2020-09-28T11:14:13.593Z</time>
      </trkpt>
      <trkpt lat="64.61679" lon="21.06882">
        <ele>79.195358</ele>
        <time>2020-09-28T11:14:16.597Z</time>
      </trkpt>
      <trkpt lat="64.6167" lon="21.06897">
        <ele>79.597223</ele>
        <time>2020-09-28T11:14:19.584Z</time>
      </trkpt>
      <trkpt lat="64.6166" lon="21.06911">
        <ele>79.986816</ele>
        <time>2020-09-28T11:14:22.595Z</time>
      </trkpt>
      <trkpt lat="64.61651" lon="21.06925">
        <ele>80.375858</ele>
        <time>2020-09-28T11:14:25.575Z</time>
      </trkpt>
      <trkpt lat="64.61642" lon="21.06939">
        <ele>80.740072</ele>
        <time>2020-09-28T11:14:28.574Z</time>
      </trkpt>
      <trkpt lat="64.61634" lon="21.06953">
        <ele>81.09839</ele>
        <time>2020-09-28T11:14:31.570Z</time>
      </trkpt>
      <trkpt lat="64.61626" lon="21.06968">
        <ele>81.453424</ele>
        <time>2020-09-28T11:14:34.575Z</time>
      </trkpt>
      <trkpt lat="64.61618" lon="21.06983">
        <ele>81.808861</ele>
        <time>2020-09-28T11:14:37.591Z</time>
      </trkpt>
      <trkpt lat="64.61609" lon="21.06997">
        <ele>82.173086</ele>
        <time>2020-09-28T11:14:40.582Z</time>
      </trkpt>
      <trkpt lat="64.61601" lon="21.07009">
        <ele>82.510361</ele>
        <time>2020-09-28T11:14:43.589Z</time>
      </trkpt>
      <trkpt lat="64.61593" lon="21.07022">
        <ele>82.867922</ele>
        <time>2020-09-28T11:14:46.585Z</time>
      </trkpt>
      <trkpt lat="64.61584" lon="21.07036">
        <ele>83.219916</ele>
        <time>2020-09-28T11:14:49.578Z</time>
      </trkpt>
      <trkpt lat="64.61576" lon="21.0705">
        <ele>83.583008</ele>
        <time>2020-09-28T11:14:52.592Z</time>
      </trkpt>
      <trkpt lat="64.61567" lon="21.07065">
        <ele>83.951535</ele>
        <time>2020-09-28T11:14:55.579Z</time>
      </trkpt>
      <trkpt lat="64.61558" lon="21.07081">
        <ele>83.818866</ele>
        <time>2020-09-28T11:14:58.582Z</time>
      </trkpt>
      <trkpt lat="64.61548" lon="21.07097">
        <ele>83.62801</ele>
        <time>2020-09-28T11:15:01.572Z</time>
      </trkpt>
      <trkpt lat="64.61539" lon="21.07113">
        <ele>83.452451</ele>
        <time>2020-09-28T11:15:04.581Z</time>
      </trkpt>
      <trkpt lat="64.61531" lon="21.07131">
        <ele>83.270572</ele>
        <time>2020-09-28T11:15:07.596Z</time>
      </trkpt>
      <trkpt lat="64.61521" lon="21.07148">
        <ele>83.07783</ele>
        <time>2020-09-28T11:15:10.575Z</time>
      </trkpt>
      <trkpt lat="64.61512" lon="21.07161">
        <ele>82.901061</ele>
        <time>2020-09-28T11:15:13.600Z</time>
      </trkpt>
      <trkpt lat="64.61502" lon="21.07174">
        <ele>82.729792</ele>
        <time>2020-09-28T11:15:16.570Z</time>
      </trkpt>
      <trkpt lat="64.61494" lon="21.07187">
        <ele>82.574561</ele>
        <time>2020-09-28T11:15:19.567Z</time>
      </trkpt>
      <trkpt lat="64.61487" lon="21.07199">
        <ele>82.430276</ele>
        <time>2020-09-28T11:15:22.581Z</time>
      </trkpt>
      <trkpt lat="64.61477" lon="21.07214">
        <ele>82.247997</ele>
        <time>2020-09-28T11:15:26.575Z</time>
      </trkpt>
      <trkpt lat="64.61468" lon="21.07229">
        <ele>82.07018</ele>
        <time>2020-09-28T11:15:30.595Z</time>
      </trkpt>
      <trkpt lat="64.61458" lon="21.07242">
        <ele>81.88478</ele>
        <time>2020-09-28T11:15:34.593Z</time>
      </trkpt>
      <trkpt lat="64.61448" lon="21.07256">
        <ele>81.693928</ele>
        <time>2020-09-28T11:15:38.576Z</time>
      </trkpt>
      <trkpt lat="64.61439" lon="21.07267">
        <ele>81.539809</ele>
        <time>2020-09-28T11:15:41.578Z</time>
      </trkpt>
      <trkpt lat="64.61431" lon="21.0728">
        <ele>81.381297</ele>
        <time>2020-09-28T11:15:44.594Z</time>
      </trkpt>
      <trkpt lat="64.61422" lon="21.07293">
        <ele>81.215671</ele>
        <time>2020-09-28T11:15:47.572Z</time>
      </trkpt>
      <trkpt lat="64.61415" lon="21.07308">
        <ele>81.26691</ele>
        <time>2020-09-28T11:15:50.582Z</time>
      </trkpt>
      <trkpt lat="64.61406" lon="21.07321">
        <ele>81.614783</ele>
        <time>2020-09-28T11:15:53.579Z</time>
      </trkpt>
      <trkpt lat="64.61398" lon="21.07334">
        <ele>81.939638</ele>
        <time>2020-09-28T11:15:56.578Z</time>
      </trkpt>
      <trkpt lat="64.6139" lon="21.07347">
        <ele>82.282258</ele>
        <time>2020-09-28T11:15:59.574Z</time>
      </trkpt>
      <trkpt lat="64.61382" lon="21.0736">
        <ele>82.618927</ele>
        <time>2020-09-28T11:16:02.570Z</time>
      </trkpt>
      <trkpt lat="64.61372" lon="21.07375">
        <ele>83.014098</ele>
        <time>2020-09-28T11:16:06.583Z</time>
      </trkpt>
      <trkpt lat="64.61363" lon="21.07392">
        <ele>83.412113</ele>
        <time>2020-09-28T11:16:10.571Z</time>
      </trkpt>
      <trkpt lat="64.61354" lon="21.07407">
        <ele>83.801201</ele>
        <time>2020-09-28T11:16:14.590Z</time>
      </trkpt>
      <trkpt lat="64.61345" lon="21.07422">
        <ele>84.165307</ele>
        <time>2020-09-28T11:16:18.579Z</time>
      </trkpt>
      <trkpt lat="64.61335" lon="21.07436">
        <ele>84.560956</ele>
        <time>2020-09-28T11:16:22.579Z</time>
      </trkpt>
      <trkpt lat="64.61326" lon="21.07449">
        <ele>84.908022</ele>
        <time>2020-09-28T11:16:25.583Z</time>
      </trkpt>
      <trkpt lat="64.61317" lon="21.07463">
        <ele>85.289032</ele>
        <time>2020-09-28T11:16:28.592Z</time>
      </trkpt>
      <trkpt lat="64.61307" lon="21.07478">
        <ele>85.686625</ele>
        <time>2020-09-28T11:16:31.627Z</time>
      </trkpt>
      <trkpt lat="64.61297" lon="21.07496">
        <ele>86.120778</ele>
        <time>2020-09-28T11:16:34.583Z</time>
      </trkpt>
      <trkpt lat="64.61287" lon="21.07513">
        <ele>86.55578</ele>
        <time>2020-09-28T11:16:37.591Z</time>
      </trkpt>
      <trkpt lat="64.61279" lon="21.07525">
        <ele>86.864616</ele>
        <time>2020-09-28T11:16:39.590Z</time>
      </trkpt>
      <trkpt lat="64.61271" lon="21.07539">
        <ele>87.202131</ele>
        <time>2020-09-28T11:16:41.571Z</time>
      </trkpt>
      <trkpt lat="64.61263" lon="21.07553">
        <ele>87.547588</ele>
        <time>2020-09-28T11:16:43.561Z</time>
      </trkpt>
      <trkpt lat="64.61254" lon="21.07567">
        <ele>87.887881</ele>
        <time>2020-09-28T11:16:45.609Z</time>
      </trkpt>
      <trkpt lat="64.61245" lon="21.0758">
        <ele>88.234806</ele>
        <time>2020-09-28T11:16:47.572Z</time>
      </trkpt>
      <trkpt lat="64.61236" lon="21.07593">
        <ele>88.570225</ele>
        <time>2020-09-28T11:16:49.563Z</time>
      </trkpt>
      <trkpt lat="64.61228" lon="21.07604">
        <ele>88.886782</ele>
        <time>2020-09-28T11:16:51.577Z</time>
      </trkpt>
      <trkpt lat="64.6122" lon="21.07616">
        <ele>89.182658</ele>
        <time>2020-09-28T11:16:53.598Z</time>
      </trkpt>
      <trkpt lat="64.61213" lon="21.0763">
        <ele>89.483692</ele>
        <time>2020-09-28T11:16:55.564Z</time>
      </trkpt>
      <trkpt lat="64.61206" lon="21.07643">
        <ele>89.782113</ele>
        <time>2020-09-28T11:16:57.585Z</time>
      </trkpt>
      <trkpt lat="64.61195" lon="21.0766">
        <ele>90.202471</ele>
        <time>2020-09-28T11:17:00.641Z</time>
      </trkpt>
      <trkpt lat="64.61184" lon="21.07677">
        <ele>90.624683</ele>
        <time>2020-09-28T11:17:03.570Z</time>
      </trkpt>
      <trkpt lat="64.61176" lon="21.07689">
        <ele>90.92792</ele>
        <time>2020-09-28T11:17:05.583Z</time>
      </trkpt>
      <trkpt lat="64.61166" lon="21.07704">
        <ele>91.323042</ele>
        <time>2020-09-28T11:17:08.615Z</time>
      </trkpt>
      <trkpt lat="64.61159" lon="21.07716">
        <ele>91.616991</ele>
        <time>2020-09-28T11:17:10.579Z</time>
      </trkpt>
      <trkpt lat="64.61148" lon="21.07734">
        <ele>92.034342</ele>
        <time>2020-09-28T11:17:13.594Z</time>
      </trkpt>
      <trkpt lat="64.61139" lon="21.07755">
        <ele>92.461986</ele>
        <time>2020-09-28T11:17:16.584Z</time>
      </trkpt>
      <trkpt lat="64.61129" lon="21.07773">
        <ele>92.865609</ele>
        <time>2020-09-28T11:17:19.572Z</time>
      </trkpt>
      <trkpt lat="64.61119" lon="21.0779">
        <ele>93.115101</ele>
        <time>2020-09-28T11:17:22.584Z</time>
      </trkpt>
      <trkpt lat="64.61109" lon="21.07804">
        <ele>93.176283</ele>
        <time>2020-09-28T11:17:25.571Z</time>
      </trkpt>
      <trkpt lat="64.61099" lon="21.07823">
        <ele>93.246147</ele>
        <time>2020-09-28T11:17:28.581Z</time>
      </trkpt>
      <trkpt lat="64.61088" lon="21.07839">
        <ele>93.316307</ele>
        <time>2020-09-28T11:17:31.593Z</time>
      </trkpt>
      <trkpt lat="64.61077" lon="21.07855">
        <ele>93.384809</ele>
        <time>2020-09-28T11:17:34.584Z</time>
      </trkpt>
      <trkpt lat="64.61069" lon="21.07869">
        <ele>93.441261</ele>
        <time>2020-09-28T11:17:36.562Z</time>
      </trkpt>
      <trkpt lat="64.6106" lon="21.07882">
        <ele>93.497962</ele>
        <time>2020-09-28T11:17:38.583Z</time>
      </trkpt>
      <trkpt lat="64.61052" lon="21.07894">
        <ele>93.550649</ele>
        <time>2020-09-28T11:17:40.569Z</time>
      </trkpt>
      <trkpt lat="64.61043" lon="21.07907">
        <ele>93.607747</ele>
        <time>2020-09-28T11:17:42.567Z</time>
      </trkpt>
      <trkpt lat="64.61034" lon="21.07917">
        <ele>93.657939</ele>
        <time>2020-09-28T11:17:44.584Z</time>
      </trkpt>
      <trkpt lat="64.61022" lon="21.0793">
        <ele>93.729539</ele>
        <time>2020-09-28T11:17:47.601Z</time>
      </trkpt>
      <trkpt lat="64.6101" lon="21.07942">
        <ele>93.801795</ele>
        <time>2020-09-28T11:17:50.570Z</time>
      </trkpt>
      <trkpt lat="64.61001" lon="21.07949">
        <ele>93.85262</ele>
        <time>2020-09-28T11:17:52.575Z</time>
      </trkpt>
      <trkpt lat="64.60993" lon="21.07956">
        <ele>93.901178</ele>
        <time>2020-09-28T11:17:54.609Z</time>
      </trkpt>
      <trkpt lat="64.60984" lon="21.07964">
        <ele>93.95046</ele>
        <time>2020-09-28T11:17:56.576Z</time>
      </trkpt>
      <trkpt lat="64.60976" lon="21.07973">
        <ele>94.000334</ele>
        <time>2020-09-28T11:17:58.576Z</time>
      </trkpt>
      <trkpt lat="64.60967" lon="21.07982">
        <ele>94.051225</ele>
        <time>2020-09-28T11:18:00.609Z</time>
      </trkpt>
      <trkpt lat="64.60955" lon="21.07993">
        <ele>93.956092</ele>
        <time>2020-09-28T11:18:03.576Z</time>
      </trkpt>
      <trkpt lat="64.60943" lon="21.08006">
        <ele>93.846495</ele>
        <time>2020-09-28T11:18:06.561Z</time>
      </trkpt>
      <trkpt lat="64.60935" lon="21.08014">
        <ele>93.771247</ele>
        <time>2020-09-28T11:18:08.584Z</time>
      </trkpt>
      <trkpt lat="64.60926" lon="21.08022">
        <ele>93.697631</ele>
        <time>2020-09-28T11:18:10.574Z</time>
      </trkpt>
      <trkpt lat="64.60918" lon="21.0803">
        <ele>93.622122</ele>
        <time>2020-09-28T11:18:12.599Z</time>
      </trkpt>
      <trkpt lat="64.60909" lon="21.08038">
        <ele>93.546371</ele>
        <time>2020-09-28T11:18:14.562Z</time>
      </trkpt>
      <trkpt lat="64.60897" lon="21.0805">
        <ele>93.439559</ele>
        <time>2020-09-28T11:18:17.572Z</time>
      </trkpt>
      <trkpt lat="64.60885" lon="21.08062">
        <ele>93.335622</ele>
        <time>2020-09-28T11:18:20.581Z</time>
      </trkpt>
      <trkpt lat="64.60874" lon="21.08075">
        <ele>93.236124</ele>
        <time>2020-09-28T11:18:23.598Z</time>
      </trkpt>
      <trkpt lat="64.60863" lon="21.08088">
        <ele>93.137349</ele>
        <time>2020-09-28T11:18:26.581Z</time>
      </trkpt>
      <trkpt lat="64.60853" lon="21.08097">
        <ele>93.044933</ele>
        <time>2020-09-28T11:18:29.601Z</time>
      </trkpt>
      <trkpt lat="64.60842" lon="21.08105">
        <ele>92.955711</ele>
        <time>2020-09-28T11:18:32.583Z</time>
      </trkpt>
      <trkpt lat="64.60833" lon="21.08114">
        <ele>92.872636</ele>
        <time>2020-09-28T11:18:35.593Z</time>
      </trkpt>
      <trkpt lat="64.60824" lon="21.08124">
        <ele>92.791005</ele>
        <time>2020-09-28T11:18:38.575Z</time>
      </trkpt>
      <trkpt lat="64.60813" lon="21.08133">
        <ele>92.697705</ele>
        <time>2020-09-28T11:18:41.582Z</time>
      </trkpt>
      <trkpt lat="64.60802" lon="21.08143">
        <ele>92.605662</ele>
        <time>2020-09-28T11:18:44.583Z</time>
      </trkpt>
      <trkpt lat="64.60791" lon="21.08154">
        <ele>92.560866</ele>
        <time>2020-09-28T11:18:47.580Z</time>
      </trkpt>
      <trkpt lat="64.60783" lon="21.08164">
        <ele>92.534957</ele>
        <time>2020-09-28T11:18:49.566Z</time>
      </trkpt>
      <trkpt lat="64.60771" lon="21.08175">
        <ele>92.496899</ele>
        <time>2020-09-28T11:18:52.592Z</time>
      </trkpt>
      <trkpt lat="64.60759" lon="21.08187">
        <ele>92.459329</ele>
        <time>2020-09-28T11:18:55.576Z</time>
      </trkpt>
      <trkpt lat="64.60747" lon="21.08198">
        <ele>92.423551</ele>
        <time>2020-09-28T11:18:58.584Z</time>
      </trkpt>
      <trkpt lat="64.60736" lon="21.08207">
        <ele>92.389794</ele>
        <time>2020-09-28T11:19:01.597Z</time>
      </trkpt>
      <trkpt lat="64.60726" lon="21.08218">
        <ele>92.355952</ele>
        <time>2020-09-28T11:19:04.587Z</time>
      </trkpt>
      <trkpt lat="64.60715" lon="21.08229">
        <ele>92.322031</ele>
        <time>2020-09-28T11:19:07.581Z</time>
      </trkpt>
      <trkpt lat="64.60705" lon="21.08236">
        <ele>92.292529</ele>
        <time>2020-09-28T11:19:10.601Z</time>
      </trkpt>
      <trkpt lat="64.60696" lon="21.08245">
        <ele>92.263905</ele>
        <time>2020-09-28T11:19:13.574Z</time>
      </trkpt>
      <trkpt lat="64.60687" lon="21.08254">
        <ele>92.236672</ele>
        <time>2020-09-28T11:19:16.575Z</time>
      </trkpt>
      <trkpt lat="64.60678" lon="21.08266">
        <ele>92.204797</ele>
        <time>2020-09-28T11:19:19.568Z</time>
      </trkpt>
      <trkpt lat="64.60668" lon="21.08275">
        <ele>92.175332</ele>
        <time>2020-09-28T11:19:22.578Z</time>
      </trkpt>
      <trkpt lat="64.60659" lon="21.08282">
        <ele>92.146903</ele>
        <time>2020-09-28T11:19:25.580Z</time>
      </trkpt>
      <trkpt lat="64.60648" lon="21.08291">
        <ele>92.113896</ele>
        <time>2020-09-28T11:19:29.573Z</time>
      </trkpt>
      <trkpt lat="64.60639" lon="21.08299">
        <ele>92.085859</ele>
        <time>2020-09-28T11:19:32.592Z</time>
      </trkpt>
      <trkpt lat="64.6063" lon="21.08304">
        <ele>92.005625</ele>
        <time>2020-09-28T11:19:35.578Z</time>
      </trkpt>
      <trkpt lat="64.60621" lon="21.08314">
        <ele>91.84664</ele>
        <time>2020-09-28T11:19:38.572Z</time>
      </trkpt>
      <trkpt lat="64.60611" lon="21.08325">
        <ele>91.673632</ele>
        <time>2020-09-28T11:19:41.618Z</time>
      </trkpt>
      <trkpt lat="64.60601" lon="21.08335">
        <ele>91.500894</ele>
        <time>2020-09-28T11:19:44.574Z</time>
      </trkpt>
      <trkpt lat="64.60591" lon="21.08345">
        <ele>91.336314</ele>
        <time>2020-09-28T11:19:47.574Z</time>
      </trkpt>
      <trkpt lat="64.60582" lon="21.08355">
        <ele>91.184064</ele>
        <time>2020-09-28T11:19:50.582Z</time>
      </trkpt>
      <trkpt lat="64.60571" lon="21.08366">
        <ele>91.003165</ele>
        <time>2020-09-28T11:19:53.574Z</time>
      </trkpt>
      <trkpt lat="64.6056" lon="21.08376">
        <ele>90.810108</ele>
        <time>2020-09-28T11:19:56.584Z</time>
      </trkpt>
      <trkpt lat="64.6055" lon="21.08386">
        <ele>90.653955</ele>
        <time>2020-09-28T11:19:58.631Z</time>
      </trkpt>
      <trkpt lat="64.6054" lon="21.08395">
        <ele>90.482105</ele>
        <time>2020-09-28T11:20:00.577Z</time>
      </trkpt>
      <trkpt lat="64.6053" lon="21.08404">
        <ele>90.314292</ele>
        <time>2020-09-28T11:20:02.596Z</time>
      </trkpt>
      <trkpt lat="64.6052" lon="21.08412">
        <ele>90.150715</ele>
        <time>2020-09-28T11:20:04.604Z</time>
      </trkpt>
      <trkpt lat="64.6051" lon="21.08419">
        <ele>89.98245</ele>
        <time>2020-09-28T11:20:06.582Z</time>
      </trkpt>
      <trkpt lat="64.60499" lon="21.08427">
        <ele>89.803933</ele>
        <time>2020-09-28T11:20:08.568Z</time>
      </trkpt>
      <trkpt lat="64.60488" lon="21.08435">
        <ele>89.629538</ele>
        <time>2020-09-28T11:20:10.594Z</time>
      </trkpt>
      <trkpt lat="64.60477" lon="21.08443">
        <ele>89.451022</ele>
        <time>2020-09-28T11:20:12.571Z</time>
      </trkpt>
      <trkpt lat="64.60465" lon="21.0845">
        <ele>89.212599</ele>
        <time>2020-09-28T11:20:14.581Z</time>
      </trkpt>
      <trkpt lat="64.60453" lon="21.0846">
        <ele>88.471157</ele>
        <time>2020-09-28T11:20:16.577Z</time>
      </trkpt>
      <trkpt lat="64.6044" lon="21.08469">
        <ele>87.749364</ele>
        <time>2020-09-28T11:20:18.579Z</time>
      </trkpt>
      <trkpt lat="64.60428" lon="21.08478">
        <ele>87.00076</ele>
        <time>2020-09-28T11:20:20.584Z</time>
      </trkpt>
      <trkpt lat="64.60415" lon="21.08486">
        <ele>86.266943</ele>
        <time>2020-09-28T11:20:22.576Z</time>
      </trkpt>
      <trkpt lat="64.60402" lon="21.08495">
        <ele>85.50759</ele>
        <time>2020-09-28T11:20:24.575Z</time>
      </trkpt>
      <trkpt lat="64.60389" lon="21.08503">
        <ele>84.761014</ele>
        <time>2020-09-28T11:20:26.565Z</time>
      </trkpt>
      <trkpt lat="64.60376" lon="21.08511">
        <ele>84.023714</ele>
        <time>2020-09-28T11:20:28.581Z</time>
      </trkpt>
      <trkpt lat="64.60364" lon="21.08519">
        <ele>83.308033</ele>
        <time>2020-09-28T11:20:30.595Z</time>
      </trkpt>
      <trkpt lat="64.60352" lon="21.08526">
        <ele>82.609891</ele>
        <time>2020-09-28T11:20:32.583Z</time>
      </trkpt>
      <trkpt lat="64.6034" lon="21.08535">
        <ele>81.923772</ele>
        <time>2020-09-28T11:20:34.582Z</time>
      </trkpt>
      <trkpt lat="64.60329" lon="21.08542">
        <ele>81.253856</ele>
        <time>2020-09-28T11:20:36.583Z</time>
      </trkpt>
      <trkpt lat="64.60318" lon="21.0855">
        <ele>80.608768</ele>
        <time>2020-09-28T11:20:38.594Z</time>
      </trkpt>
      <trkpt lat="64.60307" lon="21.08557">
        <ele>79.997361</ele>
        <time>2020-09-28T11:20:40.567Z</time>
      </trkpt>
      <trkpt lat="64.60297" lon="21.08564">
        <ele>79.37162</ele>
        <time>2020-09-28T11:20:42.611Z</time>
      </trkpt>
      <trkpt lat="64.60286" lon="21.0857">
        <ele>79.055654</ele>
        <time>2020-09-28T11:20:44.594Z</time>
      </trkpt>
      <trkpt lat="64.60276" lon="21.08577">
        <ele>78.855015</ele>
        <time>2020-09-28T11:20:46.577Z</time>
      </trkpt>
      <trkpt lat="64.60266" lon="21.08585">
        <ele>78.655481</ele>
        <time>2020-09-28T11:20:48.597Z</time>
      </trkpt>
      <trkpt lat="64.60256" lon="21.08592">
        <ele>78.458916</ele>
        <time>2020-09-28T11:20:50.574Z</time>
      </trkpt>
      <trkpt lat="64.60246" lon="21.08598">
        <ele>78.268001</ele>
        <time>2020-09-28T11:20:52.584Z</time>
      </trkpt>
      <trkpt lat="64.60237" lon="21.08605">
        <ele>78.084091</ele>
        <time>2020-09-28T11:20:54.575Z</time>
      </trkpt>
      <trkpt lat="64.60227" lon="21.08612">
        <ele>77.885258</ele>
        <time>2020-09-28T11:20:56.594Z</time>
      </trkpt>
      <trkpt lat="64.60215" lon="21.08619">
        <ele>77.665396</ele>
        <time>2020-09-28T11:20:58.606Z</time>
      </trkpt>
      <trkpt lat="64.60204" lon="21.08628">
        <ele>77.438008</ele>
        <time>2020-09-28T11:21:00.584Z</time>
      </trkpt>
      <trkpt lat="64.60193" lon="21.08639">
        <ele>77.20689</ele>
        <time>2020-09-28T11:21:02.617Z</time>
      </trkpt>
      <trkpt lat="64.60181" lon="21.0865">
        <ele>76.963259</ele>
        <time>2020-09-28T11:21:04.578Z</time>
      </trkpt>
      <trkpt lat="64.60167" lon="21.08659">
        <ele>76.697659</ele>
        <time>2020-09-28T11:21:06.573Z</time>
      </trkpt>
      <trkpt lat="64.60153" lon="21.08665">
        <ele>76.438773</ele>
        <time>2020-09-28T11:21:08.579Z</time>
      </trkpt>
      <trkpt lat="64.60141" lon="21.0867">
        <ele>76.206099</ele>
        <time>2020-09-28T11:21:10.595Z</time>
      </trkpt>
      <trkpt lat="64.60131" lon="21.08676">
        <ele>76.004355</ele>
        <time>2020-09-28T11:21:12.581Z</time>
      </trkpt>
      <trkpt lat="64.60122" lon="21.08682">
        <ele>75.821286</ele>
        <time>2020-09-28T11:21:14.574Z</time>
      </trkpt>
      <trkpt lat="64.60109" lon="21.08691">
        <ele>75.676538</ele>
        <time>2020-09-28T11:21:17.597Z</time>
      </trkpt>
      <trkpt lat="64.60097" lon="21.08701">
        <ele>75.539193</ele>
        <time>2020-09-28T11:21:20.598Z</time>
      </trkpt>
      <trkpt lat="64.60084" lon="21.08708">
        <ele>75.393589</ele>
        <time>2020-09-28T11:21:23.573Z</time>
      </trkpt>
      <trkpt lat="64.60076" lon="21.08715">
        <ele>75.295081</ele>
        <time>2020-09-28T11:21:25.578Z</time>
      </trkpt>
      <trkpt lat="64.60063" lon="21.08723">
        <ele>75.151541</ele>
        <time>2020-09-28T11:21:28.576Z</time>
      </trkpt>
      <trkpt lat="64.60051" lon="21.08732">
        <ele>75.011224</ele>
        <time>2020-09-28T11:21:31.614Z</time>
      </trkpt>
      <trkpt lat="64.60038" lon="21.08741">
        <ele>74.865835</ele>
        <time>2020-09-28T11:21:34.624Z</time>
      </trkpt>
      <trkpt lat="64.60026" lon="21.08749">
        <ele>74.728032</ele>
        <time>2020-09-28T11:21:37.596Z</time>
      </trkpt>
      <trkpt lat="64.60015" lon="21.08756">
        <ele>74.59652</ele>
        <time>2020-09-28T11:21:40.575Z</time>
      </trkpt>
      <trkpt lat="64.60002" lon="21.08764">
        <ele>74.453615</ele>
        <time>2020-09-28T11:21:43.576Z</time>
      </trkpt>
      <trkpt lat="64.59993" lon="21.0877">
        <ele>74.350253</ele>
        <time>2020-09-28T11:21:45.617Z</time>
      </trkpt>
      <trkpt lat="64.59984" lon="21.08776">
        <ele>74.246891</ele>
        <time>2020-09-28T11:21:47.572Z</time>
      </trkpt>
      <trkpt lat="64.59975" lon="21.0878">
        <ele>74.14799</ele>
        <time>2020-09-28T11:21:49.569Z</time>
      </trkpt>
      <trkpt lat="64.59966" lon="21.08787">
        <ele>74.046973</ele>
        <time>2020-09-28T11:21:51.595Z</time>
      </trkpt>
      <trkpt lat="64.59955" lon="21.08794">
        <ele>73.918202</ele>
        <time>2020-09-28T11:21:54.620Z</time>
      </trkpt>
      <trkpt lat="64.59943" lon="21.08801">
        <ele>74.031834</ele>
        <time>2020-09-28T11:21:57.570Z</time>
      </trkpt>
      <trkpt lat="64.5993" lon="21.08811">
        <ele>74.446168</ele>
        <time>2020-09-28T11:22:00.569Z</time>
      </trkpt>
      <trkpt lat="64.59919" lon="21.0882">
        <ele>74.815196</ele>
        <time>2020-09-28T11:22:03.583Z</time>
      </trkpt>
      <trkpt lat="64.59907" lon="21.08828">
        <ele>75.241954</ele>
        <time>2020-09-28T11:22:06.594Z</time>
      </trkpt>
      <trkpt lat="64.59898" lon="21.08837">
        <ele>75.541469</ele>
        <time>2020-09-28T11:22:08.576Z</time>
      </trkpt>
      <trkpt lat="64.59889" lon="21.08843">
        <ele>75.839367</ele>
        <time>2020-09-28T11:22:10.588Z</time>
      </trkpt>
      <trkpt lat="64.59877" lon="21.08851">
        <ele>76.24788</ele>
        <time>2020-09-28T11:22:13.587Z</time>
      </trkpt>
      <trkpt lat="64.59868" lon="21.08858">
        <ele>76.53507</ele>
        <time>2020-09-28T11:22:15.579Z</time>
      </trkpt>
      <trkpt lat="64.59856" lon="21.08868">
        <ele>76.934423</ele>
        <time>2020-09-28T11:22:18.583Z</time>
      </trkpt>
      <trkpt lat="64.59844" lon="21.08876">
        <ele>77.328547</ele>
        <time>2020-09-28T11:22:21.573Z</time>
      </trkpt>
      <trkpt lat="64.59832" lon="21.08883">
        <ele>77.733634</ele>
        <time>2020-09-28T11:22:24.593Z</time>
      </trkpt>
      <trkpt lat="64.59819" lon="21.08892">
        <ele>78.147411</ele>
        <time>2020-09-28T11:22:27.616Z</time>
      </trkpt>
      <trkpt lat="64.5981" lon="21.08898">
        <ele>78.463103</ele>
        <time>2020-09-28T11:22:29.584Z</time>
      </trkpt>
      <trkpt lat="64.59801" lon="21.08905">
        <ele>78.759753</ele>
        <time>2020-09-28T11:22:31.587Z</time>
      </trkpt>
      <trkpt lat="64.59789" lon="21.08912">
        <ele>79.169298</ele>
        <time>2020-09-28T11:22:34.577Z</time>
      </trkpt>
      <trkpt lat="64.59777" lon="21.0892">
        <ele>79.539943</ele>
        <time>2020-09-28T11:22:37.578Z</time>
      </trkpt>
      <trkpt lat="64.59766" lon="21.08926">
        <ele>79.563359</ele>
        <time>2020-09-28T11:22:40.578Z</time>
      </trkpt>
      <trkpt lat="64.59754" lon="21.08933">
        <ele>79.55891</ele>
        <time>2020-09-28T11:22:43.593Z</time>
      </trkpt>
      <trkpt lat="64.59741" lon="21.08944">
        <ele>79.554152</ele>
        <time>2020-09-28T11:22:46.586Z</time>
      </trkpt>
      <trkpt lat="64.5973" lon="21.08954">
        <ele>79.549778</ele>
        <time>2020-09-28T11:22:49.578Z</time>
      </trkpt>
      <trkpt lat="64.59719" lon="21.08962">
        <ele>79.545647</ele>
        <time>2020-09-28T11:22:52.573Z</time>
      </trkpt>
      <trkpt lat="64.59707" lon="21.08969">
        <ele>79.541374</ele>
        <time>2020-09-28T11:22:55.580Z</time>
      </trkpt>
      <trkpt lat="64.59698" lon="21.08976">
        <ele>79.538016</ele>
        <time>2020-09-28T11:22:57.582Z</time>
      </trkpt>
      <trkpt lat="64.59688" lon="21.08983">
        <ele>79.53441</ele>
        <time>2020-09-28T11:22:59.585Z</time>
      </trkpt>
      <trkpt lat="64.59678" lon="21.08989">
        <ele>79.530731</ele>
        <time>2020-09-28T11:23:01.553Z</time>
      </trkpt>
      <trkpt lat="64.59669" lon="21.08996">
        <ele>79.527151</ele>
        <time>2020-09-28T11:23:03.602Z</time>
      </trkpt>
      <trkpt lat="64.5966" lon="21.09002">
        <ele>79.523784</ele>
        <time>2020-09-28T11:23:05.589Z</time>
      </trkpt>
      <trkpt lat="64.59651" lon="21.09009">
        <ele>79.520566</ele>
        <time>2020-09-28T11:23:07.561Z</time>
      </trkpt>
      <trkpt lat="64.59642" lon="21.09016">
        <ele>79.517242</ele>
        <time>2020-09-28T11:23:09.615Z</time>
      </trkpt>
      <trkpt lat="64.59634" lon="21.09022">
        <ele>79.514021</ele>
        <time>2020-09-28T11:23:11.581Z</time>
      </trkpt>
      <trkpt lat="64.59625" lon="21.09028">
        <ele>79.510778</ele>
        <time>2020-09-28T11:23:13.595Z</time>
      </trkpt>
      <trkpt lat="64.59616" lon="21.09034">
        <ele>79.507548</ele>
        <time>2020-09-28T11:23:15.582Z</time>
      </trkpt>
      <trkpt lat="64.59607" lon="21.0904">
        <ele>79.504208</ele>
        <time>2020-09-28T11:23:17.604Z</time>
      </trkpt>
      <trkpt lat="64.59595" lon="21.09051">
        <ele>79.501158</ele>
        <time>2020-09-28T11:23:20.578Z</time>
      </trkpt>
      <trkpt lat="64.59586" lon="21.09056">
        <ele>79.499378</ele>
        <time>2020-09-28T11:23:22.571Z</time>
      </trkpt>
      <trkpt lat="64.59574" lon="21.09064">
        <ele>79.496938</ele>
        <time>2020-09-28T11:23:25.580Z</time>
      </trkpt>
      <trkpt lat="64.59562" lon="21.09071">
        <ele>79.494568</ele>
        <time>2020-09-28T11:23:28.599Z</time>
      </trkpt>
      <trkpt lat="64.5955" lon="21.0908">
        <ele>79.492124</ele>
        <time>2020-09-28T11:23:31.587Z</time>
      </trkpt>
      <trkpt lat="64.59538" lon="21.09085">
        <ele>79.489744</ele>
        <time>2020-09-28T11:23:34.580Z</time>
      </trkpt>
      <trkpt lat="64.59527" lon="21.09093">
        <ele>79.487447</ele>
        <time>2020-09-28T11:23:37.563Z</time>
      </trkpt>
      <trkpt lat="64.59515" lon="21.09099">
        <ele>79.485029</ele>
        <time>2020-09-28T11:23:40.594Z</time>
      </trkpt>
      <trkpt lat="64.59506" lon="21.09105">
        <ele>79.483152</ele>
        <time>2020-09-28T11:23:42.614Z</time>
      </trkpt>
      <trkpt lat="64.59496" lon="21.09112">
        <ele>79.48114</ele>
        <time>2020-09-28T11:23:44.566Z</time>
      </trkpt>
      <trkpt lat="64.59487" lon="21.09116">
        <ele>79.479276</ele>
        <time>2020-09-28T11:23:46.609Z</time>
      </trkpt>
      <trkpt lat="64.59476" lon="21.0912">
        <ele>79.477248</ele>
        <time>2020-09-28T11:23:48.581Z</time>
      </trkpt>
      <trkpt lat="64.59466" lon="21.09124">
        <ele>79.475197</ele>
        <time>2020-09-28T11:23:50.601Z</time>
      </trkpt>
      <trkpt lat="64.59456" lon="21.09129">
        <ele>79.47326</ele>
        <time>2020-09-28T11:23:52.616Z</time>
      </trkpt>
      <trkpt lat="64.59446" lon="21.09135">
        <ele>79.471105</ele>
        <time>2020-09-28T11:23:54.565Z</time>
      </trkpt>
      <trkpt lat="64.59434" lon="21.09141">
        <ele>79.468817</ele>
        <time>2020-09-28T11:23:56.562Z</time>
      </trkpt>
      <trkpt lat="64.59423" lon="21.09147">
        <ele>79.143313</ele>
        <time>2020-09-28T11:23:58.599Z</time>
      </trkpt>
      <trkpt lat="64.59412" lon="21.09153">
        <ele>78.622235</ele>
        <time>2020-09-28T11:24:00.573Z</time>
      </trkpt>
      <trkpt lat="64.59399" lon="21.09161">
        <ele>78.056314</ele>
        <time>2020-09-28T11:24:02.580Z</time>
      </trkpt>
      <trkpt lat="64.59386" lon="21.09168">
        <ele>77.454907</ele>
        <time>2020-09-28T11:24:04.582Z</time>
      </trkpt>
      <trkpt lat="64.59373" lon="21.09175">
        <ele>76.851822</ele>
        <time>2020-09-28T11:24:06.590Z</time>
      </trkpt>
      <trkpt lat="64.5936" lon="21.09182">
        <ele>76.236517</ele>
        <time>2020-09-28T11:24:08.584Z</time>
      </trkpt>
      <trkpt lat="64.59346" lon="21.09188">
        <ele>75.611474</ele>
        <time>2020-09-28T11:24:10.593Z</time>
      </trkpt>
      <trkpt lat="64.59332" lon="21.09195">
        <ele>74.991409</ele>
        <time>2020-09-28T11:24:12.641Z</time>
      </trkpt>
      <trkpt lat="64.59319" lon="21.09202">
        <ele>74.370936</ele>
        <time>2020-09-28T11:24:14.582Z</time>
      </trkpt>
      <trkpt lat="64.59305" lon="21.09208">
        <ele>73.752066</ele>
        <time>2020-09-28T11:24:16.587Z</time>
      </trkpt>
      <trkpt lat="64.59292" lon="21.09215">
        <ele>73.150226</ele>
        <time>2020-09-28T11:24:18.575Z</time>
      </trkpt>
      <trkpt lat="64.59279" lon="21.09221">
        <ele>72.572556</ele>
        <time>2020-09-28T11:24:20.573Z</time>
      </trkpt>
      <trkpt lat="64.59267" lon="21.09227">
        <ele>72.021439</ele>
        <time>2020-09-28T11:24:22.588Z</time>
      </trkpt>
      <trkpt lat="64.59255" lon="21.09233">
        <ele>71.467493</ele>
        <time>2020-09-28T11:24:24.575Z</time>
      </trkpt>
      <trkpt lat="64.59243" lon="21.09238">
        <ele>71.281718</ele>
        <time>2020-09-28T11:24:26.582Z</time>
      </trkpt>
      <trkpt lat="64.59232" lon="21.09243">
        <ele>71.109694</ele>
        <time>2020-09-28T11:24:28.614Z</time>
      </trkpt>
      <trkpt lat="64.59221" lon="21.09247">
        <ele>70.943628</ele>
        <time>2020-09-28T11:24:30.568Z</time>
      </trkpt>
      <trkpt lat="64.59211" lon="21.09251">
        <ele>70.785293</ele>
        <time>2020-09-28T11:24:32.588Z</time>
      </trkpt>
      <trkpt lat="64.592" lon="21.09257">
        <ele>70.625763</ele>
        <time>2020-09-28T11:24:34.570Z</time>
      </trkpt>
      <trkpt lat="64.5919" lon="21.09263">
        <ele>70.463753</ele>
        <time>2020-09-28T11:24:36.580Z</time>
      </trkpt>
      <trkpt lat="64.59179" lon="21.09268">
        <ele>70.29454</ele>
        <time>2020-09-28T11:24:38.595Z</time>
      </trkpt>
      <trkpt lat="64.59168" lon="21.09273">
        <ele>70.129524</ele>
        <time>2020-09-28T11:24:40.574Z</time>
      </trkpt>
      <trkpt lat="64.59157" lon="21.09278">
        <ele>69.954806</ele>
        <time>2020-09-28T11:24:42.568Z</time>
      </trkpt>
      <trkpt lat="64.59145" lon="21.09284">
        <ele>69.77551</ele>
        <time>2020-09-28T11:24:44.570Z</time>
      </trkpt>
      <trkpt lat="64.59133" lon="21.0929">
        <ele>69.592107</ele>
        <time>2020-09-28T11:24:46.579Z</time>
      </trkpt>
      <trkpt lat="64.59122" lon="21.09297">
        <ele>69.413816</ele>
        <time>2020-09-28T11:24:48.571Z</time>
      </trkpt>
      <trkpt lat="64.5911" lon="21.09304">
        <ele>69.233908</ele>
        <time>2020-09-28T11:24:50.601Z</time>
      </trkpt>
      <trkpt lat="64.59099" lon="21.0931">
        <ele>69.056935</ele>
        <time>2020-09-28T11:24:52.612Z</time>
      </trkpt>
      <trkpt lat="64.59087" lon="21.09315">
        <ele>68.878758</ele>
        <time>2020-09-28T11:24:54.575Z</time>
      </trkpt>
      <trkpt lat="64.59075" lon="21.09321">
        <ele>68.725536</ele>
        <time>2020-09-28T11:24:56.579Z</time>
      </trkpt>
      <trkpt lat="64.59064" lon="21.09326">
        <ele>68.641591</ele>
        <time>2020-09-28T11:24:58.567Z</time>
      </trkpt>
      <trkpt lat="64.59053" lon="21.09331">
        <ele>68.557462</ele>
        <time>2020-09-28T11:25:00.587Z</time>
      </trkpt>
      <trkpt lat="64.59042" lon="21.09335">
        <ele>68.475263</ele>
        <time>2020-09-28T11:25:02.581Z</time>
      </trkpt>
      <trkpt lat="64.59032" lon="21.09341">
        <ele>68.394134</ele>
        <time>2020-09-28T11:25:04.570Z</time>
      </trkpt>
      <trkpt lat="64.59022" lon="21.09348">
        <ele>68.31539</ele>
        <time>2020-09-28T11:25:06.578Z</time>
      </trkpt>
      <trkpt lat="64.59011" lon="21.09354">
        <ele>68.235931</ele>
        <time>2020-09-28T11:25:08.565Z</time>
      </trkpt>
      <trkpt lat="64.59001" lon="21.09359">
        <ele>68.156758</ele>
        <time>2020-09-28T11:25:10.578Z</time>
      </trkpt>
      <trkpt lat="64.5899" lon="21.09364">
        <ele>68.078516</ele>
        <time>2020-09-28T11:25:12.631Z</time>
      </trkpt>
      <trkpt lat="64.5898" lon="21.0937">
        <ele>67.99913</ele>
        <time>2020-09-28T11:25:14.593Z</time>
      </trkpt>
      <trkpt lat="64.5897" lon="21.09376">
        <ele>67.919092</ele>
        <time>2020-09-28T11:25:16.588Z</time>
      </trkpt>
      <trkpt lat="64.58959" lon="21.0938">
        <ele>67.840375</ele>
        <time>2020-09-28T11:25:18.577Z</time>
      </trkpt>
      <trkpt lat="64.58949" lon="21.09386">
        <ele>67.760408</ele>
        <time>2020-09-28T11:25:20.582Z</time>
      </trkpt>
      <trkpt lat="64.58938" lon="21.09391">
        <ele>67.682295</ele>
        <time>2020-09-28T11:25:22.570Z</time>
      </trkpt>
      <trkpt lat="64.58928" lon="21.09395">
        <ele>67.606275</ele>
        <time>2020-09-28T11:25:24.592Z</time>
      </trkpt>
      <trkpt lat="64.58918" lon="21.09399">
        <ele>67.528954</ele>
        <time>2020-09-28T11:25:26.586Z</time>
      </trkpt>
      <trkpt lat="64.58908" lon="21.09404">
        <ele>67.455337</ele>
        <time>2020-09-28T11:25:28.584Z</time>
      </trkpt>
      <trkpt lat="64.58899" lon="21.09408">
        <ele>67.39674</ele>
        <time>2020-09-28T11:25:30.616Z</time>
      </trkpt>
      <trkpt lat="64.58889" lon="21.09412">
        <ele>67.351005</ele>
        <time>2020-09-28T11:25:32.586Z</time>
      </trkpt>
      <trkpt lat="64.58877" lon="21.09417">
        <ele>67.300595</ele>
        <time>2020-09-28T11:25:34.597Z</time>
      </trkpt>
      <trkpt lat="64.58866" lon="21.09422">
        <ele>67.248858</ele>
        <time>2020-09-28T11:25:36.601Z</time>
      </trkpt>
      <trkpt lat="64.58854" lon="21.09427">
        <ele>67.197872</ele>
        <time>2020-09-28T11:25:38.575Z</time>
      </trkpt>
      <trkpt lat="64.58844" lon="21.09433">
        <ele>67.149548</ele>
        <time>2020-09-28T11:25:40.584Z</time>
      </trkpt>
      <trkpt lat="64.58833" lon="21.0944">
        <ele>67.102307</ele>
        <time>2020-09-28T11:25:42.587Z</time>
      </trkpt>
      <trkpt lat="64.58823" lon="21.09446">
        <ele>67.055482</ele>
        <time>2020-09-28T11:25:44.577Z</time>
      </trkpt>
      <trkpt lat="64.58813" lon="21.09452">
        <ele>67.009375</ele>
        <time>2020-09-28T11:25:46.598Z</time>
      </trkpt>
      <trkpt lat="64.58803" lon="21.09457">
        <ele>66.965151</ele>
        <time>2020-09-28T11:25:48.586Z</time>
      </trkpt>
      <trkpt lat="64.58793" lon="21.09463">
        <ele>66.922338</ele>
        <time>2020-09-28T11:25:50.603Z</time>
      </trkpt>
      <trkpt lat="64.58784" lon="21.09467">
        <ele>66.881285</ele>
        <time>2020-09-28T11:25:52.575Z</time>
      </trkpt>
      <trkpt lat="64.58775" lon="21.09472">
        <ele>66.838854</ele>
        <time>2020-09-28T11:25:54.583Z</time>
      </trkpt>
      <trkpt lat="64.58765" lon="21.09477">
        <ele>66.796466</ele>
        <time>2020-09-28T11:25:56.569Z</time>
      </trkpt>
      <trkpt lat="64.58756" lon="21.09483">
        <ele>66.752953</ele>
        <time>2020-09-28T11:25:58.593Z</time>
      </trkpt>
      <trkpt lat="64.58746" lon="21.09488">
        <ele>66.709998</ele>
        <time>2020-09-28T11:26:00.582Z</time>
      </trkpt>
      <trkpt lat="64.58737" lon="21.09493">
        <ele>66.667862</ele>
        <time>2020-09-28T11:26:02.571Z</time>
      </trkpt>
      <trkpt lat="64.58728" lon="21.09497">
        <ele>66.626114</ele>
        <time>2020-09-28T11:26:04.579Z</time>
      </trkpt>
      <trkpt lat="64.58718" lon="21.09503">
        <ele>66.86851</ele>
        <time>2020-09-28T11:26:06.599Z</time>
      </trkpt>
      <trkpt lat="64.58709" lon="21.09508">
        <ele>67.113181</ele>
        <time>2020-09-28T11:26:08.594Z</time>
      </trkpt>
      <trkpt lat="64.58699" lon="21.09513">
        <ele>67.360816</ele>
        <time>2020-09-28T11:26:10.591Z</time>
      </trkpt>
      <trkpt lat="64.5869" lon="21.09518">
        <ele>67.600791</ele>
        <time>2020-09-28T11:26:12.599Z</time>
      </trkpt>
      <trkpt lat="64.58681" lon="21.09523">
        <ele>67.837318</ele>
        <time>2020-09-28T11:26:14.571Z</time>
      </trkpt>
      <trkpt lat="64.58672" lon="21.09528">
        <ele>68.074326</ele>
        <time>2020-09-28T11:26:16.579Z</time>
      </trkpt>
      <trkpt lat="64.58663" lon="21.09532">
        <ele>68.309734</ele>
        <time>2020-09-28T11:26:18.593Z</time>
      </trkpt>
      <trkpt lat="64.58654" lon="21.09534">
        <ele>68.539868</ele>
        <time>2020-09-28T11:26:20.573Z</time>
      </trkpt>
      <trkpt lat="64.58644" lon="21.09539">
        <ele>68.775276</ele>
        <time>2020-09-28T11:26:22.573Z</time>
      </trkpt>
      <trkpt lat="64.58631" lon="21.09544">
        <ele>69.114994</ele>
        <time>2020-09-28T11:26:25.596Z</time>
      </trkpt>
      <trkpt lat="64.58619" lon="21.0955">
        <ele>69.444721</ele>
        <time>2020-09-28T11:26:28.574Z</time>
      </trkpt>
      <trkpt lat="64.58606" lon="21.09558">
        <ele>69.776405</ele>
        <time>2020-09-28T11:26:31.581Z</time>
      </trkpt>
      <trkpt lat="64.58596" lon="21.09562">
        <ele>70.025829</ele>
        <time>2020-09-28T11:26:33.589Z</time>
      </trkpt>
      <trkpt lat="64.58587" lon="21.09566">
        <ele>70.275432</ele>
        <time>2020-09-28T11:26:35.579Z</time>
      </trkpt>
      <trkpt lat="64.58577" lon="21.0957">
        <ele>70.527537</ele>
        <time>2020-09-28T11:26:37.580Z</time>
      </trkpt>
      <trkpt lat="64.58567" lon="21.09574">
        <ele>70.778951</ele>
        <time>2020-09-28T11:26:39.567Z</time>
      </trkpt>
      <trkpt lat="64.58557" lon="21.09579">
        <ele>71.03153</ele>
        <time>2020-09-28T11:26:41.588Z</time>
      </trkpt>
      <trkpt lat="64.58547" lon="21.09584">
        <ele>71.098729</ele>
        <time>2020-09-28T11:26:43.598Z</time>
      </trkpt>
      <trkpt lat="64.58537" lon="21.09589">
        <ele>70.879731</ele>
        <time>2020-09-28T11:26:45.611Z</time>
      </trkpt>
      <trkpt lat="64.58525" lon="21.09596">
        <ele>70.640732</ele>
        <time>2020-09-28T11:26:47.594Z</time>
      </trkpt>
      <trkpt lat="64.58515" lon="21.09602">
        <ele>70.408406</ele>
        <time>2020-09-28T11:26:49.592Z</time>
      </trkpt>
      <trkpt lat="64.58504" lon="21.09607">
        <ele>70.190824</ele>
        <time>2020-09-28T11:26:51.567Z</time>
      </trkpt>
      <trkpt lat="64.58493" lon="21.09614">
        <ele>69.947372</ele>
        <time>2020-09-28T11:26:53.562Z</time>
      </trkpt>
      <trkpt lat="64.58481" lon="21.09622">
        <ele>69.683181</ele>
        <time>2020-09-28T11:26:55.583Z</time>
      </trkpt>
      <trkpt lat="64.58468" lon="21.09627">
        <ele>69.409109</ele>
        <time>2020-09-28T11:26:57.618Z</time>
      </trkpt>
      <trkpt lat="64.58454" lon="21.09632">
        <ele>69.129216</ele>
        <time>2020-09-28T11:26:59.595Z</time>
      </trkpt>
      <trkpt lat="64.58439" lon="21.09638">
        <ele>68.80986</ele>
        <time>2020-09-28T11:27:01.578Z</time>
      </trkpt>
      <trkpt lat="64.58424" lon="21.09645">
        <ele>68.490496</ele>
        <time>2020-09-28T11:27:03.569Z</time>
      </trkpt>
      <trkpt lat="64.58409" lon="21.09653">
        <ele>68.179584</ele>
        <time>2020-09-28T11:27:05.579Z</time>
      </trkpt>
      <trkpt lat="64.58395" lon="21.09661">
        <ele>67.877913</ele>
        <time>2020-09-28T11:27:07.562Z</time>
      </trkpt>
      <trkpt lat="64.58382" lon="21.09669">
        <ele>67.590526</ele>
        <time>2020-09-28T11:27:09.593Z</time>
      </trkpt>
      <trkpt lat="64.5837" lon="21.09676">
        <ele>67.408149</ele>
        <time>2020-09-28T11:27:11.572Z</time>
      </trkpt>
      <trkpt lat="64.58358" lon="21.09682">
        <ele>67.313384</ele>
        <time>2020-09-28T11:27:13.589Z</time>
      </trkpt>
      <trkpt lat="64.58347" lon="21.09688">
        <ele>67.226966</ele>
        <time>2020-09-28T11:27:15.571Z</time>
      </trkpt>
      <trkpt lat="64.58337" lon="21.09694">
        <ele>67.145926</ele>
        <time>2020-09-28T11:27:17.602Z</time>
      </trkpt>
      <trkpt lat="64.58328" lon="21.09699">
        <ele>67.0663</ele>
        <time>2020-09-28T11:27:19.579Z</time>
      </trkpt>
      <trkpt lat="64.58318" lon="21.09704">
        <ele>66.987447</ele>
        <time>2020-09-28T11:27:21.592Z</time>
      </trkpt>
      <trkpt lat="64.58308" lon="21.0971">
        <ele>66.906657</ele>
        <time>2020-09-28T11:27:23.627Z</time>
      </trkpt>
      <trkpt lat="64.58298" lon="21.09715">
        <ele>66.825099</ele>
        <time>2020-09-28T11:27:25.574Z</time>
      </trkpt>
      <trkpt lat="64.58288" lon="21.09721">
        <ele>66.74238</ele>
        <time>2020-09-28T11:27:27.576Z</time>
      </trkpt>
      <trkpt lat="64.58278" lon="21.09726">
        <ele>66.660361</ele>
        <time>2020-09-28T11:27:29.583Z</time>
      </trkpt>
      <trkpt lat="64.58268" lon="21.09732">
        <ele>66.579489</ele>
        <time>2020-09-28T11:27:31.578Z</time>
      </trkpt>
      <trkpt lat="64.58258" lon="21.09737">
        <ele>66.498243</ele>
        <time>2020-09-28T11:27:33.581Z</time>
      </trkpt>
      <trkpt lat="64.58248" lon="21.09742">
        <ele>66.415804</ele>
        <time>2020-09-28T11:27:35.569Z</time>
      </trkpt>
      <trkpt lat="64.58237" lon="21.09747">
        <ele>66.333298</ele>
        <time>2020-09-28T11:27:37.582Z</time>
      </trkpt>
      <trkpt lat="64.58227" lon="21.09751">
        <ele>66.253453</ele>
        <time>2020-09-28T11:27:39.642Z</time>
      </trkpt>
      <trkpt lat="64.58218" lon="21.09755">
        <ele>66.17834</ele>
        <time>2020-09-28T11:27:41.591Z</time>
      </trkpt>
      <trkpt lat="64.58209" lon="21.0976">
        <ele>66.102727</ele>
        <time>2020-09-28T11:27:43.574Z</time>
      </trkpt>
      <trkpt lat="64.582" lon="21.09765">
        <ele>66.041917</ele>
        <time>2020-09-28T11:27:45.573Z</time>
      </trkpt>
      <trkpt lat="64.5819" lon="21.09769">
        <ele>66.147539</ele>
        <time>2020-09-28T11:27:47.570Z</time>
      </trkpt>
      <trkpt lat="64.58178" lon="21.09776">
        <ele>66.292356</ele>
        <time>2020-09-28T11:27:50.614Z</time>
      </trkpt>
      <trkpt lat="64.58166" lon="21.09782">
        <ele>66.43807</ele>
        <time>2020-09-28T11:27:53.577Z</time>
      </trkpt>
      <trkpt lat="64.58157" lon="21.09787">
        <ele>66.5433</ele>
        <time>2020-09-28T11:27:55.573Z</time>
      </trkpt>
      <trkpt lat="64.58147" lon="21.09792">
        <ele>66.649639</ele>
        <time>2020-09-28T11:27:57.583Z</time>
      </trkpt>
      <trkpt lat="64.58135" lon="21.09798">
        <ele>66.79913</ele>
        <time>2020-09-28T11:28:00.578Z</time>
      </trkpt>
      <trkpt lat="64.58125" lon="21.09802">
        <ele>66.904304</ele>
        <time>2020-09-28T11:28:02.601Z</time>
      </trkpt>
      <trkpt lat="64.58116" lon="21.09805">
        <ele>67.012844</ele>
        <time>2020-09-28T11:28:04.573Z</time>
      </trkpt>
      <trkpt lat="64.58106" lon="21.09809">
        <ele>67.128283</ele>
        <time>2020-09-28T11:28:06.575Z</time>
      </trkpt>
      <trkpt lat="64.58096" lon="21.09812">
        <ele>67.244335</ele>
        <time>2020-09-28T11:28:08.596Z</time>
      </trkpt>
      <trkpt lat="64.58086" lon="21.09817">
        <ele>67.35471</ele>
        <time>2020-09-28T11:28:10.571Z</time>
      </trkpt>
      <trkpt lat="64.58077" lon="21.09821">
        <ele>67.462955</ele>
        <time>2020-09-28T11:28:12.620Z</time>
      </trkpt>
      <trkpt lat="64.58068" lon="21.09827">
        <ele>67.571847</ele>
        <time>2020-09-28T11:28:14.594Z</time>
      </trkpt>
      <trkpt lat="64.58058" lon="21.09831">
        <ele>67.682421</ele>
        <time>2020-09-28T11:28:16.570Z</time>
      </trkpt>
      <trkpt lat="64.58049" lon="21.09836">
        <ele>67.794009</ele>
        <time>2020-09-28T11:28:18.569Z</time>
      </trkpt>
      <trkpt lat="64.58039" lon="21.09842">
        <ele>67.905824</ele>
        <time>2020-09-28T11:28:20.575Z</time>
      </trkpt>
      <trkpt lat="64.5803" lon="21.09846">
        <ele>68.012378</ele>
        <time>2020-09-28T11:28:22.577Z</time>
      </trkpt>
      <trkpt lat="64.58021" lon="21.0985">
        <ele>68.066318</ele>
        <time>2020-09-28T11:28:24.565Z</time>
      </trkpt>
      <trkpt lat="64.58011" lon="21.09855">
        <ele>68.025028</ele>
        <time>2020-09-28T11:28:26.594Z</time>
      </trkpt>
      <trkpt lat="64.58001" lon="21.09861">
        <ele>67.983311</ele>
        <time>2020-09-28T11:28:28.664Z</time>
      </trkpt>
      <trkpt lat="64.57991" lon="21.09866">
        <ele>67.941982</ele>
        <time>2020-09-28T11:28:30.573Z</time>
      </trkpt>
      <trkpt lat="64.57981" lon="21.09871">
        <ele>67.898865</ele>
        <time>2020-09-28T11:28:32.582Z</time>
      </trkpt>
      <trkpt lat="64.5797" lon="21.09877">
        <ele>67.855054</ele>
        <time>2020-09-28T11:28:34.574Z</time>
      </trkpt>
      <trkpt lat="64.5796" lon="21.09883">
        <ele>67.810071</ele>
        <time>2020-09-28T11:28:36.593Z</time>
      </trkpt>
      <trkpt lat="64.57949" lon="21.0989">
        <ele>67.764712</ele>
        <time>2020-09-28T11:28:38.573Z</time>
      </trkpt>
      <trkpt lat="64.57938" lon="21.09896">
        <ele>67.719221</ele>
        <time>2020-09-28T11:28:40.577Z</time>
      </trkpt>
      <trkpt lat="64.57927" lon="21.09901">
        <ele>67.671798</ele>
        <time>2020-09-28T11:28:42.602Z</time>
      </trkpt>
      <trkpt lat="64.57916" lon="21.09907">
        <ele>67.625142</ele>
        <time>2020-09-28T11:28:44.592Z</time>
      </trkpt>
      <trkpt lat="64.57905" lon="21.09913">
        <ele>67.57657</ele>
        <time>2020-09-28T11:28:46.583Z</time>
      </trkpt>
      <trkpt lat="64.57894" lon="21.09919">
        <ele>67.530353</ele>
        <time>2020-09-28T11:28:48.592Z</time>
      </trkpt>
      <trkpt lat="64.57883" lon="21.09924">
        <ele>67.485889</ele>
        <time>2020-09-28T11:28:50.649Z</time>
      </trkpt>
      <trkpt lat="64.57872" lon="21.09929">
        <ele>67.441626</ele>
        <time>2020-09-28T11:28:52.583Z</time>
      </trkpt>
      <trkpt lat="64.57862" lon="21.09934">
        <ele>67.397415</ele>
        <time>2020-09-28T11:28:54.581Z</time>
      </trkpt>
      <trkpt lat="64.57851" lon="21.09939">
        <ele>67.353317</ele>
        <time>2020-09-28T11:28:56.594Z</time>
      </trkpt>
      <trkpt lat="64.57841" lon="21.09945">
        <ele>67.19916</ele>
        <time>2020-09-28T11:28:58.609Z</time>
      </trkpt>
      <trkpt lat="64.57831" lon="21.0995">
        <ele>67.009385</ele>
        <time>2020-09-28T11:29:00.597Z</time>
      </trkpt>
      <trkpt lat="64.57821" lon="21.09954">
        <ele>66.827224</ele>
        <time>2020-09-28T11:29:02.574Z</time>
      </trkpt>
      <trkpt lat="64.57811" lon="21.0996">
        <ele>66.645048</ele>
        <time>2020-09-28T11:29:04.618Z</time>
      </trkpt>
      <trkpt lat="64.57801" lon="21.09965">
        <ele>66.462872</ele>
        <time>2020-09-28T11:29:06.594Z</time>
      </trkpt>
      <trkpt lat="64.5779" lon="21.09971">
        <ele>66.269535</ele>
        <time>2020-09-28T11:29:08.582Z</time>
      </trkpt>
      <trkpt lat="64.5778" lon="21.09975">
        <ele>66.083855</ele>
        <time>2020-09-28T11:29:10.574Z</time>
      </trkpt>
      <trkpt lat="64.5777" lon="21.09979">
        <ele>65.902367</ele>
        <time>2020-09-28T11:29:12.603Z</time>
      </trkpt>
      <trkpt lat="64.5776" lon="21.09983">
        <ele>65.720619</ele>
        <time>2020-09-28T11:29:14.578Z</time>
      </trkpt>
      <trkpt lat="64.5775" lon="21.09989">
        <ele>65.528631</ele>
        <time>2020-09-28T11:29:16.590Z</time>
      </trkpt>
      <trkpt lat="64.5774" lon="21.09993">
        <ele>65.346469</ele>
        <time>2020-09-28T11:29:18.622Z</time>
      </trkpt>
      <trkpt lat="64.5773" lon="21.09997">
        <ele>65.169581</ele>
        <time>2020-09-28T11:29:20.578Z</time>
      </trkpt>
      <trkpt lat="64.5772" lon="21.10002">
        <ele>64.987561</ele>
        <time>2020-09-28T11:29:22.612Z</time>
      </trkpt>
      <trkpt lat="64.5771" lon="21.10007">
        <ele>64.809899</ele>
        <time>2020-09-28T11:29:24.595Z</time>
      </trkpt>
      <trkpt lat="64.57701" lon="21.10011">
        <ele>64.645292</ele>
        <time>2020-09-28T11:29:26.606Z</time>
      </trkpt>
      <trkpt lat="64.57688" lon="21.10017">
        <ele>64.405862</ele>
        <time>2020-09-28T11:29:29.579Z</time>
      </trkpt>
      <trkpt lat="64.57675" lon="21.10025">
        <ele>64.166319</ele>
        <time>2020-09-28T11:29:32.595Z</time>
      </trkpt>
      <trkpt lat="64.57662" lon="21.10031">
        <ele>64.059001</ele>
        <time>2020-09-28T11:29:35.618Z</time>
      </trkpt>
      <trkpt lat="64.5765" lon="21.10036">
        <ele>63.983754</ele>
        <time>2020-09-28T11:29:38.606Z</time>
      </trkpt>
      <trkpt lat="64.57638" lon="21.1004">
        <ele>63.912611</ele>
        <time>2020-09-28T11:29:41.584Z</time>
      </trkpt>
      <trkpt lat="64.57626" lon="21.10046">
        <ele>63.841275</ele>
        <time>2020-09-28T11:29:44.589Z</time>
      </trkpt>
      <trkpt lat="64.57614" lon="21.1005">
        <ele>63.766325</ele>
        <time>2020-09-28T11:29:47.580Z</time>
      </trkpt>
      <trkpt lat="64.57601" lon="21.10054">
        <ele>63.689821</ele>
        <time>2020-09-28T11:29:50.587Z</time>
      </trkpt>
      <trkpt lat="64.57589" lon="21.10059">
        <ele>63.613061</ele>
        <time>2020-09-28T11:29:53.582Z</time>
      </trkpt>
      <trkpt lat="64.57577" lon="21.10063">
        <ele>63.541846</ele>
        <time>2020-09-28T11:29:56.606Z</time>
      </trkpt>
      <trkpt lat="64.57565" lon="21.10067">
        <ele>63.469964</ele>
        <time>2020-09-28T11:29:59.593Z</time>
      </trkpt>
      <trkpt lat="64.57553" lon="21.10073">
        <ele>63.394912</ele>
        <time>2020-09-28T11:30:02.618Z</time>
      </trkpt>
      <trkpt lat="64.5754" lon="21.10077">
        <ele>63.321258</ele>
        <time>2020-09-28T11:30:05.583Z</time>
      </trkpt>
      <trkpt lat="64.57528" lon="21.10083">
        <ele>63.247044</ele>
        <time>2020-09-28T11:30:08.571Z</time>
      </trkpt>
      <trkpt lat="64.57516" lon="21.10089">
        <ele>63.174382</ele>
        <time>2020-09-28T11:30:11.620Z</time>
      </trkpt>
      <trkpt lat="64.57505" lon="21.10094">
        <ele>63.106552</ele>
        <time>2020-09-28T11:30:14.617Z</time>
      </trkpt>
      <trkpt lat="64.57494" lon="21.101">
        <ele>63.073253</ele>
        <time>2020-09-28T11:30:17.603Z</time>
      </trkpt>
      <trkpt lat="64.57482" lon="21.10105">
        <ele>63.21702</ele>
        <time>2020-09-28T11:30:20.579Z</time>
      </trkpt>
      <trkpt lat="64.5747" lon="21.10109">
        <ele>63.356603</ele>
        <time>2020-09-28T11:30:23.570Z</time>
      </trkpt>
      <trkpt lat="64.57458" lon="21.10113">
        <ele>63.498252</ele>
        <time>2020-09-28T11:30:26.568Z</time>
      </trkpt>
      <trkpt lat="64.57447" lon="21.10117">
        <ele>63.635186</ele>
        <time>2020-09-28T11:30:29.588Z</time>
      </trkpt>
      <trkpt lat="64.57436" lon="21.10121">
        <ele>63.765207</ele>
        <time>2020-09-28T11:30:32.602Z</time>
      </trkpt>
      <trkpt lat="64.57425" lon="21.10125">
        <ele>63.894842</ele>
        <time>2020-09-28T11:30:35.579Z</time>
      </trkpt>
      <trkpt lat="64.57415" lon="21.1013">
        <ele>64.026629</ele>
        <time>2020-09-28T11:30:38.574Z</time>
      </trkpt>
      <trkpt lat="64.57404" lon="21.10132">
        <ele>64.150913</ele>
        <time>2020-09-28T11:30:41.588Z</time>
      </trkpt>
      <trkpt lat="64.57393" lon="21.10135">
        <ele>64.27875</ele>
        <time>2020-09-28T11:30:44.626Z</time>
      </trkpt>
      <trkpt lat="64.57382" lon="21.1014">
        <ele>64.412926</ele>
        <time>2020-09-28T11:30:47.575Z</time>
      </trkpt>
      <trkpt lat="64.57372" lon="21.10146">
        <ele>64.545016</ele>
        <time>2020-09-28T11:30:50.582Z</time>
      </trkpt>
      <trkpt lat="64.57361" lon="21.10151">
        <ele>64.669417</ele>
        <time>2020-09-28T11:30:53.597Z</time>
      </trkpt>
      <trkpt lat="64.57352" lon="21.10154">
        <ele>64.787218</ele>
        <time>2020-09-28T11:30:56.579Z</time>
      </trkpt>
      <trkpt lat="64.57342" lon="21.10157">
        <ele>64.906197</ele>
        <time>2020-09-28T11:30:59.608Z</time>
      </trkpt>
      <trkpt lat="64.57331" lon="21.10161">
        <ele>65.031209</ele>
        <time>2020-09-28T11:31:02.577Z</time>
      </trkpt>
      <trkpt lat="64.57321" lon="21.10167">
        <ele>65.153305</ele>
        <time>2020-09-28T11:31:05.573Z</time>
      </trkpt>
      <trkpt lat="64.57312" lon="21.1017">
        <ele>65.333481</ele>
        <time>2020-09-28T11:31:08.588Z</time>
      </trkpt>
      <trkpt lat="64.57302" lon="21.10175">
        <ele>65.548764</ele>
        <time>2020-09-28T11:31:11.611Z</time>
      </trkpt>
      <trkpt lat="64.57292" lon="21.1018">
        <ele>65.783302</ele>
        <time>2020-09-28T11:31:14.595Z</time>
      </trkpt>
      <trkpt lat="64.57281" lon="21.10185">
        <ele>66.021464</ele>
        <time>2020-09-28T11:31:17.591Z</time>
      </trkpt>
      <trkpt lat="64.57271" lon="21.10188">
        <ele>66.264943</ele>
        <time>2020-09-28T11:31:20.580Z</time>
      </trkpt>
      <trkpt lat="64.5726" lon="21.10194">
        <ele>66.51107</ele>
        <time>2020-09-28T11:31:23.577Z</time>
      </trkpt>
      <trkpt lat="64.57248" lon="21.10199">
        <ele>66.765138</ele>
        <time>2020-09-28T11:31:26.578Z</time>
      </trkpt>
      <trkpt lat="64.57236" lon="21.10204">
        <ele>67.032941</ele>
        <time>2020-09-28T11:31:29.589Z</time>
      </trkpt>
      <trkpt lat="64.57224" lon="21.10209">
        <ele>67.302569</ele>
        <time>2020-09-28T11:31:32.571Z</time>
      </trkpt>
      <trkpt lat="64.57212" lon="21.10214">
        <ele>67.585417</ele>
        <time>2020-09-28T11:31:35.582Z</time>
      </trkpt>
      <trkpt lat="64.57199" lon="21.1022">
        <ele>67.878732</ele>
        <time>2020-09-28T11:31:38.564Z</time>
      </trkpt>
      <trkpt lat="64.57186" lon="21.10227">
        <ele>68.171296</ele>
        <time>2020-09-28T11:31:41.591Z</time>
      </trkpt>
      <trkpt lat="64.57177" lon="21.10231">
        <ele>68.37582</ele>
        <time>2020-09-28T11:31:43.563Z</time>
      </trkpt>
      <trkpt lat="64.57168" lon="21.10236">
        <ele>68.579288</ele>
        <time>2020-09-28T11:31:45.593Z</time>
      </trkpt>
      <trkpt lat="64.57158" lon="21.1024">
        <ele>68.790505</ele>
        <time>2020-09-28T11:31:47.577Z</time>
      </trkpt>
      <trkpt lat="64.57149" lon="21.10244">
        <ele>69.001554</ele>
        <time>2020-09-28T11:31:49.574Z</time>
      </trkpt>
      <trkpt lat="64.5714" lon="21.10248">
        <ele>69.157089</ele>
        <time>2020-09-28T11:31:51.597Z</time>
      </trkpt>
      <trkpt lat="64.57131" lon="21.10251">
        <ele>69.12435</ele>
        <time>2020-09-28T11:31:53.593Z</time>
      </trkpt>
      <trkpt lat="64.57121" lon="21.10255">
        <ele>69.090625</ele>
        <time>2020-09-28T11:31:55.600Z</time>
      </trkpt>
      <trkpt lat="64.57112" lon="21.10257">
        <ele>69.057822</ele>
        <time>2020-09-28T11:31:57.621Z</time>
      </trkpt>
      <trkpt lat="64.57102" lon="21.10262">
        <ele>69.024227</ele>
        <time>2020-09-28T11:31:59.582Z</time>
      </trkpt>
      <trkpt lat="64.57093" lon="21.10266">
        <ele>68.991859</ele>
        <time>2020-09-28T11:32:01.603Z</time>
      </trkpt>
      <trkpt lat="64.57084" lon="21.1027">
        <ele>68.95835</ele>
        <time>2020-09-28T11:32:03.604Z</time>
      </trkpt>
      <trkpt lat="64.57075" lon="21.10274">
        <ele>68.925098</ele>
        <time>2020-09-28T11:32:05.595Z</time>
      </trkpt>
      <trkpt lat="64.57065" lon="21.10278">
        <ele>68.891846</ele>
        <time>2020-09-28T11:32:07.575Z</time>
      </trkpt>
      <trkpt lat="64.57056" lon="21.10282">
        <ele>68.859874</ele>
        <time>2020-09-28T11:32:09.601Z</time>
      </trkpt>
      <trkpt lat="64.57047" lon="21.10285">
        <ele>68.827235</ele>
        <time>2020-09-28T11:32:11.606Z</time>
      </trkpt>
      <trkpt lat="64.57038" lon="21.10289">
        <ele>68.795446</ele>
        <time>2020-09-28T11:32:13.578Z</time>
      </trkpt>
      <trkpt lat="64.57025" lon="21.10294">
        <ele>68.748634</ele>
        <time>2020-09-28T11:32:16.598Z</time>
      </trkpt>
      <trkpt lat="64.57012" lon="21.10299">
        <ele>68.702583</ele>
        <time>2020-09-28T11:32:19.571Z</time>
      </trkpt>
      <trkpt lat="64.56999" lon="21.10303">
        <ele>68.657717</ele>
        <time>2020-09-28T11:32:22.618Z</time>
      </trkpt>
      <trkpt lat="64.56987" lon="21.10308">
        <ele>68.612482</ele>
        <time>2020-09-28T11:32:25.586Z</time>
      </trkpt>
      <trkpt lat="64.56974" lon="21.10314">
        <ele>68.567449</ele>
        <time>2020-09-28T11:32:28.572Z</time>
      </trkpt>
      <trkpt lat="64.56961" lon="21.10319">
        <ele>68.559515</ele>
        <time>2020-09-28T11:32:31.622Z</time>
      </trkpt>
      <trkpt lat="64.56952" lon="21.10323">
        <ele>68.625955</ele>
        <time>2020-09-28T11:32:33.594Z</time>
      </trkpt>
      <trkpt lat="64.56939" lon="21.10329">
        <ele>68.722262</ele>
        <time>2020-09-28T11:32:36.588Z</time>
      </trkpt>
      <trkpt lat="64.56927" lon="21.10333">
        <ele>68.810909</ele>
        <time>2020-09-28T11:32:39.579Z</time>
      </trkpt>
      <trkpt lat="64.56915" lon="21.10339">
        <ele>68.90033</ele>
        <time>2020-09-28T11:32:42.593Z</time>
      </trkpt>
      <trkpt lat="64.56903" lon="21.10343">
        <ele>68.990081</ele>
        <time>2020-09-28T11:32:45.605Z</time>
      </trkpt>
      <trkpt lat="64.56892" lon="21.10348">
        <ele>69.074785</ele>
        <time>2020-09-28T11:32:48.581Z</time>
      </trkpt>
      <trkpt lat="64.56881" lon="21.10351">
        <ele>69.152948</ele>
        <time>2020-09-28T11:32:51.583Z</time>
      </trkpt>
      <trkpt lat="64.56871" lon="21.10358">
        <ele>69.232357</ele>
        <time>2020-09-28T11:32:54.586Z</time>
      </trkpt>
      <trkpt lat="64.5686" lon="21.10363">
        <ele>69.314092</ele>
        <time>2020-09-28T11:32:57.591Z</time>
      </trkpt>
      <trkpt lat="64.56848" lon="21.10367">
        <ele>69.39903</ele>
        <time>2020-09-28T11:33:00.576Z</time>
      </trkpt>
      <trkpt lat="64.56837" lon="21.10371">
        <ele>69.485595</ele>
        <time>2020-09-28T11:33:03.570Z</time>
      </trkpt>
      <trkpt lat="64.56826" lon="21.10375">
        <ele>69.566232</ele>
        <time>2020-09-28T11:33:06.603Z</time>
      </trkpt>
      <trkpt lat="64.56814" lon="21.1038">
        <ele>69.654935</ele>
        <time>2020-09-28T11:33:09.609Z</time>
      </trkpt>
      <trkpt lat="64.56802" lon="21.10383">
        <ele>69.743054</ele>
        <time>2020-09-28T11:33:12.570Z</time>
      </trkpt>
      <trkpt lat="64.5679" lon="21.10385">
        <ele>69.831988</ele>
        <time>2020-09-28T11:33:15.577Z</time>
      </trkpt>
      <trkpt lat="64.56777" lon="21.10388">
        <ele>69.688476</ele>
        <time>2020-09-28T11:33:18.575Z</time>
      </trkpt>
      <trkpt lat="64.56765" lon="21.1039">
        <ele>69.481939</ele>
        <time>2020-09-28T11:33:21.583Z</time>
      </trkpt>
      <trkpt lat="64.56756" lon="21.1039">
        <ele>69.336885</ele>
        <time>2020-09-28T11:33:23.584Z</time>
      </trkpt>
      <trkpt lat="64.56746" lon="21.10391">
        <ele>69.175687</ele>
        <time>2020-09-28T11:33:25.581Z</time>
      </trkpt>
      <trkpt lat="64.56736" lon="21.10392">
        <ele>69.017529</ele>
        <time>2020-09-28T11:33:27.606Z</time>
      </trkpt>
      <trkpt lat="64.56726" lon="21.10394">
        <ele>68.852808</ele>
        <time>2020-09-28T11:33:29.602Z</time>
      </trkpt>
      <trkpt lat="64.56715" lon="21.10393">
        <ele>68.688455</ele>
        <time>2020-09-28T11:33:31.611Z</time>
      </trkpt>
      <trkpt lat="64.56705" lon="21.10393">
        <ele>68.525599</ele>
        <time>2020-09-28T11:33:33.593Z</time>
      </trkpt>
      <trkpt lat="64.56694" lon="21.10392">
        <ele>68.343523</ele>
        <time>2020-09-28T11:33:35.591Z</time>
      </trkpt>
      <trkpt lat="64.56682" lon="21.10392">
        <ele>68.155005</ele>
        <time>2020-09-28T11:33:37.595Z</time>
      </trkpt>
      <trkpt lat="64.5667" lon="21.10394">
        <ele>67.959867</ele>
        <time>2020-09-28T11:33:39.576Z</time>
      </trkpt>
      <trkpt lat="64.56658" lon="21.10394">
        <ele>67.768067</ele>
        <time>2020-09-28T11:33:41.574Z</time>
      </trkpt>
      <trkpt lat="64.56647" lon="21.10395">
        <ele>67.581058</ele>
        <time>2020-09-28T11:33:43.614Z</time>
      </trkpt>
      <trkpt lat="64.56635" lon="21.10396">
        <ele>67.400491</ele>
        <time>2020-09-28T11:33:45.602Z</time>
      </trkpt>
      <trkpt lat="64.56624" lon="21.10398">
        <ele>67.211689</ele>
        <time>2020-09-28T11:33:47.577Z</time>
      </trkpt>
      <trkpt lat="64.56612" lon="21.10399">
        <ele>67.026266</ele>
        <time>2020-09-28T11:33:49.643Z</time>
      </trkpt>
      <trkpt lat="64.56601" lon="21.10399">
        <ele>66.844596</ele>
        <time>2020-09-28T11:33:51.572Z</time>
      </trkpt>
      <trkpt lat="64.5659" lon="21.104">
        <ele>66.669696</ele>
        <time>2020-09-28T11:33:53.565Z</time>
      </trkpt>
      <trkpt lat="64.5658" lon="21.10401">
        <ele>66.502736</ele>
        <time>2020-09-28T11:33:55.577Z</time>
      </trkpt>
      <trkpt lat="64.56569" lon="21.10401">
        <ele>66.337482</ele>
        <time>2020-09-28T11:33:57.574Z</time>
      </trkpt>
      <trkpt lat="64.56559" lon="21.10401">
        <ele>66.170632</ele>
        <time>2020-09-28T11:33:59.569Z</time>
      </trkpt>
      <trkpt lat="64.56549" lon="21.104">
        <ele>66.014979</ele>
        <time>2020-09-28T11:34:01.579Z</time>
      </trkpt>
      <trkpt lat="64.5654" lon="21.104">
        <ele>65.859267</ele>
        <time>2020-09-28T11:34:03.597Z</time>
      </trkpt>
      <trkpt lat="64.5653" lon="21.10399">
        <ele>65.705181</ele>
        <time>2020-09-28T11:34:05.604Z</time>
      </trkpt>
      <trkpt lat="64.5652" lon="21.10399">
        <ele>65.54956</ele>
        <time>2020-09-28T11:34:07.589Z</time>
      </trkpt>
      <trkpt lat="64.5651" lon="21.10399">
        <ele>65.392317</ele>
        <time>2020-09-28T11:34:09.574Z</time>
      </trkpt>
      <trkpt lat="64.56501" lon="21.10399">
        <ele>65.241513</ele>
        <time>2020-09-28T11:34:11.596Z</time>
      </trkpt>
      <trkpt lat="64.56492" lon="21.10399">
        <ele>65.089082</ele>
        <time>2020-09-28T11:34:13.599Z</time>
      </trkpt>
      <trkpt lat="64.56482" lon="21.10398">
        <ele>64.938241</ele>
        <time>2020-09-28T11:34:15.590Z</time>
      </trkpt>
      <trkpt lat="64.56472" lon="21.10398">
        <ele>64.779344</ele>
        <time>2020-09-28T11:34:17.587Z</time>
      </trkpt>
      <trkpt lat="64.56463" lon="21.10397">
        <ele>64.626812</ele>
        <time>2020-09-28T11:34:19.595Z</time>
      </trkpt>
      <trkpt lat="64.56449" lon="21.10396">
        <ele>64.413425</ele>
        <time>2020-09-28T11:34:22.581Z</time>
      </trkpt>
      <trkpt lat="64.5644" lon="21.10396">
        <ele>64.262623</ele>
        <time>2020-09-28T11:34:24.595Z</time>
      </trkpt>
      <trkpt lat="64.56431" lon="21.10396">
        <ele>64.113426</ele>
        <time>2020-09-28T11:34:26.598Z</time>
      </trkpt>
      <trkpt lat="64.56418" lon="21.10396">
        <ele>64.539997</ele>
        <time>2020-09-28T11:34:29.584Z</time>
      </trkpt>
      <trkpt lat="64.56405" lon="21.10396">
        <ele>65.126506</ele>
        <time>2020-09-28T11:34:32.616Z</time>
      </trkpt>
      <trkpt lat="64.56392" lon="21.10395">
        <ele>65.70386</ele>
        <time>2020-09-28T11:34:35.571Z</time>
      </trkpt>
      <trkpt lat="64.5638" lon="21.10395">
        <ele>66.267331</ele>
        <time>2020-09-28T11:34:38.615Z</time>
      </trkpt>
      <trkpt lat="64.56369" lon="21.10395">
        <ele>66.789198</ele>
        <time>2020-09-28T11:34:41.606Z</time>
      </trkpt>
      <trkpt lat="64.56358" lon="21.10394">
        <ele>67.297385</ele>
        <time>2020-09-28T11:34:44.590Z</time>
      </trkpt>
      <trkpt lat="64.56347" lon="21.10394">
        <ele>67.782307</ele>
        <time>2020-09-28T11:34:47.597Z</time>
      </trkpt>
      <trkpt lat="64.56337" lon="21.10395">
        <ele>68.239612</ele>
        <time>2020-09-28T11:34:50.633Z</time>
      </trkpt>
      <trkpt lat="64.56328" lon="21.10394">
        <ele>68.669265</ele>
        <time>2020-09-28T11:34:53.579Z</time>
      </trkpt>
      <trkpt lat="64.56319" lon="21.10392">
        <ele>69.095804</ele>
        <time>2020-09-28T11:34:56.596Z</time>
      </trkpt>
      <trkpt lat="64.56307" lon="21.10389">
        <ele>69.63459</ele>
        <time>2020-09-28T11:35:00.623Z</time>
      </trkpt>
      <trkpt lat="64.56298" lon="21.1039">
        <ele>70.068769</ele>
        <time>2020-09-28T11:35:03.579Z</time>
      </trkpt>
      <trkpt lat="64.56288" lon="21.10388">
        <ele>70.522199</ele>
        <time>2020-09-28T11:35:06.584Z</time>
      </trkpt>
      <trkpt lat="64.56277" lon="21.10388">
        <ele>71.016358</ele>
        <time>2020-09-28T11:35:09.586Z</time>
      </trkpt>
      <trkpt lat="64.56268" lon="21.10388">
        <ele>71.464323</ele>
        <time>2020-09-28T11:35:12.584Z</time>
      </trkpt>
      <trkpt lat="64.56258" lon="21.10388">
        <ele>71.916907</ele>
        <time>2020-09-28T11:35:15.562Z</time>
      </trkpt>
      <trkpt lat="64.56247" lon="21.10388">
        <ele>72.379143</ele>
        <time>2020-09-28T11:35:18.606Z</time>
      </trkpt>
      <trkpt lat="64.56236" lon="21.1039">
        <ele>72.494638</ele>
        <time>2020-09-28T11:35:21.595Z</time>
      </trkpt>
      <trkpt lat="64.56225" lon="21.1039">
        <ele>72.609888</ele>
        <time>2020-09-28T11:35:24.565Z</time>
      </trkpt>
      <trkpt lat="64.56215" lon="21.1039">
        <ele>72.71177</ele>
        <time>2020-09-28T11:35:27.589Z</time>
      </trkpt>
      <trkpt lat="64.56206" lon="21.1039">
        <ele>72.807473</ele>
        <time>2020-09-28T11:35:30.576Z</time>
      </trkpt>
      <trkpt lat="64.56197" lon="21.10391">
        <ele>72.903318</ele>
        <time>2020-09-28T11:35:33.578Z</time>
      </trkpt>
      <trkpt lat="64.56185" lon="21.10387">
        <ele>73.021001</ele>
        <time>2020-09-28T11:35:37.603Z</time>
      </trkpt>
      <trkpt lat="64.56175" lon="21.10386">
        <ele>73.12297</ele>
        <time>2020-09-28T11:35:40.589Z</time>
      </trkpt>
      <trkpt lat="64.56165" lon="21.10386">
        <ele>73.224858</ele>
        <time>2020-09-28T11:35:43.587Z</time>
      </trkpt>
      <trkpt lat="64.56155" lon="21.10386">
        <ele>73.337064</ele>
        <time>2020-09-28T11:35:46.588Z</time>
      </trkpt>
      <trkpt lat="64.56145" lon="21.10385">
        <ele>73.435992</ele>
        <time>2020-09-28T11:35:49.570Z</time>
      </trkpt>
      <trkpt lat="64.56136" lon="21.10384">
        <ele>73.529782</ele>
        <time>2020-09-28T11:35:52.579Z</time>
      </trkpt>
      <trkpt lat="64.56126" lon="21.10382">
        <ele>73.6319</ele>
        <time>2020-09-28T11:35:55.595Z</time>
      </trkpt>
      <trkpt lat="64.56116" lon="21.1038">
        <ele>73.739247</ele>
        <time>2020-09-28T11:35:58.605Z</time>
      </trkpt>
      <trkpt lat="64.56103" lon="21.1038">
        <ele>73.867923</ele>
        <time>2020-09-28T11:36:01.578Z</time>
      </trkpt>
      <trkpt lat="64.56094" lon="21.10377">
        <ele>73.961091</ele>
        <time>2020-09-28T11:36:03.597Z</time>
      </trkpt>
      <trkpt lat="64.56085" lon="21.10375">
        <ele>74.057239</ele>
        <time>2020-09-28T11:36:05.581Z</time>
      </trkpt>
      <trkpt lat="64.56076" lon="21.10373">
        <ele>74.150192</ele>
        <time>2020-09-28T11:36:07.578Z</time>
      </trkpt>
      <trkpt lat="64.56063" lon="21.10372">
        <ele>74.215085</ele>
        <time>2020-09-28T11:36:10.592Z</time>
      </trkpt>
      <trkpt lat="64.56051" lon="21.10371">
        <ele>74.196548</ele>
        <time>2020-09-28T11:36:13.595Z</time>
      </trkpt>
      <trkpt lat="64.56039" lon="21.10369">
        <ele>74.17829</ele>
        <time>2020-09-28T11:36:16.601Z</time>
      </trkpt>
      <trkpt lat="64.56028" lon="21.10367">
        <ele>74.160496</ele>
        <time>2020-09-28T11:36:19.617Z</time>
      </trkpt>
      <trkpt lat="64.56016" lon="21.10365">
        <ele>74.143006</ele>
        <time>2020-09-28T11:36:22.591Z</time>
      </trkpt>
      <trkpt lat="64.56005" lon="21.10363">
        <ele>74.125839</ele>
        <time>2020-09-28T11:36:25.571Z</time>
      </trkpt>
      <trkpt lat="64.55994" lon="21.10362">
        <ele>74.108848</ele>
        <time>2020-09-28T11:36:28.586Z</time>
      </trkpt>
      <trkpt lat="64.55982" lon="21.10362">
        <ele>74.09018</ele>
        <time>2020-09-28T11:36:31.583Z</time>
      </trkpt>
      <trkpt lat="64.55971" lon="21.1036">
        <ele>74.073635</ele>
        <time>2020-09-28T11:36:34.671Z</time>
      </trkpt>
      <trkpt lat="64.5596" lon="21.1036">
        <ele>74.057567</ele>
        <time>2020-09-28T11:36:37.579Z</time>
      </trkpt>
      <trkpt lat="64.55949" lon="21.10358">
        <ele>74.040549</ele>
        <time>2020-09-28T11:36:40.584Z</time>
      </trkpt>
      <trkpt lat="64.55938" lon="21.10355">
        <ele>74.023945</ele>
        <time>2020-09-28T11:36:43.600Z</time>
      </trkpt>
      <trkpt lat="64.55928" lon="21.10353">
        <ele>74.007632</ele>
        <time>2020-09-28T11:36:46.577Z</time>
      </trkpt>
      <trkpt lat="64.55917" lon="21.10349">
        <ele>73.990307</ele>
        <time>2020-09-28T11:36:49.576Z</time>
      </trkpt>
      <trkpt lat="64.55906" lon="21.10348">
        <ele>73.973308</ele>
        <time>2020-09-28T11:36:52.611Z</time>
      </trkpt>
      <trkpt lat="64.55893" lon="21.10346">
        <ele>73.954597</ele>
        <time>2020-09-28T11:36:55.595Z</time>
      </trkpt>
      <trkpt lat="64.55881" lon="21.10344">
        <ele>74.170285</ele>
        <time>2020-09-28T11:36:58.594Z</time>
      </trkpt>
      <trkpt lat="64.55869" lon="21.10343">
        <ele>74.501381</ele>
        <time>2020-09-28T11:37:01.584Z</time>
      </trkpt>
      <trkpt lat="64.55858" lon="21.1034">
        <ele>74.81442</ele>
        <time>2020-09-28T11:37:04.570Z</time>
      </trkpt>
      <trkpt lat="64.55846" lon="21.10339">
        <ele>75.123782</ele>
        <time>2020-09-28T11:37:07.579Z</time>
      </trkpt>
      <trkpt lat="64.55835" lon="21.10338">
        <ele>75.424563</ele>
        <time>2020-09-28T11:37:10.612Z</time>
      </trkpt>
      <trkpt lat="64.55824" lon="21.10336">
        <ele>75.745562</ele>
        <time>2020-09-28T11:37:13.612Z</time>
      </trkpt>
      <trkpt lat="64.55811" lon="21.10333">
        <ele>76.083318</ele>
        <time>2020-09-28T11:37:16.586Z</time>
      </trkpt>
      <trkpt lat="64.55799" lon="21.10333">
        <ele>76.40868</ele>
        <time>2020-09-28T11:37:19.623Z</time>
      </trkpt>
      <trkpt lat="64.55787" lon="21.10329">
        <ele>76.744879</ele>
        <time>2020-09-28T11:37:22.583Z</time>
      </trkpt>
      <trkpt lat="64.55775" lon="21.10325">
        <ele>77.081866</ele>
        <time>2020-09-28T11:37:25.590Z</time>
      </trkpt>
      <trkpt lat="64.55764" lon="21.10323">
        <ele>77.383252</ele>
        <time>2020-09-28T11:37:28.596Z</time>
      </trkpt>
      <trkpt lat="64.55753" lon="21.10322">
        <ele>77.676377</ele>
        <time>2020-09-28T11:37:31.608Z</time>
      </trkpt>
      <trkpt lat="64.55742" lon="21.1032">
        <ele>77.975035</ele>
        <time>2020-09-28T11:37:34.578Z</time>
      </trkpt>
      <trkpt lat="64.55731" lon="21.10319">
        <ele>78.278603</ele>
        <time>2020-09-28T11:37:37.572Z</time>
      </trkpt>
      <trkpt lat="64.55718" lon="21.10318">
        <ele>78.631507</ele>
        <time>2020-09-28T11:37:40.606Z</time>
      </trkpt>
      <trkpt lat="64.55707" lon="21.10318">
        <ele>78.869876</ele>
        <time>2020-09-28T11:37:43.597Z</time>
      </trkpt>
      <trkpt lat="64.55696" lon="21.10316">
        <ele>78.88883</ele>
        <time>2020-09-28T11:37:46.584Z</time>
      </trkpt>
      <trkpt lat="64.55685" lon="21.10313">
        <ele>78.907848</ele>
        <time>2020-09-28T11:37:49.572Z</time>
      </trkpt>
      <trkpt lat="64.55674" lon="21.1031">
        <ele>78.926745</ele>
        <time>2020-09-28T11:37:52.591Z</time>
      </trkpt>
      <trkpt lat="64.55664" lon="21.10307">
        <ele>78.944609</ele>
        <time>2020-09-28T11:37:55.579Z</time>
      </trkpt>
      <trkpt lat="64.55653" lon="21.10304">
        <ele>78.962522</ele>
        <time>2020-09-28T11:37:58.577Z</time>
      </trkpt>
      <trkpt lat="64.55642" lon="21.10303">
        <ele>78.981959</ele>
        <time>2020-09-28T11:38:01.572Z</time>
      </trkpt>
      <trkpt lat="64.5563" lon="21.10302">
        <ele>79.003118</ele>
        <time>2020-09-28T11:38:04.582Z</time>
      </trkpt>
      <trkpt lat="64.55617" lon="21.10299">
        <ele>79.024209</ele>
        <time>2020-09-28T11:38:07.593Z</time>
      </trkpt>
      <trkpt lat="64.55605" lon="21.10297">
        <ele>79.045894</ele>
        <time>2020-09-28T11:38:10.595Z</time>
      </trkpt>
      <trkpt lat="64.55592" lon="21.10296">
        <ele>79.066886</ele>
        <time>2020-09-28T11:38:13.608Z</time>
      </trkpt>
      <trkpt lat="64.55581" lon="21.10295">
        <ele>79.08651</ele>
        <time>2020-09-28T11:38:16.582Z</time>
      </trkpt>
      <trkpt lat="64.5557" lon="21.10296">
        <ele>79.105619</ele>
        <time>2020-09-28T11:38:19.593Z</time>
      </trkpt>
      <trkpt lat="64.55559" lon="21.10293">
        <ele>79.124144</ele>
        <time>2020-09-28T11:38:22.576Z</time>
      </trkpt>
      <trkpt lat="64.55549" lon="21.10291">
        <ele>79.141401</ele>
        <time>2020-09-28T11:38:25.569Z</time>
      </trkpt>
      <trkpt lat="64.55538" lon="21.1029">
        <ele>79.158811</ele>
        <time>2020-09-28T11:38:28.602Z</time>
      </trkpt>
      <trkpt lat="64.55528" lon="21.10288">
        <ele>79.367046</ele>
        <time>2020-09-28T11:38:31.590Z</time>
      </trkpt>
      <trkpt lat="64.55517" lon="21.10286">
        <ele>80.317384</ele>
        <time>2020-09-28T11:38:35.584Z</time>
      </trkpt>
      <trkpt lat="64.55505" lon="21.10285">
        <ele>81.257036</ele>
        <time>2020-09-28T11:38:39.602Z</time>
      </trkpt>
      <trkpt lat="64.55494" lon="21.10283">
        <ele>82.148493</ele>
        <time>2020-09-28T11:38:43.580Z</time>
      </trkpt>
      <trkpt lat="64.55482" lon="21.10282">
        <ele>83.11391</ele>
        <time>2020-09-28T11:38:47.596Z</time>
      </trkpt>
      <trkpt lat="64.55473" lon="21.10279">
        <ele>83.854402</ele>
        <time>2020-09-28T11:38:50.581Z</time>
      </trkpt>
      <trkpt lat="64.55464" lon="21.10278">
        <ele>84.58496</ele>
        <time>2020-09-28T11:38:53.582Z</time>
      </trkpt>
      <trkpt lat="64.55455" lon="21.10276">
        <ele>85.316386</ele>
        <time>2020-09-28T11:38:56.613Z</time>
      </trkpt>
      <trkpt lat="64.55444" lon="21.10275">
        <ele>86.166939</ele>
        <time>2020-09-28T11:39:00.595Z</time>
      </trkpt>
      <trkpt lat="64.55434" lon="21.10274">
        <ele>87.009268</ele>
        <time>2020-09-28T11:39:04.575Z</time>
      </trkpt>
      <trkpt lat="64.55424" lon="21.10272">
        <ele>87.844553</ele>
        <time>2020-09-28T11:39:08.577Z</time>
      </trkpt>
      <trkpt lat="64.55413" lon="21.10271">
        <ele>88.68889</ele>
        <time>2020-09-28T11:39:12.622Z</time>
      </trkpt>
      <trkpt lat="64.55404" lon="21.10269">
        <ele>89.452271</ele>
        <time>2020-09-28T11:39:16.602Z</time>
      </trkpt>
      <trkpt lat="64.55395" lon="21.10267">
        <ele>90.200135</ele>
        <time>2020-09-28T11:39:20.613Z</time>
      </trkpt>
      <trkpt lat="64.55384" lon="21.10265">
        <ele>91.036404</ele>
        <time>2020-09-28T11:39:25.586Z</time>
      </trkpt>
      <trkpt lat="64.55375" lon="21.10262">
        <ele>91.843578</ele>
        <time>2020-09-28T11:39:30.593Z</time>
      </trkpt>
      <trkpt lat="64.55365" lon="21.10261">
        <ele>92.604897</ele>
        <time>2020-09-28T11:39:35.590Z</time>
      </trkpt>
      <trkpt lat="64.55354" lon="21.10263">
        <ele>93.490425</ele>
        <time>2020-09-28T11:39:40.590Z</time>
      </trkpt>
      <trkpt lat="64.55345" lon="21.10262">
        <ele>94.028216</ele>
        <time>2020-09-28T11:39:45.594Z</time>
      </trkpt>
      <trkpt lat="64.55335" lon="21.10262">
        <ele>94.501478</ele>
        <time>2020-09-28T11:39:50.619Z</time>
      </trkpt>
      <trkpt lat="64.55324" lon="21.1026">
        <ele>94.999799</ele>
        <time>2020-09-28T11:39:56.583Z</time>
      </trkpt>
      <trkpt lat="64.55315" lon="21.10256">
        <ele>95.454811</ele>
        <time>2020-09-28T11:40:01.602Z</time>
      </trkpt>
      <trkpt lat="64.55304" lon="21.10254">
        <ele>95.959126</ele>
        <time>2020-09-28T11:40:06.570Z</time>
      </trkpt>
      <trkpt lat="64.55294" lon="21.10252">
        <ele>96.443437</ele>
        <time>2020-09-28T11:40:11.577Z</time>
      </trkpt>
      <trkpt lat="64.55285" lon="21.10251">
        <ele>96.870226</ele>
        <time>2020-09-28T11:40:16.587Z</time>
      </trkpt>
      <trkpt lat="64.55275" lon="21.10249">
        <ele>97.316397</ele>
        <time>2020-09-28T11:40:21.605Z</time>
      </trkpt>
      <trkpt lat="64.55266" lon="21.10249">
        <ele>97.738423</ele>
        <time>2020-09-28T11:40:25.581Z</time>
      </trkpt>
      <trkpt lat="64.55256" lon="21.10245">
        <ele>98.21783</ele>
        <time>2020-09-28T11:40:30.585Z</time>
      </trkpt>
      <trkpt lat="64.55245" lon="21.1024">
        <ele>98.736204</ele>
        <time>2020-09-28T11:40:35.603Z</time>
      </trkpt>
      <trkpt lat="64.55236" lon="21.10239">
        <ele>99.17317</ele>
        <time>2020-09-28T11:40:39.579Z</time>
      </trkpt>
      <trkpt lat="64.55225" lon="21.10237">
        <ele>99.661988</ele>
        <time>2020-09-28T11:40:44.579Z</time>
      </trkpt>
      <trkpt lat="64.55216" lon="21.10236">
        <ele>100.121476</ele>
        <time>2020-09-28T11:40:49.580Z</time>
      </trkpt>
      <trkpt lat="64.55205" lon="21.10234">
        <ele>100.609996</ele>
        <time>2020-09-28T11:40:54.579Z</time>
      </trkpt>
      <trkpt lat="64.55194" lon="21.10232">
        <ele>101.117658</ele>
        <time>2020-09-28T11:40:59.613Z</time>
      </trkpt>
      <trkpt lat="64.55184" lon="21.1023">
        <ele>101.617315</ele>
        <time>2020-09-28T11:41:04.596Z</time>
      </trkpt>
      <trkpt lat="64.55175" lon="21.10229">
        <ele>102.044024</ele>
        <time>2020-09-28T11:41:08.585Z</time>
      </trkpt>
      <trkpt lat="64.55165" lon="21.10229">
        <ele>102.554012</ele>
        <time>2020-09-28T11:41:12.577Z</time>
      </trkpt>
      <trkpt lat="64.55156" lon="21.10227">
        <ele>103.050778</ele>
        <time>2020-09-28T11:41:16.621Z</time>
      </trkpt>
      <trkpt lat="64.55146" lon="21.10226">
        <ele>103.591343</ele>
        <time>2020-09-28T11:41:20.598Z</time>
      </trkpt>
      <trkpt lat="64.55135" lon="21.10225">
        <ele>104.196263</ele>
        <time>2020-09-28T11:41:25.578Z</time>
      </trkpt>
      <trkpt lat="64.55124" lon="21.10225">
        <ele>104.773944</ele>
        <time>2020-09-28T11:41:30.574Z</time>
      </trkpt>
      <trkpt lat="64.55114" lon="21.10224">
        <ele>105.340847</ele>
        <time>2020-09-28T11:41:35.583Z</time>
      </trkpt>
      <trkpt lat="64.55103" lon="21.10221">
        <ele>105.913077</ele>
        <time>2020-09-28T11:41:40.583Z</time>
      </trkpt>
      <trkpt lat="64.55093" lon="21.10218">
        <ele>106.504924</ele>
        <time>2020-09-28T11:41:45.601Z</time>
      </trkpt>
      <trkpt lat="64.55083" lon="21.10216">
        <ele>107.035519</ele>
        <time>2020-09-28T11:41:49.575Z</time>
      </trkpt>
      <trkpt lat="64.55072" lon="21.10215">
        <ele>107.613656</ele>
        <time>2020-09-28T11:41:54.611Z</time>
      </trkpt>
      <trkpt lat="64.55063" lon="21.10213">
        <ele>108.105848</ele>
        <time>2020-09-28T11:41:59.587Z</time>
      </trkpt>
      <trkpt lat="64.55053" lon="21.10212">
        <ele>108.694979</ele>
        <time>2020-09-28T11:42:05.581Z</time>
      </trkpt>
      <trkpt lat="64.55041" lon="21.1021">
        <ele>109.302178</ele>
        <time>2020-09-28T11:42:10.585Z</time>
      </trkpt>
      <trkpt lat="64.55031" lon="21.10205">
        <ele>109.906197</ele>
        <time>2020-09-28T11:42:15.582Z</time>
      </trkpt>
      <trkpt lat="64.5502" lon="21.10202">
        <ele>110.4886</ele>
        <time>2020-09-28T11:42:20.621Z</time>
      </trkpt>
      <trkpt lat="64.5501" lon="21.10199">
        <ele>111.027174</ele>
        <time>2020-09-28T11:42:24.580Z</time>
      </trkpt>
      <trkpt lat="64.55" lon="21.10198">
        <ele>111.589094</ele>
        <time>2020-09-28T11:42:28.589Z</time>
      </trkpt>
      <trkpt lat="64.54991" lon="21.10197">
        <ele>111.903997</ele>
        <time>2020-09-28T11:42:32.582Z</time>
      </trkpt>
      <trkpt lat="64.5498" lon="21.10197">
        <ele>111.661933</ele>
        <time>2020-09-28T11:42:36.578Z</time>
      </trkpt>
      <trkpt lat="64.54969" lon="21.10196">
        <ele>111.40591</ele>
        <time>2020-09-28T11:42:40.580Z</time>
      </trkpt>
      <trkpt lat="64.5496" lon="21.10195">
        <ele>111.184658</ele>
        <time>2020-09-28T11:42:43.571Z</time>
      </trkpt>
      <trkpt lat="64.5495" lon="21.10194">
        <ele>110.951694</ele>
        <time>2020-09-28T11:42:46.599Z</time>
      </trkpt>
      <trkpt lat="64.54939" lon="21.10192">
        <ele>110.697409</ele>
        <time>2020-09-28T11:42:49.585Z</time>
      </trkpt>
      <trkpt lat="64.54926" lon="21.1019">
        <ele>110.401199</ele>
        <time>2020-09-28T11:42:52.581Z</time>
      </trkpt>
      <trkpt lat="64.54917" lon="21.1019">
        <ele>110.1778</ele>
        <time>2020-09-28T11:42:54.594Z</time>
      </trkpt>
      <trkpt lat="64.54907" lon="21.1019">
        <ele>109.949696</ele>
        <time>2020-09-28T11:42:56.599Z</time>
      </trkpt>
      <trkpt lat="64.54897" lon="21.10187">
        <ele>109.720386</ele>
        <time>2020-09-28T11:42:58.609Z</time>
      </trkpt>
      <trkpt lat="64.54887" lon="21.10184">
        <ele>109.48305</ele>
        <time>2020-09-28T11:43:00.581Z</time>
      </trkpt>
      <trkpt lat="64.54877" lon="21.10181">
        <ele>109.246585</ele>
        <time>2020-09-28T11:43:02.599Z</time>
      </trkpt>
      <trkpt lat="64.54866" lon="21.10178">
        <ele>108.98874</ele>
        <time>2020-09-28T11:43:04.574Z</time>
      </trkpt>
      <trkpt lat="64.54854" lon="21.10174">
        <ele>108.709089</ele>
        <time>2020-09-28T11:43:06.597Z</time>
      </trkpt>
      <trkpt lat="64.54842" lon="21.10172">
        <ele>108.43549</ele>
        <time>2020-09-28T11:43:08.597Z</time>
      </trkpt>
      <trkpt lat="64.5483" lon="21.1017">
        <ele>108.144273</ele>
        <time>2020-09-28T11:43:10.590Z</time>
      </trkpt>
      <trkpt lat="64.54818" lon="21.10169">
        <ele>107.862401</ele>
        <time>2020-09-28T11:43:12.624Z</time>
      </trkpt>
      <trkpt lat="64.54806" lon="21.10168">
        <ele>107.46524</ele>
        <time>2020-09-28T11:43:14.590Z</time>
      </trkpt>
      <trkpt lat="64.54795" lon="21.10166">
        <ele>107.006789</ele>
        <time>2020-09-28T11:43:16.577Z</time>
      </trkpt>
      <trkpt lat="64.54785" lon="21.10164">
        <ele>106.568533</ele>
        <time>2020-09-28T11:43:18.629Z</time>
      </trkpt>
      <trkpt lat="64.54774" lon="21.10161">
        <ele>106.140401</ele>
        <time>2020-09-28T11:43:20.574Z</time>
      </trkpt>
      <trkpt lat="64.54765" lon="21.10157">
        <ele>105.734913</ele>
        <time>2020-09-28T11:43:22.594Z</time>
      </trkpt>
      <trkpt lat="64.54755" lon="21.10154">
        <ele>105.327213</ele>
        <time>2020-09-28T11:43:24.593Z</time>
      </trkpt>
      <trkpt lat="64.54745" lon="21.10152">
        <ele>104.899932</ele>
        <time>2020-09-28T11:43:26.581Z</time>
      </trkpt>
      <trkpt lat="64.54735" lon="21.10148">
        <ele>104.496072</ele>
        <time>2020-09-28T11:43:28.589Z</time>
      </trkpt>
      <trkpt lat="64.54726" lon="21.10145">
        <ele>104.107137</ele>
        <time>2020-09-28T11:43:30.595Z</time>
      </trkpt>
      <trkpt lat="64.54716" lon="21.1014">
        <ele>103.697581</ele>
        <time>2020-09-28T11:43:32.576Z</time>
      </trkpt>
      <trkpt lat="64.54707" lon="21.10133">
        <ele>103.296254</ele>
        <time>2020-09-28T11:43:34.622Z</time>
      </trkpt>
      <trkpt lat="64.54697" lon="21.10127">
        <ele>102.890467</ele>
        <time>2020-09-28T11:43:36.598Z</time>
      </trkpt>
      <trkpt lat="64.54688" lon="21.10121">
        <ele>102.505964</ele>
        <time>2020-09-28T11:43:38.588Z</time>
      </trkpt>
      <trkpt lat="64.54678" lon="21.10113">
        <ele>102.058738</ele>
        <time>2020-09-28T11:43:40.616Z</time>
      </trkpt>
      <trkpt lat="64.54668" lon="21.10104">
        <ele>101.611512</ele>
        <time>2020-09-28T11:43:42.573Z</time>
      </trkpt>
      <trkpt lat="64.54657" lon="21.10093">
        <ele>101.131417</ele>
        <time>2020-09-28T11:43:44.592Z</time>
      </trkpt>
      <trkpt lat="64.54646" lon="21.1008">
        <ele>100.617926</ele>
        <time>2020-09-28T11:43:46.581Z</time>
      </trkpt>
      <trkpt lat="64.54634" lon="21.10065">
        <ele>100.128053</ele>
        <time>2020-09-28T11:43:48.588Z</time>
      </trkpt>
      <trkpt lat="64.54622" lon="21.10048">
        <ele>99.657179</ele>
        <time>2020-09-28T11:43:50.600Z</time>
      </trkpt>
      <trkpt lat="64.54609" lon="21.10032">
        <ele>99.171911</ele>
        <time>2020-09-28T11:43:52.596Z</time>
      </trkpt>
      <trkpt lat="64.54595" lon="21.10014">
        <ele>98.652813</ele>
        <time>2020-09-28T11:43:54.633Z</time>
      </trkpt>
      <trkpt lat="64.5458" lon="21.09997">
        <ele>98.09058</ele>
        <time>2020-09-28T11:43:56.590Z</time>
      </trkpt>
      <trkpt lat="64.54565" lon="21.09979">
        <ele>97.519236</ele>
        <time>2020-09-28T11:43:58.583Z</time>
      </trkpt>
      <trkpt lat="64.5455" lon="21.09961">
        <ele>96.976333</ele>
        <time>2020-09-28T11:44:00.600Z</time>
      </trkpt>
      <trkpt lat="64.54535" lon="21.09944">
        <ele>96.420833</ele>
        <time>2020-09-28T11:44:02.572Z</time>
      </trkpt>
      <trkpt lat="64.54521" lon="21.09928">
        <ele>95.886407</ele>
        <time>2020-09-28T11:44:04.590Z</time>
      </trkpt>
      <trkpt lat="64.54508" lon="21.09913">
        <ele>95.42587</ele>
        <time>2020-09-28T11:44:06.597Z</time>
      </trkpt>
      <trkpt lat="64.54497" lon="21.09898">
        <ele>94.990762</ele>
        <time>2020-09-28T11:44:08.591Z</time>
      </trkpt>
      <trkpt lat="64.54486" lon="21.09883">
        <ele>94.562735</ele>
        <time>2020-09-28T11:44:10.584Z</time>
      </trkpt>
      <trkpt lat="64.54475" lon="21.0987">
        <ele>94.285476</ele>
        <time>2020-09-28T11:44:12.608Z</time>
      </trkpt>
      <trkpt lat="64.54465" lon="21.09858">
        <ele>94.100432</ele>
        <time>2020-09-28T11:44:14.582Z</time>
      </trkpt>
      <trkpt lat="64.54456" lon="21.09846">
        <ele>93.927908</ele>
        <time>2020-09-28T11:44:16.592Z</time>
      </trkpt>
      <trkpt lat="64.54448" lon="21.09836">
        <ele>93.76707</ele>
        <time>2020-09-28T11:44:18.611Z</time>
      </trkpt>
      <trkpt lat="64.54439" lon="21.09826">
        <ele>93.607855</ele>
        <time>2020-09-28T11:44:20.572Z</time>
      </trkpt>
      <trkpt lat="64.5443" lon="21.09814">
        <ele>93.441402</ele>
        <time>2020-09-28T11:44:22.602Z</time>
      </trkpt>
      <trkpt lat="64.54421" lon="21.09802">
        <ele>93.266037</ele>
        <time>2020-09-28T11:44:24.571Z</time>
      </trkpt>
      <trkpt lat="64.54411" lon="21.09789">
        <ele>93.08173</ele>
        <time>2020-09-28T11:44:26.584Z</time>
      </trkpt>
      <trkpt lat="64.54401" lon="21.09775">
        <ele>92.878784</ele>
        <time>2020-09-28T11:44:28.581Z</time>
      </trkpt>
      <trkpt lat="64.54389" lon="21.09761">
        <ele>92.667106</ele>
        <time>2020-09-28T11:44:30.582Z</time>
      </trkpt>
      <trkpt lat="64.54378" lon="21.09748">
        <ele>92.455372</ele>
        <time>2020-09-28T11:44:32.593Z</time>
      </trkpt>
      <trkpt lat="64.54366" lon="21.09734">
        <ele>92.234045</ele>
        <time>2020-09-28T11:44:34.574Z</time>
      </trkpt>
      <trkpt lat="64.54355" lon="21.09719">
        <ele>92.025372</ele>
        <time>2020-09-28T11:44:36.593Z</time>
      </trkpt>
      <trkpt lat="64.54344" lon="21.09705">
        <ele>91.812348</ele>
        <time>2020-09-28T11:44:38.598Z</time>
      </trkpt>
      <trkpt lat="64.54332" lon="21.0969">
        <ele>91.588091</ele>
        <time>2020-09-28T11:44:40.595Z</time>
      </trkpt>
      <trkpt lat="64.5432" lon="21.09675">
        <ele>91.347059</ele>
        <time>2020-09-28T11:44:42.586Z</time>
      </trkpt>
      <trkpt lat="64.54309" lon="21.09661">
        <ele>91.06609</ele>
        <time>2020-09-28T11:44:44.631Z</time>
      </trkpt>
      <trkpt lat="64.54298" lon="21.09648">
        <ele>90.795406</ele>
        <time>2020-09-28T11:44:46.569Z</time>
      </trkpt>
      <trkpt lat="64.54288" lon="21.09636">
        <ele>90.542592</ele>
        <time>2020-09-28T11:44:48.593Z</time>
      </trkpt>
      <trkpt lat="64.54278" lon="21.09624">
        <ele>90.301572</ele>
        <time>2020-09-28T11:44:50.597Z</time>
      </trkpt>
      <trkpt lat="64.54269" lon="21.09613">
        <ele>90.068827</ele>
        <time>2020-09-28T11:44:52.569Z</time>
      </trkpt>
      <trkpt lat="64.54259" lon="21.09601">
        <ele>89.830391</ele>
        <time>2020-09-28T11:44:54.602Z</time>
      </trkpt>
      <trkpt lat="64.5425" lon="21.0959">
        <ele>89.594741</ele>
        <time>2020-09-28T11:44:56.615Z</time>
      </trkpt>
      <trkpt lat="64.54241" lon="21.09579">
        <ele>89.372914</ele>
        <time>2020-09-28T11:44:58.577Z</time>
      </trkpt>
      <trkpt lat="64.54232" lon="21.09568">
        <ele>89.14389</ele>
        <time>2020-09-28T11:45:00.602Z</time>
      </trkpt>
      <trkpt lat="64.54222" lon="21.09557">
        <ele>88.897377</ele>
        <time>2020-09-28T11:45:02.587Z</time>
      </trkpt>
      <trkpt lat="64.5421" lon="21.09544">
        <ele>88.62368</ele>
        <time>2020-09-28T11:45:04.609Z</time>
      </trkpt>
      <trkpt lat="64.54198" lon="21.09532">
        <ele>88.328701</ele>
        <time>2020-09-28T11:45:06.581Z</time>
      </trkpt>
      <trkpt lat="64.54185" lon="21.0952">
        <ele>88.010339</ele>
        <time>2020-09-28T11:45:08.575Z</time>
      </trkpt>
      <trkpt lat="64.54169" lon="21.09508">
        <ele>87.647538</ele>
        <time>2020-09-28T11:45:10.585Z</time>
      </trkpt>
      <trkpt lat="64.54152" lon="21.09495">
        <ele>87.198154</ele>
        <time>2020-09-28T11:45:12.599Z</time>
      </trkpt>
      <trkpt lat="64.54144" lon="21.09489">
        <ele>86.935847</ele>
        <time>2020-09-28T11:45:13.604Z</time>
      </trkpt>
      <trkpt lat="64.54135" lon="21.09483">
        <ele>86.672586</ele>
        <time>2020-09-28T11:45:14.570Z</time>
      </trkpt>
      <trkpt lat="64.54126" lon="21.09477">
        <ele>86.407549</ele>
        <time>2020-09-28T11:45:15.584Z</time>
      </trkpt>
      <trkpt lat="64.5411" lon="21.09466">
        <ele>85.90367</ele>
        <time>2020-09-28T11:45:17.595Z</time>
      </trkpt>
      <trkpt lat="64.54094" lon="21.09456">
        <ele>85.422052</ele>
        <time>2020-09-28T11:45:19.634Z</time>
      </trkpt>
      <trkpt lat="64.54079" lon="21.09447">
        <ele>84.984767</ele>
        <time>2020-09-28T11:45:21.577Z</time>
      </trkpt>
      <trkpt lat="64.54066" lon="21.09439">
        <ele>84.585373</ele>
        <time>2020-09-28T11:45:23.574Z</time>
      </trkpt>
      <trkpt lat="64.54052" lon="21.09431">
        <ele>84.180971</ele>
        <time>2020-09-28T11:45:25.591Z</time>
      </trkpt>
      <trkpt lat="64.5404" lon="21.09422">
        <ele>83.803676</ele>
        <time>2020-09-28T11:45:27.582Z</time>
      </trkpt>
      <trkpt lat="64.54027" lon="21.09414">
        <ele>83.428134</ele>
        <time>2020-09-28T11:45:29.568Z</time>
      </trkpt>
      <trkpt lat="64.54015" lon="21.09405">
        <ele>83.053925</ele>
        <time>2020-09-28T11:45:31.576Z</time>
      </trkpt>
      <trkpt lat="64.54004" lon="21.09397">
        <ele>82.700614</ele>
        <time>2020-09-28T11:45:33.588Z</time>
      </trkpt>
      <trkpt lat="64.53992" lon="21.09389">
        <ele>82.353651</ele>
        <time>2020-09-28T11:45:35.636Z</time>
      </trkpt>
      <trkpt lat="64.5398" lon="21.09382">
        <ele>82.111013</ele>
        <time>2020-09-28T11:45:37.596Z</time>
      </trkpt>
      <trkpt lat="64.53969" lon="21.09374">
        <ele>81.930417</ele>
        <time>2020-09-28T11:45:39.568Z</time>
      </trkpt>
      <trkpt lat="64.53957" lon="21.09365">
        <ele>81.747205</ele>
        <time>2020-09-28T11:45:41.614Z</time>
      </trkpt>
      <trkpt lat="64.53946" lon="21.09355">
        <ele>81.569997</ele>
        <time>2020-09-28T11:45:43.610Z</time>
      </trkpt>
      <trkpt lat="64.53934" lon="21.09346">
        <ele>81.376019</ele>
        <time>2020-09-28T11:45:45.605Z</time>
      </trkpt>
      <trkpt lat="64.53921" lon="21.09337">
        <ele>81.168087</ele>
        <time>2020-09-28T11:45:47.583Z</time>
      </trkpt>
      <trkpt lat="64.53907" lon="21.09328">
        <ele>80.960874</ele>
        <time>2020-09-28T11:45:49.617Z</time>
      </trkpt>
      <trkpt lat="64.53893" lon="21.0932">
        <ele>80.744569</ele>
        <time>2020-09-28T11:45:51.583Z</time>
      </trkpt>
      <trkpt lat="64.53879" lon="21.09311">
        <ele>80.520527</ele>
        <time>2020-09-28T11:45:53.619Z</time>
      </trkpt>
      <trkpt lat="64.53865" lon="21.09303">
        <ele>80.30519</ele>
        <time>2020-09-28T11:45:55.614Z</time>
      </trkpt>
      <trkpt lat="64.53851" lon="21.09295">
        <ele>80.096931</ele>
        <time>2020-09-28T11:45:57.592Z</time>
      </trkpt>
      <trkpt lat="64.53839" lon="21.09287">
        <ele>79.906086</ele>
        <time>2020-09-28T11:45:59.613Z</time>
      </trkpt>
      <trkpt lat="64.53827" lon="21.09278">
        <ele>79.721451</ele>
        <time>2020-09-28T11:46:01.610Z</time>
      </trkpt>
      <trkpt lat="64.53816" lon="21.0927">
        <ele>79.543229</ele>
        <time>2020-09-28T11:46:03.594Z</time>
      </trkpt>
      <trkpt lat="64.53806" lon="21.09264">
        <ele>79.735128</ele>
        <time>2020-09-28T11:46:05.584Z</time>
      </trkpt>
      <trkpt lat="64.53796" lon="21.09255">
        <ele>79.943778</ele>
        <time>2020-09-28T11:46:07.576Z</time>
      </trkpt>
      <trkpt lat="64.53788" lon="21.09248">
        <ele>80.136128</ele>
        <time>2020-09-28T11:46:09.577Z</time>
      </trkpt>
      <trkpt lat="64.53779" lon="21.09244">
        <ele>80.332346</ele>
        <time>2020-09-28T11:46:11.584Z</time>
      </trkpt>
      <trkpt lat="64.53766" lon="21.09238">
        <ele>80.610433</ele>
        <time>2020-09-28T11:46:14.601Z</time>
      </trkpt>
      <trkpt lat="64.53753" lon="21.09232">
        <ele>80.884385</ele>
        <time>2020-09-28T11:46:17.601Z</time>
      </trkpt>
      <trkpt lat="64.53742" lon="21.09222">
        <ele>81.139302</ele>
        <time>2020-09-28T11:46:20.598Z</time>
      </trkpt>
      <trkpt lat="64.5373" lon="21.09213">
        <ele>81.401748</ele>
        <time>2020-09-28T11:46:23.601Z</time>
      </trkpt>
      <trkpt lat="64.53719" lon="21.09204">
        <ele>81.64874</ele>
        <time>2020-09-28T11:46:26.601Z</time>
      </trkpt>
      <trkpt lat="64.53708" lon="21.09196">
        <ele>81.881996</ele>
        <time>2020-09-28T11:46:29.599Z</time>
      </trkpt>
      <trkpt lat="64.53698" lon="21.09189">
        <ele>82.106251</ele>
        <time>2020-09-28T11:46:32.584Z</time>
      </trkpt>
      <trkpt lat="64.53687" lon="21.09183">
        <ele>82.346625</ele>
        <time>2020-09-28T11:46:35.616Z</time>
      </trkpt>
      <trkpt lat="64.53676" lon="21.09177">
        <ele>82.598735</ele>
        <time>2020-09-28T11:46:38.593Z</time>
      </trkpt>
      <trkpt lat="64.53664" lon="21.09168">
        <ele>82.85038</ele>
        <time>2020-09-28T11:46:41.587Z</time>
      </trkpt>
      <trkpt lat="64.53652" lon="21.0916">
        <ele>83.117221</ele>
        <time>2020-09-28T11:46:44.584Z</time>
      </trkpt>
      <trkpt lat="64.5364" lon="21.09151">
        <ele>83.503749</ele>
        <time>2020-09-28T11:46:47.598Z</time>
      </trkpt>
      <trkpt lat="64.53628" lon="21.09143">
        <ele>84.284254</ele>
        <time>2020-09-28T11:46:50.587Z</time>
      </trkpt>
      <trkpt lat="64.53616" lon="21.09135">
        <ele>85.066305</ele>
        <time>2020-09-28T11:46:53.604Z</time>
      </trkpt>
      <trkpt lat="64.53605" lon="21.09126">
        <ele>85.844677</ele>
        <time>2020-09-28T11:46:56.581Z</time>
      </trkpt>
      <trkpt lat="64.53593" lon="21.09118">
        <ele>86.60657</ele>
        <time>2020-09-28T11:46:59.593Z</time>
      </trkpt>
      <trkpt lat="64.53583" lon="21.09109">
        <ele>87.292786</ele>
        <time>2020-09-28T11:47:02.609Z</time>
      </trkpt>
      <trkpt lat="64.53573" lon="21.09102">
        <ele>87.939435</ele>
        <time>2020-09-28T11:47:05.586Z</time>
      </trkpt>
      <trkpt lat="64.53564" lon="21.09096">
        <ele>88.538606</ele>
        <time>2020-09-28T11:47:08.651Z</time>
      </trkpt>
      <trkpt lat="64.53555" lon="21.0909">
        <ele>89.139244</ele>
        <time>2020-09-28T11:47:11.592Z</time>
      </trkpt>
      <trkpt lat="64.53546" lon="21.09085">
        <ele>89.719406</ele>
        <time>2020-09-28T11:47:14.578Z</time>
      </trkpt>
      <trkpt lat="64.53535" lon="21.09079">
        <ele>90.453659</ele>
        <time>2020-09-28T11:47:18.604Z</time>
      </trkpt>
      <trkpt lat="64.53524" lon="21.09072">
        <ele>91.165611</ele>
        <time>2020-09-28T11:47:22.608Z</time>
      </trkpt>
      <trkpt lat="64.53513" lon="21.09065">
        <ele>91.876117</ele>
        <time>2020-09-28T11:47:26.604Z</time>
      </trkpt>
      <trkpt lat="64.53502" lon="21.09057">
        <ele>92.623402</ele>
        <time>2020-09-28T11:47:30.578Z</time>
      </trkpt>
      <trkpt lat="64.53491" lon="21.09049">
        <ele>93.355276</ele>
        <time>2020-09-28T11:47:34.615Z</time>
      </trkpt>
      <trkpt lat="64.53481" lon="21.09041">
        <ele>94.067281</ele>
        <time>2020-09-28T11:47:38.601Z</time>
      </trkpt>
      <trkpt lat="64.5347" lon="21.09032">
        <ele>94.780075</ele>
        <time>2020-09-28T11:47:42.574Z</time>
      </trkpt>
      <trkpt lat="64.5346" lon="21.09026">
        <ele>95.351864</ele>
        <time>2020-09-28T11:47:46.587Z</time>
      </trkpt>
      <trkpt lat="64.53449" lon="21.09019">
        <ele>95.947313</ele>
        <time>2020-09-28T11:47:50.588Z</time>
      </trkpt>
      <trkpt lat="64.53439" lon="21.09011">
        <ele>96.527706</ele>
        <time>2020-09-28T11:47:54.602Z</time>
      </trkpt>
      <trkpt lat="64.53428" lon="21.09004">
        <ele>97.136658</ele>
        <time>2020-09-28T11:47:58.586Z</time>
      </trkpt>
      <trkpt lat="64.53418" lon="21.08995">
        <ele>97.704854</ele>
        <time>2020-09-28T11:48:02.575Z</time>
      </trkpt>
      <trkpt lat="64.53407" lon="21.08989">
        <ele>98.302424</ele>
        <time>2020-09-28T11:48:06.576Z</time>
      </trkpt>
      <trkpt lat="64.53397" lon="21.08981">
        <ele>98.867594</ele>
        <time>2020-09-28T11:48:10.591Z</time>
      </trkpt>
      <trkpt lat="64.53387" lon="21.08974">
        <ele>99.407797</ele>
        <time>2020-09-28T11:48:14.588Z</time>
      </trkpt>
      <trkpt lat="64.53377" lon="21.0897">
        <ele>99.938503</ele>
        <time>2020-09-28T11:48:18.595Z</time>
      </trkpt>
      <trkpt lat="64.53369" lon="21.08963">
        <ele>100.418053</ele>
        <time>2020-09-28T11:48:22.622Z</time>
      </trkpt>
      <trkpt lat="64.5336" lon="21.08958">
        <ele>100.925261</ele>
        <time>2020-09-28T11:48:26.593Z</time>
      </trkpt>
      <trkpt lat="64.5335" lon="21.0895">
        <ele>101.501308</ele>
        <time>2020-09-28T11:48:31.586Z</time>
      </trkpt>
      <trkpt lat="64.53341" lon="21.08943">
        <ele>101.99247</ele>
        <time>2020-09-28T11:48:35.587Z</time>
      </trkpt>
      <trkpt lat="64.53331" lon="21.08933">
        <ele>102.577744</ele>
        <time>2020-09-28T11:48:40.574Z</time>
      </trkpt>
      <trkpt lat="64.53321" lon="21.08925">
        <ele>103.148848</ele>
        <time>2020-09-28T11:48:44.591Z</time>
      </trkpt>
      <trkpt lat="64.5331" lon="21.08919">
        <ele>103.728011</ele>
        <time>2020-09-28T11:48:48.583Z</time>
      </trkpt>
      <trkpt lat="64.533" lon="21.08912">
        <ele>104.302908</ele>
        <time>2020-09-28T11:48:52.580Z</time>
      </trkpt>
      <trkpt lat="64.53289" lon="21.08907">
        <ele>104.786387</ele>
        <time>2020-09-28T11:48:56.573Z</time>
      </trkpt>
      <trkpt lat="64.53279" lon="21.08901">
        <ele>105.255553</ele>
        <time>2020-09-28T11:49:00.597Z</time>
      </trkpt>
      <trkpt lat="64.5327" lon="21.08893">
        <ele>105.707727</ele>
        <time>2020-09-28T11:49:04.591Z</time>
      </trkpt>
      <trkpt lat="64.53261" lon="21.08887">
        <ele>106.111732</ele>
        <time>2020-09-28T11:49:08.620Z</time>
      </trkpt>
      <trkpt lat="64.53251" lon="21.08881">
        <ele>106.549467</ele>
        <time>2020-09-28T11:49:12.575Z</time>
      </trkpt>
      <trkpt lat="64.53243" lon="21.08876">
        <ele>106.951385</ele>
        <time>2020-09-28T11:49:16.593Z</time>
      </trkpt>
      <trkpt lat="64.53233" lon="21.08868">
        <ele>107.400518</ele>
        <time>2020-09-28T11:49:20.576Z</time>
      </trkpt>
      <trkpt lat="64.53223" lon="21.08861">
        <ele>107.859484</ele>
        <time>2020-09-28T11:49:25.587Z</time>
      </trkpt>
      <trkpt lat="64.53214" lon="21.08856">
        <ele>108.279939</ele>
        <time>2020-09-28T11:49:29.597Z</time>
      </trkpt>
      <trkpt lat="64.53204" lon="21.08851">
        <ele>108.713792</ele>
        <time>2020-09-28T11:49:33.610Z</time>
      </trkpt>
      <trkpt lat="64.53195" lon="21.08845">
        <ele>109.132314</ele>
        <time>2020-09-28T11:49:37.595Z</time>
      </trkpt>
      <trkpt lat="64.53185" lon="21.08837">
        <ele>109.621228</ele>
        <time>2020-09-28T11:49:42.571Z</time>
      </trkpt>
      <trkpt lat="64.53176" lon="21.08831">
        <ele>110.029697</ele>
        <time>2020-09-28T11:49:46.588Z</time>
      </trkpt>
      <trkpt lat="64.53166" lon="21.08824">
        <ele>110.509006</ele>
        <time>2020-09-28T11:49:51.602Z</time>
      </trkpt>
      <trkpt lat="64.53157" lon="21.08816">
        <ele>110.932931</ele>
        <time>2020-09-28T11:49:55.653Z</time>
      </trkpt>
      <trkpt lat="64.53147" lon="21.0881">
        <ele>111.372695</ele>
        <time>2020-09-28T11:49:59.583Z</time>
      </trkpt>
      <trkpt lat="64.53137" lon="21.08804">
        <ele>111.827027</ele>
        <time>2020-09-28T11:50:03.582Z</time>
      </trkpt>
      <trkpt lat="64.53127" lon="21.08797">
        <ele>112.300484</ele>
        <time>2020-09-28T11:50:07.576Z</time>
      </trkpt>
      <trkpt lat="64.53118" lon="21.08792">
        <ele>112.09504</ele>
        <time>2020-09-28T11:50:10.597Z</time>
      </trkpt>
      <trkpt lat="64.53108" lon="21.08787">
        <ele>111.741218</ele>
        <time>2020-09-28T11:50:13.581Z</time>
      </trkpt>
      <trkpt lat="64.53098" lon="21.08781">
        <ele>111.400436</ele>
        <time>2020-09-28T11:50:16.582Z</time>
      </trkpt>
      <trkpt lat="64.53087" lon="21.08773">
        <ele>111.027323</ele>
        <time>2020-09-28T11:50:19.599Z</time>
      </trkpt>
      <trkpt lat="64.53077" lon="21.08764">
        <ele>110.645381</ele>
        <time>2020-09-28T11:50:22.599Z</time>
      </trkpt>
      <trkpt lat="64.53065" lon="21.08754">
        <ele>110.247353</ele>
        <time>2020-09-28T11:50:25.587Z</time>
      </trkpt>
      <trkpt lat="64.53055" lon="21.08744">
        <ele>109.874211</ele>
        <time>2020-09-28T11:50:28.571Z</time>
      </trkpt>
      <trkpt lat="64.53045" lon="21.08735">
        <ele>109.499586</ele>
        <time>2020-09-28T11:50:31.595Z</time>
      </trkpt>
      <trkpt lat="64.53034" lon="21.08725">
        <ele>109.128072</ele>
        <time>2020-09-28T11:50:34.568Z</time>
      </trkpt>
      <trkpt lat="64.53024" lon="21.08715">
        <ele>108.746161</ele>
        <time>2020-09-28T11:50:37.613Z</time>
      </trkpt>
      <trkpt lat="64.53013" lon="21.08703">
        <ele>108.3459</ele>
        <time>2020-09-28T11:50:40.601Z</time>
      </trkpt>
      <trkpt lat="64.53003" lon="21.08693">
        <ele>107.961271</ele>
        <time>2020-09-28T11:50:43.586Z</time>
      </trkpt>
      <trkpt lat="64.52991" lon="21.08681">
        <ele>107.544654</ele>
        <time>2020-09-28T11:50:46.600Z</time>
      </trkpt>
      <trkpt lat="64.5298" lon="21.08668">
        <ele>107.126588</ele>
        <time>2020-09-28T11:50:49.610Z</time>
      </trkpt>
      <trkpt lat="64.52969" lon="21.08657">
        <ele>106.724548</ele>
        <time>2020-09-28T11:50:52.624Z</time>
      </trkpt>
      <trkpt lat="64.52957" lon="21.08644">
        <ele>106.305864</ele>
        <time>2020-09-28T11:50:55.619Z</time>
      </trkpt>
      <trkpt lat="64.52948" lon="21.08636">
        <ele>106.14062</ele>
        <time>2020-09-28T11:50:57.624Z</time>
      </trkpt>
      <trkpt lat="64.52939" lon="21.08627">
        <ele>105.967614</ele>
        <time>2020-09-28T11:50:59.577Z</time>
      </trkpt>
      <trkpt lat="64.5293" lon="21.08617">
        <ele>105.780719</ele>
        <time>2020-09-28T11:51:01.598Z</time>
      </trkpt>
      <trkpt lat="64.5292" lon="21.08606">
        <ele>105.590611</ele>
        <time>2020-09-28T11:51:03.570Z</time>
      </trkpt>
      <trkpt lat="64.5291" lon="21.08596">
        <ele>105.391344</ele>
        <time>2020-09-28T11:51:05.593Z</time>
      </trkpt>
      <trkpt lat="64.52899" lon="21.08586">
        <ele>105.183548</ele>
        <time>2020-09-28T11:51:07.594Z</time>
      </trkpt>
      <trkpt lat="64.52888" lon="21.08575">
        <ele>104.973673</ele>
        <time>2020-09-28T11:51:09.600Z</time>
      </trkpt>
      <trkpt lat="64.52878" lon="21.08564">
        <ele>104.767063</ele>
        <time>2020-09-28T11:51:11.572Z</time>
      </trkpt>
      <trkpt lat="64.52867" lon="21.08553">
        <ele>104.565963</ele>
        <time>2020-09-28T11:51:13.567Z</time>
      </trkpt>
      <trkpt lat="64.52858" lon="21.08544">
        <ele>104.380698</ele>
        <time>2020-09-28T11:51:15.574Z</time>
      </trkpt>
      <trkpt lat="64.52849" lon="21.08535">
        <ele>104.210641</ele>
        <time>2020-09-28T11:51:17.614Z</time>
      </trkpt>
      <trkpt lat="64.52837" lon="21.08522">
        <ele>103.97748</ele>
        <time>2020-09-28T11:51:20.569Z</time>
      </trkpt>
      <trkpt lat="64.52825" lon="21.08511">
        <ele>103.740581</ele>
        <time>2020-09-28T11:51:23.582Z</time>
      </trkpt>
      <trkpt lat="64.52813" lon="21.085">
        <ele>103.512302</ele>
        <time>2020-09-28T11:51:26.577Z</time>
      </trkpt>
      <trkpt lat="64.52802" lon="21.08487">
        <ele>103.300086</ele>
        <time>2020-09-28T11:51:29.581Z</time>
      </trkpt>
      <trkpt lat="64.52793" lon="21.08477">
        <ele>103.19126</ele>
        <time>2020-09-28T11:51:32.578Z</time>
      </trkpt>
      <trkpt lat="64.52784" lon="21.08469">
        <ele>103.701687</ele>
        <time>2020-09-28T11:51:35.581Z</time>
      </trkpt>
      <trkpt lat="64.52774" lon="21.0846">
        <ele>104.275958</ele>
        <time>2020-09-28T11:51:39.574Z</time>
      </trkpt>
      <trkpt lat="64.52764" lon="21.0845">
        <ele>104.800815</ele>
        <time>2020-09-28T11:51:43.577Z</time>
      </trkpt>
      <trkpt lat="64.52756" lon="21.0844">
        <ele>105.317087</ele>
        <time>2020-09-28T11:51:47.597Z</time>
      </trkpt>
      <trkpt lat="64.52747" lon="21.08431">
        <ele>105.826636</ele>
        <time>2020-09-28T11:51:51.574Z</time>
      </trkpt>
      <trkpt lat="64.52738" lon="21.08421">
        <ele>106.340944</ele>
        <time>2020-09-28T11:51:55.601Z</time>
      </trkpt>
      <trkpt lat="64.52729" lon="21.08411">
        <ele>106.87624</ele>
        <time>2020-09-28T11:51:59.582Z</time>
      </trkpt>
      <trkpt lat="64.52718" lon="21.08401">
        <ele>107.487314</ele>
        <time>2020-09-28T11:52:03.593Z</time>
      </trkpt>
      <trkpt lat="64.52708" lon="21.08389">
        <ele>108.083287</ele>
        <time>2020-09-28T11:52:07.597Z</time>
      </trkpt>
      <trkpt lat="64.527" lon="21.0838">
        <ele>108.563175</ele>
        <time>2020-09-28T11:52:10.580Z</time>
      </trkpt>
      <trkpt lat="64.52691" lon="21.08372">
        <ele>109.062039</ele>
        <time>2020-09-28T11:52:13.611Z</time>
      </trkpt>
      <trkpt lat="64.52682" lon="21.08362">
        <ele>109.608025</ele>
        <time>2020-09-28T11:52:16.600Z</time>
      </trkpt>
      <trkpt lat="64.52672" lon="21.08353">
        <ele>110.140478</ele>
        <time>2020-09-28T11:52:19.569Z</time>
      </trkpt>
      <trkpt lat="64.52663" lon="21.08343">
        <ele>110.669251</ele>
        <time>2020-09-28T11:52:22.567Z</time>
      </trkpt>
      <trkpt lat="64.52654" lon="21.08334">
        <ele>111.18172</ele>
        <time>2020-09-28T11:52:25.570Z</time>
      </trkpt>
      <trkpt lat="64.52646" lon="21.08324">
        <ele>111.687536</ele>
        <time>2020-09-28T11:52:28.586Z</time>
      </trkpt>
      <trkpt lat="64.52637" lon="21.08314">
        <ele>112.197441</ele>
        <time>2020-09-28T11:52:31.585Z</time>
      </trkpt>
      <trkpt lat="64.52629" lon="21.08306">
        <ele>112.619723</ele>
        <time>2020-09-28T11:52:34.595Z</time>
      </trkpt>
      <trkpt lat="64.5262" lon="21.08298">
        <ele>112.670204</ele>
        <time>2020-09-28T11:52:37.593Z</time>
      </trkpt>
      <trkpt lat="64.5261" lon="21.08288">
        <ele>112.730136</ele>
        <time>2020-09-28T11:52:41.616Z</time>
      </trkpt>
      <trkpt lat="64.526" lon="21.08277">
        <ele>112.785917</ele>
        <time>2020-09-28T11:52:45.573Z</time>
      </trkpt>
      <trkpt lat="64.5259" lon="21.08268">
        <ele>112.84408</ele>
        <time>2020-09-28T11:52:49.597Z</time>
      </trkpt>
      <trkpt lat="64.52581" lon="21.0826">
        <ele>112.89816</ele>
        <time>2020-09-28T11:52:53.583Z</time>
      </trkpt>
      <trkpt lat="64.52572" lon="21.08249">
        <ele>112.951085</ele>
        <time>2020-09-28T11:52:57.581Z</time>
      </trkpt>
      <trkpt lat="64.52562" lon="21.08239">
        <ele>113.008822</ele>
        <time>2020-09-28T11:53:01.584Z</time>
      </trkpt>
      <trkpt lat="64.52553" lon="21.0823">
        <ele>113.063487</ele>
        <time>2020-09-28T11:53:05.583Z</time>
      </trkpt>
      <trkpt lat="64.52544" lon="21.0822">
        <ele>113.116442</ele>
        <time>2020-09-28T11:53:09.582Z</time>
      </trkpt>
      <trkpt lat="64.52535" lon="21.0821">
        <ele>113.168712</ele>
        <time>2020-09-28T11:53:13.576Z</time>
      </trkpt>
      <trkpt lat="64.52526" lon="21.082">
        <ele>113.2219</ele>
        <time>2020-09-28T11:53:17.589Z</time>
      </trkpt>
      <trkpt lat="64.52517" lon="21.0819">
        <ele>113.276414</ele>
        <time>2020-09-28T11:53:21.579Z</time>
      </trkpt>
      <trkpt lat="64.52508" lon="21.08182">
        <ele>113.329072</ele>
        <time>2020-09-28T11:53:25.602Z</time>
      </trkpt>
      <trkpt lat="64.52498" lon="21.08172">
        <ele>113.387923</ele>
        <time>2020-09-28T11:53:29.582Z</time>
      </trkpt>
      <trkpt lat="64.52488" lon="21.0816">
        <ele>113.448331</ele>
        <time>2020-09-28T11:53:33.573Z</time>
      </trkpt>
      <trkpt lat="64.52477" lon="21.0815">
        <ele>113.511056</ele>
        <time>2020-09-28T11:53:37.617Z</time>
      </trkpt>
      <trkpt lat="64.52469" lon="21.08142">
        <ele>113.559196</ele>
        <time>2020-09-28T11:53:40.564Z</time>
      </trkpt>
      <trkpt lat="64.52459" lon="21.08132">
        <ele>113.612224</ele>
        <time>2020-09-28T11:53:44.583Z</time>
      </trkpt>
      <trkpt lat="64.52449" lon="21.08122">
        <ele>113.660596</ele>
        <time>2020-09-28T11:53:48.587Z</time>
      </trkpt>
      <trkpt lat="64.52439" lon="21.08113">
        <ele>113.712344</ele>
        <time>2020-09-28T11:53:52.580Z</time>
      </trkpt>
      <trkpt lat="64.52429" lon="21.08102">
        <ele>113.764484</ele>
        <time>2020-09-28T11:53:56.612Z</time>
      </trkpt>
      <trkpt lat="64.52419" lon="21.08091">
        <ele>113.81569</ele>
        <time>2020-09-28T11:54:00.588Z</time>
      </trkpt>
      <trkpt lat="64.52409" lon="21.08081">
        <ele>113.867013</ele>
        <time>2020-09-28T11:54:04.581Z</time>
      </trkpt>
      <trkpt lat="64.524" lon="21.08074">
        <ele>113.909459</ele>
        <time>2020-09-28T11:54:07.594Z</time>
      </trkpt>
      <trkpt lat="64.52392" lon="21.08065">
        <ele>113.951698</ele>
        <time>2020-09-28T11:54:10.598Z</time>
      </trkpt>
      <trkpt lat="64.52383" lon="21.08056">
        <ele>113.994329</ele>
        <time>2020-09-28T11:54:13.589Z</time>
      </trkpt>
      <trkpt lat="64.52375" lon="21.08046">
        <ele>114.036631</ele>
        <time>2020-09-28T11:54:16.584Z</time>
      </trkpt>
      <trkpt lat="64.52367" lon="21.08037">
        <ele>114.079852</ele>
        <time>2020-09-28T11:54:19.588Z</time>
      </trkpt>
      <trkpt lat="64.52358" lon="21.08027">
        <ele>114.124501</ele>
        <time>2020-09-28T11:54:22.581Z</time>
      </trkpt>
      <trkpt lat="64.5235" lon="21.08016">
        <ele>114.168797</ele>
        <time>2020-09-28T11:54:25.601Z</time>
      </trkpt>
      <trkpt lat="64.52341" lon="21.08005">
        <ele>114.214115</ele>
        <time>2020-09-28T11:54:28.595Z</time>
      </trkpt>
      <trkpt lat="64.52333" lon="21.07995">
        <ele>114.258089</ele>
        <time>2020-09-28T11:54:31.584Z</time>
      </trkpt>
      <trkpt lat="64.52325" lon="21.07983">
        <ele>114.301343</ele>
        <time>2020-09-28T11:54:34.613Z</time>
      </trkpt>
      <trkpt lat="64.52316" lon="21.0797">
        <ele>114.349052</ele>
        <time>2020-09-28T11:54:37.614Z</time>
      </trkpt>
      <trkpt lat="64.52307" lon="21.07956">
        <ele>114.399593</ele>
        <time>2020-09-28T11:54:40.579Z</time>
      </trkpt>
      <trkpt lat="64.52298" lon="21.07939">
        <ele>114.212431</ele>
        <time>2020-09-28T11:54:43.597Z</time>
      </trkpt>
      <trkpt lat="64.52289" lon="21.07918">
        <ele>113.930159</ele>
        <time>2020-09-28T11:54:46.588Z</time>
      </trkpt>
      <trkpt lat="64.52281" lon="21.07904">
        <ele>113.725293</ele>
        <time>2020-09-28T11:54:48.581Z</time>
      </trkpt>
      <trkpt lat="64.52274" lon="21.07891">
        <ele>113.516372</ele>
        <time>2020-09-28T11:54:50.614Z</time>
      </trkpt>
      <trkpt lat="64.52265" lon="21.07876">
        <ele>113.273322</ele>
        <time>2020-09-28T11:54:52.570Z</time>
      </trkpt>
      <trkpt lat="64.52254" lon="21.07856">
        <ele>112.978755</ele>
        <time>2020-09-28T11:54:54.594Z</time>
      </trkpt>
      <trkpt lat="64.52243" lon="21.07835">
        <ele>112.652377</ele>
        <time>2020-09-28T11:54:56.581Z</time>
      </trkpt>
      <trkpt lat="64.5223" lon="21.07814">
        <ele>112.311995</ele>
        <time>2020-09-28T11:54:58.601Z</time>
      </trkpt>
      <trkpt lat="64.52218" lon="21.07792">
        <ele>111.971053</ele>
        <time>2020-09-28T11:55:00.596Z</time>
      </trkpt>
      <trkpt lat="64.52204" lon="21.0777">
        <ele>111.609884</ele>
        <time>2020-09-28T11:55:02.592Z</time>
      </trkpt>
      <trkpt lat="64.52192" lon="21.07745">
        <ele>111.246935</ele>
        <time>2020-09-28T11:55:04.590Z</time>
      </trkpt>
      <trkpt lat="64.52178" lon="21.07721">
        <ele>110.87478</ele>
        <time>2020-09-28T11:55:06.591Z</time>
      </trkpt>
      <trkpt lat="64.52164" lon="21.07696">
        <ele>110.488801</ele>
        <time>2020-09-28T11:55:08.589Z</time>
      </trkpt>
      <trkpt lat="64.52157" lon="21.07683">
        <ele>110.036777</ele>
        <time>2020-09-28T11:55:09.574Z</time>
      </trkpt>
      <trkpt lat="64.5215" lon="21.07671">
        <ele>109.549214</ele>
        <time>2020-09-28T11:55:10.578Z</time>
      </trkpt>
      <trkpt lat="64.52142" lon="21.07658">
        <ele>109.062692</ele>
        <time>2020-09-28T11:55:11.593Z</time>
      </trkpt>
      <trkpt lat="64.52135" lon="21.07647">
        <ele>108.570527</ele>
        <time>2020-09-28T11:55:12.599Z</time>
      </trkpt>
      <trkpt lat="64.5212" lon="21.07624">
        <ele>107.635417</ele>
        <time>2020-09-28T11:55:14.608Z</time>
      </trkpt>
      <trkpt lat="64.52108" lon="21.07602">
        <ele>106.769543</ele>
        <time>2020-09-28T11:55:16.597Z</time>
      </trkpt>
      <trkpt lat="64.52095" lon="21.07581">
        <ele>105.9532</ele>
        <time>2020-09-28T11:55:18.578Z</time>
      </trkpt>
      <trkpt lat="64.52084" lon="21.07561">
        <ele>105.192244</ele>
        <time>2020-09-28T11:55:20.587Z</time>
      </trkpt>
      <trkpt lat="64.52074" lon="21.07543">
        <ele>104.500154</ele>
        <time>2020-09-28T11:55:22.570Z</time>
      </trkpt>
      <trkpt lat="64.52064" lon="21.07528">
        <ele>103.890127</ele>
        <time>2020-09-28T11:55:24.594Z</time>
      </trkpt>
      <trkpt lat="64.52056" lon="21.07514">
        <ele>103.341637</ele>
        <time>2020-09-28T11:55:26.588Z</time>
      </trkpt>
      <trkpt lat="64.52045" lon="21.07496">
        <ele>102.631372</ele>
        <time>2020-09-28T11:55:29.605Z</time>
      </trkpt>
      <trkpt lat="64.52035" lon="21.07477">
        <ele>101.914383</ele>
        <time>2020-09-28T11:55:32.579Z</time>
      </trkpt>
      <trkpt lat="64.52028" lon="21.07465">
        <ele>101.428349</ele>
        <time>2020-09-28T11:55:34.589Z</time>
      </trkpt>
      <trkpt lat="64.5202" lon="21.07451">
        <ele>100.9338</ele>
        <time>2020-09-28T11:55:36.573Z</time>
      </trkpt>
      <trkpt lat="64.52013" lon="21.07438">
        <ele>100.838978</ele>
        <time>2020-09-28T11:55:38.590Z</time>
      </trkpt>
      <trkpt lat="64.52005" lon="21.07423">
        <ele>100.906323</ele>
        <time>2020-09-28T11:55:40.605Z</time>
      </trkpt>
      <trkpt lat="64.51997" lon="21.0741">
        <ele>100.972064</ele>
        <time>2020-09-28T11:55:42.602Z</time>
      </trkpt>
      <trkpt lat="64.51989" lon="21.07395">
        <ele>101.040123</ele>
        <time>2020-09-28T11:55:44.576Z</time>
      </trkpt>
      <trkpt lat="64.51981" lon="21.07381">
        <ele>101.108894</ele>
        <time>2020-09-28T11:55:46.606Z</time>
      </trkpt>
      <trkpt lat="64.51974" lon="21.07364">
        <ele>101.179807</ele>
        <time>2020-09-28T11:55:48.607Z</time>
      </trkpt>
      <trkpt lat="64.51966" lon="21.07348">
        <ele>101.250463</ele>
        <time>2020-09-28T11:55:50.606Z</time>
      </trkpt>
      <trkpt lat="64.51957" lon="21.07334">
        <ele>101.319428</ele>
        <time>2020-09-28T11:55:52.588Z</time>
      </trkpt>
      <trkpt lat="64.5195" lon="21.0732">
        <ele>101.386238</ele>
        <time>2020-09-28T11:55:54.585Z</time>
      </trkpt>
      <trkpt lat="64.51941" lon="21.07305">
        <ele>101.457354</ele>
        <time>2020-09-28T11:55:56.590Z</time>
      </trkpt>
      <trkpt lat="64.51932" lon="21.07291">
        <ele>101.529907</ele>
        <time>2020-09-28T11:55:58.576Z</time>
      </trkpt>
      <trkpt lat="64.51924" lon="21.07275">
        <ele>101.604561</ele>
        <time>2020-09-28T11:56:00.574Z</time>
      </trkpt>
      <trkpt lat="64.51915" lon="21.07259">
        <ele>101.680824</ele>
        <time>2020-09-28T11:56:02.589Z</time>
      </trkpt>
      <trkpt lat="64.51905" lon="21.07243">
        <ele>101.760489</ele>
        <time>2020-09-28T11:56:04.576Z</time>
      </trkpt>
      <trkpt lat="64.51896" lon="21.07226">
        <ele>101.837991</ele>
        <time>2020-09-28T11:56:06.575Z</time>
      </trkpt>
      <trkpt lat="64.51887" lon="21.07211">
        <ele>101.915916</ele>
        <time>2020-09-28T11:56:08.604Z</time>
      </trkpt>
      <trkpt lat="64.51878" lon="21.07195">
        <ele>101.991285</ele>
        <time>2020-09-28T11:56:10.580Z</time>
      </trkpt>
      <trkpt lat="64.51869" lon="21.0718">
        <ele>101.999365</ele>
        <time>2020-09-28T11:56:12.613Z</time>
      </trkpt>
      <trkpt lat="64.5186" lon="21.07165">
        <ele>101.989819</ele>
        <time>2020-09-28T11:56:14.591Z</time>
      </trkpt>
      <trkpt lat="64.51852" lon="21.0715">
        <ele>101.980782</ele>
        <time>2020-09-28T11:56:16.573Z</time>
      </trkpt>
      <trkpt lat="64.51844" lon="21.07137">
        <ele>101.972221</ele>
        <time>2020-09-28T11:56:18.612Z</time>
      </trkpt>
      <trkpt lat="64.51837" lon="21.07124">
        <ele>101.964267</ele>
        <time>2020-09-28T11:56:20.591Z</time>
      </trkpt>
      <trkpt lat="64.51827" lon="21.07107">
        <ele>101.953406</ele>
        <time>2020-09-28T11:56:23.602Z</time>
      </trkpt>
      <trkpt lat="64.51817" lon="21.07092">
        <ele>101.943482</ele>
        <time>2020-09-28T11:56:26.608Z</time>
      </trkpt>
      <trkpt lat="64.51809" lon="21.07078">
        <ele>101.93444</ele>
        <time>2020-09-28T11:56:29.608Z</time>
      </trkpt>
      <trkpt lat="64.51801" lon="21.07065">
        <ele>101.926002</ele>
        <time>2020-09-28T11:56:32.576Z</time>
      </trkpt>
      <trkpt lat="64.51793" lon="21.0705">
        <ele>101.917034</ele>
        <time>2020-09-28T11:56:35.582Z</time>
      </trkpt>
      <trkpt lat="64.51786" lon="21.07034">
        <ele>101.908254</ele>
        <time>2020-09-28T11:56:38.598Z</time>
      </trkpt>
      <trkpt lat="64.51777" lon="21.07021">
        <ele>101.899299</ele>
        <time>2020-09-28T11:56:41.583Z</time>
      </trkpt>
      <trkpt lat="64.51769" lon="21.07006">
        <ele>101.890123</ele>
        <time>2020-09-28T11:56:44.654Z</time>
      </trkpt>
      <trkpt lat="64.51761" lon="21.0699">
        <ele>101.88067</ele>
        <time>2020-09-28T11:56:47.592Z</time>
      </trkpt>
      <trkpt lat="64.51752" lon="21.06975">
        <ele>101.871126</ele>
        <time>2020-09-28T11:56:50.574Z</time>
      </trkpt>
      <trkpt lat="64.51743" lon="21.0696">
        <ele>101.861582</ele>
        <time>2020-09-28T11:56:53.597Z</time>
      </trkpt>
      <trkpt lat="64.51734" lon="21.06943">
        <ele>101.851619</ele>
        <time>2020-09-28T11:56:56.615Z</time>
      </trkpt>
      <trkpt lat="64.51726" lon="21.06927">
        <ele>101.915293</ele>
        <time>2020-09-28T11:56:59.591Z</time>
      </trkpt>
      <trkpt lat="64.51717" lon="21.0691">
        <ele>101.999846</ele>
        <time>2020-09-28T11:57:02.577Z</time>
      </trkpt>
      <trkpt lat="64.51707" lon="21.06893">
        <ele>102.086482</ele>
        <time>2020-09-28T11:57:05.588Z</time>
      </trkpt>
      <trkpt lat="64.51698" lon="21.06877">
        <ele>102.171766</ele>
        <time>2020-09-28T11:57:08.602Z</time>
      </trkpt>
      <trkpt lat="64.51688" lon="21.06859">
        <ele>102.262068</ele>
        <time>2020-09-28T11:57:11.592Z</time>
      </trkpt>
      <trkpt lat="64.51678" lon="21.06842">
        <ele>102.3559</ele>
        <time>2020-09-28T11:57:14.601Z</time>
      </trkpt>
      <trkpt lat="64.51668" lon="21.06824">
        <ele>102.447938</ele>
        <time>2020-09-28T11:57:17.614Z</time>
      </trkpt>
      <trkpt lat="64.5166" lon="21.0681">
        <ele>102.519527</ele>
        <time>2020-09-28T11:57:19.570Z</time>
      </trkpt>
      <trkpt lat="64.51652" lon="21.06796">
        <ele>102.592104</ele>
        <time>2020-09-28T11:57:21.603Z</time>
      </trkpt>
      <trkpt lat="64.51645" lon="21.06783">
        <ele>102.66254</ele>
        <time>2020-09-28T11:57:23.590Z</time>
      </trkpt>
      <trkpt lat="64.51637" lon="21.06769">
        <ele>102.735869</ele>
        <time>2020-09-28T11:57:25.587Z</time>
      </trkpt>
      <trkpt lat="64.51629" lon="21.06755">
        <ele>102.808225</ele>
        <time>2020-09-28T11:57:27.602Z</time>
      </trkpt>
      <trkpt lat="64.51621" lon="21.0674">
        <ele>102.883322</ele>
        <time>2020-09-28T11:57:29.575Z</time>
      </trkpt>
      <trkpt lat="64.51613" lon="21.06725">
        <ele>102.959159</ele>
        <time>2020-09-28T11:57:31.581Z</time>
      </trkpt>
      <trkpt lat="64.51605" lon="21.06709">
        <ele>103.035193</ele>
        <time>2020-09-28T11:57:33.581Z</time>
      </trkpt>
      <trkpt lat="64.51597" lon="21.06695">
        <ele>103.10833</ele>
        <time>2020-09-28T11:57:35.601Z</time>
      </trkpt>
      <trkpt lat="64.51589" lon="21.0668">
        <ele>103.238048</ele>
        <time>2020-09-28T11:57:37.582Z</time>
      </trkpt>
      <trkpt lat="64.51581" lon="21.06667">
        <ele>103.53675</ele>
        <time>2020-09-28T11:57:39.591Z</time>
      </trkpt>
      <trkpt lat="64.51573" lon="21.06654">
        <ele>103.816193</ele>
        <time>2020-09-28T11:57:41.596Z</time>
      </trkpt>
      <trkpt lat="64.51563" lon="21.06637">
        <ele>104.209257</ele>
        <time>2020-09-28T11:57:44.601Z</time>
      </trkpt>
      <trkpt lat="64.51552" lon="21.06621">
        <ele>104.597164</ele>
        <time>2020-09-28T11:57:47.619Z</time>
      </trkpt>
      <trkpt lat="64.51543" lon="21.06604">
        <ele>104.944739</ele>
        <time>2020-09-28T11:57:50.607Z</time>
      </trkpt>
      <trkpt lat="64.51534" lon="21.06589">
        <ele>105.280305</ele>
        <time>2020-09-28T11:57:53.588Z</time>
      </trkpt>
      <trkpt lat="64.51526" lon="21.06575">
        <ele>105.59672</ele>
        <time>2020-09-28T11:57:56.613Z</time>
      </trkpt>
      <trkpt lat="64.51518" lon="21.06562">
        <ele>105.885105</ele>
        <time>2020-09-28T11:57:59.585Z</time>
      </trkpt>
      <trkpt lat="64.51511" lon="21.06549">
        <ele>106.159861</ele>
        <time>2020-09-28T11:58:02.631Z</time>
      </trkpt>
      <trkpt lat="64.51504" lon="21.06536">
        <ele>106.433629</ele>
        <time>2020-09-28T11:58:05.595Z</time>
      </trkpt>
      <trkpt lat="64.51496" lon="21.06523">
        <ele>106.728327</ele>
        <time>2020-09-28T11:58:08.586Z</time>
      </trkpt>
      <trkpt lat="64.51488" lon="21.06509">
        <ele>107.036733</ele>
        <time>2020-09-28T11:58:11.581Z</time>
      </trkpt>
      <trkpt lat="64.5148" lon="21.06495">
        <ele>107.333774</ele>
        <time>2020-09-28T11:58:14.581Z</time>
      </trkpt>
      <trkpt lat="64.51473" lon="21.06482">
        <ele>107.612322</ele>
        <time>2020-09-28T11:58:17.578Z</time>
      </trkpt>
      <trkpt lat="64.51464" lon="21.06466">
        <ele>107.964727</ele>
        <time>2020-09-28T11:58:21.588Z</time>
      </trkpt>
      <trkpt lat="64.51455" lon="21.06451">
        <ele>108.314591</ele>
        <time>2020-09-28T11:58:25.578Z</time>
      </trkpt>
      <trkpt lat="64.51444" lon="21.06437">
        <ele>108.661657</ele>
        <time>2020-09-28T11:58:29.577Z</time>
      </trkpt>
      <trkpt lat="64.51434" lon="21.06425">
        <ele>108.878518</ele>
        <time>2020-09-28T11:58:33.575Z</time>
      </trkpt>
      <trkpt lat="64.51424" lon="21.06412">
        <ele>109.085589</ele>
        <time>2020-09-28T11:58:37.575Z</time>
      </trkpt>
      <trkpt lat="64.51414" lon="21.06399">
        <ele>109.297948</ele>
        <time>2020-09-28T11:58:41.595Z</time>
      </trkpt>
      <trkpt lat="64.51403" lon="21.06388">
        <ele>109.506172</ele>
        <time>2020-09-28T11:58:45.616Z</time>
      </trkpt>
      <trkpt lat="64.51393" lon="21.06377">
        <ele>109.709386</ele>
        <time>2020-09-28T11:58:49.578Z</time>
      </trkpt>
      <trkpt lat="64.51383" lon="21.06369">
        <ele>109.911983</ele>
        <time>2020-09-28T11:58:53.610Z</time>
      </trkpt>
      <trkpt lat="64.51374" lon="21.06361">
        <ele>110.077308</ele>
        <time>2020-09-28T11:58:56.609Z</time>
      </trkpt>
      <trkpt lat="64.51363" lon="21.0635">
        <ele>110.292125</ele>
        <time>2020-09-28T11:59:00.593Z</time>
      </trkpt>
      <trkpt lat="64.51354" lon="21.06342">
        <ele>110.468206</ele>
        <time>2020-09-28T11:59:03.597Z</time>
      </trkpt>
      <trkpt lat="64.51346" lon="21.06333">
        <ele>110.637342</ele>
        <time>2020-09-28T11:59:06.600Z</time>
      </trkpt>
      <trkpt lat="64.51336" lon="21.06325">
        <ele>110.829787</ele>
        <time>2020-09-28T11:59:09.589Z</time>
      </trkpt>
      <trkpt lat="64.51326" lon="21.06317">
        <ele>111.019198</ele>
        <time>2020-09-28T11:59:12.595Z</time>
      </trkpt>
      <trkpt lat="64.51315" lon="21.06307">
        <ele>111.231591</ele>
        <time>2020-09-28T11:59:15.629Z</time>
      </trkpt>
      <trkpt lat="64.51305" lon="21.06296">
        <ele>111.437844</ele>
        <time>2020-09-28T11:59:18.591Z</time>
      </trkpt>
      <trkpt lat="64.51295" lon="21.06287">
        <ele>111.628689</ele>
        <time>2020-09-28T11:59:21.575Z</time>
      </trkpt>
      <trkpt lat="64.51286" lon="21.0628">
        <ele>111.809073</ele>
        <time>2020-09-28T11:59:24.581Z</time>
      </trkpt>
      <trkpt lat="64.51277" lon="21.06273">
        <ele>111.77586</ele>
        <time>2020-09-28T11:59:27.570Z</time>
      </trkpt>
      <trkpt lat="64.51268" lon="21.06267">
        <ele>111.20195</ele>
        <time>2020-09-28T11:59:30.594Z</time>
      </trkpt>
      <trkpt lat="64.51259" lon="21.06259">
        <ele>110.584023</ele>
        <time>2020-09-28T11:59:33.583Z</time>
      </trkpt>
      <trkpt lat="64.51248" lon="21.06251">
        <ele>109.917893</ele>
        <time>2020-09-28T11:59:36.592Z</time>
      </trkpt>
      <trkpt lat="64.51237" lon="21.06244">
        <ele>109.205729</ele>
        <time>2020-09-28T11:59:39.597Z</time>
      </trkpt>
      <trkpt lat="64.51225" lon="21.06233">
        <ele>108.436526</ele>
        <time>2020-09-28T11:59:42.573Z</time>
      </trkpt>
      <trkpt lat="64.51216" lon="21.06226">
        <ele>107.853592</ele>
        <time>2020-09-28T11:59:44.590Z</time>
      </trkpt>
      <trkpt lat="64.51206" lon="21.06218">
        <ele>107.218524</ele>
        <time>2020-09-28T11:59:46.585Z</time>
      </trkpt>
      <trkpt lat="64.51195" lon="21.0621">
        <ele>106.523686</ele>
        <time>2020-09-28T11:59:48.592Z</time>
      </trkpt>
      <trkpt lat="64.51183" lon="21.06198">
        <ele>105.752314</ele>
        <time>2020-09-28T11:59:50.612Z</time>
      </trkpt>
      <trkpt lat="64.51169" lon="21.06188">
        <ele>104.867947</ele>
        <time>2020-09-28T11:59:52.588Z</time>
      </trkpt>
      <trkpt lat="64.51154" lon="21.06176">
        <ele>103.922998</ele>
        <time>2020-09-28T11:59:54.595Z</time>
      </trkpt>
      <trkpt lat="64.51139" lon="21.06164">
        <ele>102.941338</ele>
        <time>2020-09-28T11:59:56.595Z</time>
      </trkpt>
      <trkpt lat="64.51123" lon="21.06152">
        <ele>101.953118</ele>
        <time>2020-09-28T11:59:58.586Z</time>
      </trkpt>
      <trkpt lat="64.51108" lon="21.06138">
        <ele>101.084696</ele>
        <time>2020-09-28T12:00:00.603Z</time>
      </trkpt>
      <trkpt lat="64.51093" lon="21.06125">
        <ele>101.085649</ele>
        <time>2020-09-28T12:00:02.603Z</time>
      </trkpt>
      <trkpt lat="64.51078" lon="21.06113">
        <ele>101.086561</ele>
        <time>2020-09-28T12:00:04.591Z</time>
      </trkpt>
      <trkpt lat="64.51065" lon="21.06102">
        <ele>101.087402</ele>
        <time>2020-09-28T12:00:06.582Z</time>
      </trkpt>
      <trkpt lat="64.51052" lon="21.06092">
        <ele>101.088194</ele>
        <time>2020-09-28T12:00:08.620Z</time>
      </trkpt>
      <trkpt lat="64.5104" lon="21.06083">
        <ele>101.088938</ele>
        <time>2020-09-28T12:00:10.581Z</time>
      </trkpt>
      <trkpt lat="64.5103" lon="21.06074">
        <ele>101.089622</ele>
        <time>2020-09-28T12:00:12.600Z</time>
      </trkpt>
      <trkpt lat="64.51019" lon="21.06065">
        <ele>101.090269</ele>
        <time>2020-09-28T12:00:14.578Z</time>
      </trkpt>
      <trkpt lat="64.5101" lon="21.06058">
        <ele>101.090849</ele>
        <time>2020-09-28T12:00:16.593Z</time>
      </trkpt>
      <trkpt lat="64.51001" lon="21.0605">
        <ele>101.091426</ele>
        <time>2020-09-28T12:00:18.601Z</time>
      </trkpt>
      <trkpt lat="64.50992" lon="21.06043">
        <ele>101.09196</ele>
        <time>2020-09-28T12:00:20.577Z</time>
      </trkpt>
      <trkpt lat="64.5098" lon="21.06032">
        <ele>101.092731</ele>
        <time>2020-09-28T12:00:23.607Z</time>
      </trkpt>
      <trkpt lat="64.50969" lon="21.06022">
        <ele>101.093424</ele>
        <time>2020-09-28T12:00:26.591Z</time>
      </trkpt>
      <trkpt lat="64.5096" lon="21.06013">
        <ele>101.094055</ele>
        <time>2020-09-28T12:00:29.615Z</time>
      </trkpt>
      <trkpt lat="64.5095" lon="21.06003">
        <ele>101.094669</ele>
        <time>2020-09-28T12:00:32.587Z</time>
      </trkpt>
      <trkpt lat="64.50941" lon="21.05997">
        <ele>101.098709</ele>
        <time>2020-09-28T12:00:35.595Z</time>
      </trkpt>
      <trkpt lat="64.5093" lon="21.05988">
        <ele>101.776779</ele>
        <time>2020-09-28T12:00:39.613Z</time>
      </trkpt>
      <trkpt lat="64.50919" lon="21.05977">
        <ele>102.460544</ele>
        <time>2020-09-28T12:00:43.601Z</time>
      </trkpt>
      <trkpt lat="64.50908" lon="21.05969">
        <ele>103.090111</ele>
        <time>2020-09-28T12:00:47.572Z</time>
      </trkpt>
      <trkpt lat="64.50899" lon="21.05962">
        <ele>103.692908</ele>
        <time>2020-09-28T12:00:51.602Z</time>
      </trkpt>
      <trkpt lat="64.5089" lon="21.05953">
        <ele>104.237593</ele>
        <time>2020-09-28T12:00:55.585Z</time>
      </trkpt>
      <trkpt lat="64.5088" lon="21.05946">
        <ele>104.835695</ele>
        <time>2020-09-28T12:01:00.602Z</time>
      </trkpt>
      <trkpt lat="64.5087" lon="21.0594">
        <ele>105.444011</ele>
        <time>2020-09-28T12:01:05.618Z</time>
      </trkpt>
      <trkpt lat="64.5086" lon="21.05934">
        <ele>106.022472</ele>
        <time>2020-09-28T12:01:10.629Z</time>
      </trkpt>
      <trkpt lat="64.50851" lon="21.05926">
        <ele>106.608028</ele>
        <time>2020-09-28T12:01:15.585Z</time>
      </trkpt>
      <trkpt lat="64.50841" lon="21.0592">
        <ele>107.204524</ele>
        <time>2020-09-28T12:01:20.609Z</time>
      </trkpt>
      <trkpt lat="64.5083" lon="21.05913">
        <ele>107.832636</ele>
        <time>2020-09-28T12:01:25.581Z</time>
      </trkpt>
      <trkpt lat="64.50821" lon="21.05907">
        <ele>108.38786</ele>
        <time>2020-09-28T12:01:29.623Z</time>
      </trkpt>
      <trkpt lat="64.50812" lon="21.05899">
        <ele>108.939812</ele>
        <time>2020-09-28T12:01:33.580Z</time>
      </trkpt>
      <trkpt lat="64.50803" lon="21.05894">
        <ele>109.495253</ele>
        <time>2020-09-28T12:01:37.604Z</time>
      </trkpt>
      <trkpt lat="64.50793" lon="21.05889">
        <ele>110.041506</ele>
        <time>2020-09-28T12:01:41.596Z</time>
      </trkpt>
      <trkpt lat="64.50784" lon="21.05883">
        <ele>110.606359</ele>
        <time>2020-09-28T12:01:45.596Z</time>
      </trkpt>
      <trkpt lat="64.50774" lon="21.0588">
        <ele>111.169378</ele>
        <time>2020-09-28T12:01:49.578Z</time>
      </trkpt>
      <trkpt lat="64.50765" lon="21.05874">
        <ele>111.576889</ele>
        <time>2020-09-28T12:01:53.583Z</time>
      </trkpt>
      <trkpt lat="64.50755" lon="21.05869">
        <ele>111.762687</ele>
        <time>2020-09-28T12:01:57.573Z</time>
      </trkpt>
      <trkpt lat="64.50745" lon="21.05863">
        <ele>111.952766</ele>
        <time>2020-09-28T12:02:01.608Z</time>
      </trkpt>
      <trkpt lat="64.50735" lon="21.05858">
        <ele>112.147569</ele>
        <time>2020-09-28T12:02:05.603Z</time>
      </trkpt>
      <trkpt lat="64.50725" lon="21.05852">
        <ele>112.353562</ele>
        <time>2020-09-28T12:02:09.593Z</time>
      </trkpt>
      <trkpt lat="64.50713" lon="21.05845">
        <ele>112.580156</ele>
        <time>2020-09-28T12:02:13.573Z</time>
      </trkpt>
      <trkpt lat="64.50704" lon="21.05841">
        <ele>112.752158</ele>
        <time>2020-09-28T12:02:16.594Z</time>
      </trkpt>
      <trkpt lat="64.50695" lon="21.05836">
        <ele>112.930205</ele>
        <time>2020-09-28T12:02:19.590Z</time>
      </trkpt>
      <trkpt lat="64.50686" lon="21.0583">
        <ele>113.105819</ele>
        <time>2020-09-28T12:02:22.586Z</time>
      </trkpt>
      <trkpt lat="64.50677" lon="21.05823">
        <ele>113.285571</ele>
        <time>2020-09-28T12:02:25.578Z</time>
      </trkpt>
      <trkpt lat="64.50668" lon="21.05817">
        <ele>113.468986</ele>
        <time>2020-09-28T12:02:28.601Z</time>
      </trkpt>
      <trkpt lat="64.50657" lon="21.05812">
        <ele>113.677133</ele>
        <time>2020-09-28T12:02:31.602Z</time>
      </trkpt>
      <trkpt lat="64.50646" lon="21.05806">
        <ele>113.890784</ele>
        <time>2020-09-28T12:02:34.595Z</time>
      </trkpt>
      <trkpt lat="64.50636" lon="21.05802">
        <ele>114.086053</ele>
        <time>2020-09-28T12:02:37.572Z</time>
      </trkpt>
      <trkpt lat="64.50627" lon="21.05797">
        <ele>114.262258</ele>
        <time>2020-09-28T12:02:40.576Z</time>
      </trkpt>
      <trkpt lat="64.50618" lon="21.05792">
        <ele>114.436634</ele>
        <time>2020-09-28T12:02:43.582Z</time>
      </trkpt>
      <trkpt lat="64.50609" lon="21.05787">
        <ele>114.605422</ele>
        <time>2020-09-28T12:02:46.615Z</time>
      </trkpt>
      <trkpt lat="64.50598" lon="21.05783">
        <ele>114.826918</ele>
        <time>2020-09-28T12:02:50.597Z</time>
      </trkpt>
      <trkpt lat="64.50589" lon="21.05775">
        <ele>115.089295</ele>
        <time>2020-09-28T12:02:54.603Z</time>
      </trkpt>
      <trkpt lat="64.50577" lon="21.05767">
        <ele>115.46326</ele>
        <time>2020-09-28T12:02:58.627Z</time>
      </trkpt>
      <trkpt lat="64.50566" lon="21.05758">
        <ele>115.835774</ele>
        <time>2020-09-28T12:03:02.675Z</time>
      </trkpt>
      <trkpt lat="64.50556" lon="21.05752">
        <ele>116.180935</ele>
        <time>2020-09-28T12:03:06.625Z</time>
      </trkpt>
      <trkpt lat="64.50547" lon="21.05748">
        <ele>116.471885</ele>
        <time>2020-09-28T12:03:09.581Z</time>
      </trkpt>
      <trkpt lat="64.50537" lon="21.05742">
        <ele>116.791774</ele>
        <time>2020-09-28T12:03:12.606Z</time>
      </trkpt>
      <trkpt lat="64.50525" lon="21.05736">
        <ele>117.165683</ele>
        <time>2020-09-28T12:03:15.589Z</time>
      </trkpt>
      <trkpt lat="64.50517" lon="21.05734">
        <ele>117.449766</ele>
        <time>2020-09-28T12:03:17.575Z</time>
      </trkpt>
      <trkpt lat="64.50507" lon="21.05731">
        <ele>117.741155</ele>
        <time>2020-09-28T12:03:19.584Z</time>
      </trkpt>
      <trkpt lat="64.50495" lon="21.05723">
        <ele>118.154126</ele>
        <time>2020-09-28T12:03:22.614Z</time>
      </trkpt>
      <trkpt lat="64.50486" lon="21.05717">
        <ele>118.451162</ele>
        <time>2020-09-28T12:03:24.581Z</time>
      </trkpt>
      <trkpt lat="64.50475" lon="21.05711">
        <ele>118.814604</ele>
        <time>2020-09-28T12:03:26.582Z</time>
      </trkpt>
      <trkpt lat="64.50463" lon="21.05706">
        <ele>119.17863</ele>
        <time>2020-09-28T12:03:28.577Z</time>
      </trkpt>
      <trkpt lat="64.50452" lon="21.05699">
        <ele>119.55442</ele>
        <time>2020-09-28T12:03:30.594Z</time>
      </trkpt>
      <trkpt lat="64.50441" lon="21.05693">
        <ele>119.922141</ele>
        <time>2020-09-28T12:03:32.598Z</time>
      </trkpt>
      <trkpt lat="64.50429" lon="21.05688">
        <ele>120.294074</ele>
        <time>2020-09-28T12:03:34.653Z</time>
      </trkpt>
      <trkpt lat="64.50418" lon="21.05681">
        <ele>120.564897</ele>
        <time>2020-09-28T12:03:36.589Z</time>
      </trkpt>
      <trkpt lat="64.50406" lon="21.05676">
        <ele>120.281966</ele>
        <time>2020-09-28T12:03:38.593Z</time>
      </trkpt>
      <trkpt lat="64.50395" lon="21.05669">
        <ele>120.002326</ele>
        <time>2020-09-28T12:03:40.573Z</time>
      </trkpt>
      <trkpt lat="64.50384" lon="21.05663">
        <ele>119.728556</ele>
        <time>2020-09-28T12:03:42.605Z</time>
      </trkpt>
      <trkpt lat="64.50373" lon="21.05658">
        <ele>119.466965</ele>
        <time>2020-09-28T12:03:44.581Z</time>
      </trkpt>
      <trkpt lat="64.50363" lon="21.05652">
        <ele>119.220976</ele>
        <time>2020-09-28T12:03:46.589Z</time>
      </trkpt>
      <trkpt lat="64.50353" lon="21.05645">
        <ele>118.969811</ele>
        <time>2020-09-28T12:03:48.603Z</time>
      </trkpt>
      <trkpt lat="64.50343" lon="21.05639">
        <ele>118.721234</ele>
        <time>2020-09-28T12:03:50.591Z</time>
      </trkpt>
      <trkpt lat="64.50333" lon="21.05633">
        <ele>118.460501</ele>
        <time>2020-09-28T12:03:52.631Z</time>
      </trkpt>
      <trkpt lat="64.50322" lon="21.05628">
        <ele>118.189975</ele>
        <time>2020-09-28T12:03:54.577Z</time>
      </trkpt>
      <trkpt lat="64.50311" lon="21.05622">
        <ele>117.916434</ele>
        <time>2020-09-28T12:03:56.597Z</time>
      </trkpt>
      <trkpt lat="64.50299" lon="21.05615">
        <ele>117.634699</ele>
        <time>2020-09-28T12:03:58.586Z</time>
      </trkpt>
      <trkpt lat="64.50288" lon="21.05608">
        <ele>117.357617</ele>
        <time>2020-09-28T12:04:00.585Z</time>
      </trkpt>
      <trkpt lat="64.50277" lon="21.05601">
        <ele>117.084298</ele>
        <time>2020-09-28T12:04:02.625Z</time>
      </trkpt>
      <trkpt lat="64.50266" lon="21.05594">
        <ele>116.811149</ele>
        <time>2020-09-28T12:04:04.598Z</time>
      </trkpt>
      <trkpt lat="64.50256" lon="21.05588">
        <ele>116.549558</ele>
        <time>2020-09-28T12:04:06.585Z</time>
      </trkpt>
      <trkpt lat="64.50245" lon="21.05582">
        <ele>116.286751</ele>
        <time>2020-09-28T12:04:08.592Z</time>
      </trkpt>
      <trkpt lat="64.50235" lon="21.05577">
        <ele>116.057573</ele>
        <time>2020-09-28T12:04:10.585Z</time>
      </trkpt>
      <trkpt lat="64.50224" lon="21.05571">
        <ele>115.823465</ele>
        <time>2020-09-28T12:04:12.609Z</time>
      </trkpt>
      <trkpt lat="64.50213" lon="21.05565">
        <ele>115.579823</ele>
        <time>2020-09-28T12:04:14.587Z</time>
      </trkpt>
      <trkpt lat="64.50202" lon="21.05558">
        <ele>115.335012</ele>
        <time>2020-09-28T12:04:16.589Z</time>
      </trkpt>
      <trkpt lat="64.50192" lon="21.05552">
        <ele>115.109559</ele>
        <time>2020-09-28T12:04:18.577Z</time>
      </trkpt>
      <trkpt lat="64.50182" lon="21.05546">
        <ele>114.888996</ele>
        <time>2020-09-28T12:04:20.584Z</time>
      </trkpt>
      <trkpt lat="64.50173" lon="21.0554">
        <ele>114.66986</ele>
        <time>2020-09-28T12:04:22.583Z</time>
      </trkpt>
      <trkpt lat="64.50162" lon="21.05534">
        <ele>114.436005</ele>
        <time>2020-09-28T12:04:24.598Z</time>
      </trkpt>
      <trkpt lat="64.50152" lon="21.05528">
        <ele>114.208444</ele>
        <time>2020-09-28T12:04:26.597Z</time>
      </trkpt>
      <trkpt lat="64.50141" lon="21.05523">
        <ele>113.969572</ele>
        <time>2020-09-28T12:04:28.598Z</time>
      </trkpt>
      <trkpt lat="64.50131" lon="21.05518">
        <ele>113.738817</ele>
        <time>2020-09-28T12:04:30.610Z</time>
      </trkpt>
      <trkpt lat="64.5012" lon="21.05512">
        <ele>113.500055</ele>
        <time>2020-09-28T12:04:32.575Z</time>
      </trkpt>
      <trkpt lat="64.50109" lon="21.05506">
        <ele>113.2594</ele>
        <time>2020-09-28T12:04:34.583Z</time>
      </trkpt>
      <trkpt lat="64.50098" lon="21.05499">
        <ele>113.007575</ele>
        <time>2020-09-28T12:04:36.578Z</time>
      </trkpt>
      <trkpt lat="64.50087" lon="21.05492">
        <ele>112.757612</ele>
        <time>2020-09-28T12:04:38.581Z</time>
      </trkpt>
      <trkpt lat="64.50076" lon="21.05486">
        <ele>112.510407</ele>
        <time>2020-09-28T12:04:40.575Z</time>
      </trkpt>
      <trkpt lat="64.50065" lon="21.05481">
        <ele>112.500699</ele>
        <time>2020-09-28T12:04:42.575Z</time>
      </trkpt>
      <trkpt lat="64.50054" lon="21.05474">
        <ele>112.742551</ele>
        <time>2020-09-28T12:04:44.610Z</time>
      </trkpt>
      <trkpt lat="64.50044" lon="21.05469">
        <ele>112.979499</ele>
        <time>2020-09-28T12:04:46.591Z</time>
      </trkpt>
      <trkpt lat="64.50034" lon="21.05463">
        <ele>113.207233</ele>
        <time>2020-09-28T12:04:48.576Z</time>
      </trkpt>
      <trkpt lat="64.50024" lon="21.05457">
        <ele>113.424841</ele>
        <time>2020-09-28T12:04:50.614Z</time>
      </trkpt>
      <trkpt lat="64.50015" lon="21.05452">
        <ele>113.635923</ele>
        <time>2020-09-28T12:04:52.601Z</time>
      </trkpt>
      <trkpt lat="64.50005" lon="21.05447">
        <ele>113.841279</ele>
        <time>2020-09-28T12:04:54.594Z</time>
      </trkpt>
      <trkpt lat="64.49993" lon="21.05439">
        <ele>114.130841</ele>
        <time>2020-09-28T12:04:57.582Z</time>
      </trkpt>
      <trkpt lat="64.49983" lon="21.05433">
        <ele>114.342352</ele>
        <time>2020-09-28T12:04:59.622Z</time>
      </trkpt>
      <trkpt lat="64.49974" lon="21.05429">
        <ele>114.55439</ele>
        <time>2020-09-28T12:05:01.658Z</time>
      </trkpt>
      <trkpt lat="64.49965" lon="21.05425">
        <ele>114.761952</ele>
        <time>2020-09-28T12:05:03.582Z</time>
      </trkpt>
      <trkpt lat="64.49955" lon="21.0542">
        <ele>114.97476</ele>
        <time>2020-09-28T12:05:05.600Z</time>
      </trkpt>
      <trkpt lat="64.49945" lon="21.05415">
        <ele>115.190111</ele>
        <time>2020-09-28T12:05:07.581Z</time>
      </trkpt>
      <trkpt lat="64.49936" lon="21.05411">
        <ele>115.391236</ele>
        <time>2020-09-28T12:05:09.591Z</time>
      </trkpt>
      <trkpt lat="64.49924" lon="21.05404">
        <ele>115.668434</ele>
        <time>2020-09-28T12:05:12.614Z</time>
      </trkpt>
      <trkpt lat="64.49911" lon="21.05399">
        <ele>115.959025</ele>
        <time>2020-09-28T12:05:15.586Z</time>
      </trkpt>
      <trkpt lat="64.49901" lon="21.05394">
        <ele>116.173973</ele>
        <time>2020-09-28T12:05:17.596Z</time>
      </trkpt>
      <trkpt lat="64.49892" lon="21.05389">
        <ele>116.269154</ele>
        <time>2020-09-28T12:05:19.610Z</time>
      </trkpt>
      <trkpt lat="64.49882" lon="21.05384">
        <ele>116.101835</ele>
        <time>2020-09-28T12:05:21.580Z</time>
      </trkpt>
      <trkpt lat="64.49872" lon="21.05378">
        <ele>115.930503</ele>
        <time>2020-09-28T12:05:23.595Z</time>
      </trkpt>
      <trkpt lat="64.49861" lon="21.05372">
        <ele>115.753859</ele>
        <time>2020-09-28T12:05:25.580Z</time>
      </trkpt>
      <trkpt lat="64.49851" lon="21.05365">
        <ele>115.570247</ele>
        <time>2020-09-28T12:05:27.573Z</time>
      </trkpt>
      <trkpt lat="64.4984" lon="21.05359">
        <ele>115.389712</ele>
        <time>2020-09-28T12:05:29.597Z</time>
      </trkpt>
      <trkpt lat="64.4983" lon="21.05352">
        <ele>115.20882</ele>
        <time>2020-09-28T12:05:31.577Z</time>
      </trkpt>
      <trkpt lat="64.49819" lon="21.05345">
        <ele>115.035111</ele>
        <time>2020-09-28T12:05:33.584Z</time>
      </trkpt>
      <trkpt lat="64.49809" lon="21.05338">
        <ele>114.85048</ele>
        <time>2020-09-28T12:05:35.576Z</time>
      </trkpt>
      <trkpt lat="64.49797" lon="21.05332">
        <ele>114.64507</ele>
        <time>2020-09-28T12:05:37.593Z</time>
      </trkpt>
      <trkpt lat="64.49785" lon="21.05325">
        <ele>114.448345</ele>
        <time>2020-09-28T12:05:39.586Z</time>
      </trkpt>
      <trkpt lat="64.49773" lon="21.05318">
        <ele>114.24133</ele>
        <time>2020-09-28T12:05:41.621Z</time>
      </trkpt>
      <trkpt lat="64.4976" lon="21.05311">
        <ele>114.020483</ele>
        <time>2020-09-28T12:05:43.600Z</time>
      </trkpt>
      <trkpt lat="64.49746" lon="21.05302">
        <ele>113.791098</ele>
        <time>2020-09-28T12:05:45.575Z</time>
      </trkpt>
      <trkpt lat="64.49732" lon="21.05294">
        <ele>113.548784</ele>
        <time>2020-09-28T12:05:47.581Z</time>
      </trkpt>
      <trkpt lat="64.49717" lon="21.05285">
        <ele>113.302188</ele>
        <time>2020-09-28T12:05:49.593Z</time>
      </trkpt>
      <trkpt lat="64.49701" lon="21.05276">
        <ele>113.04747</ele>
        <time>2020-09-28T12:05:51.591Z</time>
      </trkpt>
      <trkpt lat="64.49685" lon="21.05267">
        <ele>112.788712</ele>
        <time>2020-09-28T12:05:53.593Z</time>
      </trkpt>
      <trkpt lat="64.49669" lon="21.05259">
        <ele>112.54209</ele>
        <time>2020-09-28T12:05:55.608Z</time>
      </trkpt>
      <trkpt lat="64.49655" lon="21.0525">
        <ele>112.312059</ele>
        <time>2020-09-28T12:05:57.578Z</time>
      </trkpt>
      <trkpt lat="64.49641" lon="21.05243">
        <ele>112.088208</ele>
        <time>2020-09-28T12:05:59.617Z</time>
      </trkpt>
      <trkpt lat="64.49627" lon="21.05236">
        <ele>111.875726</ele>
        <time>2020-09-28T12:06:01.575Z</time>
      </trkpt>
      <trkpt lat="64.49615" lon="21.05228">
        <ele>111.675486</ele>
        <time>2020-09-28T12:06:03.601Z</time>
      </trkpt>
      <trkpt lat="64.49603" lon="21.05222">
        <ele>111.491782</ele>
        <time>2020-09-28T12:06:05.588Z</time>
      </trkpt>
      <trkpt lat="64.49592" lon="21.05217">
        <ele>111.316833</ele>
        <time>2020-09-28T12:06:07.580Z</time>
      </trkpt>
      <trkpt lat="64.49582" lon="21.05212">
        <ele>111.157414</ele>
        <time>2020-09-28T12:06:09.581Z</time>
      </trkpt>
      <trkpt lat="64.49572" lon="21.05206">
        <ele>111.004666</ele>
        <time>2020-09-28T12:06:11.577Z</time>
      </trkpt>
      <trkpt lat="64.49563" lon="21.05201">
        <ele>110.860674</ele>
        <time>2020-09-28T12:06:13.623Z</time>
      </trkpt>
      <trkpt lat="64.4955" lon="21.05194">
        <ele>110.656599</ele>
        <time>2020-09-28T12:06:16.586Z</time>
      </trkpt>
      <trkpt lat="64.49541" lon="21.05189">
        <ele>110.542069</ele>
        <time>2020-09-28T12:06:18.584Z</time>
      </trkpt>
      <trkpt lat="64.49532" lon="21.05184">
        <ele>110.45122</ele>
        <time>2020-09-28T12:06:20.597Z</time>
      </trkpt>
      <trkpt lat="64.49522" lon="21.05179">
        <ele>110.358601</ele>
        <time>2020-09-28T12:06:22.576Z</time>
      </trkpt>
      <trkpt lat="64.49514" lon="21.05173">
        <ele>110.271523</ele>
        <time>2020-09-28T12:06:24.625Z</time>
      </trkpt>
      <trkpt lat="64.49505" lon="21.05167">
        <ele>110.184207</ele>
        <time>2020-09-28T12:06:26.621Z</time>
      </trkpt>
      <trkpt lat="64.49496" lon="21.05161">
        <ele>110.093881</ele>
        <time>2020-09-28T12:06:28.615Z</time>
      </trkpt>
      <trkpt lat="64.49487" lon="21.05156">
        <ele>110.003129</ele>
        <time>2020-09-28T12:06:30.589Z</time>
      </trkpt>
      <trkpt lat="64.49477" lon="21.05151">
        <ele>109.909574</ele>
        <time>2020-09-28T12:06:32.594Z</time>
      </trkpt>
      <trkpt lat="64.49468" lon="21.05145">
        <ele>109.815221</ele>
        <time>2020-09-28T12:06:34.609Z</time>
      </trkpt>
      <trkpt lat="64.49458" lon="21.0514">
        <ele>109.723901</ele>
        <time>2020-09-28T12:06:36.599Z</time>
      </trkpt>
      <trkpt lat="64.4945" lon="21.05135">
        <ele>109.636244</ele>
        <time>2020-09-28T12:06:38.579Z</time>
      </trkpt>
      <trkpt lat="64.49437" lon="21.05127">
        <ele>109.510306</ele>
        <time>2020-09-28T12:06:41.594Z</time>
      </trkpt>
      <trkpt lat="64.49424" lon="21.05119">
        <ele>109.386328</ele>
        <time>2020-09-28T12:06:44.573Z</time>
      </trkpt>
      <trkpt lat="64.49412" lon="21.05111">
        <ele>109.259853</ele>
        <time>2020-09-28T12:06:47.610Z</time>
      </trkpt>
      <trkpt lat="64.494" lon="21.05103">
        <ele>109.138679</ele>
        <time>2020-09-28T12:06:50.610Z</time>
      </trkpt>
      <trkpt lat="64.49387" lon="21.05098">
        <ele>109.014275</ele>
        <time>2020-09-28T12:06:53.597Z</time>
      </trkpt>
      <trkpt lat="64.49374" lon="21.05093">
        <ele>108.886829</ele>
        <time>2020-09-28T12:06:56.594Z</time>
      </trkpt>
      <trkpt lat="64.49365" lon="21.05088">
        <ele>109.100833</ele>
        <time>2020-09-28T12:06:58.606Z</time>
      </trkpt>
      <trkpt lat="64.49352" lon="21.05081">
        <ele>109.602959</ele>
        <time>2020-09-28T12:07:01.581Z</time>
      </trkpt>
      <trkpt lat="64.49339" lon="21.05075">
        <ele>110.102918</ele>
        <time>2020-09-28T12:07:04.596Z</time>
      </trkpt>
      <trkpt lat="64.49327" lon="21.0507">
        <ele>110.560481</ele>
        <time>2020-09-28T12:07:07.581Z</time>
      </trkpt>
      <trkpt lat="64.49316" lon="21.05064">
        <ele>110.995414</ele>
        <time>2020-09-28T12:07:10.601Z</time>
      </trkpt>
      <trkpt lat="64.49306" lon="21.05059">
        <ele>111.409195</ele>
        <time>2020-09-28T12:07:13.580Z</time>
      </trkpt>
      <trkpt lat="64.49295" lon="21.05052">
        <ele>111.827283</ele>
        <time>2020-09-28T12:07:16.580Z</time>
      </trkpt>
      <trkpt lat="64.49285" lon="21.05043">
        <ele>112.238829</ele>
        <time>2020-09-28T12:07:19.598Z</time>
      </trkpt>
      <trkpt lat="64.49275" lon="21.05034">
        <ele>112.65394</ele>
        <time>2020-09-28T12:07:22.621Z</time>
      </trkpt>
      <trkpt lat="64.49264" lon="21.05029">
        <ele>113.086332</ele>
        <time>2020-09-28T12:07:25.577Z</time>
      </trkpt>
      <trkpt lat="64.49253" lon="21.05024">
        <ele>113.505872</ele>
        <time>2020-09-28T12:07:28.587Z</time>
      </trkpt>
      <trkpt lat="64.49242" lon="21.05019">
        <ele>113.927353</ele>
        <time>2020-09-28T12:07:31.572Z</time>
      </trkpt>
      <trkpt lat="64.49231" lon="21.05014">
        <ele>114.371265</ele>
        <time>2020-09-28T12:07:34.580Z</time>
      </trkpt>
      <trkpt lat="64.49219" lon="21.05007">
        <ele>114.839962</ele>
        <time>2020-09-28T12:07:37.613Z</time>
      </trkpt>
      <trkpt lat="64.49206" lon="21.04999">
        <ele>115.344529</ele>
        <time>2020-09-28T12:07:40.580Z</time>
      </trkpt>
      <trkpt lat="64.49193" lon="21.04991">
        <ele>115.623394</ele>
        <time>2020-09-28T12:07:43.576Z</time>
      </trkpt>
      <trkpt lat="64.49184" lon="21.04986">
        <ele>115.38541</ele>
        <time>2020-09-28T12:07:45.583Z</time>
      </trkpt>
      <trkpt lat="64.49174" lon="21.04982">
        <ele>115.133033</ele>
        <time>2020-09-28T12:07:47.575Z</time>
      </trkpt>
      <trkpt lat="64.49164" lon="21.04975">
        <ele>114.865816</ele>
        <time>2020-09-28T12:07:49.598Z</time>
      </trkpt>
      <trkpt lat="64.49152" lon="21.04969">
        <ele>114.5611</ele>
        <time>2020-09-28T12:07:51.587Z</time>
      </trkpt>
      <trkpt lat="64.4914" lon="21.04961">
        <ele>114.252659</ele>
        <time>2020-09-28T12:07:53.583Z</time>
      </trkpt>
      <trkpt lat="64.49128" lon="21.04953">
        <ele>113.935062</ele>
        <time>2020-09-28T12:07:55.596Z</time>
      </trkpt>
      <trkpt lat="64.49116" lon="21.04945">
        <ele>113.602901</ele>
        <time>2020-09-28T12:07:57.593Z</time>
      </trkpt>
      <trkpt lat="64.49102" lon="21.04937">
        <ele>113.246013</ele>
        <time>2020-09-28T12:07:59.586Z</time>
      </trkpt>
      <trkpt lat="64.49088" lon="21.04927">
        <ele>112.864184</ele>
        <time>2020-09-28T12:08:01.593Z</time>
      </trkpt>
      <trkpt lat="64.49073" lon="21.04919">
        <ele>112.49232</ele>
        <time>2020-09-28T12:08:03.622Z</time>
      </trkpt>
      <trkpt lat="64.49059" lon="21.04911">
        <ele>112.118757</ele>
        <time>2020-09-28T12:08:05.593Z</time>
      </trkpt>
      <trkpt lat="64.49045" lon="21.04903">
        <ele>111.750361</ele>
        <time>2020-09-28T12:08:07.629Z</time>
      </trkpt>
      <trkpt lat="64.49031" lon="21.04897">
        <ele>111.401599</ele>
        <time>2020-09-28T12:08:09.583Z</time>
      </trkpt>
      <trkpt lat="64.49018" lon="21.0489">
        <ele>111.028769</ele>
        <time>2020-09-28T12:08:11.602Z</time>
      </trkpt>
      <trkpt lat="64.49006" lon="21.04885">
        <ele>110.572114</ele>
        <time>2020-09-28T12:08:13.583Z</time>
      </trkpt>
      <trkpt lat="64.48995" lon="21.04879">
        <ele>110.153666</ele>
        <time>2020-09-28T12:08:15.594Z</time>
      </trkpt>
      <trkpt lat="64.48984" lon="21.04874">
        <ele>109.749605</ele>
        <time>2020-09-28T12:08:17.592Z</time>
      </trkpt>
      <trkpt lat="64.48974" lon="21.04868">
        <ele>109.372095</ele>
        <time>2020-09-28T12:08:19.580Z</time>
      </trkpt>
      <trkpt lat="64.48965" lon="21.04863">
        <ele>109.007839</ele>
        <time>2020-09-28T12:08:21.615Z</time>
      </trkpt>
      <trkpt lat="64.48955" lon="21.04857">
        <ele>108.635279</ele>
        <time>2020-09-28T12:08:23.583Z</time>
      </trkpt>
      <trkpt lat="64.48945" lon="21.04851">
        <ele>108.255843</ele>
        <time>2020-09-28T12:08:25.648Z</time>
      </trkpt>
      <trkpt lat="64.48935" lon="21.04843">
        <ele>107.874716</ele>
        <time>2020-09-28T12:08:27.579Z</time>
      </trkpt>
      <trkpt lat="64.48926" lon="21.04833">
        <ele>107.490466</ele>
        <time>2020-09-28T12:08:29.594Z</time>
      </trkpt>
      <trkpt lat="64.48916" lon="21.04823">
        <ele>107.091472</ele>
        <time>2020-09-28T12:08:31.617Z</time>
      </trkpt>
      <trkpt lat="64.48907" lon="21.04812">
        <ele>106.705816</ele>
        <time>2020-09-28T12:08:33.596Z</time>
      </trkpt>
      <trkpt lat="64.48897" lon="21.04799">
        <ele>106.301989</ele>
        <time>2020-09-28T12:08:35.617Z</time>
      </trkpt>
      <trkpt lat="64.48887" lon="21.04787">
        <ele>105.886091</ele>
        <time>2020-09-28T12:08:37.576Z</time>
      </trkpt>
      <trkpt lat="64.48877" lon="21.04772">
        <ele>105.445506</ele>
        <time>2020-09-28T12:08:39.589Z</time>
      </trkpt>
      <trkpt lat="64.48867" lon="21.04755">
        <ele>104.977876</ele>
        <time>2020-09-28T12:08:41.602Z</time>
      </trkpt>
      <trkpt lat="64.48856" lon="21.04737">
        <ele>104.45598</ele>
        <time>2020-09-28T12:08:43.583Z</time>
      </trkpt>
      <trkpt lat="64.48845" lon="21.04717">
        <ele>103.640341</ele>
        <time>2020-09-28T12:08:45.597Z</time>
      </trkpt>
      <trkpt lat="64.48833" lon="21.04695">
        <ele>102.788049</ele>
        <time>2020-09-28T12:08:47.592Z</time>
      </trkpt>
      <trkpt lat="64.48821" lon="21.04673">
        <ele>101.88279</ele>
        <time>2020-09-28T12:08:49.585Z</time>
      </trkpt>
      <trkpt lat="64.48807" lon="21.0465">
        <ele>100.928725</ele>
        <time>2020-09-28T12:08:51.584Z</time>
      </trkpt>
      <trkpt lat="64.488" lon="21.04638">
        <ele>100.39493</ele>
        <time>2020-09-28T12:08:52.615Z</time>
      </trkpt>
      <trkpt lat="64.48792" lon="21.04625">
        <ele>99.844085</ele>
        <time>2020-09-28T12:08:53.606Z</time>
      </trkpt>
      <trkpt lat="64.48784" lon="21.04613">
        <ele>99.278062</ele>
        <time>2020-09-28T12:08:54.584Z</time>
      </trkpt>
      <trkpt lat="64.48775" lon="21.04601">
        <ele>98.70746</ele>
        <time>2020-09-28T12:08:55.575Z</time>
      </trkpt>
      <trkpt lat="64.48766" lon="21.04591">
        <ele>98.123717</ele>
        <time>2020-09-28T12:08:56.590Z</time>
      </trkpt>
      <trkpt lat="64.48757" lon="21.0458">
        <ele>97.5382</ele>
        <time>2020-09-28T12:08:57.594Z</time>
      </trkpt>
      <trkpt lat="64.48748" lon="21.04571">
        <ele>96.975843</ele>
        <time>2020-09-28T12:08:58.611Z</time>
      </trkpt>
      <trkpt lat="64.48739" lon="21.04562">
        <ele>96.416936</ele>
        <time>2020-09-28T12:08:59.593Z</time>
      </trkpt>
      <trkpt lat="64.4873" lon="21.04555">
        <ele>95.857144</ele>
        <time>2020-09-28T12:09:00.617Z</time>
      </trkpt>
      <trkpt lat="64.48721" lon="21.04547">
        <ele>95.31701</ele>
        <time>2020-09-28T12:09:01.587Z</time>
      </trkpt>
      <trkpt lat="64.48712" lon="21.04541">
        <ele>94.774656</ele>
        <time>2020-09-28T12:09:02.587Z</time>
      </trkpt>
      <trkpt lat="64.48703" lon="21.04535">
        <ele>94.237781</ele>
        <time>2020-09-28T12:09:03.589Z</time>
      </trkpt>
      <trkpt lat="64.48694" lon="21.0453">
        <ele>93.990826</ele>
        <time>2020-09-28T12:09:04.587Z</time>
      </trkpt>
      <trkpt lat="64.48685" lon="21.04525">
        <ele>93.777476</ele>
        <time>2020-09-28T12:09:05.612Z</time>
      </trkpt>
      <trkpt lat="64.48676" lon="21.04522">
        <ele>93.568153</ele>
        <time>2020-09-28T12:09:06.575Z</time>
      </trkpt>
      <trkpt lat="64.48659" lon="21.04515">
        <ele>93.16581</ele>
        <time>2020-09-28T12:09:08.595Z</time>
      </trkpt>
      <trkpt lat="64.48643" lon="21.04506">
        <ele>92.770633</ele>
        <time>2020-09-28T12:09:10.610Z</time>
      </trkpt>
      <trkpt lat="64.48626" lon="21.04498">
        <ele>92.379347</ele>
        <time>2020-09-28T12:09:12.589Z</time>
      </trkpt>
      <trkpt lat="64.4861" lon="21.04489">
        <ele>91.999983</ele>
        <time>2020-09-28T12:09:14.599Z</time>
      </trkpt>
      <trkpt lat="64.48595" lon="21.04479">
        <ele>91.640628</ele>
        <time>2020-09-28T12:09:16.580Z</time>
      </trkpt>
      <trkpt lat="64.4858" lon="21.04469">
        <ele>91.267251</ele>
        <time>2020-09-28T12:09:18.581Z</time>
      </trkpt>
      <trkpt lat="64.48564" lon="21.04461">
        <ele>90.905978</ele>
        <time>2020-09-28T12:09:20.620Z</time>
      </trkpt>
      <trkpt lat="64.4855" lon="21.04453">
        <ele>90.553948</ele>
        <time>2020-09-28T12:09:22.587Z</time>
      </trkpt>
      <trkpt lat="64.48536" lon="21.04444">
        <ele>90.221422</ele>
        <time>2020-09-28T12:09:24.580Z</time>
      </trkpt>
      <trkpt lat="64.48522" lon="21.04437">
        <ele>90.04373</ele>
        <time>2020-09-28T12:09:26.586Z</time>
      </trkpt>
      <trkpt lat="64.48509" lon="21.04428">
        <ele>90.122009</ele>
        <time>2020-09-28T12:09:28.578Z</time>
      </trkpt>
      <trkpt lat="64.48496" lon="21.04421">
        <ele>90.19966</ele>
        <time>2020-09-28T12:09:30.581Z</time>
      </trkpt>
      <trkpt lat="64.48483" lon="21.04412">
        <ele>90.276224</ele>
        <time>2020-09-28T12:09:32.596Z</time>
      </trkpt>
      <trkpt lat="64.4847" lon="21.04404">
        <ele>90.354056</ele>
        <time>2020-09-28T12:09:34.576Z</time>
      </trkpt>
      <trkpt lat="64.48457" lon="21.04397">
        <ele>90.429492</ele>
        <time>2020-09-28T12:09:36.597Z</time>
      </trkpt>
      <trkpt lat="64.48444" lon="21.04388">
        <ele>90.504073</ele>
        <time>2020-09-28T12:09:38.601Z</time>
      </trkpt>
      <trkpt lat="64.48432" lon="21.0438">
        <ele>90.57639</ele>
        <time>2020-09-28T12:09:40.574Z</time>
      </trkpt>
      <trkpt lat="64.48421" lon="21.04373">
        <ele>90.643041</ele>
        <time>2020-09-28T12:09:42.584Z</time>
      </trkpt>
      <trkpt lat="64.48411" lon="21.04367">
        <ele>90.704228</ele>
        <time>2020-09-28T12:09:44.595Z</time>
      </trkpt>
      <trkpt lat="64.484" lon="21.04362">
        <ele>90.764116</ele>
        <time>2020-09-28T12:09:46.587Z</time>
      </trkpt>
      <trkpt lat="64.48389" lon="21.04357">
        <ele>90.827603</ele>
        <time>2020-09-28T12:09:48.590Z</time>
      </trkpt>
      <trkpt lat="64.48379" lon="21.04352">
        <ele>90.890681</ele>
        <time>2020-09-28T12:09:50.580Z</time>
      </trkpt>
      <trkpt lat="64.48368" lon="21.04347">
        <ele>90.95249</ele>
        <time>2020-09-28T12:09:52.619Z</time>
      </trkpt>
      <trkpt lat="64.48359" lon="21.04343">
        <ele>91.00645</ele>
        <time>2020-09-28T12:09:54.575Z</time>
      </trkpt>
      <trkpt lat="64.48346" lon="21.04336">
        <ele>91.209221</ele>
        <time>2020-09-28T12:09:57.610Z</time>
      </trkpt>
      <trkpt lat="64.48333" lon="21.04329">
        <ele>91.525683</ele>
        <time>2020-09-28T12:10:00.589Z</time>
      </trkpt>
      <trkpt lat="64.48321" lon="21.04322">
        <ele>91.823973</ele>
        <time>2020-09-28T12:10:03.614Z</time>
      </trkpt>
      <trkpt lat="64.4831" lon="21.04317">
        <ele>92.107963</ele>
        <time>2020-09-28T12:10:06.574Z</time>
      </trkpt>
      <trkpt lat="64.483" lon="21.0431">
        <ele>92.375098</ele>
        <time>2020-09-28T12:10:09.589Z</time>
      </trkpt>
      <trkpt lat="64.4829" lon="21.04302">
        <ele>92.6246</ele>
        <time>2020-09-28T12:10:12.589Z</time>
      </trkpt>
      <trkpt lat="64.48279" lon="21.04287">
        <ele>92.926181</ele>
        <time>2020-09-28T12:10:15.593Z</time>
      </trkpt>
      <trkpt lat="64.4827" lon="21.04271">
        <ele>93.216085</ele>
        <time>2020-09-28T12:10:18.604Z</time>
      </trkpt>
      <trkpt lat="64.48263" lon="21.04255">
        <ele>93.452588</ele>
        <time>2020-09-28T12:10:21.594Z</time>
      </trkpt>
      <trkpt lat="64.48253" lon="21.04241">
        <ele>93.744743</ele>
        <time>2020-09-28T12:10:25.594Z</time>
      </trkpt>
      <trkpt lat="64.48242" lon="21.04247">
        <ele>94.004654</ele>
        <time>2020-09-28T12:10:29.583Z</time>
      </trkpt>
      <trkpt lat="64.48235" lon="21.04262">
        <ele>94.250065</ele>
        <time>2020-09-28T12:10:32.596Z</time>
      </trkpt>
      <trkpt lat="64.48226" lon="21.04276">
        <ele>94.508464</ele>
        <time>2020-09-28T12:10:35.594Z</time>
      </trkpt>
      <trkpt lat="64.48217" lon="21.04292">
        <ele>94.785364</ele>
        <time>2020-09-28T12:10:38.611Z</time>
      </trkpt>
      <trkpt lat="64.48207" lon="21.04309">
        <ele>95.084829</ele>
        <time>2020-09-28T12:10:41.598Z</time>
      </trkpt>
      <trkpt lat="64.48199" lon="21.04323">
        <ele>95.323115</ele>
        <time>2020-09-28T12:10:43.610Z</time>
      </trkpt>
      <trkpt lat="64.48191" lon="21.04337">
        <ele>95.248392</ele>
        <time>2020-09-28T12:10:45.589Z</time>
      </trkpt>
      <trkpt lat="64.48183" lon="21.0435">
        <ele>94.934458</ele>
        <time>2020-09-28T12:10:47.616Z</time>
      </trkpt>
      <trkpt lat="64.48174" lon="21.04366">
        <ele>94.560329</ele>
        <time>2020-09-28T12:10:49.623Z</time>
      </trkpt>
      <trkpt lat="64.48165" lon="21.04383">
        <ele>94.197813</ele>
        <time>2020-09-28T12:10:51.604Z</time>
      </trkpt>
      <trkpt lat="64.48156" lon="21.044">
        <ele>93.812648</ele>
        <time>2020-09-28T12:10:53.589Z</time>
      </trkpt>
      <trkpt lat="64.48145" lon="21.04415">
        <ele>93.40959</ele>
        <time>2020-09-28T12:10:55.590Z</time>
      </trkpt>
      <trkpt lat="64.48135" lon="21.04431">
        <ele>93.007366</ele>
        <time>2020-09-28T12:10:57.572Z</time>
      </trkpt>
      <trkpt lat="64.48124" lon="21.04448">
        <ele>92.588567</ele>
        <time>2020-09-28T12:10:59.604Z</time>
      </trkpt>
      <trkpt lat="64.48115" lon="21.04465">
        <ele>92.189763</ele>
        <time>2020-09-28T12:11:01.614Z</time>
      </trkpt>
      <trkpt lat="64.48105" lon="21.04482">
        <ele>91.808028</ele>
        <time>2020-09-28T12:11:03.583Z</time>
      </trkpt>
      <trkpt lat="64.48097" lon="21.04497">
        <ele>91.456171</ele>
        <time>2020-09-28T12:11:05.601Z</time>
      </trkpt>
      <trkpt lat="64.48088" lon="21.04513">
        <ele>91.110081</ele>
        <time>2020-09-28T12:11:07.583Z</time>
      </trkpt>
      <trkpt lat="64.48081" lon="21.04529">
        <ele>90.782506</ele>
        <time>2020-09-28T12:11:09.584Z</time>
      </trkpt>
      <trkpt lat="64.48073" lon="21.04544">
        <ele>90.457556</ele>
        <time>2020-09-28T12:11:11.599Z</time>
      </trkpt>
      <trkpt lat="64.48067" lon="21.04559">
        <ele>90.157515</ele>
        <time>2020-09-28T12:11:13.615Z</time>
      </trkpt>
      <trkpt lat="64.48057" lon="21.0458">
        <ele>89.721086</ele>
        <time>2020-09-28T12:11:16.613Z</time>
      </trkpt>
      <trkpt lat="64.48049" lon="21.04593">
        <ele>89.439172</ele>
        <time>2020-09-28T12:11:18.596Z</time>
      </trkpt>
      <trkpt lat="64.48042" lon="21.04609">
        <ele>89.145349</ele>
        <time>2020-09-28T12:11:20.636Z</time>
      </trkpt>
      <trkpt lat="64.48034" lon="21.04623">
        <ele>88.858949</ele>
        <time>2020-09-28T12:11:22.582Z</time>
      </trkpt>
      <trkpt lat="64.48026" lon="21.04637">
        <ele>88.573352</ele>
        <time>2020-09-28T12:11:24.626Z</time>
      </trkpt>
      <trkpt lat="64.48019" lon="21.0465">
        <ele>88.300455</ele>
        <time>2020-09-28T12:11:26.598Z</time>
      </trkpt>
      <trkpt lat="64.48011" lon="21.04663">
        <ele>88.021701</ele>
        <time>2020-09-28T12:11:28.590Z</time>
      </trkpt>
      <trkpt lat="64.48003" lon="21.04676">
        <ele>87.748347</ele>
        <time>2020-09-28T12:11:30.597Z</time>
      </trkpt>
      <trkpt lat="64.47996" lon="21.0469">
        <ele>87.478823</ele>
        <time>2020-09-28T12:11:32.616Z</time>
      </trkpt>
      <trkpt lat="64.47989" lon="21.04703">
        <ele>87.219757</ele>
        <time>2020-09-28T12:11:34.629Z</time>
      </trkpt>
      <trkpt lat="64.47979" lon="21.04722">
        <ele>86.835336</ele>
        <time>2020-09-28T12:11:37.594Z</time>
      </trkpt>
      <trkpt lat="64.47971" lon="21.04734">
        <ele>86.568872</ele>
        <time>2020-09-28T12:11:39.617Z</time>
      </trkpt>
      <trkpt lat="64.47964" lon="21.04748">
        <ele>86.293963</ele>
        <time>2020-09-28T12:11:41.601Z</time>
      </trkpt>
      <trkpt lat="64.47956" lon="21.04761">
        <ele>86.021985</ele>
        <time>2020-09-28T12:11:43.603Z</time>
      </trkpt>
      <trkpt lat="64.47946" lon="21.04778">
        <ele>85.644689</ele>
        <time>2020-09-28T12:11:46.654Z</time>
      </trkpt>
      <trkpt lat="64.47936" lon="21.04795">
        <ele>85.286167</ele>
        <time>2020-09-28T12:11:49.598Z</time>
      </trkpt>
      <trkpt lat="64.47926" lon="21.04814">
        <ele>84.9078</ele>
        <time>2020-09-28T12:11:52.597Z</time>
      </trkpt>
      <trkpt lat="64.47914" lon="21.04828">
        <ele>84.534006</ele>
        <time>2020-09-28T12:11:55.642Z</time>
      </trkpt>
      <trkpt lat="64.47902" lon="21.04823">
        <ele>84.138939</ele>
        <time>2020-09-28T12:11:58.604Z</time>
      </trkpt>
      <trkpt lat="64.47893" lon="21.04805">
        <ele>83.762084</ele>
        <time>2020-09-28T12:12:00.589Z</time>
      </trkpt>
      <trkpt lat="64.47884" lon="21.04785">
        <ele>83.358839</ele>
        <time>2020-09-28T12:12:02.599Z</time>
      </trkpt>
      <trkpt lat="64.47875" lon="21.04764">
        <ele>82.947451</ele>
        <time>2020-09-28T12:12:04.582Z</time>
      </trkpt>
      <trkpt lat="64.47867" lon="21.04739">
        <ele>82.515152</ele>
        <time>2020-09-28T12:12:06.594Z</time>
      </trkpt>
      <trkpt lat="64.47857" lon="21.04716">
        <ele>82.063793</ele>
        <time>2020-09-28T12:12:08.606Z</time>
      </trkpt>
      <trkpt lat="64.47847" lon="21.04693">
        <ele>81.590354</ele>
        <time>2020-09-28T12:12:10.600Z</time>
      </trkpt>
      <trkpt lat="64.47835" lon="21.04669">
        <ele>81.094617</ele>
        <time>2020-09-28T12:12:12.576Z</time>
      </trkpt>
      <trkpt lat="64.47824" lon="21.04644">
        <ele>80.602185</ele>
        <time>2020-09-28T12:12:14.603Z</time>
      </trkpt>
      <trkpt lat="64.47814" lon="21.04622">
        <ele>80.133972</ele>
        <time>2020-09-28T12:12:16.595Z</time>
      </trkpt>
      <trkpt lat="64.47804" lon="21.04601">
        <ele>79.702486</ele>
        <time>2020-09-28T12:12:18.611Z</time>
      </trkpt>
      <trkpt lat="64.47795" lon="21.04585">
        <ele>79.343625</ele>
        <time>2020-09-28T12:12:20.589Z</time>
      </trkpt>
      <trkpt lat="64.47788" lon="21.0457">
        <ele>79.034202</ele>
        <time>2020-09-28T12:12:22.583Z</time>
      </trkpt>
      <trkpt lat="64.47781" lon="21.04555">
        <ele>78.732506</ele>
        <time>2020-09-28T12:12:24.603Z</time>
      </trkpt>
      <trkpt lat="64.47774" lon="21.0454">
        <ele>78.418975</ele>
        <time>2020-09-28T12:12:26.586Z</time>
      </trkpt>
      <trkpt lat="64.47766" lon="21.04521">
        <ele>78.056392</ele>
        <time>2020-09-28T12:12:28.581Z</time>
      </trkpt>
      <trkpt lat="64.47756" lon="21.04499">
        <ele>77.622373</ele>
        <time>2020-09-28T12:12:30.613Z</time>
      </trkpt>
      <trkpt lat="64.47745" lon="21.04477">
        <ele>77.149861</ele>
        <time>2020-09-28T12:12:32.589Z</time>
      </trkpt>
      <trkpt lat="64.47732" lon="21.04453">
        <ele>76.640533</ele>
        <time>2020-09-28T12:12:34.601Z</time>
      </trkpt>
      <trkpt lat="64.4772" lon="21.04428">
        <ele>76.111362</ele>
        <time>2020-09-28T12:12:36.589Z</time>
      </trkpt>
      <trkpt lat="64.47707" lon="21.04402">
        <ele>75.590307</ele>
        <time>2020-09-28T12:12:38.586Z</time>
      </trkpt>
      <trkpt lat="64.47696" lon="21.04378">
        <ele>75.086005</ele>
        <time>2020-09-28T12:12:40.628Z</time>
      </trkpt>
      <trkpt lat="64.47684" lon="21.04354">
        <ele>74.600361</ele>
        <time>2020-09-28T12:12:42.602Z</time>
      </trkpt>
      <trkpt lat="64.47674" lon="21.04331">
        <ele>74.143959</ele>
        <time>2020-09-28T12:12:44.580Z</time>
      </trkpt>
      <trkpt lat="64.47664" lon="21.0431">
        <ele>73.717852</ele>
        <time>2020-09-28T12:12:46.585Z</time>
      </trkpt>
      <trkpt lat="64.47655" lon="21.0429">
        <ele>73.317327</ele>
        <time>2020-09-28T12:12:48.593Z</time>
      </trkpt>
      <trkpt lat="64.47646" lon="21.04272">
        <ele>72.947959</ele>
        <time>2020-09-28T12:12:50.585Z</time>
      </trkpt>
      <trkpt lat="64.47638" lon="21.04254">
        <ele>72.932156</ele>
        <time>2020-09-28T12:12:52.574Z</time>
      </trkpt>
      <trkpt lat="64.4763" lon="21.04238">
        <ele>73.027814</ele>
        <time>2020-09-28T12:12:54.590Z</time>
      </trkpt>
      <trkpt lat="64.47623" lon="21.04221">
        <ele>73.117877</ele>
        <time>2020-09-28T12:12:56.577Z</time>
      </trkpt>
      <trkpt lat="64.47616" lon="21.04205">
        <ele>73.205819</ele>
        <time>2020-09-28T12:12:58.590Z</time>
      </trkpt>
      <trkpt lat="64.47609" lon="21.0419">
        <ele>73.295771</ele>
        <time>2020-09-28T12:13:00.582Z</time>
      </trkpt>
      <trkpt lat="64.47601" lon="21.04175">
        <ele>73.385899</ele>
        <time>2020-09-28T12:13:02.573Z</time>
      </trkpt>
      <trkpt lat="64.47594" lon="21.0416">
        <ele>73.473895</ele>
        <time>2020-09-28T12:13:04.603Z</time>
      </trkpt>
      <trkpt lat="64.47586" lon="21.04145">
        <ele>73.560894</ele>
        <time>2020-09-28T12:13:06.582Z</time>
      </trkpt>
      <trkpt lat="64.4758" lon="21.04131">
        <ele>73.644985</ele>
        <time>2020-09-28T12:13:08.610Z</time>
      </trkpt>
      <trkpt lat="64.47572" lon="21.04118">
        <ele>73.729784</ele>
        <time>2020-09-28T12:13:10.579Z</time>
      </trkpt>
      <trkpt lat="64.47565" lon="21.04104">
        <ele>73.81316</ele>
        <time>2020-09-28T12:13:12.583Z</time>
      </trkpt>
      <trkpt lat="64.47555" lon="21.04084">
        <ele>73.933103</ele>
        <time>2020-09-28T12:13:15.596Z</time>
      </trkpt>
      <trkpt lat="64.47545" lon="21.04064">
        <ele>74.051484</ele>
        <time>2020-09-28T12:13:18.609Z</time>
      </trkpt>
      <trkpt lat="64.47538" lon="21.0405">
        <ele>74.13471</ele>
        <time>2020-09-28T12:13:20.624Z</time>
      </trkpt>
      <trkpt lat="64.47531" lon="21.04036">
        <ele>74.217764</ele>
        <time>2020-09-28T12:13:22.606Z</time>
      </trkpt>
      <trkpt lat="64.47524" lon="21.04022">
        <ele>74.30118</ele>
        <time>2020-09-28T12:13:24.596Z</time>
      </trkpt>
      <trkpt lat="64.47517" lon="21.04009">
        <ele>74.382661</ele>
        <time>2020-09-28T12:13:26.596Z</time>
      </trkpt>
      <trkpt lat="64.47507" lon="21.0399">
        <ele>74.481148</ele>
        <time>2020-09-28T12:13:29.616Z</time>
      </trkpt>
      <trkpt lat="64.47498" lon="21.03972">
        <ele>74.479169</ele>
        <time>2020-09-28T12:13:32.593Z</time>
      </trkpt>
      <trkpt lat="64.4749" lon="21.03955">
        <ele>74.477393</ele>
        <time>2020-09-28T12:13:35.573Z</time>
      </trkpt>
      <trkpt lat="64.47482" lon="21.0394">
        <ele>74.47583</ele>
        <time>2020-09-28T12:13:38.590Z</time>
      </trkpt>
      <trkpt lat="64.47475" lon="21.03924">
        <ele>74.474164</ele>
        <time>2020-09-28T12:13:41.581Z</time>
      </trkpt>
      <trkpt lat="64.47467" lon="21.03906">
        <ele>74.472395</ele>
        <time>2020-09-28T12:13:44.577Z</time>
      </trkpt>
      <trkpt lat="64.47459" lon="21.03885">
        <ele>74.470449</ele>
        <time>2020-09-28T12:13:47.586Z</time>
      </trkpt>
      <trkpt lat="64.47449" lon="21.03865">
        <ele>74.468346</ele>
        <time>2020-09-28T12:13:50.582Z</time>
      </trkpt>
      <trkpt lat="64.47442" lon="21.03851">
        <ele>74.466837</ele>
        <time>2020-09-28T12:13:52.593Z</time>
      </trkpt>
      <trkpt lat="64.47435" lon="21.03835">
        <ele>74.465289</ele>
        <time>2020-09-28T12:13:54.601Z</time>
      </trkpt>
      <trkpt lat="64.47428" lon="21.0382">
        <ele>74.463726</ele>
        <time>2020-09-28T12:13:56.621Z</time>
      </trkpt>
      <trkpt lat="64.47421" lon="21.03806">
        <ele>74.462156</ele>
        <time>2020-09-28T12:13:58.574Z</time>
      </trkpt>
      <trkpt lat="64.47413" lon="21.03791">
        <ele>74.460587</ele>
        <time>2020-09-28T12:14:00.587Z</time>
      </trkpt>
      <trkpt lat="64.47406" lon="21.03777">
        <ele>74.45912</ele>
        <time>2020-09-28T12:14:02.601Z</time>
      </trkpt>
      <trkpt lat="64.47399" lon="21.03762">
        <ele>74.457591</ele>
        <time>2020-09-28T12:14:04.607Z</time>
      </trkpt>
      <trkpt lat="64.47392" lon="21.03749">
        <ele>74.456116</ele>
        <time>2020-09-28T12:14:06.611Z</time>
      </trkpt>
      <trkpt lat="64.47382" lon="21.03729">
        <ele>74.45396</ele>
        <time>2020-09-28T12:14:09.602Z</time>
      </trkpt>
      <trkpt lat="64.47372" lon="21.0371">
        <ele>74.427594</ele>
        <time>2020-09-28T12:14:12.597Z</time>
      </trkpt>
      <trkpt lat="64.47363" lon="21.03693">
        <ele>74.334785</ele>
        <time>2020-09-28T12:14:15.607Z</time>
      </trkpt>
      <trkpt lat="64.47355" lon="21.03679">
        <ele>74.253314</ele>
        <time>2020-09-28T12:14:18.618Z</time>
      </trkpt>
      <trkpt lat="64.47346" lon="21.03663">
        <ele>74.164278</ele>
        <time>2020-09-28T12:14:22.602Z</time>
      </trkpt>
      <trkpt lat="64.47337" lon="21.03657">
        <ele>74.091797</ele>
        <time>2020-09-28T12:14:26.603Z</time>
      </trkpt>
      <trkpt lat="64.47328" lon="21.03663">
        <ele>74.016743</ele>
        <time>2020-09-28T12:14:30.597Z</time>
      </trkpt>
      <trkpt lat="64.47321" lon="21.03677">
        <ele>73.940894</ele>
        <time>2020-09-28T12:14:34.613Z</time>
      </trkpt>
      <trkpt lat="64.47314" lon="21.03689">
        <ele>73.86946</ele>
        <time>2020-09-28T12:14:38.590Z</time>
      </trkpt>
      <trkpt lat="64.47321" lon="21.03676">
        <ele>73.793879</ele>
        <time>2020-09-28T12:36:30.218Z</time>
      </trkpt>
      <trkpt lat="64.47328" lon="21.03661">
        <ele>73.717776</ele>
        <time>2020-09-28T12:36:34.191Z</time>
      </trkpt>
      <trkpt lat="64.4733" lon="21.03635">
        <ele>73.628977</ele>
        <time>2020-09-28T12:36:38.197Z</time>
      </trkpt>
      <trkpt lat="64.47324" lon="21.03617">
        <ele>73.549526</ele>
        <time>2020-09-28T12:36:42.209Z</time>
      </trkpt>
      <trkpt lat="64.47318" lon="21.03601">
        <ele>73.474819</ele>
        <time>2020-09-28T12:36:46.196Z</time>
      </trkpt>
      <trkpt lat="64.4731" lon="21.03588">
        <ele>73.401547</ele>
        <time>2020-09-28T12:36:50.189Z</time>
      </trkpt>
      <trkpt lat="64.47303" lon="21.03574">
        <ele>73.326602</ele>
        <time>2020-09-28T12:36:54.204Z</time>
      </trkpt>
      <trkpt lat="64.47296" lon="21.03558">
        <ele>73.247453</ele>
        <time>2020-09-28T12:36:58.219Z</time>
      </trkpt>
      <trkpt lat="64.47288" lon="21.03543">
        <ele>73.165555</ele>
        <time>2020-09-28T12:37:02.212Z</time>
      </trkpt>
      <trkpt lat="64.4728" lon="21.03528">
        <ele>73.083872</ele>
        <time>2020-09-28T12:37:06.207Z</time>
      </trkpt>
      <trkpt lat="64.47273" lon="21.03514">
        <ele>73.06102</ele>
        <time>2020-09-28T12:37:10.190Z</time>
      </trkpt>
      <trkpt lat="64.47265" lon="21.03498">
        <ele>73.315832</ele>
        <time>2020-09-28T12:37:14.206Z</time>
      </trkpt>
      <trkpt lat="64.47258" lon="21.03481">
        <ele>73.582771</ele>
        <time>2020-09-28T12:37:18.209Z</time>
      </trkpt>
      <trkpt lat="64.47249" lon="21.03463">
        <ele>73.878925</ele>
        <time>2020-09-28T12:37:22.208Z</time>
      </trkpt>
      <trkpt lat="64.47242" lon="21.03449">
        <ele>74.115105</ele>
        <time>2020-09-28T12:37:25.202Z</time>
      </trkpt>
      <trkpt lat="64.47233" lon="21.0343">
        <ele>74.44266</ele>
        <time>2020-09-28T12:37:28.206Z</time>
      </trkpt>
      <trkpt lat="64.47225" lon="21.03415">
        <ele>74.697003</ele>
        <time>2020-09-28T12:37:30.192Z</time>
      </trkpt>
      <trkpt lat="64.47217" lon="21.03401">
        <ele>74.957912</ele>
        <time>2020-09-28T12:37:32.216Z</time>
      </trkpt>
      <trkpt lat="64.47209" lon="21.03386">
        <ele>75.22152</ele>
        <time>2020-09-28T12:37:34.240Z</time>
      </trkpt>
      <trkpt lat="64.47201" lon="21.03372">
        <ele>75.470275</ele>
        <time>2020-09-28T12:37:36.216Z</time>
      </trkpt>
      <trkpt lat="64.47194" lon="21.03358">
        <ele>75.715178</ele>
        <time>2020-09-28T12:37:38.223Z</time>
      </trkpt>
      <trkpt lat="64.47184" lon="21.03338">
        <ele>76.050947</ele>
        <time>2020-09-28T12:37:41.203Z</time>
      </trkpt>
      <trkpt lat="64.47175" lon="21.03319">
        <ele>76.36425</ele>
        <time>2020-09-28T12:37:44.197Z</time>
      </trkpt>
      <trkpt lat="64.47167" lon="21.03303">
        <ele>76.633059</ele>
        <time>2020-09-28T12:37:47.209Z</time>
      </trkpt>
      <trkpt lat="64.47158" lon="21.03287">
        <ele>76.918419</ele>
        <time>2020-09-28T12:37:51.230Z</time>
      </trkpt>
      <trkpt lat="64.4715" lon="21.03272">
        <ele>77.18541</ele>
        <time>2020-09-28T12:37:55.206Z</time>
      </trkpt>
      <trkpt lat="64.47143" lon="21.03258">
        <ele>77.4301</ele>
        <time>2020-09-28T12:37:59.215Z</time>
      </trkpt>
      <trkpt lat="64.47136" lon="21.03242">
        <ele>77.773153</ele>
        <time>2020-09-28T12:38:03.191Z</time>
      </trkpt>
      <trkpt lat="64.47129" lon="21.03227">
        <ele>78.485925</ele>
        <time>2020-09-28T12:38:07.223Z</time>
      </trkpt>
      <trkpt lat="64.47121" lon="21.03213">
        <ele>79.185912</ele>
        <time>2020-09-28T12:38:11.190Z</time>
      </trkpt>
      <trkpt lat="64.47114" lon="21.032">
        <ele>79.847597</ele>
        <time>2020-09-28T12:38:15.220Z</time>
      </trkpt>
      <trkpt lat="64.47104" lon="21.03191">
        <ele>80.645929</ele>
        <time>2020-09-28T12:38:20.201Z</time>
      </trkpt>
      <trkpt lat="64.47094" lon="21.03199">
        <ele>81.43642</ele>
        <time>2020-09-28T12:38:25.217Z</time>
      </trkpt>
      <trkpt lat="64.47085" lon="21.03213">
        <ele>82.194316</ele>
        <time>2020-09-28T12:38:30.202Z</time>
      </trkpt>
      <trkpt lat="64.47077" lon="21.03229">
        <ele>82.975734</ele>
        <time>2020-09-28T12:38:35.196Z</time>
      </trkpt>
      <trkpt lat="64.4707" lon="21.03244">
        <ele>83.704485</ele>
        <time>2020-09-28T12:38:40.220Z</time>
      </trkpt>
      <trkpt lat="64.47061" lon="21.03259">
        <ele>84.491347</ele>
        <time>2020-09-28T12:38:45.218Z</time>
      </trkpt>
      <trkpt lat="64.47054" lon="21.03272">
        <ele>85.170671</ele>
        <time>2020-09-28T12:38:49.206Z</time>
      </trkpt>
      <trkpt lat="64.47045" lon="21.03288">
        <ele>85.991315</ele>
        <time>2020-09-28T12:38:54.198Z</time>
      </trkpt>
      <trkpt lat="64.47036" lon="21.03304">
        <ele>86.797396</ele>
        <time>2020-09-28T12:38:58.250Z</time>
      </trkpt>
      <trkpt lat="64.47028" lon="21.03321">
        <ele>87.639459</ele>
        <time>2020-09-28T12:39:02.223Z</time>
      </trkpt>
      <trkpt lat="64.47019" lon="21.03337">
        <ele>88.432033</ele>
        <time>2020-09-28T12:39:06.204Z</time>
      </trkpt>
      <trkpt lat="64.47011" lon="21.03352">
        <ele>89.207437</ele>
        <time>2020-09-28T12:39:10.194Z</time>
      </trkpt>
      <trkpt lat="64.47002" lon="21.03369">
        <ele>90.028774</ele>
        <time>2020-09-28T12:39:14.196Z</time>
      </trkpt>
      <trkpt lat="64.46996" lon="21.03385">
        <ele>90.721008</ele>
        <time>2020-09-28T12:39:17.202Z</time>
      </trkpt>
      <trkpt lat="64.46989" lon="21.034">
        <ele>90.407548</ele>
        <time>2020-09-28T12:39:20.233Z</time>
      </trkpt>
      <trkpt lat="64.46981" lon="21.03417">
        <ele>89.799944</ele>
        <time>2020-09-28T12:39:24.208Z</time>
      </trkpt>
      <trkpt lat="64.46972" lon="21.03435">
        <ele>89.182454</ele>
        <time>2020-09-28T12:39:28.202Z</time>
      </trkpt>
      <trkpt lat="64.46963" lon="21.03454">
        <ele>88.547559</ele>
        <time>2020-09-28T12:39:32.212Z</time>
      </trkpt>
      <trkpt lat="64.46955" lon="21.0347">
        <ele>87.99648</ele>
        <time>2020-09-28T12:39:35.228Z</time>
      </trkpt>
      <trkpt lat="64.46946" lon="21.03488">
        <ele>87.388405</ele>
        <time>2020-09-28T12:39:38.211Z</time>
      </trkpt>
      <trkpt lat="64.46937" lon="21.03503">
        <ele>86.77808</ele>
        <time>2020-09-28T12:39:41.212Z</time>
      </trkpt>
      <trkpt lat="64.46926" lon="21.03518">
        <ele>86.135737</ele>
        <time>2020-09-28T12:39:44.204Z</time>
      </trkpt>
      <trkpt lat="64.46914" lon="21.03533">
        <ele>85.40231</ele>
        <time>2020-09-28T12:39:47.195Z</time>
      </trkpt>
      <trkpt lat="64.46904" lon="21.03544">
        <ele>84.8312</ele>
        <time>2020-09-28T12:39:49.199Z</time>
      </trkpt>
      <trkpt lat="64.46892" lon="21.03555">
        <ele>84.174345</ele>
        <time>2020-09-28T12:39:51.194Z</time>
      </trkpt>
      <trkpt lat="64.4688" lon="21.03565">
        <ele>83.497794</ele>
        <time>2020-09-28T12:39:53.236Z</time>
      </trkpt>
      <trkpt lat="64.46868" lon="21.03574">
        <ele>82.80155</ele>
        <time>2020-09-28T12:39:55.207Z</time>
      </trkpt>
      <trkpt lat="64.46855" lon="21.03583">
        <ele>82.097433</ele>
        <time>2020-09-28T12:39:57.198Z</time>
      </trkpt>
      <trkpt lat="64.46843" lon="21.03589">
        <ele>81.432943</ele>
        <time>2020-09-28T12:39:59.220Z</time>
      </trkpt>
      <trkpt lat="64.46831" lon="21.03595">
        <ele>81.248567</ele>
        <time>2020-09-28T12:40:01.240Z</time>
      </trkpt>
      <trkpt lat="64.46821" lon="21.03599">
        <ele>81.13388</ele>
        <time>2020-09-28T12:40:03.241Z</time>
      </trkpt>
      <trkpt lat="64.46812" lon="21.03603">
        <ele>81.031211</ele>
        <time>2020-09-28T12:40:05.201Z</time>
      </trkpt>
      <trkpt lat="64.46799" lon="21.03608">
        <ele>80.881118</ele>
        <time>2020-09-28T12:40:08.193Z</time>
      </trkpt>
      <trkpt lat="64.46787" lon="21.03613">
        <ele>80.740734</ele>
        <time>2020-09-28T12:40:11.201Z</time>
      </trkpt>
      <trkpt lat="64.46775" lon="21.03619">
        <ele>80.605718</ele>
        <time>2020-09-28T12:40:14.208Z</time>
      </trkpt>
      <trkpt lat="64.46763" lon="21.03625">
        <ele>80.468833</ele>
        <time>2020-09-28T12:40:17.193Z</time>
      </trkpt>
      <trkpt lat="64.46751" lon="21.03631">
        <ele>80.332388</ele>
        <time>2020-09-28T12:40:20.208Z</time>
      </trkpt>
      <trkpt lat="64.4674" lon="21.03636">
        <ele>80.198157</ele>
        <time>2020-09-28T12:40:23.206Z</time>
      </trkpt>
      <trkpt lat="64.46728" lon="21.03641">
        <ele>80.069642</ele>
        <time>2020-09-28T12:40:26.208Z</time>
      </trkpt>
      <trkpt lat="64.46718" lon="21.03646">
        <ele>79.945052</ele>
        <time>2020-09-28T12:40:29.211Z</time>
      </trkpt>
      <trkpt lat="64.46707" lon="21.03652">
        <ele>79.820462</ele>
        <time>2020-09-28T12:40:32.213Z</time>
      </trkpt>
      <trkpt lat="64.46696" lon="21.03657">
        <ele>79.699968</ele>
        <time>2020-09-28T12:40:35.207Z</time>
      </trkpt>
      <trkpt lat="64.46686" lon="21.03661">
        <ele>79.578367</ele>
        <time>2020-09-28T12:40:38.206Z</time>
      </trkpt>
      <trkpt lat="64.46675" lon="21.03665">
        <ele>79.459737</ele>
        <time>2020-09-28T12:40:41.207Z</time>
      </trkpt>
      <trkpt lat="64.46665" lon="21.0367">
        <ele>79.341164</ele>
        <time>2020-09-28T12:40:44.200Z</time>
      </trkpt>
      <trkpt lat="64.46656" lon="21.03674">
        <ele>80.53459</ele>
        <time>2020-09-28T12:40:47.203Z</time>
      </trkpt>
      <trkpt lat="64.46646" lon="21.03678">
        <ele>81.911392</ele>
        <time>2020-09-28T12:40:51.205Z</time>
      </trkpt>
      <trkpt lat="64.46637" lon="21.03683">
        <ele>83.231999</ele>
        <time>2020-09-28T12:40:55.222Z</time>
      </trkpt>
      <trkpt lat="64.46628" lon="21.03688">
        <ele>84.489829</ele>
        <time>2020-09-28T12:40:59.215Z</time>
      </trkpt>
      <trkpt lat="64.46618" lon="21.03695">
        <ele>85.992102</ele>
        <time>2020-09-28T12:41:04.200Z</time>
      </trkpt>
      <trkpt lat="64.46607" lon="21.03701">
        <ele>87.425572</ele>
        <time>2020-09-28T12:41:09.196Z</time>
      </trkpt>
      <trkpt lat="64.46598" lon="21.03708">
        <ele>88.761582</ele>
        <time>2020-09-28T12:41:14.217Z</time>
      </trkpt>
      <trkpt lat="64.46589" lon="21.03716">
        <ele>90.084636</ele>
        <time>2020-09-28T12:41:19.222Z</time>
      </trkpt>
      <trkpt lat="64.4658" lon="21.03725">
        <ele>91.431675</ele>
        <time>2020-09-28T12:41:24.219Z</time>
      </trkpt>
      <trkpt lat="64.46571" lon="21.03736">
        <ele>92.791137</ele>
        <time>2020-09-28T12:41:29.208Z</time>
      </trkpt>
      <trkpt lat="64.46562" lon="21.03746">
        <ele>94.190182</ele>
        <time>2020-09-28T12:41:34.213Z</time>
      </trkpt>
      <trkpt lat="64.46553" lon="21.03754">
        <ele>95.506286</ele>
        <time>2020-09-28T12:41:38.206Z</time>
      </trkpt>
      <trkpt lat="64.46545" lon="21.03763">
        <ele>96.813278</ele>
        <time>2020-09-28T12:41:42.217Z</time>
      </trkpt>
      <trkpt lat="64.46536" lon="21.03775">
        <ele>98.231656</ele>
        <time>2020-09-28T12:41:47.264Z</time>
      </trkpt>
      <trkpt lat="64.46527" lon="21.03787">
        <ele>99.673727</ele>
        <time>2020-09-28T12:41:52.201Z</time>
      </trkpt>
      <trkpt lat="64.46518" lon="21.03798">
        <ele>101.036931</ele>
        <time>2020-09-28T12:41:57.194Z</time>
      </trkpt>
      <trkpt lat="64.46508" lon="21.03811">
        <ele>102.562092</ele>
        <time>2020-09-28T12:42:02.216Z</time>
      </trkpt>
      <trkpt lat="64.46499" lon="21.03821">
        <ele>103.929392</ele>
        <time>2020-09-28T12:42:06.200Z</time>
      </trkpt>
      <trkpt lat="64.46491" lon="21.03832">
        <ele>104.073723</ele>
        <time>2020-09-28T12:42:10.203Z</time>
      </trkpt>
      <trkpt lat="64.46483" lon="21.03843">
        <ele>104.13509</ele>
        <time>2020-09-28T12:42:14.203Z</time>
      </trkpt>
      <trkpt lat="64.46475" lon="21.03854">
        <ele>104.198051</ele>
        <time>2020-09-28T12:42:18.194Z</time>
      </trkpt>
      <trkpt lat="64.46467" lon="21.03865">
        <ele>104.261862</ele>
        <time>2020-09-28T12:42:22.205Z</time>
      </trkpt>
      <trkpt lat="64.46459" lon="21.03877">
        <ele>104.324973</ele>
        <time>2020-09-28T12:42:26.209Z</time>
      </trkpt>
      <trkpt lat="64.4645" lon="21.03889">
        <ele>104.390079</ele>
        <time>2020-09-28T12:42:30.199Z</time>
      </trkpt>
      <trkpt lat="64.46443" lon="21.039">
        <ele>104.45095</ele>
        <time>2020-09-28T12:42:33.195Z</time>
      </trkpt>
      <trkpt lat="64.46435" lon="21.03912">
        <ele>104.511511</ele>
        <time>2020-09-28T12:42:36.229Z</time>
      </trkpt>
      <trkpt lat="64.46426" lon="21.03927">
        <ele>104.58408</ele>
        <time>2020-09-28T12:42:39.189Z</time>
      </trkpt>
      <trkpt lat="64.46418" lon="21.03944">
        <ele>104.656421</ele>
        <time>2020-09-28T12:42:42.244Z</time>
      </trkpt>
      <trkpt lat="64.46409" lon="21.03962">
        <ele>104.738259</ele>
        <time>2020-09-28T12:42:45.201Z</time>
      </trkpt>
      <trkpt lat="64.46401" lon="21.03976">
        <ele>104.802596</ele>
        <time>2020-09-28T12:42:47.230Z</time>
      </trkpt>
      <trkpt lat="64.46393" lon="21.03991">
        <ele>104.870081</ele>
        <time>2020-09-28T12:42:49.207Z</time>
      </trkpt>
      <trkpt lat="64.46385" lon="21.04005">
        <ele>104.937754</ele>
        <time>2020-09-28T12:42:51.200Z</time>
      </trkpt>
      <trkpt lat="64.46377" lon="21.0402">
        <ele>105.003035</ele>
        <time>2020-09-28T12:42:53.214Z</time>
      </trkpt>
      <trkpt lat="64.4637" lon="21.04033">
        <ele>105.06325</ele>
        <time>2020-09-28T12:42:55.197Z</time>
      </trkpt>
      <trkpt lat="64.46361" lon="21.04052">
        <ele>105.145723</ele>
        <time>2020-09-28T12:42:58.221Z</time>
      </trkpt>
      <trkpt lat="64.46352" lon="21.04071">
        <ele>105.031403</ele>
        <time>2020-09-28T12:43:01.222Z</time>
      </trkpt>
      <trkpt lat="64.46343" lon="21.04088">
        <ele>104.179957</ele>
        <time>2020-09-28T12:43:04.234Z</time>
      </trkpt>
      <trkpt lat="64.46336" lon="21.04105">
        <ele>103.412178</ele>
        <time>2020-09-28T12:43:07.212Z</time>
      </trkpt>
      <trkpt lat="64.46327" lon="21.04118">
        <ele>102.607115</ele>
        <time>2020-09-28T12:43:10.206Z</time>
      </trkpt>
      <trkpt lat="64.46316" lon="21.04117">
        <ele>101.821616</ele>
        <time>2020-09-28T12:43:13.202Z</time>
      </trkpt>
      <trkpt lat="64.46308" lon="21.04106">
        <ele>101.081129</ele>
        <time>2020-09-28T12:43:16.248Z</time>
      </trkpt>
      <trkpt lat="64.46299" lon="21.04091">
        <ele>100.278646</ele>
        <time>2020-09-28T12:43:19.224Z</time>
      </trkpt>
      <trkpt lat="64.4629" lon="21.04074">
        <ele>99.399621</ele>
        <time>2020-09-28T12:43:22.199Z</time>
      </trkpt>
      <trkpt lat="64.46282" lon="21.04062">
        <ele>98.723009</ele>
        <time>2020-09-28T12:43:24.204Z</time>
      </trkpt>
      <trkpt lat="64.46275" lon="21.0405">
        <ele>98.008346</ele>
        <time>2020-09-28T12:43:26.216Z</time>
      </trkpt>
      <trkpt lat="64.46266" lon="21.04037">
        <ele>97.242972</ele>
        <time>2020-09-28T12:43:28.212Z</time>
      </trkpt>
      <trkpt lat="64.46257" lon="21.04024">
        <ele>96.444276</ele>
        <time>2020-09-28T12:43:30.206Z</time>
      </trkpt>
      <trkpt lat="64.46248" lon="21.0401">
        <ele>95.670035</ele>
        <time>2020-09-28T12:43:32.201Z</time>
      </trkpt>
      <trkpt lat="64.46239" lon="21.03996">
        <ele>94.816602</ele>
        <time>2020-09-28T12:43:34.213Z</time>
      </trkpt>
      <trkpt lat="64.46228" lon="21.0398">
        <ele>93.880165</ele>
        <time>2020-09-28T12:43:36.216Z</time>
      </trkpt>
      <trkpt lat="64.46216" lon="21.03965">
        <ele>92.869549</ele>
        <time>2020-09-28T12:43:38.263Z</time>
      </trkpt>
      <trkpt lat="64.46205" lon="21.03951">
        <ele>91.882715</ele>
        <time>2020-09-28T12:43:40.235Z</time>
      </trkpt>
      <trkpt lat="64.46193" lon="21.03937">
        <ele>91.211655</ele>
        <time>2020-09-28T12:43:42.241Z</time>
      </trkpt>
      <trkpt lat="64.46182" lon="21.03922">
        <ele>90.60776</ele>
        <time>2020-09-28T12:43:44.237Z</time>
      </trkpt>
      <trkpt lat="64.46171" lon="21.03908">
        <ele>90.005936</ele>
        <time>2020-09-28T12:43:46.210Z</time>
      </trkpt>
      <trkpt lat="64.46161" lon="21.03894">
        <ele>89.41984</ele>
        <time>2020-09-28T12:43:48.207Z</time>
      </trkpt>
      <trkpt lat="64.46151" lon="21.0388">
        <ele>88.859679</ele>
        <time>2020-09-28T12:43:50.211Z</time>
      </trkpt>
      <trkpt lat="64.46141" lon="21.03866">
        <ele>88.293442</ele>
        <time>2020-09-28T12:43:52.206Z</time>
      </trkpt>
      <trkpt lat="64.46131" lon="21.03851">
        <ele>87.718386</ele>
        <time>2020-09-28T12:43:54.192Z</time>
      </trkpt>
      <trkpt lat="64.46122" lon="21.03836">
        <ele>87.164773</ele>
        <time>2020-09-28T12:43:56.251Z</time>
      </trkpt>
      <trkpt lat="64.46113" lon="21.03823">
        <ele>86.643351</ele>
        <time>2020-09-28T12:43:58.211Z</time>
      </trkpt>
      <trkpt lat="64.46104" lon="21.03809">
        <ele>86.144342</ele>
        <time>2020-09-28T12:44:00.196Z</time>
      </trkpt>
      <trkpt lat="64.46097" lon="21.03796">
        <ele>85.682836</ele>
        <time>2020-09-28T12:44:02.227Z</time>
      </trkpt>
      <trkpt lat="64.46086" lon="21.03776">
        <ele>85.039622</ele>
        <time>2020-09-28T12:44:05.230Z</time>
      </trkpt>
      <trkpt lat="64.46077" lon="21.03759">
        <ele>84.448997</ele>
        <time>2020-09-28T12:44:08.207Z</time>
      </trkpt>
      <trkpt lat="64.46067" lon="21.03741">
        <ele>83.85565</ele>
        <time>2020-09-28T12:44:11.208Z</time>
      </trkpt>
      <trkpt lat="64.4606" lon="21.03727">
        <ele>83.403453</ele>
        <time>2020-09-28T12:44:13.220Z</time>
      </trkpt>
      <trkpt lat="64.46053" lon="21.03711">
        <ele>82.948043</ele>
        <time>2020-09-28T12:44:15.230Z</time>
      </trkpt>
      <trkpt lat="64.46045" lon="21.03697">
        <ele>82.558969</ele>
        <time>2020-09-28T12:44:17.203Z</time>
      </trkpt>
      <trkpt lat="64.46037" lon="21.03682">
        <ele>82.152423</ele>
        <time>2020-09-28T12:44:19.213Z</time>
      </trkpt>
      <trkpt lat="64.46029" lon="21.03667">
        <ele>81.737571</ele>
        <time>2020-09-28T12:44:21.192Z</time>
      </trkpt>
      <trkpt lat="64.46021" lon="21.03651">
        <ele>81.314364</ele>
        <time>2020-09-28T12:44:23.214Z</time>
      </trkpt>
      <trkpt lat="64.46012" lon="21.03635">
        <ele>80.876261</ele>
        <time>2020-09-28T12:44:25.236Z</time>
      </trkpt>
      <trkpt lat="64.46003" lon="21.03617">
        <ele>80.412923</ele>
        <time>2020-09-28T12:44:27.210Z</time>
      </trkpt>
      <trkpt lat="64.45994" lon="21.03598">
        <ele>79.932854</ele>
        <time>2020-09-28T12:44:29.233Z</time>
      </trkpt>
      <trkpt lat="64.45984" lon="21.0358">
        <ele>79.43267</ele>
        <time>2020-09-28T12:44:31.206Z</time>
      </trkpt>
      <trkpt lat="64.45974" lon="21.03561">
        <ele>78.916718</ele>
        <time>2020-09-28T12:44:33.220Z</time>
      </trkpt>
      <trkpt lat="64.45964" lon="21.0354">
        <ele>78.381601</ele>
        <time>2020-09-28T12:44:35.232Z</time>
      </trkpt>
      <trkpt lat="64.45953" lon="21.0352">
        <ele>77.830294</ele>
        <time>2020-09-28T12:44:37.304Z</time>
      </trkpt>
      <trkpt lat="64.45942" lon="21.03497">
        <ele>77.253526</ele>
        <time>2020-09-28T12:44:39.188Z</time>
      </trkpt>
      <trkpt lat="64.4593" lon="21.03474">
        <ele>76.651833</ele>
        <time>2020-09-28T12:44:41.218Z</time>
      </trkpt>
      <trkpt lat="64.45918" lon="21.03452">
        <ele>76.049714</ele>
        <time>2020-09-28T12:44:43.202Z</time>
      </trkpt>
      <trkpt lat="64.45906" lon="21.0343">
        <ele>75.896708</ele>
        <time>2020-09-28T12:44:45.214Z</time>
      </trkpt>
      <trkpt lat="64.45895" lon="21.03408">
        <ele>75.827422</ele>
        <time>2020-09-28T12:44:47.189Z</time>
      </trkpt>
      <trkpt lat="64.45884" lon="21.03387">
        <ele>75.763127</ele>
        <time>2020-09-28T12:44:49.201Z</time>
      </trkpt>
      <trkpt lat="64.45874" lon="21.03368">
        <ele>75.703941</ele>
        <time>2020-09-28T12:44:51.237Z</time>
      </trkpt>
      <trkpt lat="64.45866" lon="21.0335">
        <ele>75.650838</ele>
        <time>2020-09-28T12:44:53.193Z</time>
      </trkpt>
      <trkpt lat="64.45858" lon="21.03335">
        <ele>75.604511</ele>
        <time>2020-09-28T12:44:55.209Z</time>
      </trkpt>
      <trkpt lat="64.45848" lon="21.03316">
        <ele>75.5451</ele>
        <time>2020-09-28T12:44:58.231Z</time>
      </trkpt>
      <trkpt lat="64.45839" lon="21.03301">
        <ele>75.49407</ele>
        <time>2020-09-28T12:45:01.201Z</time>
      </trkpt>
      <trkpt lat="64.45832" lon="21.03284">
        <ele>75.44664</ele>
        <time>2020-09-28T12:45:04.202Z</time>
      </trkpt>
      <trkpt lat="64.45824" lon="21.03268">
        <ele>75.397015</ele>
        <time>2020-09-28T12:45:07.198Z</time>
      </trkpt>
      <trkpt lat="64.45815" lon="21.03253">
        <ele>75.347687</ele>
        <time>2020-09-28T12:45:10.197Z</time>
      </trkpt>
      <trkpt lat="64.45807" lon="21.03237">
        <ele>75.298952</ele>
        <time>2020-09-28T12:45:13.205Z</time>
      </trkpt>
      <trkpt lat="64.45799" lon="21.03222">
        <ele>75.251682</ele>
        <time>2020-09-28T12:45:16.209Z</time>
      </trkpt>
      <trkpt lat="64.45791" lon="21.03208">
        <ele>75.206595</ele>
        <time>2020-09-28T12:45:19.205Z</time>
      </trkpt>
      <trkpt lat="64.45783" lon="21.03196">
        <ele>75.161109</ele>
        <time>2020-09-28T12:45:22.218Z</time>
      </trkpt>
      <trkpt lat="64.45774" lon="21.03183">
        <ele>75.370931</ele>
        <time>2020-09-28T12:45:25.219Z</time>
      </trkpt>
      <trkpt lat="64.45766" lon="21.0317">
        <ele>76.187242</ele>
        <time>2020-09-28T12:45:28.217Z</time>
      </trkpt>
      <trkpt lat="64.45757" lon="21.03156">
        <ele>77.003554</ele>
        <time>2020-09-28T12:45:31.211Z</time>
      </trkpt>
      <trkpt lat="64.45749" lon="21.03142">
        <ele>77.851338</ele>
        <time>2020-09-28T12:45:34.230Z</time>
      </trkpt>
      <trkpt lat="64.4574" lon="21.03126">
        <ele>78.717844</ele>
        <time>2020-09-28T12:45:37.209Z</time>
      </trkpt>
      <trkpt lat="64.45731" lon="21.03112">
        <ele>79.602481</ele>
        <time>2020-09-28T12:45:40.204Z</time>
      </trkpt>
      <trkpt lat="64.45722" lon="21.03096">
        <ele>80.510778</ele>
        <time>2020-09-28T12:45:43.239Z</time>
      </trkpt>
      <trkpt lat="64.45711" lon="21.03082">
        <ele>81.516356</ele>
        <time>2020-09-28T12:45:46.209Z</time>
      </trkpt>
      <trkpt lat="64.457" lon="21.0307">
        <ele>82.457024</ele>
        <time>2020-09-28T12:45:49.207Z</time>
      </trkpt>
      <trkpt lat="64.4569" lon="21.03061">
        <ele>83.311353</ele>
        <time>2020-09-28T12:45:52.209Z</time>
      </trkpt>
      <trkpt lat="64.4568" lon="21.03052">
        <ele>84.214142</ele>
        <time>2020-09-28T12:45:55.206Z</time>
      </trkpt>
      <trkpt lat="64.4567" lon="21.03041">
        <ele>85.115633</ele>
        <time>2020-09-28T12:45:58.201Z</time>
      </trkpt>
      <trkpt lat="64.4566" lon="21.0303">
        <ele>85.966403</ele>
        <time>2020-09-28T12:46:01.212Z</time>
      </trkpt>
      <trkpt lat="64.45648" lon="21.0302">
        <ele>86.949865</ele>
        <time>2020-09-28T12:46:04.211Z</time>
      </trkpt>
      <trkpt lat="64.45637" lon="21.03009">
        <ele>87.975683</ele>
        <time>2020-09-28T12:46:07.214Z</time>
      </trkpt>
      <trkpt lat="64.45628" lon="21.03002">
        <ele>88.691002</ele>
        <time>2020-09-28T12:46:09.225Z</time>
      </trkpt>
      <trkpt lat="64.45616" lon="21.02992">
        <ele>89.609639</ele>
        <time>2020-09-28T12:46:12.203Z</time>
      </trkpt>
      <trkpt lat="64.45603" lon="21.02979">
        <ele>90.126679</ele>
        <time>2020-09-28T12:46:15.221Z</time>
      </trkpt>
      <trkpt lat="64.45594" lon="21.02971">
        <ele>90.487892</ele>
        <time>2020-09-28T12:46:17.220Z</time>
      </trkpt>
      <trkpt lat="64.45582" lon="21.0296">
        <ele>90.979031</ele>
        <time>2020-09-28T12:46:20.209Z</time>
      </trkpt>
      <trkpt lat="64.45569" lon="21.02951">
        <ele>91.473122</ele>
        <time>2020-09-28T12:46:23.201Z</time>
      </trkpt>
      <trkpt lat="64.45557" lon="21.02943">
        <ele>91.967173</ele>
        <time>2020-09-28T12:46:26.210Z</time>
      </trkpt>
      <trkpt lat="64.45544" lon="21.02933">
        <ele>92.453189</ele>
        <time>2020-09-28T12:46:29.214Z</time>
      </trkpt>
      <trkpt lat="64.45536" lon="21.02925">
        <ele>92.796397</ele>
        <time>2020-09-28T12:46:31.220Z</time>
      </trkpt>
      <trkpt lat="64.45527" lon="21.02917">
        <ele>93.143942</ele>
        <time>2020-09-28T12:46:33.201Z</time>
      </trkpt>
      <trkpt lat="64.45518" lon="21.0291">
        <ele>93.507494</ele>
        <time>2020-09-28T12:46:35.236Z</time>
      </trkpt>
      <trkpt lat="64.45509" lon="21.02904">
        <ele>93.858166</ele>
        <time>2020-09-28T12:46:37.221Z</time>
      </trkpt>
      <trkpt lat="64.455" lon="21.02896">
        <ele>94.22612</ele>
        <time>2020-09-28T12:46:39.206Z</time>
      </trkpt>
      <trkpt lat="64.45491" lon="21.02888">
        <ele>94.594344</ele>
        <time>2020-09-28T12:46:41.197Z</time>
      </trkpt>
      <trkpt lat="64.45481" lon="21.02881">
        <ele>94.960348</ele>
        <time>2020-09-28T12:46:43.209Z</time>
      </trkpt>
      <trkpt lat="64.45472" lon="21.02874">
        <ele>95.320685</ele>
        <time>2020-09-28T12:46:45.214Z</time>
      </trkpt>
      <trkpt lat="64.45463" lon="21.02866">
        <ele>95.679638</ele>
        <time>2020-09-28T12:46:47.206Z</time>
      </trkpt>
      <trkpt lat="64.45454" lon="21.02857">
        <ele>96.036893</ele>
        <time>2020-09-28T12:46:49.215Z</time>
      </trkpt>
      <trkpt lat="64.45444" lon="21.0285">
        <ele>96.144003</ele>
        <time>2020-09-28T12:46:51.211Z</time>
      </trkpt>
      <trkpt lat="64.45434" lon="21.02843">
        <ele>95.964696</ele>
        <time>2020-09-28T12:46:53.194Z</time>
      </trkpt>
      <trkpt lat="64.45425" lon="21.02836">
        <ele>95.803276</ele>
        <time>2020-09-28T12:46:55.200Z</time>
      </trkpt>
      <trkpt lat="64.45417" lon="21.0283">
        <ele>95.6472</ele>
        <time>2020-09-28T12:46:57.208Z</time>
      </trkpt>
      <trkpt lat="64.45407" lon="21.02822">
        <ele>95.478589</ele>
        <time>2020-09-28T12:46:59.206Z</time>
      </trkpt>
      <trkpt lat="64.45398" lon="21.02816">
        <ele>95.308551</ele>
        <time>2020-09-28T12:47:01.208Z</time>
      </trkpt>
      <trkpt lat="64.45388" lon="21.02808">
        <ele>95.139259</ele>
        <time>2020-09-28T12:47:03.207Z</time>
      </trkpt>
      <trkpt lat="64.45378" lon="21.028">
        <ele>94.952043</ele>
        <time>2020-09-28T12:47:05.225Z</time>
      </trkpt>
      <trkpt lat="64.45368" lon="21.0279">
        <ele>94.757099</ele>
        <time>2020-09-28T12:47:07.202Z</time>
      </trkpt>
      <trkpt lat="64.45357" lon="21.0278">
        <ele>94.561135</ele>
        <time>2020-09-28T12:47:09.197Z</time>
      </trkpt>
      <trkpt lat="64.45347" lon="21.02771">
        <ele>94.374165</ele>
        <time>2020-09-28T12:47:11.206Z</time>
      </trkpt>
      <trkpt lat="64.45336" lon="21.02764">
        <ele>94.182134</ele>
        <time>2020-09-28T12:47:13.204Z</time>
      </trkpt>
      <trkpt lat="64.45325" lon="21.02756">
        <ele>93.981959</ele>
        <time>2020-09-28T12:47:15.217Z</time>
      </trkpt>
      <trkpt lat="64.45313" lon="21.02747">
        <ele>93.762725</ele>
        <time>2020-09-28T12:47:17.217Z</time>
      </trkpt>
      <trkpt lat="64.453" lon="21.02738">
        <ele>93.534882</ele>
        <time>2020-09-28T12:47:19.209Z</time>
      </trkpt>
      <trkpt lat="64.45287" lon="21.02728">
        <ele>93.302655</ele>
        <time>2020-09-28T12:47:21.239Z</time>
      </trkpt>
      <trkpt lat="64.45274" lon="21.02719">
        <ele>92.94216</ele>
        <time>2020-09-28T12:47:23.200Z</time>
      </trkpt>
      <trkpt lat="64.45263" lon="21.02711">
        <ele>92.407414</ele>
        <time>2020-09-28T12:47:25.242Z</time>
      </trkpt>
      <trkpt lat="64.45252" lon="21.02703">
        <ele>91.887918</ele>
        <time>2020-09-28T12:47:27.214Z</time>
      </trkpt>
      <trkpt lat="64.45242" lon="21.02696">
        <ele>91.408612</ele>
        <time>2020-09-28T12:47:29.215Z</time>
      </trkpt>
      <trkpt lat="64.45232" lon="21.02689">
        <ele>90.953037</ele>
        <time>2020-09-28T12:47:31.204Z</time>
      </trkpt>
      <trkpt lat="64.45223" lon="21.02684">
        <ele>90.502021</ele>
        <time>2020-09-28T12:47:33.236Z</time>
      </trkpt>
      <trkpt lat="64.45213" lon="21.02677">
        <ele>90.070352</ele>
        <time>2020-09-28T12:47:35.224Z</time>
      </trkpt>
      <trkpt lat="64.45201" lon="21.02665">
        <ele>89.468531</ele>
        <time>2020-09-28T12:47:38.213Z</time>
      </trkpt>
      <trkpt lat="64.4519" lon="21.02655">
        <ele>88.906937</ele>
        <time>2020-09-28T12:47:41.217Z</time>
      </trkpt>
      <trkpt lat="64.45181" lon="21.02647">
        <ele>88.483719</ele>
        <time>2020-09-28T12:47:43.200Z</time>
      </trkpt>
      <trkpt lat="64.45171" lon="21.02642">
        <ele>88.048809</ele>
        <time>2020-09-28T12:47:45.215Z</time>
      </trkpt>
      <trkpt lat="64.45162" lon="21.02636">
        <ele>87.600773</ele>
        <time>2020-09-28T12:47:47.211Z</time>
      </trkpt>
      <trkpt lat="64.45152" lon="21.02628">
        <ele>87.111487</ele>
        <time>2020-09-28T12:47:49.242Z</time>
      </trkpt>
      <trkpt lat="64.4514" lon="21.02619">
        <ele>86.563135</ele>
        <time>2020-09-28T12:47:51.248Z</time>
      </trkpt>
      <trkpt lat="64.45128" lon="21.02608">
        <ele>85.9678</ele>
        <time>2020-09-28T12:47:53.249Z</time>
      </trkpt>
      <trkpt lat="64.45116" lon="21.02598">
        <ele>85.399785</ele>
        <time>2020-09-28T12:47:55.224Z</time>
      </trkpt>
      <trkpt lat="64.45104" lon="21.02588">
        <ele>84.785201</ele>
        <time>2020-09-28T12:47:57.222Z</time>
      </trkpt>
      <trkpt lat="64.45092" lon="21.02578">
        <ele>84.127695</ele>
        <time>2020-09-28T12:47:59.205Z</time>
      </trkpt>
      <trkpt lat="64.45081" lon="21.02567">
        <ele>83.521374</ele>
        <time>2020-09-28T12:48:01.219Z</time>
      </trkpt>
      <trkpt lat="64.45071" lon="21.02556">
        <ele>82.910579</ele>
        <time>2020-09-28T12:48:03.240Z</time>
      </trkpt>
      <trkpt lat="64.4506" lon="21.02547">
        <ele>82.306183</ele>
        <time>2020-09-28T12:48:05.220Z</time>
      </trkpt>
      <trkpt lat="64.45049" lon="21.02537">
        <ele>81.714753</ele>
        <time>2020-09-28T12:48:07.212Z</time>
      </trkpt>
      <trkpt lat="64.45038" lon="21.02527">
        <ele>81.092256</ele>
        <time>2020-09-28T12:48:09.200Z</time>
      </trkpt>
      <trkpt lat="64.45026" lon="21.02516">
        <ele>80.413201</ele>
        <time>2020-09-28T12:48:11.213Z</time>
      </trkpt>
      <trkpt lat="64.45013" lon="21.02505">
        <ele>79.675795</ele>
        <time>2020-09-28T12:48:13.202Z</time>
      </trkpt>
      <trkpt lat="64.44999" lon="21.02495">
        <ele>78.921398</ele>
        <time>2020-09-28T12:48:15.237Z</time>
      </trkpt>
      <trkpt lat="64.44986" lon="21.02484">
        <ele>78.179748</ele>
        <time>2020-09-28T12:48:17.215Z</time>
      </trkpt>
      <trkpt lat="64.44972" lon="21.02475">
        <ele>77.465462</ele>
        <time>2020-09-28T12:48:19.230Z</time>
      </trkpt>
      <trkpt lat="64.4496" lon="21.02465">
        <ele>76.756365</ele>
        <time>2020-09-28T12:48:21.210Z</time>
      </trkpt>
      <trkpt lat="64.44946" lon="21.02456">
        <ele>75.994503</ele>
        <time>2020-09-28T12:48:23.230Z</time>
      </trkpt>
      <trkpt lat="64.44932" lon="21.02446">
        <ele>75.486284</ele>
        <time>2020-09-28T12:48:25.212Z</time>
      </trkpt>
      <trkpt lat="64.44919" lon="21.02436">
        <ele>75.207546</ele>
        <time>2020-09-28T12:48:27.209Z</time>
      </trkpt>
      <trkpt lat="64.44908" lon="21.02428">
        <ele>74.963249</ele>
        <time>2020-09-28T12:48:29.203Z</time>
      </trkpt>
      <trkpt lat="64.44898" lon="21.02418">
        <ele>74.736938</ele>
        <time>2020-09-28T12:48:31.284Z</time>
      </trkpt>
      <trkpt lat="64.44888" lon="21.02409">
        <ele>74.516139</ele>
        <time>2020-09-28T12:48:33.201Z</time>
      </trkpt>
      <trkpt lat="64.44879" lon="21.02401">
        <ele>74.30082</ele>
        <time>2020-09-28T12:48:35.203Z</time>
      </trkpt>
      <trkpt lat="64.44868" lon="21.02393">
        <ele>74.073441</ele>
        <time>2020-09-28T12:48:37.205Z</time>
      </trkpt>
      <trkpt lat="64.44857" lon="21.02383">
        <ele>73.819805</ele>
        <time>2020-09-28T12:48:39.192Z</time>
      </trkpt>
      <trkpt lat="64.44844" lon="21.02372">
        <ele>73.534256</ele>
        <time>2020-09-28T12:48:41.216Z</time>
      </trkpt>
      <trkpt lat="64.44831" lon="21.0236">
        <ele>73.234457</ele>
        <time>2020-09-28T12:48:43.208Z</time>
      </trkpt>
      <trkpt lat="64.44817" lon="21.02348">
        <ele>72.932681</ele>
        <time>2020-09-28T12:48:45.211Z</time>
      </trkpt>
      <trkpt lat="64.44804" lon="21.02338">
        <ele>72.640381</ele>
        <time>2020-09-28T12:48:47.203Z</time>
      </trkpt>
      <trkpt lat="64.44791" lon="21.02327">
        <ele>72.361855</ele>
        <time>2020-09-28T12:48:49.215Z</time>
      </trkpt>
      <trkpt lat="64.44779" lon="21.02317">
        <ele>72.087855</ele>
        <time>2020-09-28T12:48:51.199Z</time>
      </trkpt>
      <trkpt lat="64.44766" lon="21.02307">
        <ele>71.941468</ele>
        <time>2020-09-28T12:48:53.225Z</time>
      </trkpt>
      <trkpt lat="64.44754" lon="21.02298">
        <ele>72.117711</ele>
        <time>2020-09-28T12:48:55.203Z</time>
      </trkpt>
      <trkpt lat="64.44743" lon="21.0229">
        <ele>72.281687</ele>
        <time>2020-09-28T12:48:57.261Z</time>
      </trkpt>
      <trkpt lat="64.44732" lon="21.02282">
        <ele>72.442097</ele>
        <time>2020-09-28T12:48:59.225Z</time>
      </trkpt>
      <trkpt lat="64.44722" lon="21.02274">
        <ele>72.596479</ele>
        <time>2020-09-28T12:49:01.205Z</time>
      </trkpt>
      <trkpt lat="64.44712" lon="21.02266">
        <ele>72.736709</ele>
        <time>2020-09-28T12:49:03.217Z</time>
      </trkpt>
      <trkpt lat="64.44698" lon="21.02256">
        <ele>72.94205</ele>
        <time>2020-09-28T12:49:06.214Z</time>
      </trkpt>
      <trkpt lat="64.44689" lon="21.02249">
        <ele>73.079796</ele>
        <time>2020-09-28T12:49:08.239Z</time>
      </trkpt>
      <trkpt lat="64.44679" lon="21.02243">
        <ele>73.214609</ele>
        <time>2020-09-28T12:49:10.252Z</time>
      </trkpt>
      <trkpt lat="64.4467" lon="21.02237">
        <ele>73.344747</ele>
        <time>2020-09-28T12:49:12.232Z</time>
      </trkpt>
      <trkpt lat="64.44661" lon="21.0223">
        <ele>73.474005</ele>
        <time>2020-09-28T12:49:14.202Z</time>
      </trkpt>
      <trkpt lat="64.44652" lon="21.02223">
        <ele>73.609691</ele>
        <time>2020-09-28T12:49:16.221Z</time>
      </trkpt>
      <trkpt lat="64.44642" lon="21.02215">
        <ele>73.756172</ele>
        <time>2020-09-28T12:49:18.232Z</time>
      </trkpt>
      <trkpt lat="64.44632" lon="21.02206">
        <ele>73.905474</ele>
        <time>2020-09-28T12:49:20.204Z</time>
      </trkpt>
      <trkpt lat="64.44622" lon="21.02197">
        <ele>74.062545</ele>
        <time>2020-09-28T12:49:22.227Z</time>
      </trkpt>
      <trkpt lat="64.44611" lon="21.02188">
        <ele>74.21659</ele>
        <time>2020-09-28T12:49:24.211Z</time>
      </trkpt>
      <trkpt lat="64.44601" lon="21.0218">
        <ele>74.371699</ele>
        <time>2020-09-28T12:49:26.238Z</time>
      </trkpt>
      <trkpt lat="64.44591" lon="21.02173">
        <ele>74.703092</ele>
        <time>2020-09-28T12:49:28.197Z</time>
      </trkpt>
      <trkpt lat="64.44582" lon="21.02165">
        <ele>75.051987</ele>
        <time>2020-09-28T12:49:30.240Z</time>
      </trkpt>
      <trkpt lat="64.44573" lon="21.02158">
        <ele>75.391508</ele>
        <time>2020-09-28T12:49:32.220Z</time>
      </trkpt>
      <trkpt lat="64.44565" lon="21.02151">
        <ele>75.717736</ele>
        <time>2020-09-28T12:49:34.207Z</time>
      </trkpt>
      <trkpt lat="64.44553" lon="21.02142">
        <ele>76.157364</ele>
        <time>2020-09-28T12:49:37.211Z</time>
      </trkpt>
      <trkpt lat="64.44542" lon="21.02133">
        <ele>76.575981</ele>
        <time>2020-09-28T12:49:40.199Z</time>
      </trkpt>
      <trkpt lat="64.44532" lon="21.02124">
        <ele>76.976523</ele>
        <time>2020-09-28T12:49:43.200Z</time>
      </trkpt>
      <trkpt lat="64.44522" lon="21.02116">
        <ele>77.346463</ele>
        <time>2020-09-28T12:49:46.198Z</time>
      </trkpt>
      <trkpt lat="64.44513" lon="21.0211">
        <ele>77.677645</ele>
        <time>2020-09-28T12:49:49.213Z</time>
      </trkpt>
      <trkpt lat="64.44504" lon="21.02102">
        <ele>78.044657</ele>
        <time>2020-09-28T12:49:53.201Z</time>
      </trkpt>
      <trkpt lat="64.44495" lon="21.02092">
        <ele>78.414969</ele>
        <time>2020-09-28T12:49:58.198Z</time>
      </trkpt>
      <trkpt lat="64.44485" lon="21.02085">
        <ele>78.77468</ele>
        <time>2020-09-28T12:50:04.221Z</time>
      </trkpt>
      <trkpt lat="64.44476" lon="21.02078">
        <ele>79.107857</ele>
        <time>2020-09-28T12:50:10.206Z</time>
      </trkpt>
      <trkpt lat="64.44466" lon="21.0207">
        <ele>79.492517</ele>
        <time>2020-09-28T12:50:16.205Z</time>
      </trkpt>
      <trkpt lat="64.44457" lon="21.02064">
        <ele>79.830584</ele>
        <time>2020-09-28T12:50:22.217Z</time>
      </trkpt>
      <trkpt lat="64.44448" lon="21.02056">
        <ele>80.201022</ele>
        <time>2020-09-28T12:50:28.195Z</time>
      </trkpt>
      <trkpt lat="64.44439" lon="21.02048">
        <ele>80.531761</ele>
        <time>2020-09-28T12:50:34.205Z</time>
      </trkpt>
      <trkpt lat="64.4443" lon="21.0204">
        <ele>80.906037</ele>
        <time>2020-09-28T12:50:40.215Z</time>
      </trkpt>
      <trkpt lat="64.44421" lon="21.02032">
        <ele>81.306256</ele>
        <time>2020-09-28T12:50:46.212Z</time>
      </trkpt>
      <trkpt lat="64.44413" lon="21.02023">
        <ele>81.701637</ele>
        <time>2020-09-28T12:50:52.246Z</time>
      </trkpt>
      <trkpt lat="64.44404" lon="21.02018">
        <ele>82.120474</ele>
        <time>2020-09-28T12:50:58.203Z</time>
      </trkpt>
      <trkpt lat="64.44395" lon="21.02011">
        <ele>82.532398</ele>
        <time>2020-09-28T12:51:04.247Z</time>
      </trkpt>
      <trkpt lat="64.44385" lon="21.02008">
        <ele>82.94108</ele>
        <time>2020-09-28T12:51:10.194Z</time>
      </trkpt>
      <trkpt lat="64.44376" lon="21.02">
        <ele>83.37351</ele>
        <time>2020-09-28T12:51:16.213Z</time>
      </trkpt>
      <trkpt lat="64.44367" lon="21.01992">
        <ele>83.819155</ele>
        <time>2020-09-28T12:51:21.225Z</time>
      </trkpt>
      <trkpt lat="64.44357" lon="21.01983">
        <ele>84.272181</ele>
        <time>2020-09-28T12:51:27.200Z</time>
      </trkpt>
      <trkpt lat="64.44348" lon="21.01974">
        <ele>84.720906</ele>
        <time>2020-09-28T12:51:33.236Z</time>
      </trkpt>
      <trkpt lat="64.44339" lon="21.01968">
        <ele>85.14233</ele>
        <time>2020-09-28T12:51:38.215Z</time>
      </trkpt>
      <trkpt lat="64.44329" lon="21.01958">
        <ele>85.595898</ele>
        <time>2020-09-28T12:51:43.247Z</time>
      </trkpt>
      <trkpt lat="64.44319" lon="21.0195">
        <ele>86.086804</ele>
        <time>2020-09-28T12:51:48.220Z</time>
      </trkpt>
      <trkpt lat="64.44309" lon="21.01948">
        <ele>86.500724</ele>
        <time>2020-09-28T12:51:52.222Z</time>
      </trkpt>
      <trkpt lat="64.44299" lon="21.01939">
        <ele>86.987011</ele>
        <time>2020-09-28T12:51:56.210Z</time>
      </trkpt>
      <trkpt lat="64.4429" lon="21.01928">
        <ele>87.438746</ele>
        <time>2020-09-28T12:52:00.203Z</time>
      </trkpt>
      <trkpt lat="64.44281" lon="21.01919">
        <ele>87.867853</ele>
        <time>2020-09-28T12:52:04.197Z</time>
      </trkpt>
      <trkpt lat="64.44271" lon="21.01912">
        <ele>88.3273</ele>
        <time>2020-09-28T12:52:08.215Z</time>
      </trkpt>
      <trkpt lat="64.4426" lon="21.01905">
        <ele>88.806731</ele>
        <time>2020-09-28T12:52:12.193Z</time>
      </trkpt>
      <trkpt lat="64.44251" lon="21.01898">
        <ele>88.853533</ele>
        <time>2020-09-28T12:52:15.220Z</time>
      </trkpt>
      <trkpt lat="64.44242" lon="21.01891">
        <ele>88.901693</ele>
        <time>2020-09-28T12:52:18.249Z</time>
      </trkpt>
      <trkpt lat="64.44232" lon="21.01884">
        <ele>88.953619</ele>
        <time>2020-09-28T12:52:21.217Z</time>
      </trkpt>
      <trkpt lat="64.44222" lon="21.01877">
        <ele>89.006345</ele>
        <time>2020-09-28T12:52:24.211Z</time>
      </trkpt>
      <trkpt lat="64.4421" lon="21.01869">
        <ele>89.065506</ele>
        <time>2020-09-28T12:52:27.212Z</time>
      </trkpt>
      <trkpt lat="64.44198" lon="21.01859">
        <ele>89.132946</ele>
        <time>2020-09-28T12:52:30.219Z</time>
      </trkpt>
      <trkpt lat="64.44189" lon="21.01851">
        <ele>89.18179</ele>
        <time>2020-09-28T12:52:32.219Z</time>
      </trkpt>
      <trkpt lat="64.44178" lon="21.01843">
        <ele>89.239963</ele>
        <time>2020-09-28T12:52:34.231Z</time>
      </trkpt>
      <trkpt lat="64.44165" lon="21.01833">
        <ele>89.306745</ele>
        <time>2020-09-28T12:52:36.213Z</time>
      </trkpt>
      <trkpt lat="64.44153" lon="21.01822">
        <ele>89.371872</ele>
        <time>2020-09-28T12:52:38.208Z</time>
      </trkpt>
      <trkpt lat="64.4414" lon="21.01812">
        <ele>89.441426</ele>
        <time>2020-09-28T12:52:40.208Z</time>
      </trkpt>
      <trkpt lat="64.44127" lon="21.01802">
        <ele>89.50799</ele>
        <time>2020-09-28T12:52:42.250Z</time>
      </trkpt>
      <trkpt lat="64.44116" lon="21.01792">
        <ele>89.569761</ele>
        <time>2020-09-28T12:52:44.217Z</time>
      </trkpt>
      <trkpt lat="64.44104" lon="21.01783">
        <ele>89.63298</ele>
        <time>2020-09-28T12:52:46.209Z</time>
      </trkpt>
      <trkpt lat="64.4409" lon="21.01773">
        <ele>89.704301</ele>
        <time>2020-09-28T12:52:48.210Z</time>
      </trkpt>
      <trkpt lat="64.44076" lon="21.01762">
        <ele>90.420773</ele>
        <time>2020-09-28T12:52:50.222Z</time>
      </trkpt>
      <trkpt lat="64.44061" lon="21.0175">
        <ele>91.228049</ele>
        <time>2020-09-28T12:52:52.217Z</time>
      </trkpt>
      <trkpt lat="64.44046" lon="21.01738">
        <ele>92.039219</ele>
        <time>2020-09-28T12:52:54.209Z</time>
      </trkpt>
      <trkpt lat="64.44031" lon="21.01729">
        <ele>92.792843</ele>
        <time>2020-09-28T12:52:56.201Z</time>
      </trkpt>
      <trkpt lat="64.44019" lon="21.0172">
        <ele>93.439467</ele>
        <time>2020-09-28T12:52:58.224Z</time>
      </trkpt>
      <trkpt lat="64.44008" lon="21.01715">
        <ele>94.012506</ele>
        <time>2020-09-28T12:53:00.206Z</time>
      </trkpt>
      <trkpt lat="64.43996" lon="21.01711">
        <ele>94.593343</ele>
        <time>2020-09-28T12:53:02.238Z</time>
      </trkpt>
      <trkpt lat="64.43985" lon="21.01708">
        <ele>95.12734</ele>
        <time>2020-09-28T12:53:04.225Z</time>
      </trkpt>
      <trkpt lat="64.43975" lon="21.01706">
        <ele>95.639891</ele>
        <time>2020-09-28T12:53:06.211Z</time>
      </trkpt>
      <trkpt lat="64.43966" lon="21.01704">
        <ele>96.112782</ele>
        <time>2020-09-28T12:53:08.208Z</time>
      </trkpt>
      <trkpt lat="64.43954" lon="21.01697">
        <ele>96.727833</ele>
        <time>2020-09-28T12:53:11.237Z</time>
      </trkpt>
      <trkpt lat="64.43944" lon="21.01693">
        <ele>97.215668</ele>
        <time>2020-09-28T12:53:14.222Z</time>
      </trkpt>
      <trkpt lat="64.43933" lon="21.01689">
        <ele>97.78719</ele>
        <time>2020-09-28T12:53:18.244Z</time>
      </trkpt>
      <trkpt lat="64.43924" lon="21.01688">
        <ele>98.238542</ele>
        <time>2020-09-28T12:53:21.227Z</time>
      </trkpt>
      <trkpt lat="64.43914" lon="21.01683">
        <ele>98.742794</ele>
        <time>2020-09-28T12:53:25.204Z</time>
      </trkpt>
      <trkpt lat="64.43905" lon="21.0168">
        <ele>99.137427</ele>
        <time>2020-09-28T12:53:29.222Z</time>
      </trkpt>
      <trkpt lat="64.43895" lon="21.01679">
        <ele>99.5711</ele>
        <time>2020-09-28T12:53:33.217Z</time>
      </trkpt>
      <trkpt lat="64.43885" lon="21.01676">
        <ele>99.985752</ele>
        <time>2020-09-28T12:53:37.222Z</time>
      </trkpt>
      <trkpt lat="64.43876" lon="21.01672">
        <ele>100.381538</ele>
        <time>2020-09-28T12:53:40.199Z</time>
      </trkpt>
      <trkpt lat="64.43865" lon="21.01669">
        <ele>100.834987</ele>
        <time>2020-09-28T12:53:43.202Z</time>
      </trkpt>
      <trkpt lat="64.43854" lon="21.01665">
        <ele>101.320457</ele>
        <time>2020-09-28T12:53:46.210Z</time>
      </trkpt>
      <trkpt lat="64.43841" lon="21.01661">
        <ele>101.871848</ele>
        <time>2020-09-28T12:53:49.210Z</time>
      </trkpt>
      <trkpt lat="64.43828" lon="21.01656">
        <ele>102.434167</ele>
        <time>2020-09-28T12:53:52.218Z</time>
      </trkpt>
      <trkpt lat="64.43818" lon="21.01655">
        <ele>102.850912</ele>
        <time>2020-09-28T12:53:54.212Z</time>
      </trkpt>
      <trkpt lat="64.43808" lon="21.01652">
        <ele>103.285819</ele>
        <time>2020-09-28T12:53:56.235Z</time>
      </trkpt>
      <trkpt lat="64.43798" lon="21.01649">
        <ele>103.727685</ele>
        <time>2020-09-28T12:53:58.237Z</time>
      </trkpt>
      <trkpt lat="64.43787" lon="21.01645">
        <ele>104.161163</ele>
        <time>2020-09-28T12:54:00.200Z</time>
      </trkpt>
      <trkpt lat="64.43777" lon="21.01642">
        <ele>104.597089</ele>
        <time>2020-09-28T12:54:02.238Z</time>
      </trkpt>
      <trkpt lat="64.43767" lon="21.01639">
        <ele>105.046098</ele>
        <time>2020-09-28T12:54:04.266Z</time>
      </trkpt>
      <trkpt lat="64.43757" lon="21.01635">
        <ele>105.476261</ele>
        <time>2020-09-28T12:54:06.202Z</time>
      </trkpt>
      <trkpt lat="64.43746" lon="21.01633">
        <ele>105.936326</ele>
        <time>2020-09-28T12:54:08.210Z</time>
      </trkpt>
      <trkpt lat="64.43735" lon="21.01631">
        <ele>106.21814</ele>
        <time>2020-09-28T12:54:10.209Z</time>
      </trkpt>
      <trkpt lat="64.43723" lon="21.01628">
        <ele>105.477688</ele>
        <time>2020-09-28T12:54:12.199Z</time>
      </trkpt>
      <trkpt lat="64.43712" lon="21.01623">
        <ele>104.775084</ele>
        <time>2020-09-28T12:54:14.197Z</time>
      </trkpt>
      <trkpt lat="64.437" lon="21.01622">
        <ele>104.05623</ele>
        <time>2020-09-28T12:54:16.206Z</time>
      </trkpt>
      <trkpt lat="64.43688" lon="21.01618">
        <ele>103.321342</ele>
        <time>2020-09-28T12:54:18.208Z</time>
      </trkpt>
      <trkpt lat="64.43677" lon="21.01614">
        <ele>102.583942</ele>
        <time>2020-09-28T12:54:20.223Z</time>
      </trkpt>
      <trkpt lat="64.43666" lon="21.01613">
        <ele>101.89705</ele>
        <time>2020-09-28T12:54:22.193Z</time>
      </trkpt>
      <trkpt lat="64.43655" lon="21.0161">
        <ele>101.231852</ele>
        <time>2020-09-28T12:54:24.212Z</time>
      </trkpt>
      <trkpt lat="64.43646" lon="21.01606">
        <ele>100.625498</ele>
        <time>2020-09-28T12:54:26.241Z</time>
      </trkpt>
      <trkpt lat="64.43636" lon="21.01603">
        <ele>100.01166</ele>
        <time>2020-09-28T12:54:28.258Z</time>
      </trkpt>
      <trkpt lat="64.43627" lon="21.01601">
        <ele>99.430395</ele>
        <time>2020-09-28T12:54:30.237Z</time>
      </trkpt>
      <trkpt lat="64.43617" lon="21.016">
        <ele>98.806515</ele>
        <time>2020-09-28T12:54:32.220Z</time>
      </trkpt>
      <trkpt lat="64.43605" lon="21.01597">
        <ele>98.101865</ele>
        <time>2020-09-28T12:54:34.209Z</time>
      </trkpt>
      <trkpt lat="64.43594" lon="21.01594">
        <ele>97.374106</ele>
        <time>2020-09-28T12:54:36.196Z</time>
      </trkpt>
      <trkpt lat="64.43582" lon="21.01591">
        <ele>96.627753</ele>
        <time>2020-09-28T12:54:38.211Z</time>
      </trkpt>
      <trkpt lat="64.4357" lon="21.01589">
        <ele>95.89646</ele>
        <time>2020-09-28T12:54:40.206Z</time>
      </trkpt>
      <trkpt lat="64.43558" lon="21.01586">
        <ele>95.157892</ele>
        <time>2020-09-28T12:54:42.222Z</time>
      </trkpt>
      <trkpt lat="64.43547" lon="21.01584">
        <ele>94.940243</ele>
        <time>2020-09-28T12:54:44.243Z</time>
      </trkpt>
      <trkpt lat="64.43535" lon="21.01581">
        <ele>94.750552</ele>
        <time>2020-09-28T12:54:46.208Z</time>
      </trkpt>
      <trkpt lat="64.43524" lon="21.01578">
        <ele>94.5684</ele>
        <time>2020-09-28T12:54:48.230Z</time>
      </trkpt>
      <trkpt lat="64.43513" lon="21.01575">
        <ele>94.38445</ele>
        <time>2020-09-28T12:54:50.210Z</time>
      </trkpt>
      <trkpt lat="64.43501" lon="21.01572">
        <ele>94.201556</ele>
        <time>2020-09-28T12:54:52.206Z</time>
      </trkpt>
      <trkpt lat="64.43491" lon="21.01569">
        <ele>94.027565</ele>
        <time>2020-09-28T12:54:54.211Z</time>
      </trkpt>
      <trkpt lat="64.43481" lon="21.01567">
        <ele>93.859138</ele>
        <time>2020-09-28T12:54:56.212Z</time>
      </trkpt>
      <trkpt lat="64.43471" lon="21.01565">
        <ele>93.697607</ele>
        <time>2020-09-28T12:54:58.202Z</time>
      </trkpt>
      <trkpt lat="64.43461" lon="21.01563">
        <ele>93.540367</ele>
        <time>2020-09-28T12:55:00.206Z</time>
      </trkpt>
      <trkpt lat="64.43452" lon="21.0156">
        <ele>93.390758</ele>
        <time>2020-09-28T12:55:02.251Z</time>
      </trkpt>
      <trkpt lat="64.43439" lon="21.01555">
        <ele>93.173694</ele>
        <time>2020-09-28T12:55:05.245Z</time>
      </trkpt>
      <trkpt lat="64.43429" lon="21.01553">
        <ele>93.017906</ele>
        <time>2020-09-28T12:55:07.203Z</time>
      </trkpt>
      <trkpt lat="64.43419" lon="21.01549">
        <ele>92.854795</ele>
        <time>2020-09-28T12:55:09.204Z</time>
      </trkpt>
      <trkpt lat="64.43409" lon="21.01546">
        <ele>92.682229</ele>
        <time>2020-09-28T12:55:11.213Z</time>
      </trkpt>
      <trkpt lat="64.43398" lon="21.01542">
        <ele>92.499493</ele>
        <time>2020-09-28T12:55:13.211Z</time>
      </trkpt>
      <trkpt lat="64.43385" lon="21.01537">
        <ele>92.291766</ele>
        <time>2020-09-28T12:55:15.249Z</time>
      </trkpt>
      <trkpt lat="64.43372" lon="21.01533">
        <ele>92.390391</ele>
        <time>2020-09-28T12:55:17.205Z</time>
      </trkpt>
      <trkpt lat="64.43359" lon="21.0153">
        <ele>92.751948</ele>
        <time>2020-09-28T12:55:19.213Z</time>
      </trkpt>
      <trkpt lat="64.43345" lon="21.01527">
        <ele>93.132824</ele>
        <time>2020-09-28T12:55:21.236Z</time>
      </trkpt>
      <trkpt lat="64.43332" lon="21.01524">
        <ele>93.494036</ele>
        <time>2020-09-28T12:55:23.204Z</time>
      </trkpt>
      <trkpt lat="64.43319" lon="21.01522">
        <ele>93.838395</ele>
        <time>2020-09-28T12:55:25.230Z</time>
      </trkpt>
      <trkpt lat="64.43307" lon="21.01517">
        <ele>94.169051</ele>
        <time>2020-09-28T12:55:27.217Z</time>
      </trkpt>
      <trkpt lat="64.43297" lon="21.01513">
        <ele>94.439892</ele>
        <time>2020-09-28T12:55:29.201Z</time>
      </trkpt>
      <trkpt lat="64.43284" lon="21.01509">
        <ele>94.785852</ele>
        <time>2020-09-28T12:55:32.210Z</time>
      </trkpt>
      <trkpt lat="64.43273" lon="21.01506">
        <ele>95.101724</ele>
        <time>2020-09-28T12:55:35.229Z</time>
      </trkpt>
      <trkpt lat="64.4326" lon="21.01504">
        <ele>95.440781</ele>
        <time>2020-09-28T12:55:38.220Z</time>
      </trkpt>
      <trkpt lat="64.43248" lon="21.015">
        <ele>95.778548</ele>
        <time>2020-09-28T12:55:41.206Z</time>
      </trkpt>
      <trkpt lat="64.43239" lon="21.01497">
        <ele>96.029927</ele>
        <time>2020-09-28T12:55:43.223Z</time>
      </trkpt>
      <trkpt lat="64.43229" lon="21.01493">
        <ele>96.285478</ele>
        <time>2020-09-28T12:55:45.212Z</time>
      </trkpt>
      <trkpt lat="64.4322" lon="21.01489">
        <ele>96.541902</ele>
        <time>2020-09-28T12:55:47.210Z</time>
      </trkpt>
      <trkpt lat="64.43211" lon="21.01486">
        <ele>96.790438</ele>
        <time>2020-09-28T12:55:49.222Z</time>
      </trkpt>
      <trkpt lat="64.43198" lon="21.01481">
        <ele>97.18823</ele>
        <time>2020-09-28T12:55:52.214Z</time>
      </trkpt>
      <trkpt lat="64.43189" lon="21.01477">
        <ele>97.536252</ele>
        <time>2020-09-28T12:55:54.213Z</time>
      </trkpt>
      <trkpt lat="64.43175" lon="21.01473">
        <ele>98.041659</ele>
        <time>2020-09-28T12:55:57.203Z</time>
      </trkpt>
      <trkpt lat="64.43163" lon="21.01471">
        <ele>98.510377</ele>
        <time>2020-09-28T12:56:00.202Z</time>
      </trkpt>
      <trkpt lat="64.43151" lon="21.01468">
        <ele>98.975931</ele>
        <time>2020-09-28T12:56:03.252Z</time>
      </trkpt>
      <trkpt lat="64.43138" lon="21.01466">
        <ele>99.436755</ele>
        <time>2020-09-28T12:56:06.226Z</time>
      </trkpt>
      <trkpt lat="64.43127" lon="21.01464">
        <ele>99.860022</ele>
        <time>2020-09-28T12:56:09.242Z</time>
      </trkpt>
      <trkpt lat="64.43116" lon="21.01462">
        <ele>100.271896</ele>
        <time>2020-09-28T12:56:12.205Z</time>
      </trkpt>
      <trkpt lat="64.43106" lon="21.01459">
        <ele>100.669668</ele>
        <time>2020-09-28T12:56:15.248Z</time>
      </trkpt>
      <trkpt lat="64.43095" lon="21.01456">
        <ele>101.08396</ele>
        <time>2020-09-28T12:56:18.242Z</time>
      </trkpt>
      <trkpt lat="64.43083" lon="21.0145">
        <ele>101.533662</ele>
        <time>2020-09-28T12:56:21.244Z</time>
      </trkpt>
      <trkpt lat="64.43071" lon="21.01449">
        <ele>101.978734</ele>
        <time>2020-09-28T12:56:24.199Z</time>
      </trkpt>
      <trkpt lat="64.4306" lon="21.01445">
        <ele>102.43192</ele>
        <time>2020-09-28T12:56:27.206Z</time>
      </trkpt>
      <trkpt lat="64.43048" lon="21.0144">
        <ele>102.865268</ele>
        <time>2020-09-28T12:56:30.191Z</time>
      </trkpt>
      <trkpt lat="64.43037" lon="21.01439">
        <ele>103.283393</ele>
        <time>2020-09-28T12:56:33.205Z</time>
      </trkpt>
      <trkpt lat="64.43026" lon="21.01439">
        <ele>103.701628</ele>
        <time>2020-09-28T12:56:36.203Z</time>
      </trkpt>
      <trkpt lat="64.43015" lon="21.01437">
        <ele>102.926656</ele>
        <time>2020-09-28T12:56:39.200Z</time>
      </trkpt>
      <trkpt lat="64.43003" lon="21.01433">
        <ele>101.624991</ele>
        <time>2020-09-28T12:56:42.198Z</time>
      </trkpt>
      <trkpt lat="64.42993" lon="21.0143">
        <ele>100.398271</ele>
        <time>2020-09-28T12:56:45.213Z</time>
      </trkpt>
      <trkpt lat="64.42981" lon="21.01425">
        <ele>99.009906</ele>
        <time>2020-09-28T12:56:48.248Z</time>
      </trkpt>
      <trkpt lat="64.42969" lon="21.01421">
        <ele>97.660187</ele>
        <time>2020-09-28T12:56:51.220Z</time>
      </trkpt>
      <trkpt lat="64.42958" lon="21.01415">
        <ele>96.370648</ele>
        <time>2020-09-28T12:56:54.220Z</time>
      </trkpt>
      <trkpt lat="64.42947" lon="21.01413">
        <ele>95.181908</ele>
        <time>2020-09-28T12:56:57.192Z</time>
      </trkpt>
      <trkpt lat="64.42936" lon="21.01413">
        <ele>93.871948</ele>
        <time>2020-09-28T12:57:00.209Z</time>
      </trkpt>
      <trkpt lat="64.42923" lon="21.01411">
        <ele>92.400918</ele>
        <time>2020-09-28T12:57:03.229Z</time>
      </trkpt>
      <trkpt lat="64.42911" lon="21.01407">
        <ele>90.97462</ele>
        <time>2020-09-28T12:57:06.227Z</time>
      </trkpt>
      <trkpt lat="64.42899" lon="21.014">
        <ele>89.593493</ele>
        <time>2020-09-28T12:57:09.206Z</time>
      </trkpt>
      <trkpt lat="64.42887" lon="21.01396">
        <ele>88.219705</ele>
        <time>2020-09-28T12:57:12.221Z</time>
      </trkpt>
      <trkpt lat="64.42875" lon="21.01393">
        <ele>86.901363</ele>
        <time>2020-09-28T12:57:15.225Z</time>
      </trkpt>
      <trkpt lat="64.42863" lon="21.01391">
        <ele>85.50901</ele>
        <time>2020-09-28T12:57:18.242Z</time>
      </trkpt>
      <trkpt lat="64.42852" lon="21.01387">
        <ele>84.210167</ele>
        <time>2020-09-28T12:57:21.202Z</time>
      </trkpt>
      <trkpt lat="64.42841" lon="21.01384">
        <ele>83.44127</ele>
        <time>2020-09-28T12:57:24.220Z</time>
      </trkpt>
      <trkpt lat="64.42831" lon="21.01381">
        <ele>83.707624</ele>
        <time>2020-09-28T12:57:27.211Z</time>
      </trkpt>
      <trkpt lat="64.4282" lon="21.01378">
        <ele>83.982272</ele>
        <time>2020-09-28T12:57:30.216Z</time>
      </trkpt>
      <trkpt lat="64.42809" lon="21.01376">
        <ele>84.268106</ele>
        <time>2020-09-28T12:57:33.244Z</time>
      </trkpt>
      <trkpt lat="64.42798" lon="21.01373">
        <ele>84.555163</ele>
        <time>2020-09-28T12:57:36.265Z</time>
      </trkpt>
      <trkpt lat="64.42788" lon="21.01369">
        <ele>84.832227</ele>
        <time>2020-09-28T12:57:39.215Z</time>
      </trkpt>
      <trkpt lat="64.42777" lon="21.01366">
        <ele>85.101439</ele>
        <time>2020-09-28T12:57:42.223Z</time>
      </trkpt>
      <trkpt lat="64.42767" lon="21.01363">
        <ele>85.380783</ele>
        <time>2020-09-28T12:57:45.215Z</time>
      </trkpt>
      <trkpt lat="64.42756" lon="21.0136">
        <ele>85.6577</ele>
        <time>2020-09-28T12:57:48.206Z</time>
      </trkpt>
      <trkpt lat="64.42746" lon="21.01356">
        <ele>85.920214</ele>
        <time>2020-09-28T12:57:51.236Z</time>
      </trkpt>
      <trkpt lat="64.42736" lon="21.0135">
        <ele>86.179452</ele>
        <time>2020-09-28T12:57:54.225Z</time>
      </trkpt>
      <trkpt lat="64.42727" lon="21.01345">
        <ele>86.427288</ele>
        <time>2020-09-28T12:57:57.228Z</time>
      </trkpt>
      <trkpt lat="64.42718" lon="21.01342">
        <ele>86.663337</ele>
        <time>2020-09-28T12:58:00.223Z</time>
      </trkpt>
      <trkpt lat="64.42706" lon="21.0134">
        <ele>86.974593</ele>
        <time>2020-09-28T12:58:04.220Z</time>
      </trkpt>
      <trkpt lat="64.42697" lon="21.01339">
        <ele>87.210712</ele>
        <time>2020-09-28T12:58:07.208Z</time>
      </trkpt>
      <trkpt lat="64.42688" lon="21.01337">
        <ele>87.447848</ele>
        <time>2020-09-28T12:58:10.225Z</time>
      </trkpt>
      <trkpt lat="64.42679" lon="21.01333">
        <ele>87.692485</ele>
        <time>2020-09-28T12:58:13.249Z</time>
      </trkpt>
      <trkpt lat="64.42667" lon="21.0133">
        <ele>87.987005</ele>
        <time>2020-09-28T12:58:17.194Z</time>
      </trkpt>
      <trkpt lat="64.42657" lon="21.01327">
        <ele>88.264264</ele>
        <time>2020-09-28T12:58:21.213Z</time>
      </trkpt>
      <trkpt lat="64.42646" lon="21.01324">
        <ele>88.545847</ele>
        <time>2020-09-28T12:58:25.232Z</time>
      </trkpt>
      <trkpt lat="64.42637" lon="21.0132">
        <ele>88.810392</ele>
        <time>2020-09-28T12:58:29.207Z</time>
      </trkpt>
      <trkpt lat="64.42626" lon="21.01318">
        <ele>89.089867</ele>
        <time>2020-09-28T12:58:33.206Z</time>
      </trkpt>
      <trkpt lat="64.42615" lon="21.01315">
        <ele>89.378596</ele>
        <time>2020-09-28T12:58:37.234Z</time>
      </trkpt>
      <trkpt lat="64.42606" lon="21.01309">
        <ele>89.625665</ele>
        <time>2020-09-28T12:58:40.241Z</time>
      </trkpt>
      <trkpt lat="64.42597" lon="21.01303">
        <ele>89.888602</ele>
        <time>2020-09-28T12:58:43.251Z</time>
      </trkpt>
      <trkpt lat="64.42587" lon="21.01298">
        <ele>90.163745</ele>
        <time>2020-09-28T12:58:46.246Z</time>
      </trkpt>
      <trkpt lat="64.42576" lon="21.01291">
        <ele>90.448514</ele>
        <time>2020-09-28T12:58:49.239Z</time>
      </trkpt>
      <trkpt lat="64.42565" lon="21.01281">
        <ele>90.770014</ele>
        <time>2020-09-28T12:58:52.196Z</time>
      </trkpt>
      <trkpt lat="64.42556" lon="21.01276">
        <ele>91.015426</ele>
        <time>2020-09-28T12:58:54.219Z</time>
      </trkpt>
      <trkpt lat="64.42547" lon="21.0127">
        <ele>91.255108</ele>
        <time>2020-09-28T12:58:56.229Z</time>
      </trkpt>
      <trkpt lat="64.42538" lon="21.01264">
        <ele>91.50912</ele>
        <time>2020-09-28T12:58:58.217Z</time>
      </trkpt>
      <trkpt lat="64.42529" lon="21.01257">
        <ele>91.774441</ele>
        <time>2020-09-28T12:59:00.236Z</time>
      </trkpt>
      <trkpt lat="64.42519" lon="21.0125">
        <ele>92.046998</ele>
        <time>2020-09-28T12:59:02.216Z</time>
      </trkpt>
      <trkpt lat="64.42509" lon="21.01243">
        <ele>92.314716</ele>
        <time>2020-09-28T12:59:04.218Z</time>
      </trkpt>
      <trkpt lat="64.425" lon="21.01238">
        <ele>92.572066</ele>
        <time>2020-09-28T12:59:06.204Z</time>
      </trkpt>
      <trkpt lat="64.4249" lon="21.01232">
        <ele>92.921146</ele>
        <time>2020-09-28T12:59:08.216Z</time>
      </trkpt>
      <trkpt lat="64.4248" lon="21.01225">
        <ele>93.8054</ele>
        <time>2020-09-28T12:59:10.217Z</time>
      </trkpt>
      <trkpt lat="64.42469" lon="21.01218">
        <ele>94.760425</ele>
        <time>2020-09-28T12:59:12.252Z</time>
      </trkpt>
      <trkpt lat="64.42458" lon="21.0121">
        <ele>95.660283</ele>
        <time>2020-09-28T12:59:14.215Z</time>
      </trkpt>
      <trkpt lat="64.42449" lon="21.01203">
        <ele>96.471268</ele>
        <time>2020-09-28T12:59:16.223Z</time>
      </trkpt>
      <trkpt lat="64.42438" lon="21.01194">
        <ele>97.42982</ele>
        <time>2020-09-28T12:59:19.247Z</time>
      </trkpt>
      <trkpt lat="64.42428" lon="21.01187">
        <ele>98.278619</ele>
        <time>2020-09-28T12:59:22.206Z</time>
      </trkpt>
      <trkpt lat="64.42418" lon="21.01179">
        <ele>99.139525</ele>
        <time>2020-09-28T12:59:26.213Z</time>
      </trkpt>
      <trkpt lat="64.42408" lon="21.01173">
        <ele>99.966921</ele>
        <time>2020-09-28T12:59:30.204Z</time>
      </trkpt>
      <trkpt lat="64.42398" lon="21.01168">
        <ele>100.853974</ele>
        <time>2020-09-28T12:59:34.206Z</time>
      </trkpt>
      <trkpt lat="64.42388" lon="21.01162">
        <ele>101.672572</ele>
        <time>2020-09-28T12:59:38.229Z</time>
      </trkpt>
      <trkpt lat="64.42378" lon="21.01157">
        <ele>102.470272</ele>
        <time>2020-09-28T12:59:42.241Z</time>
      </trkpt>
      <trkpt lat="64.42369" lon="21.01151">
        <ele>103.267855</ele>
        <time>2020-09-28T12:59:46.205Z</time>
      </trkpt>
      <trkpt lat="64.4236" lon="21.01144">
        <ele>104.022395</ele>
        <time>2020-09-28T12:59:49.227Z</time>
      </trkpt>
      <trkpt lat="64.4235" lon="21.01138">
        <ele>104.917567</ele>
        <time>2020-09-28T12:59:53.209Z</time>
      </trkpt>
      <trkpt lat="64.42339" lon="21.01131">
        <ele>105.819801</ele>
        <time>2020-09-28T12:59:57.204Z</time>
      </trkpt>
      <trkpt lat="64.42329" lon="21.01122">
        <ele>106.738226</ele>
        <time>2020-09-28T13:00:02.246Z</time>
      </trkpt>
      <trkpt lat="64.4232" lon="21.01115">
        <ele>107.485993</ele>
        <time>2020-09-28T13:00:06.199Z</time>
      </trkpt>
      <trkpt lat="64.42308" lon="21.01108">
        <ele>107.28414</ele>
        <time>2020-09-28T13:00:10.201Z</time>
      </trkpt>
      <trkpt lat="64.42299" lon="21.01102">
        <ele>107.096755</ele>
        <time>2020-09-28T13:00:13.261Z</time>
      </trkpt>
      <trkpt lat="64.42286" lon="21.01092">
        <ele>106.862099</ele>
        <time>2020-09-28T13:00:16.203Z</time>
      </trkpt>
      <trkpt lat="64.42276" lon="21.01084">
        <ele>106.661716</ele>
        <time>2020-09-28T13:00:18.220Z</time>
      </trkpt>
      <trkpt lat="64.42265" lon="21.01078">
        <ele>106.45329</ele>
        <time>2020-09-28T13:00:20.230Z</time>
      </trkpt>
      <trkpt lat="64.42254" lon="21.01069">
        <ele>106.229894</ele>
        <time>2020-09-28T13:00:22.207Z</time>
      </trkpt>
      <trkpt lat="64.42241" lon="21.01059">
        <ele>105.973725</ele>
        <time>2020-09-28T13:00:24.250Z</time>
      </trkpt>
      <trkpt lat="64.42226" lon="21.01048">
        <ele>105.695263</ele>
        <time>2020-09-28T13:00:26.204Z</time>
      </trkpt>
      <trkpt lat="64.42211" lon="21.01037">
        <ele>105.406807</ele>
        <time>2020-09-28T13:00:28.221Z</time>
      </trkpt>
      <trkpt lat="64.42196" lon="21.01026">
        <ele>105.10955</ele>
        <time>2020-09-28T13:00:30.225Z</time>
      </trkpt>
      <trkpt lat="64.4218" lon="21.01015">
        <ele>104.80392</ele>
        <time>2020-09-28T13:00:32.244Z</time>
      </trkpt>
      <trkpt lat="64.42165" lon="21.01004">
        <ele>104.504473</ele>
        <time>2020-09-28T13:00:34.234Z</time>
      </trkpt>
      <trkpt lat="64.42149" lon="21.00992">
        <ele>104.206261</ele>
        <time>2020-09-28T13:00:36.206Z</time>
      </trkpt>
      <trkpt lat="64.42134" lon="21.00982">
        <ele>102.11983</ele>
        <time>2020-09-28T13:00:38.222Z</time>
      </trkpt>
      <trkpt lat="64.42118" lon="21.00971">
        <ele>99.817183</ele>
        <time>2020-09-28T13:00:40.258Z</time>
      </trkpt>
      <trkpt lat="64.42102" lon="21.00959">
        <ele>97.321663</ele>
        <time>2020-09-28T13:00:42.222Z</time>
      </trkpt>
      <trkpt lat="64.42085" lon="21.00945">
        <ele>94.873714</ele>
        <time>2020-09-28T13:00:44.210Z</time>
      </trkpt>
      <trkpt lat="64.4207" lon="21.00935">
        <ele>92.608453</ele>
        <time>2020-09-28T13:00:46.232Z</time>
      </trkpt>
      <trkpt lat="64.42055" lon="21.00928">
        <ele>90.47406</ele>
        <time>2020-09-28T13:00:48.206Z</time>
      </trkpt>
      <trkpt lat="64.42041" lon="21.0092">
        <ele>88.475905</ele>
        <time>2020-09-28T13:00:50.230Z</time>
      </trkpt>
      <trkpt lat="64.42029" lon="21.00911">
        <ele>86.676287</ele>
        <time>2020-09-28T13:00:52.220Z</time>
      </trkpt>
      <trkpt lat="64.42018" lon="21.00903">
        <ele>85.004371</ele>
        <time>2020-09-28T13:00:54.207Z</time>
      </trkpt>
      <trkpt lat="64.42008" lon="21.00894">
        <ele>83.460896</ele>
        <time>2020-09-28T13:00:56.223Z</time>
      </trkpt>
      <trkpt lat="64.41998" lon="21.00886">
        <ele>81.957457</ele>
        <time>2020-09-28T13:00:58.219Z</time>
      </trkpt>
      <trkpt lat="64.41989" lon="21.00878">
        <ele>80.570879</ele>
        <time>2020-09-28T13:01:00.206Z</time>
      </trkpt>
      <trkpt lat="64.41979" lon="21.0087">
        <ele>79.16902</ele>
        <time>2020-09-28T13:01:02.240Z</time>
      </trkpt>
      <trkpt lat="64.41971" lon="21.0086">
        <ele>78.668465</ele>
        <time>2020-09-28T13:01:04.222Z</time>
      </trkpt>
      <trkpt lat="64.41962" lon="21.0085">
        <ele>78.581382</ele>
        <time>2020-09-28T13:01:06.215Z</time>
      </trkpt>
      <trkpt lat="64.41952" lon="21.0084">
        <ele>78.494457</ele>
        <time>2020-09-28T13:01:08.224Z</time>
      </trkpt>
      <trkpt lat="64.41944" lon="21.00832">
        <ele>78.413983</ele>
        <time>2020-09-28T13:01:10.226Z</time>
      </trkpt>
      <trkpt lat="64.41932" lon="21.00819">
        <ele>78.29809</ele>
        <time>2020-09-28T13:01:13.212Z</time>
      </trkpt>
      <trkpt lat="64.4192" lon="21.00808">
        <ele>78.19006</ele>
        <time>2020-09-28T13:01:16.212Z</time>
      </trkpt>
      <trkpt lat="64.4191" lon="21.00798">
        <ele>78.087781</ele>
        <time>2020-09-28T13:01:19.204Z</time>
      </trkpt>
      <trkpt lat="64.41899" lon="21.00788">
        <ele>77.986996</ele>
        <time>2020-09-28T13:01:22.229Z</time>
      </trkpt>
      <trkpt lat="64.41889" lon="21.00778">
        <ele>77.889771</ele>
        <time>2020-09-28T13:01:25.209Z</time>
      </trkpt>
      <trkpt lat="64.41879" lon="21.00768">
        <ele>77.797629</ele>
        <time>2020-09-28T13:01:28.245Z</time>
      </trkpt>
      <trkpt lat="64.41869" lon="21.00758">
        <ele>77.707356</ele>
        <time>2020-09-28T13:01:31.201Z</time>
      </trkpt>
      <trkpt lat="64.4186" lon="21.00747">
        <ele>77.611401</ele>
        <time>2020-09-28T13:01:34.233Z</time>
      </trkpt>
      <trkpt lat="64.41849" lon="21.00734">
        <ele>77.509068</ele>
        <time>2020-09-28T13:01:37.226Z</time>
      </trkpt>
      <trkpt lat="64.41839" lon="21.00722">
        <ele>77.410986</ele>
        <time>2020-09-28T13:01:40.226Z</time>
      </trkpt>
      <trkpt lat="64.41828" lon="21.00711">
        <ele>77.307287</ele>
        <time>2020-09-28T13:01:43.216Z</time>
      </trkpt>
      <trkpt lat="64.41819" lon="21.00699">
        <ele>77.210224</ele>
        <time>2020-09-28T13:01:46.209Z</time>
      </trkpt>
      <trkpt lat="64.41809" lon="21.00688">
        <ele>77.122795</ele>
        <time>2020-09-28T13:01:49.216Z</time>
      </trkpt>
      <trkpt lat="64.418" lon="21.00678">
        <ele>77.048019</ele>
        <time>2020-09-28T13:01:52.216Z</time>
      </trkpt>
      <trkpt lat="64.4179" lon="21.0067">
        <ele>76.974105</ele>
        <time>2020-09-28T13:01:55.204Z</time>
      </trkpt>
      <trkpt lat="64.41782" lon="21.00662">
        <ele>76.905583</ele>
        <time>2020-09-28T13:01:58.235Z</time>
      </trkpt>
      <trkpt lat="64.41771" lon="21.00651">
        <ele>76.817316</ele>
        <time>2020-09-28T13:02:02.217Z</time>
      </trkpt>
      <trkpt lat="64.41762" lon="21.00641">
        <ele>76.749369</ele>
        <time>2020-09-28T13:02:05.206Z</time>
      </trkpt>
      <trkpt lat="64.41752" lon="21.00631">
        <ele>76.662804</ele>
        <time>2020-09-28T13:02:09.201Z</time>
      </trkpt>
      <trkpt lat="64.41742" lon="21.00618">
        <ele>76.578711</ele>
        <time>2020-09-28T13:02:13.224Z</time>
      </trkpt>
      <trkpt lat="64.41733" lon="21.00609">
        <ele>76.507162</ele>
        <time>2020-09-28T13:02:16.202Z</time>
      </trkpt>
      <trkpt lat="64.41725" lon="21.00599">
        <ele>76.439668</ele>
        <time>2020-09-28T13:02:19.233Z</time>
      </trkpt>
      <trkpt lat="64.41714" lon="21.00588">
        <ele>76.356752</ele>
        <time>2020-09-28T13:02:22.224Z</time>
      </trkpt>
      <trkpt lat="64.41703" lon="21.00575">
        <ele>76.265515</ele>
        <time>2020-09-28T13:02:25.216Z</time>
      </trkpt>
      <trkpt lat="64.41691" lon="21.00562">
        <ele>76.165874</ele>
        <time>2020-09-28T13:02:28.224Z</time>
      </trkpt>
      <trkpt lat="64.41682" lon="21.00552">
        <ele>76.089235</ele>
        <time>2020-09-28T13:02:30.225Z</time>
      </trkpt>
      <trkpt lat="64.41671" lon="21.00542">
        <ele>76.0026</ele>
        <time>2020-09-28T13:02:32.217Z</time>
      </trkpt>
      <trkpt lat="64.4166" lon="21.00531">
        <ele>75.915725</ele>
        <time>2020-09-28T13:02:34.206Z</time>
      </trkpt>
      <trkpt lat="64.41648" lon="21.00519">
        <ele>75.798042</ele>
        <time>2020-09-28T13:02:36.211Z</time>
      </trkpt>
      <trkpt lat="64.41636" lon="21.00507">
        <ele>75.523858</ele>
        <time>2020-09-28T13:02:38.224Z</time>
      </trkpt>
      <trkpt lat="64.41623" lon="21.00494">
        <ele>75.24678</ele>
        <time>2020-09-28T13:02:40.203Z</time>
      </trkpt>
      <trkpt lat="64.41611" lon="21.00481">
        <ele>74.976378</ele>
        <time>2020-09-28T13:02:42.241Z</time>
      </trkpt>
      <trkpt lat="64.41599" lon="21.00469">
        <ele>74.710745</ele>
        <time>2020-09-28T13:02:44.233Z</time>
      </trkpt>
      <trkpt lat="64.41588" lon="21.00457">
        <ele>74.447337</ele>
        <time>2020-09-28T13:02:46.214Z</time>
      </trkpt>
      <trkpt lat="64.41577" lon="21.00445">
        <ele>74.202886</ele>
        <time>2020-09-28T13:02:48.216Z</time>
      </trkpt>
      <trkpt lat="64.41567" lon="21.00434">
        <ele>73.977364</ele>
        <time>2020-09-28T13:02:50.209Z</time>
      </trkpt>
      <trkpt lat="64.41557" lon="21.00423">
        <ele>73.758447</ele>
        <time>2020-09-28T13:02:52.210Z</time>
      </trkpt>
      <trkpt lat="64.41547" lon="21.00413">
        <ele>73.536257</ele>
        <time>2020-09-28T13:02:54.213Z</time>
      </trkpt>
      <trkpt lat="64.41537" lon="21.00402">
        <ele>73.306948</ele>
        <time>2020-09-28T13:02:56.202Z</time>
      </trkpt>
      <trkpt lat="64.41526" lon="21.00391">
        <ele>73.066157</ele>
        <time>2020-09-28T13:02:58.221Z</time>
      </trkpt>
      <trkpt lat="64.41515" lon="21.0038">
        <ele>72.810577</ele>
        <time>2020-09-28T13:03:00.217Z</time>
      </trkpt>
      <trkpt lat="64.41503" lon="21.00368">
        <ele>72.548912</ele>
        <time>2020-09-28T13:03:02.234Z</time>
      </trkpt>
      <trkpt lat="64.41491" lon="21.00355">
        <ele>72.272201</ele>
        <time>2020-09-28T13:03:04.206Z</time>
      </trkpt>
      <trkpt lat="64.41478" lon="21.00341">
        <ele>71.954072</ele>
        <time>2020-09-28T13:03:06.212Z</time>
      </trkpt>
      <trkpt lat="64.41464" lon="21.00328">
        <ele>71.613187</ele>
        <time>2020-09-28T13:03:08.224Z</time>
      </trkpt>
      <trkpt lat="64.4145" lon="21.00314">
        <ele>71.26605</ele>
        <time>2020-09-28T13:03:10.201Z</time>
      </trkpt>
      <trkpt lat="64.41438" lon="21.00299">
        <ele>70.932721</ele>
        <time>2020-09-28T13:03:12.222Z</time>
      </trkpt>
      <trkpt lat="64.41425" lon="21.00286">
        <ele>70.621923</ele>
        <time>2020-09-28T13:03:14.228Z</time>
      </trkpt>
      <trkpt lat="64.41414" lon="21.00274">
        <ele>70.337217</ele>
        <time>2020-09-28T13:03:16.209Z</time>
      </trkpt>
      <trkpt lat="64.41404" lon="21.00264">
        <ele>70.082914</ele>
        <time>2020-09-28T13:03:18.200Z</time>
      </trkpt>
      <trkpt lat="64.41395" lon="21.00254">
        <ele>69.842475</ele>
        <time>2020-09-28T13:03:20.212Z</time>
      </trkpt>
      <trkpt lat="64.41386" lon="21.00246">
        <ele>69.61595</ele>
        <time>2020-09-28T13:03:22.218Z</time>
      </trkpt>
      <trkpt lat="64.41377" lon="21.00238">
        <ele>69.400605</ele>
        <time>2020-09-28T13:03:24.208Z</time>
      </trkpt>
      <trkpt lat="64.41369" lon="21.0023">
        <ele>69.190137</ele>
        <time>2020-09-28T13:03:26.210Z</time>
      </trkpt>
      <trkpt lat="64.41361" lon="21.00221">
        <ele>68.977186</ele>
        <time>2020-09-28T13:03:28.233Z</time>
      </trkpt>
      <trkpt lat="64.41351" lon="21.00211">
        <ele>68.726038</ele>
        <time>2020-09-28T13:03:31.227Z</time>
      </trkpt>
      <trkpt lat="64.4134" lon="21.00202">
        <ele>68.464468</ele>
        <time>2020-09-28T13:03:34.229Z</time>
      </trkpt>
      <trkpt lat="64.4133" lon="21.0019">
        <ele>68.205482</ele>
        <time>2020-09-28T13:03:37.217Z</time>
      </trkpt>
      <trkpt lat="64.4132" lon="21.00179">
        <ele>67.979438</ele>
        <time>2020-09-28T13:03:40.214Z</time>
      </trkpt>
      <trkpt lat="64.41309" lon="21.00166">
        <ele>67.995618</ele>
        <time>2020-09-28T13:03:43.245Z</time>
      </trkpt>
      <trkpt lat="64.41298" lon="21.00152">
        <ele>68.012019</ele>
        <time>2020-09-28T13:03:46.222Z</time>
      </trkpt>
      <trkpt lat="64.41285" lon="21.0014">
        <ele>68.029623</ele>
        <time>2020-09-28T13:03:49.228Z</time>
      </trkpt>
      <trkpt lat="64.41274" lon="21.00127">
        <ele>68.046844</ele>
        <time>2020-09-28T13:03:52.206Z</time>
      </trkpt>
      <trkpt lat="64.41261" lon="21.00113">
        <ele>68.064421</ele>
        <time>2020-09-28T13:03:55.209Z</time>
      </trkpt>
      <trkpt lat="64.4125" lon="21.00099">
        <ele>68.081889</ele>
        <time>2020-09-28T13:03:58.209Z</time>
      </trkpt>
      <trkpt lat="64.41238" lon="21.00085">
        <ele>68.098967</ele>
        <time>2020-09-28T13:04:01.207Z</time>
      </trkpt>
      <trkpt lat="64.41226" lon="21.00076">
        <ele>68.115931</ele>
        <time>2020-09-28T13:04:04.218Z</time>
      </trkpt>
      <trkpt lat="64.4121" lon="21.00072">
        <ele>68.136521</ele>
        <time>2020-09-28T13:04:08.216Z</time>
      </trkpt>
      <trkpt lat="64.41198" lon="21.00076">
        <ele>68.152492</ele>
        <time>2020-09-28T13:04:11.212Z</time>
      </trkpt>
      <trkpt lat="64.41186" lon="21.00083">
        <ele>68.168562</ele>
        <time>2020-09-28T13:04:14.215Z</time>
      </trkpt>
      <trkpt lat="64.41175" lon="21.00095">
        <ele>68.185521</ele>
        <time>2020-09-28T13:04:17.272Z</time>
      </trkpt>
      <trkpt lat="64.41163" lon="21.00106">
        <ele>68.201641</ele>
        <time>2020-09-28T13:04:20.213Z</time>
      </trkpt>
      <trkpt lat="64.41153" lon="21.00115">
        <ele>68.255734</ele>
        <time>2020-09-28T13:04:23.217Z</time>
      </trkpt>
      <trkpt lat="64.41142" lon="21.00127">
        <ele>68.44718</ele>
        <time>2020-09-28T13:04:26.238Z</time>
      </trkpt>
      <trkpt lat="64.41132" lon="21.00138">
        <ele>68.647273</ele>
        <time>2020-09-28T13:04:29.198Z</time>
      </trkpt>
      <trkpt lat="64.4112" lon="21.0015">
        <ele>68.858102</ele>
        <time>2020-09-28T13:04:32.212Z</time>
      </trkpt>
      <trkpt lat="64.41108" lon="21.00163">
        <ele>69.085327</ele>
        <time>2020-09-28T13:04:35.226Z</time>
      </trkpt>
      <trkpt lat="64.41097" lon="21.00177">
        <ele>69.309851</ele>
        <time>2020-09-28T13:04:38.248Z</time>
      </trkpt>
      <trkpt lat="64.41084" lon="21.0019">
        <ele>69.536069</ele>
        <time>2020-09-28T13:04:41.206Z</time>
      </trkpt>
      <trkpt lat="64.41072" lon="21.00203">
        <ele>69.759221</ele>
        <time>2020-09-28T13:04:44.223Z</time>
      </trkpt>
      <trkpt lat="64.41064" lon="21.00211">
        <ele>69.912258</ele>
        <time>2020-09-28T13:04:46.228Z</time>
      </trkpt>
      <trkpt lat="64.41052" lon="21.00224">
        <ele>70.13941</ele>
        <time>2020-09-28T13:04:49.252Z</time>
      </trkpt>
      <trkpt lat="64.41044" lon="21.00233">
        <ele>70.294874</ele>
        <time>2020-09-28T13:04:51.217Z</time>
      </trkpt>
      <trkpt lat="64.41035" lon="21.00241">
        <ele>70.448787</ele>
        <time>2020-09-28T13:04:53.224Z</time>
      </trkpt>
      <trkpt lat="64.41027" lon="21.00251">
        <ele>70.610382</ele>
        <time>2020-09-28T13:04:55.207Z</time>
      </trkpt>
      <trkpt lat="64.41018" lon="21.00261">
        <ele>70.769571</ele>
        <time>2020-09-28T13:04:57.207Z</time>
      </trkpt>
      <trkpt lat="64.41007" lon="21.00272">
        <ele>70.984001</ele>
        <time>2020-09-28T13:05:00.201Z</time>
      </trkpt>
      <trkpt lat="64.40995" lon="21.00284">
        <ele>71.19762</ele>
        <time>2020-09-28T13:05:03.229Z</time>
      </trkpt>
      <trkpt lat="64.40984" lon="21.00296">
        <ele>71.887164</ele>
        <time>2020-09-28T13:05:06.218Z</time>
      </trkpt>
      <trkpt lat="64.40973" lon="21.00308">
        <ele>72.787513</ele>
        <time>2020-09-28T13:05:09.209Z</time>
      </trkpt>
      <trkpt lat="64.40963" lon="21.00319">
        <ele>73.604418</ele>
        <time>2020-09-28T13:05:12.218Z</time>
      </trkpt>
      <trkpt lat="64.40953" lon="21.0033">
        <ele>74.420101</ele>
        <time>2020-09-28T13:05:15.211Z</time>
      </trkpt>
      <trkpt lat="64.40944" lon="21.00339">
        <ele>75.201106</ele>
        <time>2020-09-28T13:05:18.226Z</time>
      </trkpt>
      <trkpt lat="64.40934" lon="21.00348">
        <ele>75.932408</ele>
        <time>2020-09-28T13:05:21.197Z</time>
      </trkpt>
      <trkpt lat="64.40926" lon="21.00357">
        <ele>76.597268</ele>
        <time>2020-09-28T13:05:24.244Z</time>
      </trkpt>
      <trkpt lat="64.40916" lon="21.00368">
        <ele>77.452226</ele>
        <time>2020-09-28T13:05:28.206Z</time>
      </trkpt>
      <trkpt lat="64.40906" lon="21.00378">
        <ele>78.269337</ele>
        <time>2020-09-28T13:05:32.221Z</time>
      </trkpt>
      <trkpt lat="64.40897" lon="21.00391">
        <ele>79.037183</ele>
        <time>2020-09-28T13:05:36.228Z</time>
      </trkpt>
      <trkpt lat="64.40886" lon="21.00403">
        <ele>79.917434</ele>
        <time>2020-09-28T13:05:40.235Z</time>
      </trkpt>
      <trkpt lat="64.40875" lon="21.00413">
        <ele>80.792595</ele>
        <time>2020-09-28T13:05:44.205Z</time>
      </trkpt>
      <trkpt lat="64.40864" lon="21.00417">
        <ele>81.610964</ele>
        <time>2020-09-28T13:05:48.213Z</time>
      </trkpt>
      <trkpt lat="64.40855" lon="21.0042">
        <ele>82.308649</ele>
        <time>2020-09-28T13:05:51.244Z</time>
      </trkpt>
      <trkpt lat="64.40844" lon="21.00424">
        <ele>83.16272</ele>
        <time>2020-09-28T13:05:55.229Z</time>
      </trkpt>
      <trkpt lat="64.40833" lon="21.00424">
        <ele>83.971023</ele>
        <time>2020-09-28T13:05:59.202Z</time>
      </trkpt>
      <trkpt lat="64.40822" lon="21.00425">
        <ele>84.614013</ele>
        <time>2020-09-28T13:06:03.227Z</time>
      </trkpt>
      <trkpt lat="64.40812" lon="21.00427">
        <ele>84.668177</ele>
        <time>2020-09-28T13:06:07.223Z</time>
      </trkpt>
      <trkpt lat="64.40803" lon="21.00431">
        <ele>84.717883</ele>
        <time>2020-09-28T13:06:11.212Z</time>
      </trkpt>
      <trkpt lat="64.40793" lon="21.00433">
        <ele>84.771538</ele>
        <time>2020-09-28T13:06:15.211Z</time>
      </trkpt>
      <trkpt lat="64.40782" lon="21.00435">
        <ele>84.827895</ele>
        <time>2020-09-28T13:06:19.197Z</time>
      </trkpt>
      <trkpt lat="64.40773" lon="21.00441">
        <ele>84.880236</ele>
        <time>2020-09-28T13:06:23.218Z</time>
      </trkpt>
      <trkpt lat="64.40762" lon="21.00449">
        <ele>84.939043</ele>
        <time>2020-09-28T13:06:27.227Z</time>
      </trkpt>
      <trkpt lat="64.40751" lon="21.00451">
        <ele>84.996359</ele>
        <time>2020-09-28T13:06:31.204Z</time>
      </trkpt>
      <trkpt lat="64.40742" lon="21.00451">
        <ele>85.046026</ele>
        <time>2020-09-28T13:06:34.226Z</time>
      </trkpt>
      <trkpt lat="64.40732" lon="21.00453">
        <ele>85.09747</ele>
        <time>2020-09-28T13:06:37.252Z</time>
      </trkpt>
      <trkpt lat="64.40723" lon="21.00456">
        <ele>85.148043</ele>
        <time>2020-09-28T13:06:40.215Z</time>
      </trkpt>
      <trkpt lat="64.40713" lon="21.00457">
        <ele>85.199387</ele>
        <time>2020-09-28T13:06:43.215Z</time>
      </trkpt>
      <trkpt lat="64.40703" lon="21.00461">
        <ele>85.25402</ele>
        <time>2020-09-28T13:06:46.219Z</time>
      </trkpt>
      <trkpt lat="64.40692" lon="21.00468">
        <ele>85.316875</ele>
        <time>2020-09-28T13:06:49.236Z</time>
      </trkpt>
      <trkpt lat="64.4068" lon="21.00474">
        <ele>85.383614</ele>
        <time>2020-09-28T13:06:52.202Z</time>
      </trkpt>
      <trkpt lat="64.40666" lon="21.00482">
        <ele>85.456983</ele>
        <time>2020-09-28T13:06:55.211Z</time>
      </trkpt>
      <trkpt lat="64.40656" lon="21.00488">
        <ele>85.516803</ele>
        <time>2020-09-28T13:06:57.221Z</time>
      </trkpt>
      <trkpt lat="64.40644" lon="21.00495">
        <ele>85.421547</ele>
        <time>2020-09-28T13:06:59.218Z</time>
      </trkpt>
      <trkpt lat="64.40631" lon="21.00504">
        <ele>84.924715</ele>
        <time>2020-09-28T13:07:01.219Z</time>
      </trkpt>
      <trkpt lat="64.4062" lon="21.00512">
        <ele>84.482232</ele>
        <time>2020-09-28T13:07:03.208Z</time>
      </trkpt>
      <trkpt lat="64.4061" lon="21.00519">
        <ele>84.060697</ele>
        <time>2020-09-28T13:07:05.206Z</time>
      </trkpt>
      <trkpt lat="64.40599" lon="21.00525">
        <ele>83.657198</ele>
        <time>2020-09-28T13:07:07.224Z</time>
      </trkpt>
      <trkpt lat="64.40589" lon="21.0053">
        <ele>83.256349</ele>
        <time>2020-09-28T13:07:09.209Z</time>
      </trkpt>
      <trkpt lat="64.4058" lon="21.00536">
        <ele>82.889574</ele>
        <time>2020-09-28T13:07:11.211Z</time>
      </trkpt>
      <trkpt lat="64.4057" lon="21.00542">
        <ele>82.516401</ele>
        <time>2020-09-28T13:07:13.223Z</time>
      </trkpt>
      <trkpt lat="64.4056" lon="21.00552">
        <ele>82.090437</ele>
        <time>2020-09-28T13:07:15.204Z</time>
      </trkpt>
      <trkpt lat="64.4055" lon="21.00564">
        <ele>81.655763</ele>
        <time>2020-09-28T13:07:17.209Z</time>
      </trkpt>
      <trkpt lat="64.40539" lon="21.00578">
        <ele>81.205265</ele>
        <time>2020-09-28T13:07:19.210Z</time>
      </trkpt>
      <trkpt lat="64.40529" lon="21.00594">
        <ele>80.743444</ele>
        <time>2020-09-28T13:07:21.245Z</time>
      </trkpt>
      <trkpt lat="64.40519" lon="21.00611">
        <ele>80.274033</ele>
        <time>2020-09-28T13:07:23.224Z</time>
      </trkpt>
      <trkpt lat="64.4051" lon="21.00628">
        <ele>79.812811</ele>
        <time>2020-09-28T13:07:25.239Z</time>
      </trkpt>
      <trkpt lat="64.40499" lon="21.00645">
        <ele>79.321274</ele>
        <time>2020-09-28T13:07:27.220Z</time>
      </trkpt>
      <trkpt lat="64.40489" lon="21.00662">
        <ele>78.856028</ele>
        <time>2020-09-28T13:07:29.214Z</time>
      </trkpt>
      <trkpt lat="64.40479" lon="21.00678">
        <ele>78.592731</ele>
        <time>2020-09-28T13:07:31.216Z</time>
      </trkpt>
      <trkpt lat="64.40469" lon="21.00691">
        <ele>78.409919</ele>
        <time>2020-09-28T13:07:33.210Z</time>
      </trkpt>
      <trkpt lat="64.40458" lon="21.00704">
        <ele>78.22722</ele>
        <time>2020-09-28T13:07:35.209Z</time>
      </trkpt>
      <trkpt lat="64.40446" lon="21.00717">
        <ele>78.027569</ele>
        <time>2020-09-28T13:07:37.222Z</time>
      </trkpt>
      <trkpt lat="64.40435" lon="21.0073">
        <ele>77.8417</ele>
        <time>2020-09-28T13:07:39.205Z</time>
      </trkpt>
      <trkpt lat="64.40424" lon="21.00743">
        <ele>77.651975</ele>
        <time>2020-09-28T13:07:41.201Z</time>
      </trkpt>
      <trkpt lat="64.40413" lon="21.00755">
        <ele>77.468303</ele>
        <time>2020-09-28T13:07:43.204Z</time>
      </trkpt>
      <trkpt lat="64.40403" lon="21.00766">
        <ele>77.295114</ele>
        <time>2020-09-28T13:07:45.227Z</time>
      </trkpt>
      <trkpt lat="64.40392" lon="21.00776">
        <ele>77.1235</ele>
        <time>2020-09-28T13:07:47.278Z</time>
      </trkpt>
      <trkpt lat="64.40382" lon="21.00784">
        <ele>76.954491</ele>
        <time>2020-09-28T13:07:49.209Z</time>
      </trkpt>
      <trkpt lat="64.40372" lon="21.00792">
        <ele>76.805285</ele>
        <time>2020-09-28T13:07:51.205Z</time>
      </trkpt>
      <trkpt lat="64.40363" lon="21.00798">
        <ele>76.656227</ele>
        <time>2020-09-28T13:07:53.218Z</time>
      </trkpt>
      <trkpt lat="64.40353" lon="21.00805">
        <ele>76.499808</ele>
        <time>2020-09-28T13:07:55.246Z</time>
      </trkpt>
      <trkpt lat="64.40343" lon="21.00813">
        <ele>76.339476</ele>
        <time>2020-09-28T13:07:57.242Z</time>
      </trkpt>
      <trkpt lat="64.40332" lon="21.00817">
        <ele>76.164663</ele>
        <time>2020-09-28T13:07:59.206Z</time>
      </trkpt>
      <trkpt lat="64.40319" lon="21.00819">
        <ele>75.936751</ele>
        <time>2020-09-28T13:08:01.217Z</time>
      </trkpt>
      <trkpt lat="64.40307" lon="21.00821">
        <ele>75.460358</ele>
        <time>2020-09-28T13:08:03.233Z</time>
      </trkpt>
      <trkpt lat="64.40294" lon="21.00821">
        <ele>74.950242</ele>
        <time>2020-09-28T13:08:05.209Z</time>
      </trkpt>
      <trkpt lat="64.40282" lon="21.0082">
        <ele>74.486068</ele>
        <time>2020-09-28T13:08:07.204Z</time>
      </trkpt>
      <trkpt lat="64.4027" lon="21.00818">
        <ele>74.043695</ele>
        <time>2020-09-28T13:08:09.225Z</time>
      </trkpt>
      <trkpt lat="64.40259" lon="21.00813">
        <ele>73.599712</ele>
        <time>2020-09-28T13:08:11.215Z</time>
      </trkpt>
      <trkpt lat="64.40249" lon="21.00807">
        <ele>73.189659</ele>
        <time>2020-09-28T13:08:13.218Z</time>
      </trkpt>
      <trkpt lat="64.40239" lon="21.008">
        <ele>72.789127</ele>
        <time>2020-09-28T13:08:15.222Z</time>
      </trkpt>
      <trkpt lat="64.4023" lon="21.00789">
        <ele>72.390041</ele>
        <time>2020-09-28T13:08:17.219Z</time>
      </trkpt>
      <trkpt lat="64.40221" lon="21.00776">
        <ele>71.976926</ele>
        <time>2020-09-28T13:08:19.226Z</time>
      </trkpt>
      <trkpt lat="64.40212" lon="21.00763">
        <ele>71.566947</ele>
        <time>2020-09-28T13:08:21.232Z</time>
      </trkpt>
      <trkpt lat="64.40204" lon="21.00751">
        <ele>71.204499</ele>
        <time>2020-09-28T13:08:23.204Z</time>
      </trkpt>
      <trkpt lat="64.40196" lon="21.00739">
        <ele>70.842552</ele>
        <time>2020-09-28T13:08:25.269Z</time>
      </trkpt>
      <trkpt lat="64.40188" lon="21.00727">
        <ele>70.485122</ele>
        <time>2020-09-28T13:08:27.219Z</time>
      </trkpt>
      <trkpt lat="64.40178" lon="21.00709">
        <ele>69.985349</ele>
        <time>2020-09-28T13:08:30.229Z</time>
      </trkpt>
      <trkpt lat="64.40167" lon="21.00695">
        <ele>69.506809</ele>
        <time>2020-09-28T13:08:33.226Z</time>
      </trkpt>
      <trkpt lat="64.40156" lon="21.00682">
        <ele>69.028233</ele>
        <time>2020-09-28T13:08:36.238Z</time>
      </trkpt>
      <trkpt lat="64.40147" lon="21.00675">
        <ele>68.769562</ele>
        <time>2020-09-28T13:08:38.211Z</time>
      </trkpt>
      <trkpt lat="64.40138" lon="21.00667">
        <ele>68.499417</ele>
        <time>2020-09-28T13:08:40.203Z</time>
      </trkpt>
      <trkpt lat="64.40129" lon="21.00658">
        <ele>68.223719</ele>
        <time>2020-09-28T13:08:42.226Z</time>
      </trkpt>
      <trkpt lat="64.4012" lon="21.00647">
        <ele>67.93353</ele>
        <time>2020-09-28T13:08:44.220Z</time>
      </trkpt>
      <trkpt lat="64.40112" lon="21.00633">
        <ele>67.6359</ele>
        <time>2020-09-28T13:08:46.238Z</time>
      </trkpt>
      <trkpt lat="64.40103" lon="21.00618">
        <ele>67.338775</ele>
        <time>2020-09-28T13:08:48.230Z</time>
      </trkpt>
      <trkpt lat="64.40095" lon="21.00601">
        <ele>67.026585</ele>
        <time>2020-09-28T13:08:50.226Z</time>
      </trkpt>
      <trkpt lat="64.40087" lon="21.00582">
        <ele>66.70098</ele>
        <time>2020-09-28T13:08:52.213Z</time>
      </trkpt>
      <trkpt lat="64.40079" lon="21.00562">
        <ele>66.360313</ele>
        <time>2020-09-28T13:08:54.224Z</time>
      </trkpt>
      <trkpt lat="64.4007" lon="21.00541">
        <ele>66.007882</ele>
        <time>2020-09-28T13:08:56.223Z</time>
      </trkpt>
      <trkpt lat="64.40062" lon="21.00519">
        <ele>65.648608</ele>
        <time>2020-09-28T13:08:58.238Z</time>
      </trkpt>
      <trkpt lat="64.40053" lon="21.00498">
        <ele>65.280794</ele>
        <time>2020-09-28T13:09:00.236Z</time>
      </trkpt>
      <trkpt lat="64.40044" lon="21.00477">
        <ele>64.917797</ele>
        <time>2020-09-28T13:09:02.241Z</time>
      </trkpt>
      <trkpt lat="64.40035" lon="21.00455">
        <ele>64.569075</ele>
        <time>2020-09-28T13:09:04.209Z</time>
      </trkpt>
      <trkpt lat="64.40027" lon="21.00435">
        <ele>64.231545</ele>
        <time>2020-09-28T13:09:06.217Z</time>
      </trkpt>
      <trkpt lat="64.4002" lon="21.00416">
        <ele>63.978016</ele>
        <time>2020-09-28T13:09:08.220Z</time>
      </trkpt>
      <trkpt lat="64.40013" lon="21.00399">
        <ele>64.14585</ele>
        <time>2020-09-28T13:09:10.207Z</time>
      </trkpt>
      <trkpt lat="64.40006" lon="21.00384">
        <ele>64.305345</ele>
        <time>2020-09-28T13:09:12.248Z</time>
      </trkpt>
      <trkpt lat="64.39999" lon="21.00371">
        <ele>64.453535</ele>
        <time>2020-09-28T13:09:14.233Z</time>
      </trkpt>
      <trkpt lat="64.39988" lon="21.00357">
        <ele>64.660451</ele>
        <time>2020-09-28T13:09:17.219Z</time>
      </trkpt>
      <trkpt lat="64.39977" lon="21.00346">
        <ele>64.854742</ele>
        <time>2020-09-28T13:09:20.251Z</time>
      </trkpt>
      <trkpt lat="64.39966" lon="21.00338">
        <ele>65.041565</ele>
        <time>2020-09-28T13:09:23.221Z</time>
      </trkpt>
      <trkpt lat="64.39955" lon="21.00332">
        <ele>65.231256</ele>
        <time>2020-09-28T13:09:26.244Z</time>
      </trkpt>
      <trkpt lat="64.39944" lon="21.00326">
        <ele>65.428139</ele>
        <time>2020-09-28T13:09:29.218Z</time>
      </trkpt>
      <trkpt lat="64.39931" lon="21.00321">
        <ele>65.633678</ele>
        <time>2020-09-28T13:09:32.216Z</time>
      </trkpt>
      <trkpt lat="64.39919" lon="21.00315">
        <ele>65.840697</ele>
        <time>2020-09-28T13:09:35.214Z</time>
      </trkpt>
      <trkpt lat="64.39906" lon="21.00308">
        <ele>66.054523</ele>
        <time>2020-09-28T13:09:38.238Z</time>
      </trkpt>
      <trkpt lat="64.39893" lon="21.00304">
        <ele>66.27747</ele>
        <time>2020-09-28T13:09:41.206Z</time>
      </trkpt>
      <trkpt lat="64.3988" lon="21.00305">
        <ele>66.490534</ele>
        <time>2020-09-28T13:09:44.251Z</time>
      </trkpt>
      <trkpt lat="64.39867" lon="21.0031">
        <ele>66.70293</ele>
        <time>2020-09-28T13:09:47.248Z</time>
      </trkpt>
      <trkpt lat="64.39855" lon="21.00317">
        <ele>66.911576</ele>
        <time>2020-09-28T13:09:50.225Z</time>
      </trkpt>
      <trkpt lat="64.39843" lon="21.00324">
        <ele>66.947372</ele>
        <time>2020-09-28T13:09:53.224Z</time>
      </trkpt>
      <trkpt lat="64.3983" lon="21.0033">
        <ele>66.969746</ele>
        <time>2020-09-28T13:09:56.229Z</time>
      </trkpt>
      <trkpt lat="64.39821" lon="21.00333">
        <ele>66.985421</ele>
        <time>2020-09-28T13:09:58.210Z</time>
      </trkpt>
      <trkpt lat="64.39811" lon="21.00336">
        <ele>67.002183</ele>
        <time>2020-09-28T13:10:00.207Z</time>
      </trkpt>
      <trkpt lat="64.39801" lon="21.00335">
        <ele>67.019358</ele>
        <time>2020-09-28T13:10:02.235Z</time>
      </trkpt>
      <trkpt lat="64.3979" lon="21.00332">
        <ele>67.037496</ele>
        <time>2020-09-28T13:10:04.269Z</time>
      </trkpt>
      <trkpt lat="64.39779" lon="21.00328">
        <ele>67.056921</ele>
        <time>2020-09-28T13:10:06.206Z</time>
      </trkpt>
      <trkpt lat="64.39768" lon="21.00322">
        <ele>67.076953</ele>
        <time>2020-09-28T13:10:08.234Z</time>
      </trkpt>
      <trkpt lat="64.39757" lon="21.00314">
        <ele>67.096602</ele>
        <time>2020-09-28T13:10:10.227Z</time>
      </trkpt>
      <trkpt lat="64.39746" lon="21.00307">
        <ele>67.116027</ele>
        <time>2020-09-28T13:10:12.204Z</time>
      </trkpt>
      <trkpt lat="64.39735" lon="21.003">
        <ele>67.135372</ele>
        <time>2020-09-28T13:10:14.233Z</time>
      </trkpt>
      <trkpt lat="64.39725" lon="21.00292">
        <ele>67.153419</ele>
        <time>2020-09-28T13:10:16.209Z</time>
      </trkpt>
      <trkpt lat="64.39715" lon="21.00285">
        <ele>67.170154</ele>
        <time>2020-09-28T13:10:18.205Z</time>
      </trkpt>
      <trkpt lat="64.39706" lon="21.00278">
        <ele>67.186947</ele>
        <time>2020-09-28T13:10:20.230Z</time>
      </trkpt>
      <trkpt lat="64.39697" lon="21.00272">
        <ele>67.203189</ele>
        <time>2020-09-28T13:10:22.206Z</time>
      </trkpt>
      <trkpt lat="64.39687" lon="21.00266">
        <ele>67.219309</ele>
        <time>2020-09-28T13:10:24.217Z</time>
      </trkpt>
      <trkpt lat="64.39679" lon="21.00261">
        <ele>67.282812</ele>
        <time>2020-09-28T13:10:26.244Z</time>
      </trkpt>
      <trkpt lat="64.39667" lon="21.00252">
        <ele>68.044699</ele>
        <time>2020-09-28T13:10:29.237Z</time>
      </trkpt>
      <trkpt lat="64.39656" lon="21.00243">
        <ele>68.773425</ele>
        <time>2020-09-28T13:10:32.230Z</time>
      </trkpt>
      <trkpt lat="64.39645" lon="21.00235">
        <ele>69.43528</ele>
        <time>2020-09-28T13:10:35.219Z</time>
      </trkpt>
      <trkpt lat="64.39634" lon="21.00227">
        <ele>70.129518</ele>
        <time>2020-09-28T13:10:38.223Z</time>
      </trkpt>
      <trkpt lat="64.39625" lon="21.0022">
        <ele>70.713319</ele>
        <time>2020-09-28T13:10:41.220Z</time>
      </trkpt>
      <trkpt lat="64.39616" lon="21.00214">
        <ele>71.283881</ele>
        <time>2020-09-28T13:10:44.222Z</time>
      </trkpt>
      <trkpt lat="64.39605" lon="21.00205">
        <ele>72.002656</ele>
        <time>2020-09-28T13:10:48.210Z</time>
      </trkpt>
      <trkpt lat="64.39595" lon="21.00198">
        <ele>72.647855</ele>
        <time>2020-09-28T13:10:52.222Z</time>
      </trkpt>
      <trkpt lat="64.39585" lon="21.00193">
        <ele>73.285496</ele>
        <time>2020-09-28T13:10:56.221Z</time>
      </trkpt>
      <trkpt lat="64.39576" lon="21.00186">
        <ele>73.871779</ele>
        <time>2020-09-28T13:11:00.220Z</time>
      </trkpt>
      <trkpt lat="64.39567" lon="21.00179">
        <ele>74.448961</ele>
        <time>2020-09-28T13:11:04.216Z</time>
      </trkpt>
      <trkpt lat="64.39556" lon="21.00173">
        <ele>75.115801</ele>
        <time>2020-09-28T13:11:09.230Z</time>
      </trkpt>
      <trkpt lat="64.39545" lon="21.00169">
        <ele>75.811816</ele>
        <time>2020-09-28T13:11:14.208Z</time>
      </trkpt>
      <trkpt lat="64.39535" lon="21.00168">
        <ele>76.42396</ele>
        <time>2020-09-28T13:11:18.219Z</time>
      </trkpt>
      <trkpt lat="64.39524" lon="21.00165">
        <ele>77.080005</ele>
        <time>2020-09-28T13:11:23.204Z</time>
      </trkpt>
      <trkpt lat="64.39515" lon="21.00163">
        <ele>77.675289</ele>
        <time>2020-09-28T13:11:27.239Z</time>
      </trkpt>
      <trkpt lat="64.39504" lon="21.0016">
        <ele>78.232127</ele>
        <time>2020-09-28T13:11:31.254Z</time>
      </trkpt>
      <trkpt lat="64.39493" lon="21.00158">
        <ele>78.36368</ele>
        <time>2020-09-28T13:11:35.214Z</time>
      </trkpt>
      <trkpt lat="64.39484" lon="21.00156">
        <ele>78.473765</ele>
        <time>2020-09-28T13:11:38.249Z</time>
      </trkpt>
      <trkpt lat="64.39474" lon="21.00156">
        <ele>78.588283</ele>
        <time>2020-09-28T13:11:41.212Z</time>
      </trkpt>
      <trkpt lat="64.39465" lon="21.00154">
        <ele>78.70207</ele>
        <time>2020-09-28T13:11:44.243Z</time>
      </trkpt>
      <trkpt lat="64.39455" lon="21.00151">
        <ele>78.817185</ele>
        <time>2020-09-28T13:11:47.226Z</time>
      </trkpt>
      <trkpt lat="64.39446" lon="21.0015">
        <ele>78.925868</ele>
        <time>2020-09-28T13:11:50.226Z</time>
      </trkpt>
      <trkpt lat="64.39436" lon="21.00149">
        <ele>79.038137</ele>
        <time>2020-09-28T13:11:53.212Z</time>
      </trkpt>
      <trkpt lat="64.39426" lon="21.00147">
        <ele>79.15289</ele>
        <time>2020-09-28T13:11:56.220Z</time>
      </trkpt>
      <trkpt lat="64.39417" lon="21.00145">
        <ele>79.265455</ele>
        <time>2020-09-28T13:11:59.223Z</time>
      </trkpt>
      <trkpt lat="64.39408" lon="21.00144">
        <ele>79.373187</ele>
        <time>2020-09-28T13:12:02.202Z</time>
      </trkpt>
      <trkpt lat="64.39399" lon="21.00143">
        <ele>79.479512</ele>
        <time>2020-09-28T13:12:05.214Z</time>
      </trkpt>
      <trkpt lat="64.39387" lon="21.00141">
        <ele>79.616638</ele>
        <time>2020-09-28T13:12:09.224Z</time>
      </trkpt>
      <trkpt lat="64.39376" lon="21.00141">
        <ele>79.749997</ele>
        <time>2020-09-28T13:12:13.218Z</time>
      </trkpt>
      <trkpt lat="64.39364" lon="21.00143">
        <ele>79.889691</ele>
        <time>2020-09-28T13:12:17.221Z</time>
      </trkpt>
      <trkpt lat="64.39354" lon="21.00148">
        <ele>80.011362</ele>
        <time>2020-09-28T13:12:21.198Z</time>
      </trkpt>
      <trkpt lat="64.39345" lon="21.00155">
        <ele>80.128528</ele>
        <time>2020-09-28T13:12:25.261Z</time>
      </trkpt>
      <trkpt lat="64.39336" lon="21.00164">
        <ele>80.240369</ele>
        <time>2020-09-28T13:12:29.211Z</time>
      </trkpt>
      <trkpt lat="64.39326" lon="21.00173">
        <ele>80.519946</ele>
        <time>2020-09-28T13:12:33.213Z</time>
      </trkpt>
      <trkpt lat="64.39316" lon="21.00178">
        <ele>81.352669</ele>
        <time>2020-09-28T13:12:37.215Z</time>
      </trkpt>
      <trkpt lat="64.39304" lon="21.00183">
        <ele>82.274253</ele>
        <time>2020-09-28T13:12:41.200Z</time>
      </trkpt>
      <trkpt lat="64.39294" lon="21.00186">
        <ele>83.007803</ele>
        <time>2020-09-28T13:12:44.225Z</time>
      </trkpt>
      <trkpt lat="64.39285" lon="21.00187">
        <ele>83.714137</ele>
        <time>2020-09-28T13:12:47.210Z</time>
      </trkpt>
      <trkpt lat="64.39276" lon="21.00185">
        <ele>84.42308</ele>
        <time>2020-09-28T13:12:50.238Z</time>
      </trkpt>
      <trkpt lat="64.39265" lon="21.00181">
        <ele>85.29821</ele>
        <time>2020-09-28T13:12:54.225Z</time>
      </trkpt>
      <trkpt lat="64.39254" lon="21.00177">
        <ele>86.092488</ele>
        <time>2020-09-28T13:12:58.198Z</time>
      </trkpt>
      <trkpt lat="64.39244" lon="21.00172">
        <ele>86.889143</ele>
        <time>2020-09-28T13:13:02.223Z</time>
      </trkpt>
      <trkpt lat="64.39234" lon="21.0017">
        <ele>87.654337</ele>
        <time>2020-09-28T13:13:06.205Z</time>
      </trkpt>
      <trkpt lat="64.39225" lon="21.00169">
        <ele>88.368121</ele>
        <time>2020-09-28T13:13:10.225Z</time>
      </trkpt>
      <trkpt lat="64.39216" lon="21.00164">
        <ele>89.077472</ele>
        <time>2020-09-28T13:13:14.224Z</time>
      </trkpt>
      <trkpt lat="64.39206" lon="21.00163">
        <ele>89.8454</ele>
        <time>2020-09-28T13:13:18.222Z</time>
      </trkpt>
      <trkpt lat="64.39195" lon="21.00165">
        <ele>90.653433</ele>
        <time>2020-09-28T13:13:23.210Z</time>
      </trkpt>
      <trkpt lat="64.39185" lon="21.0017">
        <ele>91.437662</ele>
        <time>2020-09-28T13:13:29.218Z</time>
      </trkpt>
      <trkpt lat="64.39176" lon="21.00176">
        <ele>92.171909</ele>
        <time>2020-09-28T13:13:34.209Z</time>
      </trkpt>
      <trkpt lat="64.39166" lon="21.00178">
        <ele>92.949916</ele>
        <time>2020-09-28T13:13:39.203Z</time>
      </trkpt>
      <trkpt lat="64.39156" lon="21.0018">
        <ele>93.765112</ele>
        <time>2020-09-28T13:13:44.209Z</time>
      </trkpt>
      <trkpt lat="64.39144" lon="21.00179">
        <ele>94.231456</ele>
        <time>2020-09-28T13:13:49.212Z</time>
      </trkpt>
      <trkpt lat="64.39134" lon="21.00176">
        <ele>94.378001</ele>
        <time>2020-09-28T13:13:53.240Z</time>
      </trkpt>
      <trkpt lat="64.39124" lon="21.0017">
        <ele>94.524747</ele>
        <time>2020-09-28T13:13:57.242Z</time>
      </trkpt>
      <trkpt lat="64.39115" lon="21.00162">
        <ele>94.673196</ele>
        <time>2020-09-28T13:14:02.200Z</time>
      </trkpt>
      <trkpt lat="64.39106" lon="21.00154">
        <ele>94.808047</ele>
        <time>2020-09-28T13:14:07.216Z</time>
      </trkpt>
      <trkpt lat="64.39097" lon="21.00143">
        <ele>94.954406</ele>
        <time>2020-09-28T13:14:12.207Z</time>
      </trkpt>
      <trkpt lat="64.39089" lon="21.00132">
        <ele>95.092667</ele>
        <time>2020-09-28T13:14:15.203Z</time>
      </trkpt>
      <trkpt lat="64.3908" lon="21.00123">
        <ele>95.232644</ele>
        <time>2020-09-28T13:14:17.231Z</time>
      </trkpt>
      <trkpt lat="64.39069" lon="21.00112">
        <ele>95.414559</ele>
        <time>2020-09-28T13:14:19.219Z</time>
      </trkpt>
      <trkpt lat="64.39056" lon="21.00105">
        <ele>95.600554</ele>
        <time>2020-09-28T13:14:21.210Z</time>
      </trkpt>
      <trkpt lat="64.39044" lon="21.00101">
        <ele>95.785668</ele>
        <time>2020-09-28T13:14:23.206Z</time>
      </trkpt>
      <trkpt lat="64.39033" lon="21.00099">
        <ele>95.941622</ele>
        <time>2020-09-28T13:14:25.213Z</time>
      </trkpt>
      <trkpt lat="64.39021" lon="21.00098">
        <ele>96.119153</ele>
        <time>2020-09-28T13:14:28.208Z</time>
      </trkpt>
      <trkpt lat="64.39012" lon="21.001">
        <ele>96.254979</ele>
        <time>2020-09-28T13:14:31.225Z</time>
      </trkpt>
      <trkpt lat="64.39002" lon="21.00101">
        <ele>96.387466</ele>
        <time>2020-09-28T13:14:34.219Z</time>
      </trkpt>
      <trkpt lat="64.38993" lon="21.00102">
        <ele>96.525792</ele>
        <time>2020-09-28T13:14:37.227Z</time>
      </trkpt>
      <trkpt lat="64.38983" lon="21.00102">
        <ele>96.664002</ele>
        <time>2020-09-28T13:14:40.205Z</time>
      </trkpt>
      <trkpt lat="64.38974" lon="21.00103">
        <ele>96.66288</ele>
        <time>2020-09-28T13:14:43.240Z</time>
      </trkpt>
      <trkpt lat="64.38962" lon="21.00105">
        <ele>96.354633</ele>
        <time>2020-09-28T13:14:46.219Z</time>
      </trkpt>
      <trkpt lat="64.38951" lon="21.00106">
        <ele>96.084832</ele>
        <time>2020-09-28T13:14:48.201Z</time>
      </trkpt>
      <trkpt lat="64.38938" lon="21.00108">
        <ele>95.755823</ele>
        <time>2020-09-28T13:14:50.215Z</time>
      </trkpt>
      <trkpt lat="64.38925" lon="21.00113">
        <ele>95.414568</ele>
        <time>2020-09-28T13:14:52.212Z</time>
      </trkpt>
      <trkpt lat="64.38912" lon="21.0012">
        <ele>95.080442</ele>
        <time>2020-09-28T13:14:54.216Z</time>
      </trkpt>
      <trkpt lat="64.389" lon="21.00129">
        <ele>94.758948</ele>
        <time>2020-09-28T13:14:56.241Z</time>
      </trkpt>
      <trkpt lat="64.38889" lon="21.00141">
        <ele>94.458508</ele>
        <time>2020-09-28T13:14:58.210Z</time>
      </trkpt>
      <trkpt lat="64.3888" lon="21.00153">
        <ele>94.175696</ele>
        <time>2020-09-28T13:15:00.241Z</time>
      </trkpt>
      <trkpt lat="64.3887" lon="21.00166">
        <ele>93.896758</ele>
        <time>2020-09-28T13:15:02.223Z</time>
      </trkpt>
      <trkpt lat="64.38861" lon="21.00179">
        <ele>93.622523</ele>
        <time>2020-09-28T13:15:04.227Z</time>
      </trkpt>
      <trkpt lat="64.38853" lon="21.00193">
        <ele>93.360407</ele>
        <time>2020-09-28T13:15:06.206Z</time>
      </trkpt>
      <trkpt lat="64.38843" lon="21.00206">
        <ele>93.085766</ele>
        <time>2020-09-28T13:15:08.241Z</time>
      </trkpt>
      <trkpt lat="64.38834" lon="21.00218">
        <ele>92.819459</ele>
        <time>2020-09-28T13:15:10.219Z</time>
      </trkpt>
      <trkpt lat="64.38826" lon="21.0023">
        <ele>92.576811</ele>
        <time>2020-09-28T13:15:12.219Z</time>
      </trkpt>
      <trkpt lat="64.38818" lon="21.00241">
        <ele>92.335015</ele>
        <time>2020-09-28T13:15:14.238Z</time>
      </trkpt>
      <trkpt lat="64.3881" lon="21.00254">
        <ele>92.011217</ele>
        <time>2020-09-28T13:15:16.210Z</time>
      </trkpt>
      <trkpt lat="64.38803" lon="21.00268">
        <ele>91.564332</ele>
        <time>2020-09-28T13:15:18.241Z</time>
      </trkpt>
      <trkpt lat="64.38796" lon="21.00283">
        <ele>91.112501</ele>
        <time>2020-09-28T13:15:20.203Z</time>
      </trkpt>
      <trkpt lat="64.3879" lon="21.00299">
        <ele>90.68143</ele>
        <time>2020-09-28T13:15:22.227Z</time>
      </trkpt>
      <trkpt lat="64.38785" lon="21.00315">
        <ele>90.243472</ele>
        <time>2020-09-28T13:15:24.210Z</time>
      </trkpt>
      <trkpt lat="64.38777" lon="21.00341">
        <ele>89.59786</ele>
        <time>2020-09-28T13:15:27.219Z</time>
      </trkpt>
      <trkpt lat="64.38772" lon="21.00359">
        <ele>89.161376</ele>
        <time>2020-09-28T13:15:29.242Z</time>
      </trkpt>
      <trkpt lat="64.38766" lon="21.00386">
        <ele>88.520986</ele>
        <time>2020-09-28T13:15:32.211Z</time>
      </trkpt>
      <trkpt lat="64.38762" lon="21.00405">
        <ele>88.077471</ele>
        <time>2020-09-28T13:15:34.256Z</time>
      </trkpt>
      <trkpt lat="64.38757" lon="21.00426">
        <ele>87.587923</ele>
        <time>2020-09-28T13:15:36.224Z</time>
      </trkpt>
      <trkpt lat="64.38751" lon="21.00446">
        <ele>87.082673</ele>
        <time>2020-09-28T13:15:38.213Z</time>
      </trkpt>
      <trkpt lat="64.38745" lon="21.00466">
        <ele>86.575469</ele>
        <time>2020-09-28T13:15:40.224Z</time>
      </trkpt>
      <trkpt lat="64.38738" lon="21.00486">
        <ele>86.048463</ele>
        <time>2020-09-28T13:15:42.218Z</time>
      </trkpt>
      <trkpt lat="64.38732" lon="21.00504">
        <ele>85.568544</ele>
        <time>2020-09-28T13:15:44.236Z</time>
      </trkpt>
      <trkpt lat="64.38726" lon="21.00521">
        <ele>85.118651</ele>
        <time>2020-09-28T13:15:46.216Z</time>
      </trkpt>
      <trkpt lat="64.3872" lon="21.00536">
        <ele>84.684089</ele>
        <time>2020-09-28T13:15:48.224Z</time>
      </trkpt>
      <trkpt lat="64.38713" lon="21.0055">
        <ele>84.255438</ele>
        <time>2020-09-28T13:15:50.222Z</time>
      </trkpt>
      <trkpt lat="64.38706" lon="21.00563">
        <ele>83.799804</ele>
        <time>2020-09-28T13:15:52.205Z</time>
      </trkpt>
      <trkpt lat="64.38698" lon="21.00577">
        <ele>83.593386</ele>
        <time>2020-09-28T13:15:54.222Z</time>
      </trkpt>
      <trkpt lat="64.38689" lon="21.00592">
        <ele>83.672884</ele>
        <time>2020-09-28T13:15:56.210Z</time>
      </trkpt>
      <trkpt lat="64.3868" lon="21.00605">
        <ele>83.747958</ele>
        <time>2020-09-28T13:15:58.208Z</time>
      </trkpt>
      <trkpt lat="64.38672" lon="21.00615">
        <ele>83.821407</ele>
        <time>2020-09-28T13:16:00.205Z</time>
      </trkpt>
      <trkpt lat="64.38663" lon="21.00625">
        <ele>83.893663</ele>
        <time>2020-09-28T13:16:02.249Z</time>
      </trkpt>
      <trkpt lat="64.38653" lon="21.00633">
        <ele>83.966895</ele>
        <time>2020-09-28T13:16:04.226Z</time>
      </trkpt>
      <trkpt lat="64.38644" lon="21.00642">
        <ele>84.042529</ele>
        <time>2020-09-28T13:16:06.227Z</time>
      </trkpt>
      <trkpt lat="64.38634" lon="21.0065">
        <ele>84.116562</ele>
        <time>2020-09-28T13:16:08.235Z</time>
      </trkpt>
      <trkpt lat="64.38625" lon="21.00657">
        <ele>84.188232</ele>
        <time>2020-09-28T13:16:10.222Z</time>
      </trkpt>
      <trkpt lat="64.38614" lon="21.00667">
        <ele>84.278671</ele>
        <time>2020-09-28T13:16:13.241Z</time>
      </trkpt>
      <trkpt lat="64.38601" lon="21.00678">
        <ele>84.374674</ele>
        <time>2020-09-28T13:16:16.207Z</time>
      </trkpt>
      <trkpt lat="64.38592" lon="21.00688">
        <ele>84.448477</ele>
        <time>2020-09-28T13:16:18.213Z</time>
      </trkpt>
      <trkpt lat="64.38584" lon="21.007">
        <ele>84.522691</ele>
        <time>2020-09-28T13:16:20.219Z</time>
      </trkpt>
      <trkpt lat="64.38575" lon="21.00712">
        <ele>84.598675</ele>
        <time>2020-09-28T13:16:22.256Z</time>
      </trkpt>
      <trkpt lat="64.38567" lon="21.00725">
        <ele>84.671287</ele>
        <time>2020-09-28T13:16:24.205Z</time>
      </trkpt>
      <trkpt lat="64.38559" lon="21.00737">
        <ele>84.741618</ele>
        <time>2020-09-28T13:16:26.214Z</time>
      </trkpt>
      <trkpt lat="64.3855" lon="21.00749">
        <ele>84.814598</ele>
        <time>2020-09-28T13:16:28.212Z</time>
      </trkpt>
      <trkpt lat="64.38541" lon="21.00761">
        <ele>84.891708</ele>
        <time>2020-09-28T13:16:30.251Z</time>
      </trkpt>
      <trkpt lat="64.38531" lon="21.00771">
        <ele>84.959611</ele>
        <time>2020-09-28T13:16:32.257Z</time>
      </trkpt>
      <trkpt lat="64.38522" lon="21.00779">
        <ele>85.019869</ele>
        <time>2020-09-28T13:16:34.227Z</time>
      </trkpt>
      <trkpt lat="64.38509" lon="21.00788">
        <ele>85.103255</ele>
        <time>2020-09-28T13:16:37.218Z</time>
      </trkpt>
      <trkpt lat="64.38496" lon="21.00797">
        <ele>85.188031</ele>
        <time>2020-09-28T13:16:40.252Z</time>
      </trkpt>
      <trkpt lat="64.38486" lon="21.00803">
        <ele>85.248301</ele>
        <time>2020-09-28T13:16:42.205Z</time>
      </trkpt>
      <trkpt lat="64.38476" lon="21.00808">
        <ele>85.311397</ele>
        <time>2020-09-28T13:16:44.253Z</time>
      </trkpt>
      <trkpt lat="64.38466" lon="21.00808">
        <ele>85.373503</ele>
        <time>2020-09-28T13:16:46.218Z</time>
      </trkpt>
      <trkpt lat="64.38456" lon="21.00801">
        <ele>85.440632</ele>
        <time>2020-09-28T13:16:48.209Z</time>
      </trkpt>
      <trkpt lat="64.38447" lon="21.00789">
        <ele>85.50379</ele>
        <time>2020-09-28T13:16:50.209Z</time>
      </trkpt>
      <trkpt lat="64.3844" lon="21.00764">
        <ele>85.584376</ele>
        <time>2020-09-28T13:16:53.233Z</time>
      </trkpt>
      <trkpt lat="64.38436" lon="21.00738">
        <ele>85.65913</ele>
        <time>2020-09-28T13:16:56.226Z</time>
      </trkpt>
      <trkpt lat="64.38433" lon="21.00717">
        <ele>85.719274</ele>
        <time>2020-09-28T13:16:58.230Z</time>
      </trkpt>
      <trkpt lat="64.38427" lon="21.00697">
        <ele>85.783486</ele>
        <time>2020-09-28T13:17:00.219Z</time>
      </trkpt>
      <trkpt lat="64.38421" lon="21.00678">
        <ele>85.849333</ele>
        <time>2020-09-28T13:17:02.244Z</time>
      </trkpt>
      <trkpt lat="64.38412" lon="21.00661">
        <ele>85.917463</ele>
        <time>2020-09-28T13:17:04.231Z</time>
      </trkpt>
      <trkpt lat="64.38405" lon="21.00643">
        <ele>85.984239</ele>
        <time>2020-09-28T13:17:06.202Z</time>
      </trkpt>
      <trkpt lat="64.38397" lon="21.00628">
        <ele>85.957105</ele>
        <time>2020-09-28T13:17:08.224Z</time>
      </trkpt>
      <trkpt lat="64.38388" lon="21.0061">
        <ele>85.891835</ele>
        <time>2020-09-28T13:17:11.220Z</time>
      </trkpt>
      <trkpt lat="64.38379" lon="21.00594">
        <ele>85.832414</ele>
        <time>2020-09-28T13:17:14.257Z</time>
      </trkpt>
      <trkpt lat="64.38371" lon="21.00577">
        <ele>85.773953</ele>
        <time>2020-09-28T13:17:17.212Z</time>
      </trkpt>
      <trkpt lat="64.38362" lon="21.00557">
        <ele>85.707426</ele>
        <time>2020-09-28T13:17:20.209Z</time>
      </trkpt>
      <trkpt lat="64.38355" lon="21.00542">
        <ele>85.659294</ele>
        <time>2020-09-28T13:17:22.203Z</time>
      </trkpt>
      <trkpt lat="64.38348" lon="21.00528">
        <ele>85.608434</ele>
        <time>2020-09-28T13:17:24.211Z</time>
      </trkpt>
      <trkpt lat="64.3834" lon="21.00514">
        <ele>85.558036</ele>
        <time>2020-09-28T13:17:26.226Z</time>
      </trkpt>
      <trkpt lat="64.38334" lon="21.00497">
        <ele>85.508058</ele>
        <time>2020-09-28T13:17:28.241Z</time>
      </trkpt>
      <trkpt lat="64.38328" lon="21.0048">
        <ele>85.457212</ele>
        <time>2020-09-28T13:17:30.210Z</time>
      </trkpt>
      <trkpt lat="64.38322" lon="21.00455">
        <ele>85.389165</ele>
        <time>2020-09-28T13:17:33.222Z</time>
      </trkpt>
      <trkpt lat="64.38316" lon="21.00434">
        <ele>85.333166</ele>
        <time>2020-09-28T13:17:36.231Z</time>
      </trkpt>
      <trkpt lat="64.38311" lon="21.00416">
        <ele>85.283797</ele>
        <time>2020-09-28T13:17:40.218Z</time>
      </trkpt>
      <trkpt lat="64.38305" lon="21.00395">
        <ele>85.225852</ele>
        <time>2020-09-28T13:17:44.222Z</time>
      </trkpt>
      <trkpt lat="64.38298" lon="21.00376">
        <ele>85.169439</ele>
        <time>2020-09-28T13:17:47.221Z</time>
      </trkpt>
      <trkpt lat="64.38289" lon="21.00356">
        <ele>85.102688</ele>
        <time>2020-09-28T13:17:50.229Z</time>
      </trkpt>
      <trkpt lat="64.38278" lon="21.00339">
        <ele>85.070735</ele>
        <time>2020-09-28T13:17:53.214Z</time>
      </trkpt>
      <trkpt lat="64.38269" lon="21.00329">
        <ele>85.184716</ele>
        <time>2020-09-28T13:17:55.211Z</time>
      </trkpt>
      <trkpt lat="64.3826" lon="21.00321">
        <ele>85.307521</ele>
        <time>2020-09-28T13:17:57.231Z</time>
      </trkpt>
      <trkpt lat="64.38248" lon="21.00314">
        <ele>85.444169</ele>
        <time>2020-09-28T13:17:59.220Z</time>
      </trkpt>
      <trkpt lat="64.38237" lon="21.00302">
        <ele>85.587401</ele>
        <time>2020-09-28T13:18:01.227Z</time>
      </trkpt>
      <trkpt lat="64.38227" lon="21.00291">
        <ele>85.728274</ele>
        <time>2020-09-28T13:18:03.210Z</time>
      </trkpt>
      <trkpt lat="64.38217" lon="21.00279">
        <ele>85.854449</ele>
        <time>2020-09-28T13:18:05.208Z</time>
      </trkpt>
      <trkpt lat="64.38206" lon="21.00264">
        <ele>86.01212</ele>
        <time>2020-09-28T13:18:08.249Z</time>
      </trkpt>
      <trkpt lat="64.38195" lon="21.00248">
        <ele>86.166984</ele>
        <time>2020-09-28T13:18:11.212Z</time>
      </trkpt>
      <trkpt lat="64.38184" lon="21.00232">
        <ele>86.318726</ele>
        <time>2020-09-28T13:18:14.245Z</time>
      </trkpt>
      <trkpt lat="64.38173" lon="21.00214">
        <ele>86.48055</ele>
        <time>2020-09-28T13:18:17.224Z</time>
      </trkpt>
      <trkpt lat="64.38163" lon="21.00203">
        <ele>86.605316</ele>
        <time>2020-09-28T13:18:19.216Z</time>
      </trkpt>
      <trkpt lat="64.38153" lon="21.00192">
        <ele>86.745098</ele>
        <time>2020-09-28T13:18:21.228Z</time>
      </trkpt>
      <trkpt lat="64.38142" lon="21.00181">
        <ele>86.884033</ele>
        <time>2020-09-28T13:18:23.213Z</time>
      </trkpt>
      <trkpt lat="64.38131" lon="21.00168">
        <ele>87.028781</ele>
        <time>2020-09-28T13:18:25.221Z</time>
      </trkpt>
      <trkpt lat="64.38121" lon="21.00158">
        <ele>87.155225</ele>
        <time>2020-09-28T13:18:27.225Z</time>
      </trkpt>
      <trkpt lat="64.38113" lon="21.00149">
        <ele>87.082498</ele>
        <time>2020-09-28T13:18:29.201Z</time>
      </trkpt>
      <trkpt lat="64.38103" lon="21.00139">
        <ele>86.953438</ele>
        <time>2020-09-28T13:18:31.221Z</time>
      </trkpt>
      <trkpt lat="64.38094" lon="21.00133">
        <ele>86.831148</ele>
        <time>2020-09-28T13:18:33.239Z</time>
      </trkpt>
      <trkpt lat="64.38085" lon="21.00125">
        <ele>86.712709</ele>
        <time>2020-09-28T13:18:35.205Z</time>
      </trkpt>
      <trkpt lat="64.38073" lon="21.00114">
        <ele>86.542141</ele>
        <time>2020-09-28T13:18:38.221Z</time>
      </trkpt>
      <trkpt lat="64.38061" lon="21.00101">
        <ele>86.377458</ele>
        <time>2020-09-28T13:18:41.237Z</time>
      </trkpt>
      <trkpt lat="64.3805" lon="21.00088">
        <ele>86.21762</ele>
        <time>2020-09-28T13:18:44.215Z</time>
      </trkpt>
      <trkpt lat="64.38039" lon="21.00075">
        <ele>86.061098</ele>
        <time>2020-09-28T13:18:47.212Z</time>
      </trkpt>
      <trkpt lat="64.38028" lon="21.00061">
        <ele>85.904742</ele>
        <time>2020-09-28T13:18:50.244Z</time>
      </trkpt>
      <trkpt lat="64.38018" lon="21.00047">
        <ele>85.756007</ele>
        <time>2020-09-28T13:18:53.205Z</time>
      </trkpt>
      <trkpt lat="64.38007" lon="21.00031">
        <ele>85.595994</ele>
        <time>2020-09-28T13:18:56.206Z</time>
      </trkpt>
      <trkpt lat="64.37997" lon="21.00015">
        <ele>85.434659</ele>
        <time>2020-09-28T13:18:59.236Z</time>
      </trkpt>
      <trkpt lat="64.37986" lon="20.99997">
        <ele>85.268333</ele>
        <time>2020-09-28T13:19:02.221Z</time>
      </trkpt>
      <trkpt lat="64.37979" lon="20.99982">
        <ele>85.145988</ele>
        <time>2020-09-28T13:19:04.207Z</time>
      </trkpt>
      <trkpt lat="64.37971" lon="20.99967">
        <ele>85.015282</ele>
        <time>2020-09-28T13:19:06.223Z</time>
      </trkpt>
      <trkpt lat="64.37963" lon="20.99951">
        <ele>84.939288</ele>
        <time>2020-09-28T13:19:08.228Z</time>
      </trkpt>
      <trkpt lat="64.37956" lon="20.99936">
        <ele>85.175939</ele>
        <time>2020-09-28T13:19:10.224Z</time>
      </trkpt>
      <trkpt lat="64.37949" lon="20.99916">
        <ele>85.454443</ele>
        <time>2020-09-28T13:19:13.220Z</time>
      </trkpt>
      <trkpt lat="64.37942" lon="20.99899">
        <ele>85.70769</ele>
        <time>2020-09-28T13:19:17.247Z</time>
      </trkpt>
      <trkpt lat="64.37935" lon="20.99878">
        <ele>85.985653</ele>
        <time>2020-09-28T13:19:22.224Z</time>
      </trkpt>
      <trkpt lat="64.3793" lon="20.99859">
        <ele>86.232114</ele>
        <time>2020-09-28T13:19:26.265Z</time>
      </trkpt>
      <trkpt lat="64.37924" lon="20.9984">
        <ele>86.484696</ele>
        <time>2020-09-28T13:19:29.212Z</time>
      </trkpt>
      <trkpt lat="64.37917" lon="20.99818">
        <ele>86.783481</ele>
        <time>2020-09-28T13:19:32.233Z</time>
      </trkpt>
      <trkpt lat="64.37909" lon="20.99801">
        <ele>87.048266</ele>
        <time>2020-09-28T13:19:35.224Z</time>
      </trkpt>
      <trkpt lat="64.37902" lon="20.99786">
        <ele>87.289139</ele>
        <time>2020-09-28T13:19:38.236Z</time>
      </trkpt>
      <trkpt lat="64.37894" lon="20.99772">
        <ele>87.53702</ele>
        <time>2020-09-28T13:19:41.252Z</time>
      </trkpt>
      <trkpt lat="64.37884" lon="20.99759">
        <ele>87.822924</ele>
        <time>2020-09-28T13:19:44.216Z</time>
      </trkpt>
      <trkpt lat="64.37873" lon="20.99749">
        <ele>88.118107</ele>
        <time>2020-09-28T13:19:47.225Z</time>
      </trkpt>
      <trkpt lat="64.37862" lon="20.99739">
        <ele>88.421814</ele>
        <time>2020-09-28T13:19:50.206Z</time>
      </trkpt>
      <trkpt lat="64.37851" lon="20.99731">
        <ele>88.711088</ele>
        <time>2020-09-28T13:19:53.237Z</time>
      </trkpt>
      <trkpt lat="64.37839" lon="20.99725">
        <ele>89.023008</ele>
        <time>2020-09-28T13:19:56.225Z</time>
      </trkpt>
      <trkpt lat="64.37826" lon="20.99722">
        <ele>89.334344</ele>
        <time>2020-09-28T13:19:59.240Z</time>
      </trkpt>
      <trkpt lat="64.37815" lon="20.9972">
        <ele>89.135948</ele>
        <time>2020-09-28T13:20:02.248Z</time>
      </trkpt>
      <trkpt lat="64.37801" lon="20.99718">
        <ele>88.773052</ele>
        <time>2020-09-28T13:20:05.215Z</time>
      </trkpt>
      <trkpt lat="64.37791" lon="20.99718">
        <ele>88.498779</ele>
        <time>2020-09-28T13:20:07.232Z</time>
      </trkpt>
      <trkpt lat="64.37781" lon="20.99721">
        <ele>88.200574</ele>
        <time>2020-09-28T13:20:09.219Z</time>
      </trkpt>
      <trkpt lat="64.37769" lon="20.99724">
        <ele>87.882741</ele>
        <time>2020-09-28T13:20:11.260Z</time>
      </trkpt>
      <trkpt lat="64.37757" lon="20.99728">
        <ele>87.552753</ele>
        <time>2020-09-28T13:20:13.209Z</time>
      </trkpt>
      <trkpt lat="64.37746" lon="20.99732">
        <ele>87.250054</ele>
        <time>2020-09-28T13:20:15.223Z</time>
      </trkpt>
      <trkpt lat="64.37736" lon="20.99735">
        <ele>86.954966</ele>
        <time>2020-09-28T13:20:17.205Z</time>
      </trkpt>
      <trkpt lat="64.37726" lon="20.99736">
        <ele>86.691448</ele>
        <time>2020-09-28T13:20:19.220Z</time>
      </trkpt>
      <trkpt lat="64.37717" lon="20.99738">
        <ele>86.434517</ele>
        <time>2020-09-28T13:20:21.206Z</time>
      </trkpt>
      <trkpt lat="64.37708" lon="20.99741">
        <ele>86.185752</ele>
        <time>2020-09-28T13:20:23.220Z</time>
      </trkpt>
      <trkpt lat="64.37698" lon="20.99743">
        <ele>85.923889</ele>
        <time>2020-09-28T13:20:25.218Z</time>
      </trkpt>
      <trkpt lat="64.37688" lon="20.99747">
        <ele>85.646493</ele>
        <time>2020-09-28T13:20:27.205Z</time>
      </trkpt>
      <trkpt lat="64.37678" lon="20.9975">
        <ele>85.357892</ele>
        <time>2020-09-28T13:20:29.238Z</time>
      </trkpt>
      <trkpt lat="64.37667" lon="20.99752">
        <ele>85.057995</ele>
        <time>2020-09-28T13:20:31.223Z</time>
      </trkpt>
      <trkpt lat="64.37656" lon="20.99753">
        <ele>84.772505</ele>
        <time>2020-09-28T13:20:33.225Z</time>
      </trkpt>
      <trkpt lat="64.37644" lon="20.99757">
        <ele>84.46161</ele>
        <time>2020-09-28T13:20:36.213Z</time>
      </trkpt>
      <trkpt lat="64.37633" lon="20.99762">
        <ele>84.464507</ele>
        <time>2020-09-28T13:20:39.229Z</time>
      </trkpt>
      <trkpt lat="64.37623" lon="20.99766">
        <ele>84.467234</ele>
        <time>2020-09-28T13:20:42.260Z</time>
      </trkpt>
      <trkpt lat="64.37614" lon="20.99771">
        <ele>84.469695</ele>
        <time>2020-09-28T13:20:45.218Z</time>
      </trkpt>
      <trkpt lat="64.37606" lon="20.99778">
        <ele>84.472104</ele>
        <time>2020-09-28T13:20:48.201Z</time>
      </trkpt>
      <trkpt lat="64.37596" lon="20.99782">
        <ele>84.474695</ele>
        <time>2020-09-28T13:20:51.220Z</time>
      </trkpt>
      <trkpt lat="64.37585" lon="20.99787">
        <ele>84.477657</ele>
        <time>2020-09-28T13:20:54.248Z</time>
      </trkpt>
      <trkpt lat="64.37573" lon="20.99788">
        <ele>84.480821</ele>
        <time>2020-09-28T13:20:57.254Z</time>
      </trkpt>
      <trkpt lat="64.37562" lon="20.99788">
        <ele>84.483928</ele>
        <time>2020-09-28T13:21:00.228Z</time>
      </trkpt>
      <trkpt lat="64.3755" lon="20.99785">
        <ele>84.48713</ele>
        <time>2020-09-28T13:21:03.211Z</time>
      </trkpt>
      <trkpt lat="64.3754" lon="20.99783">
        <ele>84.489871</ele>
        <time>2020-09-28T13:21:06.243Z</time>
      </trkpt>
      <trkpt lat="64.37528" lon="20.99782">
        <ele>84.492903</ele>
        <time>2020-09-28T13:21:10.231Z</time>
      </trkpt>
      <trkpt lat="64.37518" lon="20.99783">
        <ele>84.495666</ele>
        <time>2020-09-28T13:21:14.241Z</time>
      </trkpt>
      <trkpt lat="64.37506" lon="20.99782">
        <ele>84.498828</ele>
        <time>2020-09-28T13:21:18.217Z</time>
      </trkpt>
      <trkpt lat="64.37495" lon="20.9978">
        <ele>84.501897</ele>
        <time>2020-09-28T13:21:22.225Z</time>
      </trkpt>
      <trkpt lat="64.37486" lon="20.99775">
        <ele>84.504447</ele>
        <time>2020-09-28T13:21:25.216Z</time>
      </trkpt>
      <trkpt lat="64.37476" lon="20.9977">
        <ele>84.507123</ele>
        <time>2020-09-28T13:21:28.226Z</time>
      </trkpt>
      <trkpt lat="64.37465" lon="20.99764">
        <ele>84.464246</ele>
        <time>2020-09-28T13:21:31.209Z</time>
      </trkpt>
      <trkpt lat="64.37454" lon="20.99758">
        <ele>84.270786</ele>
        <time>2020-09-28T13:21:34.228Z</time>
      </trkpt>
      <trkpt lat="64.37441" lon="20.99749">
        <ele>84.040369</ele>
        <time>2020-09-28T13:21:37.210Z</time>
      </trkpt>
      <trkpt lat="64.37432" lon="20.99742">
        <ele>83.876328</ele>
        <time>2020-09-28T13:21:39.226Z</time>
      </trkpt>
      <trkpt lat="64.37422" lon="20.9973">
        <ele>83.685339</ele>
        <time>2020-09-28T13:21:41.212Z</time>
      </trkpt>
      <trkpt lat="64.37411" lon="20.99707">
        <ele>83.436665</ele>
        <time>2020-09-28T13:21:43.208Z</time>
      </trkpt>
      <trkpt lat="64.37402" lon="20.99675">
        <ele>83.152414</ele>
        <time>2020-09-28T13:21:45.261Z</time>
      </trkpt>
      <trkpt lat="64.37395" lon="20.99643">
        <ele>82.886098</ele>
        <time>2020-09-28T13:21:47.220Z</time>
      </trkpt>
      <trkpt lat="64.3739" lon="20.99615">
        <ele>82.662667</ele>
        <time>2020-09-28T13:21:49.268Z</time>
      </trkpt>
      <trkpt lat="64.37385" lon="20.99593">
        <ele>82.480904</ele>
        <time>2020-09-28T13:21:51.225Z</time>
      </trkpt>
      <trkpt lat="64.37378" lon="20.9957">
        <ele>82.27503</ele>
        <time>2020-09-28T13:21:54.222Z</time>
      </trkpt>
      <trkpt lat="64.37371" lon="20.99554">
        <ele>82.105727</ele>
        <time>2020-09-28T13:21:59.218Z</time>
      </trkpt>
      <trkpt lat="64.37362" lon="20.99542">
        <ele>81.924101</ele>
        <time>2020-09-28T13:22:06.214Z</time>
      </trkpt>
      <trkpt lat="64.37353" lon="20.99533">
        <ele>81.758008</ele>
        <time>2020-09-28T13:22:11.222Z</time>
      </trkpt>
      <trkpt lat="64.37343" lon="20.99522">
        <ele>81.569134</ele>
        <time>2020-09-28T13:22:17.208Z</time>
      </trkpt>
      <trkpt lat="64.37334" lon="20.99512">
        <ele>81.539498</ele>
        <time>2020-09-28T13:22:23.221Z</time>
      </trkpt>
      <trkpt lat="64.37325" lon="20.99502">
        <ele>81.91345</ele>
        <time>2020-09-28T13:22:28.208Z</time>
      </trkpt>
      <trkpt lat="64.37316" lon="20.99489">
        <ele>82.317665</ele>
        <time>2020-09-28T13:22:33.215Z</time>
      </trkpt>
      <trkpt lat="64.37309" lon="20.99475">
        <ele>82.684308</ele>
        <time>2020-09-28T13:22:38.230Z</time>
      </trkpt>
      <trkpt lat="64.37302" lon="20.99461">
        <ele>83.040551</ele>
        <time>2020-09-28T13:22:43.241Z</time>
      </trkpt>
      <trkpt lat="64.37295" lon="20.99442">
        <ele>83.440711</ele>
        <time>2020-09-28T13:22:48.225Z</time>
      </trkpt>
      <trkpt lat="64.37288" lon="20.99427">
        <ele>83.83201</ele>
        <time>2020-09-28T13:22:53.240Z</time>
      </trkpt>
      <trkpt lat="64.37279" lon="20.99412">
        <ele>84.24133</ele>
        <time>2020-09-28T13:22:58.213Z</time>
      </trkpt>
      <trkpt lat="64.3727" lon="20.99399">
        <ele>84.674588</ele>
        <time>2020-09-28T13:23:03.253Z</time>
      </trkpt>
      <trkpt lat="64.3726" lon="20.99388">
        <ele>85.080891</ele>
        <time>2020-09-28T13:23:07.217Z</time>
      </trkpt>
      <trkpt lat="64.37251" lon="20.99381">
        <ele>85.459121</ele>
        <time>2020-09-28T13:23:11.220Z</time>
      </trkpt>
      <trkpt lat="64.37241" lon="20.99377">
        <ele>85.837232</ele>
        <time>2020-09-28T13:23:15.246Z</time>
      </trkpt>
      <trkpt lat="64.37232" lon="20.99376">
        <ele>86.196358</ele>
        <time>2020-09-28T13:23:19.236Z</time>
      </trkpt>
      <trkpt lat="64.37222" lon="20.99378">
        <ele>86.575019</ele>
        <time>2020-09-28T13:23:23.251Z</time>
      </trkpt>
      <trkpt lat="64.37213" lon="20.9938">
        <ele>86.942757</ele>
        <time>2020-09-28T13:23:27.218Z</time>
      </trkpt>
      <trkpt lat="64.37202" lon="20.99382">
        <ele>87.338886</ele>
        <time>2020-09-28T13:23:32.199Z</time>
      </trkpt>
      <trkpt lat="64.37192" lon="20.99383">
        <ele>87.732255</ele>
        <time>2020-09-28T13:23:36.218Z</time>
      </trkpt>
      <trkpt lat="64.37183" lon="20.9938">
        <ele>88.085113</ele>
        <time>2020-09-28T13:23:39.208Z</time>
      </trkpt>
      <trkpt lat="64.37173" lon="20.99376">
        <ele>88.474184</ele>
        <time>2020-09-28T13:23:42.228Z</time>
      </trkpt>
      <trkpt lat="64.37163" lon="20.99367">
        <ele>88.881842</ele>
        <time>2020-09-28T13:23:45.247Z</time>
      </trkpt>
      <trkpt lat="64.37154" lon="20.99356">
        <ele>89.247958</ele>
        <time>2020-09-28T13:23:48.212Z</time>
      </trkpt>
      <trkpt lat="64.37146" lon="20.99342">
        <ele>89.636605</ele>
        <time>2020-09-28T13:23:51.229Z</time>
      </trkpt>
      <trkpt lat="64.37136" lon="20.99325">
        <ele>90.069146</ele>
        <time>2020-09-28T13:23:54.225Z</time>
      </trkpt>
      <trkpt lat="64.37128" lon="20.99309">
        <ele>90.469499</ele>
        <time>2020-09-28T13:23:57.229Z</time>
      </trkpt>
      <trkpt lat="64.3712" lon="20.99294">
        <ele>90.844181</ele>
        <time>2020-09-28T13:24:00.210Z</time>
      </trkpt>
      <trkpt lat="64.37114" lon="20.99278">
        <ele>91.182965</ele>
        <time>2020-09-28T13:24:03.269Z</time>
      </trkpt>
      <trkpt lat="64.37107" lon="20.99258">
        <ele>91.60263</ele>
        <time>2020-09-28T13:24:07.231Z</time>
      </trkpt>
      <trkpt lat="64.37101" lon="20.99243">
        <ele>91.934413</ele>
        <time>2020-09-28T13:24:10.208Z</time>
      </trkpt>
      <trkpt lat="64.37093" lon="20.99225">
        <ele>92.350488</ele>
        <time>2020-09-28T13:24:14.239Z</time>
      </trkpt>
      <trkpt lat="64.37086" lon="20.99209">
        <ele>92.706177</ele>
        <time>2020-09-28T13:24:17.225Z</time>
      </trkpt>
      <trkpt lat="64.37079" lon="20.99195">
        <ele>93.053262</ele>
        <time>2020-09-28T13:24:20.261Z</time>
      </trkpt>
      <trkpt lat="64.37072" lon="20.9918">
        <ele>93.390978</ele>
        <time>2020-09-28T13:24:23.251Z</time>
      </trkpt>
      <trkpt lat="64.37065" lon="20.99168">
        <ele>93.732801</ele>
        <time>2020-09-28T13:24:26.208Z</time>
      </trkpt>
      <trkpt lat="64.37056" lon="20.99151">
        <ele>94.163491</ele>
        <time>2020-09-28T13:24:30.276Z</time>
      </trkpt>
      <trkpt lat="64.37048" lon="20.99134">
        <ele>94.556023</ele>
        <time>2020-09-28T13:24:34.253Z</time>
      </trkpt>
      <trkpt lat="64.3704" lon="20.99118">
        <ele>94.935011</ele>
        <time>2020-09-28T13:24:38.251Z</time>
      </trkpt>
      <trkpt lat="64.37033" lon="20.99101">
        <ele>94.92108</ele>
        <time>2020-09-28T13:24:42.209Z</time>
      </trkpt>
      <trkpt lat="64.37026" lon="20.99084">
        <ele>94.778253</ele>
        <time>2020-09-28T13:24:46.221Z</time>
      </trkpt>
      <trkpt lat="64.37018" lon="20.99069">
        <ele>94.638702</ele>
        <time>2020-09-28T13:24:50.225Z</time>
      </trkpt>
      <trkpt lat="64.37011" lon="20.99053">
        <ele>94.505478</ele>
        <time>2020-09-28T13:24:54.221Z</time>
      </trkpt>
      <trkpt lat="64.37004" lon="20.99038">
        <ele>94.373612</ele>
        <time>2020-09-28T13:24:58.225Z</time>
      </trkpt>
      <trkpt lat="64.36999" lon="20.99018">
        <ele>94.241027</ele>
        <time>2020-09-28T13:25:03.239Z</time>
      </trkpt>
      <trkpt lat="64.36995" lon="20.98995">
        <ele>94.092752</ele>
        <time>2020-09-28T13:25:08.209Z</time>
      </trkpt>
      <trkpt lat="64.36988" lon="20.98977">
        <ele>93.94899</ele>
        <time>2020-09-28T13:25:12.235Z</time>
      </trkpt>
      <trkpt lat="64.36983" lon="20.98954">
        <ele>93.800331</ele>
        <time>2020-09-28T13:25:15.229Z</time>
      </trkpt>
      <trkpt lat="64.36979" lon="20.98936">
        <ele>93.67634</ele>
        <time>2020-09-28T13:25:17.202Z</time>
      </trkpt>
      <trkpt lat="64.36974" lon="20.98912">
        <ele>93.517051</ele>
        <time>2020-09-28T13:25:19.246Z</time>
      </trkpt>
      <trkpt lat="64.36968" lon="20.98884">
        <ele>93.330457</ele>
        <time>2020-09-28T13:25:21.201Z</time>
      </trkpt>
      <trkpt lat="64.36961" lon="20.98858">
        <ele>93.146034</ele>
        <time>2020-09-28T13:25:23.217Z</time>
      </trkpt>
      <trkpt lat="64.36951" lon="20.98834">
        <ele>92.954676</ele>
        <time>2020-09-28T13:25:25.230Z</time>
      </trkpt>
      <trkpt lat="64.36941" lon="20.9881">
        <ele>92.760146</ele>
        <time>2020-09-28T13:25:27.200Z</time>
      </trkpt>
      <trkpt lat="64.36932" lon="20.98791">
        <ele>92.582467</ele>
        <time>2020-09-28T13:25:29.224Z</time>
      </trkpt>
      <trkpt lat="64.36922" lon="20.98772">
        <ele>92.188902</ele>
        <time>2020-09-28T13:25:31.228Z</time>
      </trkpt>
      <trkpt lat="64.36912" lon="20.98756">
        <ele>91.776839</ele>
        <time>2020-09-28T13:25:33.221Z</time>
      </trkpt>
      <trkpt lat="64.36903" lon="20.9874">
        <ele>91.394306</ele>
        <time>2020-09-28T13:25:35.225Z</time>
      </trkpt>
      <trkpt lat="64.36895" lon="20.98721">
        <ele>91.012302</ele>
        <time>2020-09-28T13:25:37.233Z</time>
      </trkpt>
      <trkpt lat="64.36887" lon="20.98699">
        <ele>90.607477</ele>
        <time>2020-09-28T13:25:39.210Z</time>
      </trkpt>
      <trkpt lat="64.36879" lon="20.98677">
        <ele>90.168613</ele>
        <time>2020-09-28T13:25:41.245Z</time>
      </trkpt>
      <trkpt lat="64.36871" lon="20.98652">
        <ele>89.708322</ele>
        <time>2020-09-28T13:25:43.228Z</time>
      </trkpt>
      <trkpt lat="64.36861" lon="20.98627">
        <ele>89.242075</ele>
        <time>2020-09-28T13:25:45.241Z</time>
      </trkpt>
      <trkpt lat="64.36855" lon="20.98605">
        <ele>88.855713</ele>
        <time>2020-09-28T13:25:47.222Z</time>
      </trkpt>
      <trkpt lat="64.36849" lon="20.98584">
        <ele>88.485248</ele>
        <time>2020-09-28T13:25:49.233Z</time>
      </trkpt>
      <trkpt lat="64.36844" lon="20.98563">
        <ele>88.124449</ele>
        <time>2020-09-28T13:25:51.220Z</time>
      </trkpt>
      <trkpt lat="64.36839" lon="20.98541">
        <ele>87.763528</ele>
        <time>2020-09-28T13:25:53.252Z</time>
      </trkpt>
      <trkpt lat="64.36833" lon="20.9852">
        <ele>87.410428</ele>
        <time>2020-09-28T13:25:55.239Z</time>
      </trkpt>
      <trkpt lat="64.36829" lon="20.98501">
        <ele>87.102723</ele>
        <time>2020-09-28T13:25:57.219Z</time>
      </trkpt>
      <trkpt lat="64.36823" lon="20.98476">
        <ele>86.683109</ele>
        <time>2020-09-28T13:26:00.210Z</time>
      </trkpt>
      <trkpt lat="64.36817" lon="20.98454">
        <ele>86.799423</ele>
        <time>2020-09-28T13:26:03.247Z</time>
      </trkpt>
      <trkpt lat="64.36812" lon="20.98433">
        <ele>87.341121</ele>
        <time>2020-09-28T13:26:06.224Z</time>
      </trkpt>
      <trkpt lat="64.36809" lon="20.98412">
        <ele>87.851056</ele>
        <time>2020-09-28T13:26:09.222Z</time>
      </trkpt>
      <trkpt lat="64.36804" lon="20.98393">
        <ele>88.330379</ele>
        <time>2020-09-28T13:26:12.216Z</time>
      </trkpt>
      <trkpt lat="64.368" lon="20.98369">
        <ele>88.925021</ele>
        <time>2020-09-28T13:26:16.240Z</time>
      </trkpt>
      <trkpt lat="64.36795" lon="20.98345">
        <ele>89.524926</ele>
        <time>2020-09-28T13:26:20.217Z</time>
      </trkpt>
      <trkpt lat="64.3679" lon="20.98328">
        <ele>89.99679</ele>
        <time>2020-09-28T13:26:23.210Z</time>
      </trkpt>
      <trkpt lat="64.36782" lon="20.9831">
        <ele>90.562295</ele>
        <time>2020-09-28T13:26:26.219Z</time>
      </trkpt>
      <trkpt lat="64.36773" lon="20.98293">
        <ele>91.16995</ele>
        <time>2020-09-28T13:26:29.246Z</time>
      </trkpt>
      <trkpt lat="64.36764" lon="20.98281">
        <ele>91.689556</ele>
        <time>2020-09-28T13:26:32.219Z</time>
      </trkpt>
      <trkpt lat="64.36754" lon="20.98272">
        <ele>92.275541</ele>
        <time>2020-09-28T13:26:36.233Z</time>
      </trkpt>
      <trkpt lat="64.36745" lon="20.98264">
        <ele>92.790096</ele>
        <time>2020-09-28T13:26:40.239Z</time>
      </trkpt>
      <trkpt lat="64.36735" lon="20.98257">
        <ele>93.311122</ele>
        <time>2020-09-28T13:26:44.227Z</time>
      </trkpt>
      <trkpt lat="64.36725" lon="20.98255">
        <ele>93.819132</ele>
        <time>2020-09-28T13:26:48.233Z</time>
      </trkpt>
      <trkpt lat="64.36716" lon="20.98252">
        <ele>94.308267</ele>
        <time>2020-09-28T13:26:52.230Z</time>
      </trkpt>
      <trkpt lat="64.36707" lon="20.98252">
        <ele>94.798812</ele>
        <time>2020-09-28T13:26:56.232Z</time>
      </trkpt>
      <trkpt lat="64.36697" lon="20.98252">
        <ele>95.299973</ele>
        <time>2020-09-28T13:27:00.219Z</time>
      </trkpt>
      <trkpt lat="64.36688" lon="20.9825">
        <ele>95.796887</ele>
        <time>2020-09-28T13:27:04.226Z</time>
      </trkpt>
      <trkpt lat="64.36677" lon="20.98248">
        <ele>95.939955</ele>
        <time>2020-09-28T13:27:09.218Z</time>
      </trkpt>
      <trkpt lat="64.36666" lon="20.98245">
        <ele>95.999982</ele>
        <time>2020-09-28T13:27:13.208Z</time>
      </trkpt>
      <trkpt lat="64.36657" lon="20.98243">
        <ele>96.058403</ele>
        <time>2020-09-28T13:27:16.226Z</time>
      </trkpt>
      <trkpt lat="64.36647" lon="20.98244">
        <ele>96.116102</ele>
        <time>2020-09-28T13:27:19.242Z</time>
      </trkpt>
      <trkpt lat="64.36636" lon="20.98242">
        <ele>96.178668</ele>
        <time>2020-09-28T13:27:22.205Z</time>
      </trkpt>
      <trkpt lat="64.36624" lon="20.98237">
        <ele>96.249892</ele>
        <time>2020-09-28T13:27:25.210Z</time>
      </trkpt>
      <trkpt lat="64.36613" lon="20.98232">
        <ele>96.317901</ele>
        <time>2020-09-28T13:27:28.210Z</time>
      </trkpt>
      <trkpt lat="64.36603" lon="20.98223">
        <ele>96.382485</ele>
        <time>2020-09-28T13:27:31.216Z</time>
      </trkpt>
      <trkpt lat="64.36593" lon="20.98213">
        <ele>96.44189</ele>
        <time>2020-09-28T13:27:34.218Z</time>
      </trkpt>
      <trkpt lat="64.36585" lon="20.98203">
        <ele>96.500524</ele>
        <time>2020-09-28T13:27:37.221Z</time>
      </trkpt>
      <trkpt lat="64.36577" lon="20.98191">
        <ele>96.556014</ele>
        <time>2020-09-28T13:27:40.225Z</time>
      </trkpt>
      <trkpt lat="64.36568" lon="20.98178">
        <ele>96.613898</ele>
        <time>2020-09-28T13:27:43.246Z</time>
      </trkpt>
      <trkpt lat="64.36559" lon="20.98163">
        <ele>96.683699</ele>
        <time>2020-09-28T13:27:46.221Z</time>
      </trkpt>
      <trkpt lat="64.36547" lon="20.9815">
        <ele>96.759602</ele>
        <time>2020-09-28T13:27:49.230Z</time>
      </trkpt>
      <trkpt lat="64.36538" lon="20.98142">
        <ele>96.814517</ele>
        <time>2020-09-28T13:27:51.232Z</time>
      </trkpt>
      <trkpt lat="64.36529" lon="20.98137">
        <ele>96.872088</ele>
        <time>2020-09-28T13:27:53.229Z</time>
      </trkpt>
      <trkpt lat="64.36519" lon="20.98131">
        <ele>96.930686</ele>
        <time>2020-09-28T13:27:55.214Z</time>
      </trkpt>
      <trkpt lat="64.3651" lon="20.98127">
        <ele>96.874185</ele>
        <time>2020-09-28T13:27:57.242Z</time>
      </trkpt>
      <trkpt lat="64.365" lon="20.98124">
        <ele>96.788459</ele>
        <time>2020-09-28T13:27:59.209Z</time>
      </trkpt>
      <trkpt lat="64.3649" lon="20.9812">
        <ele>96.702447</ele>
        <time>2020-09-28T13:28:01.212Z</time>
      </trkpt>
      <trkpt lat="64.36478" lon="20.98116">
        <ele>96.594178</ele>
        <time>2020-09-28T13:28:04.249Z</time>
      </trkpt>
      <trkpt lat="64.36466" lon="20.98107">
        <ele>96.483563</ele>
        <time>2020-09-28T13:28:07.223Z</time>
      </trkpt>
      <trkpt lat="64.36456" lon="20.98097">
        <ele>96.382164</ele>
        <time>2020-09-28T13:28:10.233Z</time>
      </trkpt>
      <trkpt lat="64.36447" lon="20.98087">
        <ele>96.295783</ele>
        <time>2020-09-28T13:28:13.212Z</time>
      </trkpt>
      <trkpt lat="64.36438" lon="20.98075">
        <ele>96.203828</ele>
        <time>2020-09-28T13:28:17.225Z</time>
      </trkpt>
      <trkpt lat="64.3643" lon="20.98063">
        <ele>96.121463</ele>
        <time>2020-09-28T13:28:21.221Z</time>
      </trkpt>
      <trkpt lat="64.36422" lon="20.98048">
        <ele>96.02919</ele>
        <time>2020-09-28T13:28:26.208Z</time>
      </trkpt>
      <trkpt lat="64.36415" lon="20.98034">
        <ele>95.949184</ele>
        <time>2020-09-28T13:28:30.228Z</time>
      </trkpt>
      <trkpt lat="64.36408" lon="20.98018">
        <ele>95.859694</ele>
        <time>2020-09-28T13:28:35.217Z</time>
      </trkpt>
      <trkpt lat="64.36401" lon="20.98002">
        <ele>95.772088</ele>
        <time>2020-09-28T13:28:40.221Z</time>
      </trkpt>
      <trkpt lat="64.36394" lon="20.97988">
        <ele>95.691889</ele>
        <time>2020-09-28T13:28:45.210Z</time>
      </trkpt>
      <trkpt lat="64.36386" lon="20.97974">
        <ele>95.601042</ele>
        <time>2020-09-28T13:28:51.224Z</time>
      </trkpt>
      <trkpt lat="64.36377" lon="20.97959">
        <ele>95.506929</ele>
        <time>2020-09-28T13:28:57.205Z</time>
      </trkpt>
      <trkpt lat="64.3637" lon="20.97944">
        <ele>95.418544</ele>
        <time>2020-09-28T13:29:03.210Z</time>
      </trkpt>
      <trkpt lat="64.36361" lon="20.97933">
        <ele>95.501511</ele>
        <time>2020-09-28T13:29:09.283Z</time>
      </trkpt>
      <trkpt lat="64.36351" lon="20.97925">
        <ele>96.148315</ele>
        <time>2020-09-28T13:29:15.237Z</time>
      </trkpt>
      <trkpt lat="64.36342" lon="20.97921">
        <ele>96.719714</ele>
        <time>2020-09-28T13:29:20.202Z</time>
      </trkpt>
      <trkpt lat="64.36333" lon="20.97917">
        <ele>97.290586</ele>
        <time>2020-09-28T13:29:25.226Z</time>
      </trkpt>
      <trkpt lat="64.36323" lon="20.97913">
        <ele>97.963889</ele>
        <time>2020-09-28T13:29:30.238Z</time>
      </trkpt>
      <trkpt lat="64.36312" lon="20.97913">
        <ele>98.648457</ele>
        <time>2020-09-28T13:29:35.231Z</time>
      </trkpt>
      <trkpt lat="64.36301" lon="20.97914">
        <ele>99.296485</ele>
        <time>2020-09-28T13:29:40.241Z</time>
      </trkpt>
      <trkpt lat="64.36291" lon="20.97915">
        <ele>99.950285</ele>
        <time>2020-09-28T13:29:45.251Z</time>
      </trkpt>
      <trkpt lat="64.36281" lon="20.97917">
        <ele>100.587119</ele>
        <time>2020-09-28T13:29:50.218Z</time>
      </trkpt>
      <trkpt lat="64.36271" lon="20.9792">
        <ele>101.197283</ele>
        <time>2020-09-28T13:29:55.231Z</time>
      </trkpt>
      <trkpt lat="64.36261" lon="20.97923">
        <ele>101.812144</ele>
        <time>2020-09-28T13:30:00.241Z</time>
      </trkpt>
      <trkpt lat="64.36251" lon="20.97925">
        <ele>102.437546</ele>
        <time>2020-09-28T13:30:05.246Z</time>
      </trkpt>
      <trkpt lat="64.36241" lon="20.97927">
        <ele>103.042381</ele>
        <time>2020-09-28T13:30:10.234Z</time>
      </trkpt>
      <trkpt lat="64.36231" lon="20.97929">
        <ele>103.69184</ele>
        <time>2020-09-28T13:30:15.210Z</time>
      </trkpt>
      <trkpt lat="64.3622" lon="20.97927">
        <ele>104.346533</ele>
        <time>2020-09-28T13:30:20.210Z</time>
      </trkpt>
      <trkpt lat="64.3621" lon="20.97925">
        <ele>105.009359</ele>
        <time>2020-09-28T13:30:25.245Z</time>
      </trkpt>
      <trkpt lat="64.362" lon="20.97921">
        <ele>105.619921</ele>
        <time>2020-09-28T13:30:30.206Z</time>
      </trkpt>
      <trkpt lat="64.36191" lon="20.97917">
        <ele>106.224528</ele>
        <time>2020-09-28T13:30:35.223Z</time>
      </trkpt>
      <trkpt lat="64.3618" lon="20.97911">
        <ele>106.69901</ele>
        <time>2020-09-28T13:30:40.241Z</time>
      </trkpt>
      <trkpt lat="64.36169" lon="20.97903">
        <ele>106.986434</ele>
        <time>2020-09-28T13:30:45.244Z</time>
      </trkpt>
      <trkpt lat="64.3616" lon="20.97895">
        <ele>107.247835</ele>
        <time>2020-09-28T13:30:49.208Z</time>
      </trkpt>
      <trkpt lat="64.3615" lon="20.97884">
        <ele>107.531613</ele>
        <time>2020-09-28T13:30:53.231Z</time>
      </trkpt>
      <trkpt lat="64.3614" lon="20.97873">
        <ele>107.825317</ele>
        <time>2020-09-28T13:30:57.210Z</time>
      </trkpt>
      <trkpt lat="64.3613" lon="20.97861">
        <ele>108.113815</ele>
        <time>2020-09-28T13:31:01.216Z</time>
      </trkpt>
      <trkpt lat="64.36121" lon="20.97849">
        <ele>108.375415</ele>
        <time>2020-09-28T13:31:05.229Z</time>
      </trkpt>
      <trkpt lat="64.36114" lon="20.97836">
        <ele>108.616974</ele>
        <time>2020-09-28T13:31:09.264Z</time>
      </trkpt>
      <trkpt lat="64.36105" lon="20.97821">
        <ele>108.897416</ele>
        <time>2020-09-28T13:31:14.233Z</time>
      </trkpt>
      <trkpt lat="64.36097" lon="20.97806">
        <ele>109.177915</ele>
        <time>2020-09-28T13:31:19.223Z</time>
      </trkpt>
      <trkpt lat="64.36089" lon="20.97796">
        <ele>109.412883</ele>
        <time>2020-09-28T13:31:23.202Z</time>
      </trkpt>
      <trkpt lat="64.36081" lon="20.97785">
        <ele>109.652364</ele>
        <time>2020-09-28T13:31:27.263Z</time>
      </trkpt>
      <trkpt lat="64.36072" lon="20.9777">
        <ele>109.944288</ele>
        <time>2020-09-28T13:31:32.225Z</time>
      </trkpt>
      <trkpt lat="64.36064" lon="20.97757">
        <ele>110.185709</ele>
        <time>2020-09-28T13:31:36.221Z</time>
      </trkpt>
      <trkpt lat="64.36055" lon="20.97744">
        <ele>110.456898</ele>
        <time>2020-09-28T13:31:41.221Z</time>
      </trkpt>
      <trkpt lat="64.36047" lon="20.97731">
        <ele>110.721736</ele>
        <time>2020-09-28T13:31:46.244Z</time>
      </trkpt>
      <trkpt lat="64.36039" lon="20.97716">
        <ele>110.989937</ele>
        <time>2020-09-28T13:31:51.228Z</time>
      </trkpt>
      <trkpt lat="64.36032" lon="20.97701">
        <ele>111.221717</ele>
        <time>2020-09-28T13:31:55.221Z</time>
      </trkpt>
      <trkpt lat="64.36024" lon="20.97685">
        <ele>111.329546</ele>
        <time>2020-09-28T13:32:00.226Z</time>
      </trkpt>
      <trkpt lat="64.36014" lon="20.97671">
        <ele>111.440979</ele>
        <time>2020-09-28T13:32:05.242Z</time>
      </trkpt>
      <trkpt lat="64.36005" lon="20.9766">
        <ele>111.544079</ele>
        <time>2020-09-28T13:32:09.229Z</time>
      </trkpt>
      <trkpt lat="64.35996" lon="20.97651">
        <ele>111.635235</ele>
        <time>2020-09-28T13:32:12.212Z</time>
      </trkpt>
      <trkpt lat="64.35987" lon="20.97642">
        <ele>111.732504</ele>
        <time>2020-09-28T13:32:15.246Z</time>
      </trkpt>
      <trkpt lat="64.35978" lon="20.97635">
        <ele>111.832158</ele>
        <time>2020-09-28T13:32:18.211Z</time>
      </trkpt>
      <trkpt lat="64.35967" lon="20.97628">
        <ele>111.942166</ele>
        <time>2020-09-28T13:32:21.240Z</time>
      </trkpt>
      <trkpt lat="64.35955" lon="20.97623">
        <ele>112.059568</ele>
        <time>2020-09-28T13:32:24.230Z</time>
      </trkpt>
      <trkpt lat="64.35944" lon="20.97619">
        <ele>112.174305</ele>
        <time>2020-09-28T13:32:27.215Z</time>
      </trkpt>
      <trkpt lat="64.35931" lon="20.97616">
        <ele>112.297078</ele>
        <time>2020-09-28T13:32:30.213Z</time>
      </trkpt>
      <trkpt lat="64.35919" lon="20.97612">
        <ele>112.416396</ele>
        <time>2020-09-28T13:32:33.224Z</time>
      </trkpt>
      <trkpt lat="64.35907" lon="20.97609">
        <ele>112.542616</ele>
        <time>2020-09-28T13:32:36.211Z</time>
      </trkpt>
      <trkpt lat="64.35894" lon="20.97605">
        <ele>112.66699</ele>
        <time>2020-09-28T13:32:39.228Z</time>
      </trkpt>
      <trkpt lat="64.35881" lon="20.97599">
        <ele>112.798759</ele>
        <time>2020-09-28T13:32:42.209Z</time>
      </trkpt>
      <trkpt lat="64.35872" lon="20.97596">
        <ele>112.893304</ele>
        <time>2020-09-28T13:32:44.224Z</time>
      </trkpt>
      <trkpt lat="64.35862" lon="20.97591">
        <ele>112.984946</ele>
        <time>2020-09-28T13:32:46.250Z</time>
      </trkpt>
      <trkpt lat="64.35852" lon="20.97587">
        <ele>112.84522</ele>
        <time>2020-09-28T13:32:48.267Z</time>
      </trkpt>
      <trkpt lat="64.35841" lon="20.97584">
        <ele>112.702848</ele>
        <time>2020-09-28T13:32:50.213Z</time>
      </trkpt>
      <trkpt lat="64.35831" lon="20.97584">
        <ele>112.557479</ele>
        <time>2020-09-28T13:32:52.205Z</time>
      </trkpt>
      <trkpt lat="64.35819" lon="20.97586">
        <ele>112.403331</ele>
        <time>2020-09-28T13:32:54.216Z</time>
      </trkpt>
      <trkpt lat="64.35808" lon="20.9759">
        <ele>112.246516</ele>
        <time>2020-09-28T13:32:56.226Z</time>
      </trkpt>
      <trkpt lat="64.35797" lon="20.97595">
        <ele>112.099315</ele>
        <time>2020-09-28T13:32:58.276Z</time>
      </trkpt>
      <trkpt lat="64.35787" lon="20.97603">
        <ele>111.947654</ele>
        <time>2020-09-28T13:33:00.244Z</time>
      </trkpt>
      <trkpt lat="64.35776" lon="20.97615">
        <ele>111.784884</ele>
        <time>2020-09-28T13:33:02.220Z</time>
      </trkpt>
      <trkpt lat="64.35766" lon="20.97629">
        <ele>111.624915</ele>
        <time>2020-09-28T13:33:04.236Z</time>
      </trkpt>
      <trkpt lat="64.35756" lon="20.97645">
        <ele>111.469585</ele>
        <time>2020-09-28T13:33:06.238Z</time>
      </trkpt>
      <trkpt lat="64.35749" lon="20.97662">
        <ele>111.32353</ele>
        <time>2020-09-28T13:33:08.222Z</time>
      </trkpt>
      <trkpt lat="64.35742" lon="20.97679">
        <ele>111.182514</ele>
        <time>2020-09-28T13:33:10.251Z</time>
      </trkpt>
      <trkpt lat="64.35735" lon="20.97698">
        <ele>111.043095</ele>
        <time>2020-09-28T13:33:12.224Z</time>
      </trkpt>
      <trkpt lat="64.35729" lon="20.97716">
        <ele>110.903054</ele>
        <time>2020-09-28T13:33:14.213Z</time>
      </trkpt>
      <trkpt lat="64.35721" lon="20.97733">
        <ele>110.758169</ele>
        <time>2020-09-28T13:33:16.251Z</time>
      </trkpt>
      <trkpt lat="64.35711" lon="20.97744">
        <ele>110.61139</ele>
        <time>2020-09-28T13:33:18.213Z</time>
      </trkpt>
      <trkpt lat="64.357" lon="20.97751">
        <ele>110.548015</ele>
        <time>2020-09-28T13:33:20.226Z</time>
      </trkpt>
      <trkpt lat="64.35689" lon="20.97753">
        <ele>110.551497</ele>
        <time>2020-09-28T13:33:22.222Z</time>
      </trkpt>
      <trkpt lat="64.35677" lon="20.97752">
        <ele>110.555148</ele>
        <time>2020-09-28T13:33:24.220Z</time>
      </trkpt>
      <trkpt lat="64.35665" lon="20.97748">
        <ele>110.558737</ele>
        <time>2020-09-28T13:33:26.212Z</time>
      </trkpt>
      <trkpt lat="64.35652" lon="20.97743">
        <ele>110.562502</ele>
        <time>2020-09-28T13:33:28.248Z</time>
      </trkpt>
      <trkpt lat="64.35641" lon="20.97739">
        <ele>110.566137</ele>
        <time>2020-09-28T13:33:30.227Z</time>
      </trkpt>
      <trkpt lat="64.35629" lon="20.97734">
        <ele>110.569637</ele>
        <time>2020-09-28T13:33:32.219Z</time>
      </trkpt>
      <trkpt lat="64.35618" lon="20.97729">
        <ele>110.573155</ele>
        <time>2020-09-28T13:33:34.245Z</time>
      </trkpt>
      <trkpt lat="64.35606" lon="20.97725">
        <ele>110.576655</ele>
        <time>2020-09-28T13:33:36.235Z</time>
      </trkpt>
      <trkpt lat="64.35595" lon="20.97722">
        <ele>110.580024</ele>
        <time>2020-09-28T13:33:38.219Z</time>
      </trkpt>
      <trkpt lat="64.35584" lon="20.97721">
        <ele>110.583288</ele>
        <time>2020-09-28T13:33:40.226Z</time>
      </trkpt>
      <trkpt lat="64.35574" lon="20.97719">
        <ele>110.586399</ele>
        <time>2020-09-28T13:33:42.226Z</time>
      </trkpt>
      <trkpt lat="64.35563" lon="20.97718">
        <ele>110.589565</ele>
        <time>2020-09-28T13:33:44.241Z</time>
      </trkpt>
      <trkpt lat="64.35553" lon="20.97717">
        <ele>110.592794</ele>
        <time>2020-09-28T13:33:46.222Z</time>
      </trkpt>
      <trkpt lat="64.35541" lon="20.97717">
        <ele>110.596291</ele>
        <time>2020-09-28T13:33:48.220Z</time>
      </trkpt>
      <trkpt lat="64.35529" lon="20.97718">
        <ele>110.599882</ele>
        <time>2020-09-28T13:33:50.308Z</time>
      </trkpt>
      <trkpt lat="64.35518" lon="20.97721">
        <ele>110.317107</ele>
        <time>2020-09-28T13:33:52.208Z</time>
      </trkpt>
      <trkpt lat="64.35507" lon="20.97723">
        <ele>110.009302</ele>
        <time>2020-09-28T13:33:54.241Z</time>
      </trkpt>
      <trkpt lat="64.35496" lon="20.97724">
        <ele>109.715849</ele>
        <time>2020-09-28T13:33:56.227Z</time>
      </trkpt>
      <trkpt lat="64.35486" lon="20.97725">
        <ele>109.431143</ele>
        <time>2020-09-28T13:33:58.222Z</time>
      </trkpt>
      <trkpt lat="64.35476" lon="20.97727">
        <ele>109.14626</ele>
        <time>2020-09-28T13:34:00.212Z</time>
      </trkpt>
      <trkpt lat="64.35466" lon="20.97726">
        <ele>108.858981</ele>
        <time>2020-09-28T13:34:02.221Z</time>
      </trkpt>
      <trkpt lat="64.35455" lon="20.97727">
        <ele>108.552161</ele>
        <time>2020-09-28T13:34:04.265Z</time>
      </trkpt>
      <trkpt lat="64.35444" lon="20.97727">
        <ele>108.250976</ele>
        <time>2020-09-28T13:34:06.230Z</time>
      </trkpt>
      <trkpt lat="64.35433" lon="20.97725">
        <ele>107.951607</ele>
        <time>2020-09-28T13:34:08.216Z</time>
      </trkpt>
      <trkpt lat="64.35422" lon="20.97723">
        <ele>107.652139</ele>
        <time>2020-09-28T13:34:10.241Z</time>
      </trkpt>
      <trkpt lat="64.35412" lon="20.97722">
        <ele>107.347878</ele>
        <time>2020-09-28T13:34:12.281Z</time>
      </trkpt>
      <trkpt lat="64.354" lon="20.97719">
        <ele>107.036218</ele>
        <time>2020-09-28T13:34:14.226Z</time>
      </trkpt>
      <trkpt lat="64.3539" lon="20.97716">
        <ele>106.733867</ele>
        <time>2020-09-28T13:34:16.228Z</time>
      </trkpt>
      <trkpt lat="64.35379" lon="20.97712">
        <ele>106.433529</ele>
        <time>2020-09-28T13:34:18.245Z</time>
      </trkpt>
      <trkpt lat="64.35368" lon="20.97707">
        <ele>106.121346</ele>
        <time>2020-09-28T13:34:20.219Z</time>
      </trkpt>
      <trkpt lat="64.35357" lon="20.97704">
        <ele>105.822737</ele>
        <time>2020-09-28T13:34:22.277Z</time>
      </trkpt>
      <trkpt lat="64.35347" lon="20.977">
        <ele>105.533425</ele>
        <time>2020-09-28T13:34:24.244Z</time>
      </trkpt>
      <trkpt lat="64.35337" lon="20.97695">
        <ele>105.270123</ele>
        <time>2020-09-28T13:34:26.270Z</time>
      </trkpt>
      <trkpt lat="64.35327" lon="20.97692">
        <ele>105.006113</ele>
        <time>2020-09-28T13:34:28.271Z</time>
      </trkpt>
      <trkpt lat="64.35317" lon="20.97689">
        <ele>104.742411</ele>
        <time>2020-09-28T13:34:30.217Z</time>
      </trkpt>
      <trkpt lat="64.35307" lon="20.97685">
        <ele>104.482966</ele>
        <time>2020-09-28T13:34:32.222Z</time>
      </trkpt>
      <trkpt lat="64.35297" lon="20.9768">
        <ele>104.226329</ele>
        <time>2020-09-28T13:34:34.220Z</time>
      </trkpt>
      <trkpt lat="64.35287" lon="20.97675">
        <ele>103.976221</ele>
        <time>2020-09-28T13:34:36.232Z</time>
      </trkpt>
      <trkpt lat="64.35278" lon="20.97671">
        <ele>103.728433</ele>
        <time>2020-09-28T13:34:38.219Z</time>
      </trkpt>
      <trkpt lat="64.35268" lon="20.97666">
        <ele>103.473585</ele>
        <time>2020-09-28T13:34:40.212Z</time>
      </trkpt>
      <trkpt lat="64.35258" lon="20.9766">
        <ele>103.213862</ele>
        <time>2020-09-28T13:34:42.217Z</time>
      </trkpt>
      <trkpt lat="64.35249" lon="20.97654">
        <ele>102.958254</ele>
        <time>2020-09-28T13:34:44.208Z</time>
      </trkpt>
      <trkpt lat="64.35239" lon="20.97649">
        <ele>102.705652</ele>
        <time>2020-09-28T13:34:46.247Z</time>
      </trkpt>
      <trkpt lat="64.3523" lon="20.97645">
        <ele>102.465409</ele>
        <time>2020-09-28T13:34:48.215Z</time>
      </trkpt>
      <trkpt lat="64.3522" lon="20.97644">
        <ele>102.214107</ele>
        <time>2020-09-28T13:34:50.243Z</time>
      </trkpt>
      <trkpt lat="64.35208" lon="20.97641">
        <ele>101.897479</ele>
        <time>2020-09-28T13:34:52.234Z</time>
      </trkpt>
      <trkpt lat="64.35195" lon="20.97641">
        <ele>101.577245</ele>
        <time>2020-09-28T13:34:54.231Z</time>
      </trkpt>
      <trkpt lat="64.35182" lon="20.97641">
        <ele>101.251888</ele>
        <time>2020-09-28T13:34:56.240Z</time>
      </trkpt>
      <trkpt lat="64.35168" lon="20.9764">
        <ele>100.908868</ele>
        <time>2020-09-28T13:34:58.240Z</time>
      </trkpt>
      <trkpt lat="64.35154" lon="20.9764">
        <ele>100.607349</ele>
        <time>2020-09-28T13:35:00.216Z</time>
      </trkpt>
      <trkpt lat="64.3514" lon="20.97641">
        <ele>100.309596</ele>
        <time>2020-09-28T13:35:02.221Z</time>
      </trkpt>
      <trkpt lat="64.35126" lon="20.97647">
        <ele>100.018287</ele>
        <time>2020-09-28T13:35:04.228Z</time>
      </trkpt>
      <trkpt lat="64.35113" lon="20.97659">
        <ele>99.724015</ele>
        <time>2020-09-28T13:35:06.239Z</time>
      </trkpt>
      <trkpt lat="64.351" lon="20.97675">
        <ele>99.422444</ele>
        <time>2020-09-28T13:35:08.217Z</time>
      </trkpt>
      <trkpt lat="64.35088" lon="20.97696">
        <ele>99.105588</ele>
        <time>2020-09-28T13:35:10.232Z</time>
      </trkpt>
      <trkpt lat="64.35076" lon="20.97718">
        <ele>98.79695</ele>
        <time>2020-09-28T13:35:12.234Z</time>
      </trkpt>
      <trkpt lat="64.35065" lon="20.97738">
        <ele>98.502621</ele>
        <time>2020-09-28T13:35:14.266Z</time>
      </trkpt>
      <trkpt lat="64.35053" lon="20.97755">
        <ele>98.213491</ele>
        <time>2020-09-28T13:35:16.218Z</time>
      </trkpt>
      <trkpt lat="64.35041" lon="20.97768">
        <ele>97.934507</ele>
        <time>2020-09-28T13:35:18.233Z</time>
      </trkpt>
      <trkpt lat="64.35028" lon="20.9778">
        <ele>97.637644</ele>
        <time>2020-09-28T13:35:20.231Z</time>
      </trkpt>
      <trkpt lat="64.35014" lon="20.97794">
        <ele>97.331877</ele>
        <time>2020-09-28T13:35:22.213Z</time>
      </trkpt>
      <trkpt lat="64.35001" lon="20.9781">
        <ele>97.073795</ele>
        <time>2020-09-28T13:35:24.223Z</time>
      </trkpt>
      <trkpt lat="64.34987" lon="20.97825">
        <ele>96.825625</ele>
        <time>2020-09-28T13:35:26.229Z</time>
      </trkpt>
      <trkpt lat="64.34973" lon="20.97838">
        <ele>96.591198</ele>
        <time>2020-09-28T13:35:28.207Z</time>
      </trkpt>
      <trkpt lat="64.3496" lon="20.97849">
        <ele>96.378857</ele>
        <time>2020-09-28T13:35:30.230Z</time>
      </trkpt>
      <trkpt lat="64.34948" lon="20.97863">
        <ele>96.155322</ele>
        <time>2020-09-28T13:35:32.213Z</time>
      </trkpt>
      <trkpt lat="64.34935" lon="20.97879">
        <ele>95.92425</ele>
        <time>2020-09-28T13:35:34.259Z</time>
      </trkpt>
      <trkpt lat="64.34923" lon="20.97898">
        <ele>95.700969</ele>
        <time>2020-09-28T13:35:36.243Z</time>
      </trkpt>
      <trkpt lat="64.34912" lon="20.97918">
        <ele>95.483614</ele>
        <time>2020-09-28T13:35:38.214Z</time>
      </trkpt>
      <trkpt lat="64.34903" lon="20.97937">
        <ele>95.29049</ele>
        <time>2020-09-28T13:35:40.240Z</time>
      </trkpt>
      <trkpt lat="64.34895" lon="20.97957">
        <ele>95.096648</ele>
        <time>2020-09-28T13:35:42.221Z</time>
      </trkpt>
      <trkpt lat="64.34887" lon="20.97975">
        <ele>94.930401</ele>
        <time>2020-09-28T13:35:44.241Z</time>
      </trkpt>
      <trkpt lat="64.3488" lon="20.9799">
        <ele>94.770387</ele>
        <time>2020-09-28T13:35:46.214Z</time>
      </trkpt>
      <trkpt lat="64.34872" lon="20.98008">
        <ele>94.595086</ele>
        <time>2020-09-28T13:35:48.225Z</time>
      </trkpt>
      <trkpt lat="64.34863" lon="20.98025">
        <ele>94.417224</ele>
        <time>2020-09-28T13:35:50.252Z</time>
      </trkpt>
      <trkpt lat="64.34854" lon="20.98038">
        <ele>93.736605</ele>
        <time>2020-09-28T13:35:52.257Z</time>
      </trkpt>
      <trkpt lat="64.34845" lon="20.98051">
        <ele>92.996004</ele>
        <time>2020-09-28T13:35:54.218Z</time>
      </trkpt>
      <trkpt lat="64.34836" lon="20.98062">
        <ele>92.274569</ele>
        <time>2020-09-28T13:35:56.221Z</time>
      </trkpt>
      <trkpt lat="64.34826" lon="20.98069">
        <ele>91.554477</ele>
        <time>2020-09-28T13:35:58.244Z</time>
      </trkpt>
      <trkpt lat="64.34815" lon="20.98071">
        <ele>90.815813</ele>
        <time>2020-09-28T13:36:00.235Z</time>
      </trkpt>
      <trkpt lat="64.34804" lon="20.98073">
        <ele>90.076139</ele>
        <time>2020-09-28T13:36:02.233Z</time>
      </trkpt>
      <trkpt lat="64.34793" lon="20.98078">
        <ele>89.284764</ele>
        <time>2020-09-28T13:36:04.229Z</time>
      </trkpt>
      <trkpt lat="64.34782" lon="20.98084">
        <ele>88.488425</ele>
        <time>2020-09-28T13:36:06.206Z</time>
      </trkpt>
      <trkpt lat="64.3477" lon="20.98094">
        <ele>87.612353</ele>
        <time>2020-09-28T13:36:08.218Z</time>
      </trkpt>
      <trkpt lat="64.34757" lon="20.98106">
        <ele>86.681761</ele>
        <time>2020-09-28T13:36:10.228Z</time>
      </trkpt>
      <trkpt lat="64.34745" lon="20.9812">
        <ele>85.715719</ele>
        <time>2020-09-28T13:36:12.217Z</time>
      </trkpt>
      <trkpt lat="64.34731" lon="20.98135">
        <ele>84.682203</ele>
        <time>2020-09-28T13:36:14.223Z</time>
      </trkpt>
      <trkpt lat="64.34717" lon="20.9815">
        <ele>83.601169</ele>
        <time>2020-09-28T13:36:16.222Z</time>
      </trkpt>
      <trkpt lat="64.34702" lon="20.98167">
        <ele>82.455036</ele>
        <time>2020-09-28T13:36:18.231Z</time>
      </trkpt>
      <trkpt lat="64.34686" lon="20.98183">
        <ele>81.549443</ele>
        <time>2020-09-28T13:36:20.214Z</time>
      </trkpt>
      <trkpt lat="64.34677" lon="20.98191">
        <ele>81.149281</ele>
        <time>2020-09-28T13:36:21.264Z</time>
      </trkpt>
      <trkpt lat="64.34669" lon="20.98198">
        <ele>80.760523</ele>
        <time>2020-09-28T13:36:22.257Z</time>
      </trkpt>
      <trkpt lat="64.34653" lon="20.98215">
        <ele>79.973478</ele>
        <time>2020-09-28T13:36:24.205Z</time>
      </trkpt>
      <trkpt lat="64.34644" lon="20.98225">
        <ele>79.556597</ele>
        <time>2020-09-28T13:36:25.222Z</time>
      </trkpt>
      <trkpt lat="64.34636" lon="20.98236">
        <ele>79.139508</ele>
        <time>2020-09-28T13:36:26.225Z</time>
      </trkpt>
      <trkpt lat="64.34627" lon="20.98248">
        <ele>78.711004</ele>
        <time>2020-09-28T13:36:27.278Z</time>
      </trkpt>
      <trkpt lat="64.34619" lon="20.98262">
        <ele>78.291603</ele>
        <time>2020-09-28T13:36:28.267Z</time>
      </trkpt>
      <trkpt lat="64.34611" lon="20.98276">
        <ele>77.848093</ele>
        <time>2020-09-28T13:36:29.262Z</time>
      </trkpt>
      <trkpt lat="64.34603" lon="20.98292">
        <ele>77.386912</ele>
        <time>2020-09-28T13:36:30.233Z</time>
      </trkpt>
      <trkpt lat="64.34595" lon="20.98308">
        <ele>76.927802</ele>
        <time>2020-09-28T13:36:31.230Z</time>
      </trkpt>
      <trkpt lat="64.34587" lon="20.98325">
        <ele>76.459978</ele>
        <time>2020-09-28T13:36:32.217Z</time>
      </trkpt>
      <trkpt lat="64.34579" lon="20.98342">
        <ele>75.984524</ele>
        <time>2020-09-28T13:36:33.206Z</time>
      </trkpt>
      <trkpt lat="64.34572" lon="20.9836">
        <ele>75.512756</ele>
        <time>2020-09-28T13:36:34.231Z</time>
      </trkpt>
      <trkpt lat="64.34564" lon="20.98378">
        <ele>75.034776</ele>
        <time>2020-09-28T13:36:35.235Z</time>
      </trkpt>
      <trkpt lat="64.34556" lon="20.98397">
        <ele>74.539965</ele>
        <time>2020-09-28T13:36:36.220Z</time>
      </trkpt>
      <trkpt lat="64.34548" lon="20.98416">
        <ele>73.98263</ele>
        <time>2020-09-28T13:36:37.246Z</time>
      </trkpt>
      <trkpt lat="64.34541" lon="20.98435">
        <ele>73.297026</ele>
        <time>2020-09-28T13:36:38.226Z</time>
      </trkpt>
      <trkpt lat="64.34534" lon="20.98454">
        <ele>72.619361</ele>
        <time>2020-09-28T13:36:39.259Z</time>
      </trkpt>
      <trkpt lat="64.34528" lon="20.98474">
        <ele>71.951293</ele>
        <time>2020-09-28T13:36:40.222Z</time>
      </trkpt>
      <trkpt lat="64.34522" lon="20.98494">
        <ele>71.271607</ele>
        <time>2020-09-28T13:36:41.244Z</time>
      </trkpt>
      <trkpt lat="64.34516" lon="20.98515">
        <ele>70.607848</ele>
        <time>2020-09-28T13:36:42.210Z</time>
      </trkpt>
      <trkpt lat="64.34511" lon="20.98536">
        <ele>69.943504</ele>
        <time>2020-09-28T13:36:43.220Z</time>
      </trkpt>
      <trkpt lat="64.34506" lon="20.98558">
        <ele>69.267299</ele>
        <time>2020-09-28T13:36:44.233Z</time>
      </trkpt>
      <trkpt lat="64.34501" lon="20.9858">
        <ele>68.611362</ele>
        <time>2020-09-28T13:36:45.245Z</time>
      </trkpt>
      <trkpt lat="64.34497" lon="20.98601">
        <ele>67.97323</ele>
        <time>2020-09-28T13:36:46.225Z</time>
      </trkpt>
      <trkpt lat="64.34492" lon="20.98622">
        <ele>67.326504</ele>
        <time>2020-09-28T13:36:47.221Z</time>
      </trkpt>
      <trkpt lat="64.34488" lon="20.98642">
        <ele>66.69041</ele>
        <time>2020-09-28T13:36:48.260Z</time>
      </trkpt>
      <trkpt lat="64.34483" lon="20.98663">
        <ele>66.051889</ele>
        <time>2020-09-28T13:36:49.215Z</time>
      </trkpt>
      <trkpt lat="64.34479" lon="20.98684">
        <ele>65.428747</ele>
        <time>2020-09-28T13:36:50.222Z</time>
      </trkpt>
      <trkpt lat="64.34475" lon="20.98704">
        <ele>64.818923</ele>
        <time>2020-09-28T13:36:51.211Z</time>
      </trkpt>
      <trkpt lat="64.34471" lon="20.98725">
        <ele>64.221582</ele>
        <time>2020-09-28T13:36:52.253Z</time>
      </trkpt>
      <trkpt lat="64.34467" lon="20.98744">
        <ele>63.631757</ele>
        <time>2020-09-28T13:36:53.211Z</time>
      </trkpt>
      <trkpt lat="64.34463" lon="20.98764">
        <ele>63.028827</ele>
        <time>2020-09-28T13:36:54.209Z</time>
      </trkpt>
      <trkpt lat="64.34459" lon="20.98784">
        <ele>62.692517</ele>
        <time>2020-09-28T13:36:55.221Z</time>
      </trkpt>
      <trkpt lat="64.34456" lon="20.98805">
        <ele>62.42415</ele>
        <time>2020-09-28T13:36:56.251Z</time>
      </trkpt>
      <trkpt lat="64.34452" lon="20.98825">
        <ele>62.159194</ele>
        <time>2020-09-28T13:36:57.222Z</time>
      </trkpt>
      <trkpt lat="64.34448" lon="20.98844">
        <ele>61.896207</ele>
        <time>2020-09-28T13:36:58.218Z</time>
      </trkpt>
      <trkpt lat="64.34444" lon="20.98863">
        <ele>61.637921</ele>
        <time>2020-09-28T13:36:59.215Z</time>
      </trkpt>
      <trkpt lat="64.34436" lon="20.989">
        <ele>61.140125</ele>
        <time>2020-09-28T13:37:01.218Z</time>
      </trkpt>
      <trkpt lat="64.34432" lon="20.98919">
        <ele>60.881105</ele>
        <time>2020-09-28T13:37:02.216Z</time>
      </trkpt>
      <trkpt lat="64.34428" lon="20.98939">
        <ele>60.614515</ele>
        <time>2020-09-28T13:37:03.220Z</time>
      </trkpt>
      <trkpt lat="64.34423" lon="20.98958">
        <ele>60.343573</ele>
        <time>2020-09-28T13:37:04.247Z</time>
      </trkpt>
      <trkpt lat="64.34419" lon="20.98978">
        <ele>60.07154</ele>
        <time>2020-09-28T13:37:05.212Z</time>
      </trkpt>
      <trkpt lat="64.34415" lon="20.98999">
        <ele>59.796445</ele>
        <time>2020-09-28T13:37:06.252Z</time>
      </trkpt>
      <trkpt lat="64.34411" lon="20.99019">
        <ele>59.522359</ele>
        <time>2020-09-28T13:37:07.249Z</time>
      </trkpt>
      <trkpt lat="64.34407" lon="20.99039">
        <ele>59.251759</ele>
        <time>2020-09-28T13:37:08.221Z</time>
      </trkpt>
      <trkpt lat="64.34404" lon="20.99061">
        <ele>58.982908</ele>
        <time>2020-09-28T13:37:09.207Z</time>
      </trkpt>
      <trkpt lat="64.34398" lon="20.99098">
        <ele>58.496647</ele>
        <time>2020-09-28T13:37:11.244Z</time>
      </trkpt>
      <trkpt lat="64.34392" lon="20.99132">
        <ele>58.054996</ele>
        <time>2020-09-28T13:37:13.207Z</time>
      </trkpt>
      <trkpt lat="64.34386" lon="20.99161">
        <ele>58.159615</ele>
        <time>2020-09-28T13:37:15.230Z</time>
      </trkpt>
      <trkpt lat="64.34381" lon="20.99188">
        <ele>58.819561</ele>
        <time>2020-09-28T13:37:17.257Z</time>
      </trkpt>
      <trkpt lat="64.34377" lon="20.99213">
        <ele>59.405615</ele>
        <time>2020-09-28T13:37:19.224Z</time>
      </trkpt>
      <trkpt lat="64.34373" lon="20.99235">
        <ele>59.929474</ele>
        <time>2020-09-28T13:37:21.245Z</time>
      </trkpt>
      <trkpt lat="64.3437" lon="20.99255">
        <ele>60.386489</ele>
        <time>2020-09-28T13:37:23.220Z</time>
      </trkpt>
      <trkpt lat="64.34364" lon="20.99281">
        <ele>61.004924</ele>
        <time>2020-09-28T13:37:26.227Z</time>
      </trkpt>
      <trkpt lat="64.3436" lon="20.993">
        <ele>61.481369</ele>
        <time>2020-09-28T13:37:28.219Z</time>
      </trkpt>
      <trkpt lat="64.34356" lon="20.99321">
        <ele>61.979851</ele>
        <time>2020-09-28T13:37:30.219Z</time>
      </trkpt>
      <trkpt lat="64.34351" lon="20.99342">
        <ele>62.486427</ele>
        <time>2020-09-28T13:37:32.219Z</time>
      </trkpt>
      <trkpt lat="64.34347" lon="20.99361">
        <ele>62.960922</ele>
        <time>2020-09-28T13:37:34.229Z</time>
      </trkpt>
      <trkpt lat="64.34343" lon="20.99381">
        <ele>63.422762</ele>
        <time>2020-09-28T13:37:36.227Z</time>
      </trkpt>
      <trkpt lat="64.34339" lon="20.99401">
        <ele>63.904617</ele>
        <time>2020-09-28T13:37:38.225Z</time>
      </trkpt>
      <trkpt lat="64.34334" lon="20.99426">
        <ele>64.528307</ele>
        <time>2020-09-28T13:37:41.213Z</time>
      </trkpt>
      <trkpt lat="64.34328" lon="20.99449">
        <ele>65.08781</ele>
        <time>2020-09-28T13:37:44.244Z</time>
      </trkpt>
      <trkpt lat="64.34323" lon="20.99471">
        <ele>65.651335</ele>
        <time>2020-09-28T13:37:47.234Z</time>
      </trkpt>
      <trkpt lat="64.34317" lon="20.99494">
        <ele>66.225187</ele>
        <time>2020-09-28T13:37:50.244Z</time>
      </trkpt>
      <trkpt lat="64.34312" lon="20.99517">
        <ele>66.778117</ele>
        <time>2020-09-28T13:37:53.249Z</time>
      </trkpt>
      <trkpt lat="64.34308" lon="20.99541">
        <ele>67.12024</ele>
        <time>2020-09-28T13:37:56.228Z</time>
      </trkpt>
      <trkpt lat="64.34303" lon="20.99568">
        <ele>67.434901</ele>
        <time>2020-09-28T13:37:59.209Z</time>
      </trkpt>
      <trkpt lat="64.34298" lon="20.99593">
        <ele>67.728686</ele>
        <time>2020-09-28T13:38:02.239Z</time>
      </trkpt>
      <trkpt lat="64.34294" lon="20.99618">
        <ele>68.019493</ele>
        <time>2020-09-28T13:38:05.233Z</time>
      </trkpt>
      <trkpt lat="64.34289" lon="20.99645">
        <ele>68.337036</ele>
        <time>2020-09-28T13:38:08.225Z</time>
      </trkpt>
      <trkpt lat="64.34284" lon="20.9967">
        <ele>68.628903</ele>
        <time>2020-09-28T13:38:11.232Z</time>
      </trkpt>
      <trkpt lat="64.3428" lon="20.99699">
        <ele>68.957946</ele>
        <time>2020-09-28T13:38:14.226Z</time>
      </trkpt>
      <trkpt lat="64.34276" lon="20.99727">
        <ele>69.286555</ele>
        <time>2020-09-28T13:38:17.245Z</time>
      </trkpt>
      <trkpt lat="64.34273" lon="20.99748">
        <ele>69.52491</ele>
        <time>2020-09-28T13:38:19.246Z</time>
      </trkpt>
      <trkpt lat="64.34269" lon="20.9977">
        <ele>69.772225</ele>
        <time>2020-09-28T13:38:21.288Z</time>
      </trkpt>
      <trkpt lat="64.34265" lon="20.9979">
        <ele>70.013607</ele>
        <time>2020-09-28T13:38:23.235Z</time>
      </trkpt>
      <trkpt lat="64.3426" lon="20.99808">
        <ele>70.245936</ele>
        <time>2020-09-28T13:38:25.220Z</time>
      </trkpt>
      <trkpt lat="64.34255" lon="20.99826">
        <ele>70.477801</ele>
        <time>2020-09-28T13:38:27.247Z</time>
      </trkpt>
      <trkpt lat="64.34249" lon="20.99844">
        <ele>70.715265</ele>
        <time>2020-09-28T13:38:29.236Z</time>
      </trkpt>
      <trkpt lat="64.34243" lon="20.99864">
        <ele>70.97224</ele>
        <time>2020-09-28T13:38:31.238Z</time>
      </trkpt>
      <trkpt lat="64.34236" lon="20.99884">
        <ele>71.250177</ele>
        <time>2020-09-28T13:38:33.210Z</time>
      </trkpt>
      <trkpt lat="64.34227" lon="20.99902">
        <ele>71.096996</ele>
        <time>2020-09-28T13:38:35.232Z</time>
      </trkpt>
      <trkpt lat="64.34219" lon="20.99923">
        <ele>70.619437</ele>
        <time>2020-09-28T13:38:37.223Z</time>
      </trkpt>
      <trkpt lat="64.3421" lon="20.99944">
        <ele>70.119817</ele>
        <time>2020-09-28T13:38:39.248Z</time>
      </trkpt>
      <trkpt lat="64.342" lon="20.99966">
        <ele>69.607624</ele>
        <time>2020-09-28T13:38:41.227Z</time>
      </trkpt>
      <trkpt lat="64.34191" lon="20.99989">
        <ele>69.076785</ele>
        <time>2020-09-28T13:38:43.244Z</time>
      </trkpt>
      <trkpt lat="64.34181" lon="21.00014">
        <ele>68.502655</ele>
        <time>2020-09-28T13:38:45.241Z</time>
      </trkpt>
      <trkpt lat="64.3417" lon="21.0004">
        <ele>67.908445</ele>
        <time>2020-09-28T13:38:47.220Z</time>
      </trkpt>
      <trkpt lat="64.3416" lon="21.00065">
        <ele>67.34005</ele>
        <time>2020-09-28T13:38:49.236Z</time>
      </trkpt>
      <trkpt lat="64.34151" lon="21.00091">
        <ele>66.775465</ele>
        <time>2020-09-28T13:38:51.247Z</time>
      </trkpt>
      <trkpt lat="64.34141" lon="21.00115">
        <ele>66.229577</ele>
        <time>2020-09-28T13:38:53.256Z</time>
      </trkpt>
      <trkpt lat="64.34132" lon="21.00138">
        <ele>65.700267</ele>
        <time>2020-09-28T13:38:55.241Z</time>
      </trkpt>
      <trkpt lat="64.34123" lon="21.00161">
        <ele>65.18366</ele>
        <time>2020-09-28T13:38:57.220Z</time>
      </trkpt>
      <trkpt lat="64.34114" lon="21.00184">
        <ele>64.667833</ele>
        <time>2020-09-28T13:38:59.245Z</time>
      </trkpt>
      <trkpt lat="64.34106" lon="21.00209">
        <ele>64.072409</ele>
        <time>2020-09-28T13:39:01.282Z</time>
      </trkpt>
      <trkpt lat="64.34096" lon="21.0023">
        <ele>63.428334</ele>
        <time>2020-09-28T13:39:03.212Z</time>
      </trkpt>
      <trkpt lat="64.34086" lon="21.00252">
        <ele>62.794549</ele>
        <time>2020-09-28T13:39:05.229Z</time>
      </trkpt>
      <trkpt lat="64.34077" lon="21.00273">
        <ele>62.186052</ele>
        <time>2020-09-28T13:39:07.250Z</time>
      </trkpt>
      <trkpt lat="64.34068" lon="21.00293">
        <ele>61.548424</ele>
        <time>2020-09-28T13:39:09.221Z</time>
      </trkpt>
      <trkpt lat="64.34058" lon="21.00314">
        <ele>60.914989</ele>
        <time>2020-09-28T13:39:11.246Z</time>
      </trkpt>
      <trkpt lat="64.34048" lon="21.00336">
        <ele>60.262228</ele>
        <time>2020-09-28T13:39:13.259Z</time>
      </trkpt>
      <trkpt lat="64.34039" lon="21.0036">
        <ele>59.587929</ele>
        <time>2020-09-28T13:39:15.237Z</time>
      </trkpt>
      <trkpt lat="64.34029" lon="21.00386">
        <ele>58.890052</ele>
        <time>2020-09-28T13:39:17.219Z</time>
      </trkpt>
      <trkpt lat="64.34019" lon="21.0041">
        <ele>58.202727</ele>
        <time>2020-09-28T13:39:19.228Z</time>
      </trkpt>
      <trkpt lat="64.34009" lon="21.00434">
        <ele>57.515129</ele>
        <time>2020-09-28T13:39:21.225Z</time>
      </trkpt>
      <trkpt lat="64.33999" lon="21.00459">
        <ele>56.784853</ele>
        <time>2020-09-28T13:39:23.228Z</time>
      </trkpt>
      <trkpt lat="64.33989" lon="21.00484">
        <ele>56.072309</ele>
        <time>2020-09-28T13:39:25.261Z</time>
      </trkpt>
      <trkpt lat="64.33979" lon="21.00508">
        <ele>55.507688</ele>
        <time>2020-09-28T13:39:27.241Z</time>
      </trkpt>
      <trkpt lat="64.3397" lon="21.00532">
        <ele>55.028086</ele>
        <time>2020-09-28T13:39:29.228Z</time>
      </trkpt>
      <trkpt lat="64.3396" lon="21.00556">
        <ele>54.540289</ele>
        <time>2020-09-28T13:39:31.215Z</time>
      </trkpt>
      <trkpt lat="64.3395" lon="21.00579">
        <ele>54.064562</ele>
        <time>2020-09-28T13:39:33.266Z</time>
      </trkpt>
      <trkpt lat="64.33941" lon="21.00601">
        <ele>53.612262</ele>
        <time>2020-09-28T13:39:35.296Z</time>
      </trkpt>
      <trkpt lat="64.33931" lon="21.00621">
        <ele>53.165462</ele>
        <time>2020-09-28T13:39:37.236Z</time>
      </trkpt>
      <trkpt lat="64.33922" lon="21.00642">
        <ele>52.714786</ele>
        <time>2020-09-28T13:39:39.238Z</time>
      </trkpt>
      <trkpt lat="64.33912" lon="21.00661">
        <ele>52.262798</ele>
        <time>2020-09-28T13:39:41.206Z</time>
      </trkpt>
      <trkpt lat="64.33901" lon="21.00681">
        <ele>51.800458</ele>
        <time>2020-09-28T13:39:43.214Z</time>
      </trkpt>
      <trkpt lat="64.33891" lon="21.007">
        <ele>51.348922</ele>
        <time>2020-09-28T13:39:45.261Z</time>
      </trkpt>
      <trkpt lat="64.3388" lon="21.00719">
        <ele>50.895745</ele>
        <time>2020-09-28T13:39:47.219Z</time>
      </trkpt>
      <trkpt lat="64.33869" lon="21.00736">
        <ele>50.43289</ele>
        <time>2020-09-28T13:39:49.243Z</time>
      </trkpt>
      <trkpt lat="64.33858" lon="21.00752">
        <ele>49.962605</ele>
        <time>2020-09-28T13:39:51.265Z</time>
      </trkpt>
      <trkpt lat="64.33845" lon="21.00768">
        <ele>49.5059</ele>
        <time>2020-09-28T13:39:53.220Z</time>
      </trkpt>
      <trkpt lat="64.33832" lon="21.00783">
        <ele>49.078617</ele>
        <time>2020-09-28T13:39:55.221Z</time>
      </trkpt>
      <trkpt lat="64.33819" lon="21.00796">
        <ele>48.645225</ele>
        <time>2020-09-28T13:39:57.238Z</time>
      </trkpt>
      <trkpt lat="64.33804" lon="21.00808">
        <ele>48.184201</ele>
        <time>2020-09-28T13:39:59.217Z</time>
      </trkpt>
      <trkpt lat="64.33789" lon="21.0082">
        <ele>47.717166</ele>
        <time>2020-09-28T13:40:01.210Z</time>
      </trkpt>
      <trkpt lat="64.33775" lon="21.00831">
        <ele>47.271075</ele>
        <time>2020-09-28T13:40:03.260Z</time>
      </trkpt>
      <trkpt lat="64.33761" lon="21.0084">
        <ele>46.852364</ele>
        <time>2020-09-28T13:40:05.212Z</time>
      </trkpt>
      <trkpt lat="64.33749" lon="21.00846">
        <ele>46.471988</ele>
        <time>2020-09-28T13:40:07.209Z</time>
      </trkpt>
      <trkpt lat="64.33737" lon="21.00854">
        <ele>46.110766</ele>
        <time>2020-09-28T13:40:09.222Z</time>
      </trkpt>
      <trkpt lat="64.33725" lon="21.00859">
        <ele>45.75713</ele>
        <time>2020-09-28T13:40:11.238Z</time>
      </trkpt>
      <trkpt lat="64.33714" lon="21.00864">
        <ele>45.405432</ele>
        <time>2020-09-28T13:40:13.218Z</time>
      </trkpt>
      <trkpt lat="64.33702" lon="21.00868">
        <ele>45.065066</ele>
        <time>2020-09-28T13:40:15.218Z</time>
      </trkpt>
      <trkpt lat="64.33691" lon="21.0087">
        <ele>44.729333</ele>
        <time>2020-09-28T13:40:17.232Z</time>
      </trkpt>
      <trkpt lat="64.3368" lon="21.00872">
        <ele>44.400006</ele>
        <time>2020-09-28T13:40:19.210Z</time>
      </trkpt>
      <trkpt lat="64.33668" lon="21.00874">
        <ele>44.50626</ele>
        <time>2020-09-28T13:40:21.256Z</time>
      </trkpt>
      <trkpt lat="64.33657" lon="21.00875">
        <ele>44.748759</ele>
        <time>2020-09-28T13:40:23.237Z</time>
      </trkpt>
      <trkpt lat="64.33647" lon="21.00876">
        <ele>44.974081</ele>
        <time>2020-09-28T13:40:25.236Z</time>
      </trkpt>
      <trkpt lat="64.33636" lon="21.00876">
        <ele>45.207796</ele>
        <time>2020-09-28T13:40:27.221Z</time>
      </trkpt>
      <trkpt lat="64.33625" lon="21.00876">
        <ele>45.432926</ele>
        <time>2020-09-28T13:40:29.222Z</time>
      </trkpt>
      <trkpt lat="64.33615" lon="21.00876">
        <ele>45.658065</ele>
        <time>2020-09-28T13:40:31.233Z</time>
      </trkpt>
      <trkpt lat="64.33605" lon="21.00876">
        <ele>45.870364</ele>
        <time>2020-09-28T13:40:33.220Z</time>
      </trkpt>
      <trkpt lat="64.33592" lon="21.00876">
        <ele>46.151247</ele>
        <time>2020-09-28T13:40:36.219Z</time>
      </trkpt>
      <trkpt lat="64.3358" lon="21.00877">
        <ele>46.393746</ele>
        <time>2020-09-28T13:40:39.288Z</time>
      </trkpt>
      <trkpt lat="64.3357" lon="21.00878">
        <ele>46.617011</ele>
        <time>2020-09-28T13:40:42.235Z</time>
      </trkpt>
      <trkpt lat="64.3356" lon="21.00879">
        <ele>46.831622</ele>
        <time>2020-09-28T13:40:45.221Z</time>
      </trkpt>
      <trkpt lat="64.33551" lon="21.00879">
        <ele>47.024594</ele>
        <time>2020-09-28T13:40:48.223Z</time>
      </trkpt>
      <trkpt lat="64.33539" lon="21.0088">
        <ele>47.279879</ele>
        <time>2020-09-28T13:40:52.242Z</time>
      </trkpt>
      <trkpt lat="64.3353" lon="21.0088">
        <ele>47.483577</ele>
        <time>2020-09-28T13:40:55.260Z</time>
      </trkpt>
      <trkpt lat="64.33518" lon="21.00879">
        <ele>47.738732</ele>
        <time>2020-09-28T13:40:59.221Z</time>
      </trkpt>
      <trkpt lat="64.33506" lon="21.0088">
        <ele>47.983223</ele>
        <time>2020-09-28T13:41:03.225Z</time>
      </trkpt>
      <trkpt lat="64.33494" lon="21.0088">
        <ele>48.232886</ele>
        <time>2020-09-28T13:41:07.221Z</time>
      </trkpt>
      <trkpt lat="64.33484" lon="21.00881">
        <ele>48.444441</ele>
        <time>2020-09-28T13:41:11.248Z</time>
      </trkpt>
      <trkpt lat="64.33472" lon="21.00882">
        <ele>48.679188</ele>
        <time>2020-09-28T13:41:15.228Z</time>
      </trkpt>
      <trkpt lat="64.33462" lon="21.0088">
        <ele>48.875357</ele>
        <time>2020-09-28T13:41:18.242Z</time>
      </trkpt>
      <trkpt lat="64.33451" lon="21.0088">
        <ele>49.084631</ele>
        <time>2020-09-28T13:41:21.219Z</time>
      </trkpt>
      <trkpt lat="64.33441" lon="21.00883">
        <ele>49.283387</ele>
        <time>2020-09-28T13:41:24.221Z</time>
      </trkpt>
      <trkpt lat="64.3343" lon="21.00883">
        <ele>49.500483</ele>
        <time>2020-09-28T13:41:27.212Z</time>
      </trkpt>
      <trkpt lat="64.33418" lon="21.00885">
        <ele>49.737471</ele>
        <time>2020-09-28T13:41:30.212Z</time>
      </trkpt>
      <trkpt lat="64.33406" lon="21.00887">
        <ele>49.972901</ele>
        <time>2020-09-28T13:41:33.254Z</time>
      </trkpt>
      <trkpt lat="64.33393" lon="21.0089">
        <ele>50.222413</ele>
        <time>2020-09-28T13:41:36.245Z</time>
      </trkpt>
      <trkpt lat="64.33384" lon="21.00891">
        <ele>50.400677</ele>
        <time>2020-09-28T13:41:38.227Z</time>
      </trkpt>
      <trkpt lat="64.33372" lon="21.0089">
        <ele>50.623829</ele>
        <time>2020-09-28T13:41:40.230Z</time>
      </trkpt>
      <trkpt lat="64.33357" lon="21.00889">
        <ele>50.919296</ele>
        <time>2020-09-28T13:41:42.242Z</time>
      </trkpt>
      <trkpt lat="64.33342" lon="21.00888">
        <ele>51.212671</ele>
        <time>2020-09-28T13:41:44.268Z</time>
      </trkpt>
      <trkpt lat="64.33327" lon="21.00889">
        <ele>51.513917</ele>
        <time>2020-09-28T13:41:46.229Z</time>
      </trkpt>
      <trkpt lat="64.33312" lon="21.0089">
        <ele>51.407009</ele>
        <time>2020-09-28T13:41:48.216Z</time>
      </trkpt>
      <trkpt lat="64.33297" lon="21.00892">
        <ele>50.741316</ele>
        <time>2020-09-28T13:41:50.271Z</time>
      </trkpt>
      <trkpt lat="64.33283" lon="21.00893">
        <ele>50.047793</ele>
        <time>2020-09-28T13:41:52.250Z</time>
      </trkpt>
      <trkpt lat="64.33267" lon="21.00893">
        <ele>49.335893</ele>
        <time>2020-09-28T13:41:54.235Z</time>
      </trkpt>
      <trkpt lat="64.33252" lon="21.00895">
        <ele>48.632682</ele>
        <time>2020-09-28T13:41:56.225Z</time>
      </trkpt>
      <trkpt lat="64.33238" lon="21.00896">
        <ele>47.953526</ele>
        <time>2020-09-28T13:41:58.225Z</time>
      </trkpt>
      <trkpt lat="64.33224" lon="21.00897">
        <ele>47.292835</ele>
        <time>2020-09-28T13:42:00.236Z</time>
      </trkpt>
      <trkpt lat="64.3321" lon="21.00898">
        <ele>46.655472</ele>
        <time>2020-09-28T13:42:02.233Z</time>
      </trkpt>
      <trkpt lat="64.33197" lon="21.00899">
        <ele>46.032292</ele>
        <time>2020-09-28T13:42:04.219Z</time>
      </trkpt>
      <trkpt lat="64.33184" lon="21.00901">
        <ele>45.430884</ele>
        <time>2020-09-28T13:42:06.241Z</time>
      </trkpt>
      <trkpt lat="64.33171" lon="21.00904">
        <ele>44.819625</ele>
        <time>2020-09-28T13:42:08.233Z</time>
      </trkpt>
      <trkpt lat="64.33158" lon="21.00908">
        <ele>44.215255</ele>
        <time>2020-09-28T13:42:10.245Z</time>
      </trkpt>
      <trkpt lat="64.33145" lon="21.00911">
        <ele>43.602091</ele>
        <time>2020-09-28T13:42:12.231Z</time>
      </trkpt>
      <trkpt lat="64.33133" lon="21.00916">
        <ele>43.228206</ele>
        <time>2020-09-28T13:42:14.239Z</time>
      </trkpt>
      <trkpt lat="64.3312" lon="21.00922">
        <ele>43.12811</ele>
        <time>2020-09-28T13:42:16.213Z</time>
      </trkpt>
      <trkpt lat="64.33107" lon="21.00928">
        <ele>43.029638</ele>
        <time>2020-09-28T13:42:18.232Z</time>
      </trkpt>
      <trkpt lat="64.33095" lon="21.00936">
        <ele>42.932917</ele>
        <time>2020-09-28T13:42:20.208Z</time>
      </trkpt>
      <trkpt lat="64.33083" lon="21.00944">
        <ele>42.839314</ele>
        <time>2020-09-28T13:42:22.256Z</time>
      </trkpt>
      <trkpt lat="64.33071" lon="21.00953">
        <ele>42.746744</ele>
        <time>2020-09-28T13:42:24.227Z</time>
      </trkpt>
      <trkpt lat="64.3306" lon="21.00963">
        <ele>42.652705</ele>
        <time>2020-09-28T13:42:26.223Z</time>
      </trkpt>
      <trkpt lat="64.33048" lon="21.00973">
        <ele>42.561264</ele>
        <time>2020-09-28T13:42:28.230Z</time>
      </trkpt>
      <trkpt lat="64.33037" lon="21.00985">
        <ele>42.46992</ele>
        <time>2020-09-28T13:42:30.222Z</time>
      </trkpt>
      <trkpt lat="64.33027" lon="21.00997">
        <ele>42.383617</ele>
        <time>2020-09-28T13:42:32.211Z</time>
      </trkpt>
      <trkpt lat="64.33017" lon="21.0101">
        <ele>42.296805</ele>
        <time>2020-09-28T13:42:34.225Z</time>
      </trkpt>
      <trkpt lat="64.33008" lon="21.01024">
        <ele>42.21091</ele>
        <time>2020-09-28T13:42:36.228Z</time>
      </trkpt>
      <trkpt lat="64.32998" lon="21.01037">
        <ele>42.12802</ele>
        <time>2020-09-28T13:42:38.228Z</time>
      </trkpt>
      <trkpt lat="64.32989" lon="21.0105">
        <ele>42.04445</ele>
        <time>2020-09-28T13:42:40.262Z</time>
      </trkpt>
      <trkpt lat="64.32979" lon="21.01064">
        <ele>41.959107</ele>
        <time>2020-09-28T13:42:42.216Z</time>
      </trkpt>
      <trkpt lat="64.32969" lon="21.01078">
        <ele>41.948659</ele>
        <time>2020-09-28T13:42:44.256Z</time>
      </trkpt>
      <trkpt lat="64.32959" lon="21.01092">
        <ele>42.039552</ele>
        <time>2020-09-28T13:42:46.225Z</time>
      </trkpt>
      <trkpt lat="64.32949" lon="21.01108">
        <ele>42.130146</ele>
        <time>2020-09-28T13:42:48.249Z</time>
      </trkpt>
      <trkpt lat="64.32939" lon="21.01123">
        <ele>42.220643</ele>
        <time>2020-09-28T13:42:50.241Z</time>
      </trkpt>
      <trkpt lat="64.32929" lon="21.01137">
        <ele>42.310204</ele>
        <time>2020-09-28T13:42:52.229Z</time>
      </trkpt>
      <trkpt lat="64.32919" lon="21.01151">
        <ele>42.401387</ele>
        <time>2020-09-28T13:42:54.228Z</time>
      </trkpt>
      <trkpt lat="64.32909" lon="21.01165">
        <ele>42.489831</ele>
        <time>2020-09-28T13:42:56.260Z</time>
      </trkpt>
      <trkpt lat="64.329" lon="21.0118">
        <ele>42.572951</ele>
        <time>2020-09-28T13:42:58.215Z</time>
      </trkpt>
      <trkpt lat="64.32891" lon="21.01193">
        <ele>42.65541</ele>
        <time>2020-09-28T13:43:00.260Z</time>
      </trkpt>
      <trkpt lat="64.32881" lon="21.01207">
        <ele>42.740592</ele>
        <time>2020-09-28T13:43:02.245Z</time>
      </trkpt>
      <trkpt lat="64.32872" lon="21.01221">
        <ele>42.824609</ele>
        <time>2020-09-28T13:43:04.228Z</time>
      </trkpt>
      <trkpt lat="64.32862" lon="21.01235">
        <ele>42.908338</ele>
        <time>2020-09-28T13:43:06.238Z</time>
      </trkpt>
      <trkpt lat="64.32853" lon="21.01248">
        <ele>42.991837</ele>
        <time>2020-09-28T13:43:08.222Z</time>
      </trkpt>
      <trkpt lat="64.32844" lon="21.01262">
        <ele>43.074476</ele>
        <time>2020-09-28T13:43:10.219Z</time>
      </trkpt>
      <trkpt lat="64.32835" lon="21.01275">
        <ele>43.153504</ele>
        <time>2020-09-28T13:43:12.229Z</time>
      </trkpt>
      <trkpt lat="64.32827" lon="21.01288">
        <ele>43.231719</ele>
        <time>2020-09-28T13:43:14.226Z</time>
      </trkpt>
      <trkpt lat="64.32818" lon="21.01302">
        <ele>43.260657</ele>
        <time>2020-09-28T13:43:16.252Z</time>
      </trkpt>
      <trkpt lat="64.32809" lon="21.01315">
        <ele>43.238211</ele>
        <time>2020-09-28T13:43:18.227Z</time>
      </trkpt>
      <trkpt lat="64.32801" lon="21.01327">
        <ele>43.215455</ele>
        <time>2020-09-28T13:43:20.225Z</time>
      </trkpt>
      <trkpt lat="64.32792" lon="21.01339">
        <ele>43.193113</ele>
        <time>2020-09-28T13:43:22.244Z</time>
      </trkpt>
      <trkpt lat="64.32784" lon="21.01352">
        <ele>43.170801</ele>
        <time>2020-09-28T13:43:24.240Z</time>
      </trkpt>
      <trkpt lat="64.32775" lon="21.01364">
        <ele>43.148697</ele>
        <time>2020-09-28T13:43:26.238Z</time>
      </trkpt>
      <trkpt lat="64.32767" lon="21.01377">
        <ele>43.125723</ele>
        <time>2020-09-28T13:43:28.237Z</time>
      </trkpt>
      <trkpt lat="64.32758" lon="21.0139">
        <ele>43.102868</ele>
        <time>2020-09-28T13:43:30.242Z</time>
      </trkpt>
      <trkpt lat="64.3275" lon="21.01402">
        <ele>43.081106</ele>
        <time>2020-09-28T13:43:32.247Z</time>
      </trkpt>
      <trkpt lat="64.32741" lon="21.01414">
        <ele>43.05895</ele>
        <time>2020-09-28T13:43:34.226Z</time>
      </trkpt>
      <trkpt lat="64.32732" lon="21.01427">
        <ele>43.035976</ele>
        <time>2020-09-28T13:43:36.221Z</time>
      </trkpt>
      <trkpt lat="64.32724" lon="21.0144">
        <ele>43.01361</ele>
        <time>2020-09-28T13:43:38.217Z</time>
      </trkpt>
      <trkpt lat="64.32716" lon="21.01453">
        <ele>42.99172</ele>
        <time>2020-09-28T13:43:40.261Z</time>
      </trkpt>
      <trkpt lat="64.32707" lon="21.01465">
        <ele>42.97007</ele>
        <time>2020-09-28T13:43:42.230Z</time>
      </trkpt>
      <trkpt lat="64.32699" lon="21.01477">
        <ele>42.948576</ele>
        <time>2020-09-28T13:43:44.243Z</time>
      </trkpt>
      <trkpt lat="64.32691" lon="21.0149">
        <ele>42.926501</ele>
        <time>2020-09-28T13:43:46.229Z</time>
      </trkpt>
      <trkpt lat="64.32683" lon="21.01502">
        <ele>42.904664</ele>
        <time>2020-09-28T13:43:48.266Z</time>
      </trkpt>
      <trkpt lat="64.32675" lon="21.01514">
        <ele>42.88367</ele>
        <time>2020-09-28T13:43:50.220Z</time>
      </trkpt>
      <trkpt lat="64.32667" lon="21.01526">
        <ele>42.953926</ele>
        <time>2020-09-28T13:43:52.254Z</time>
      </trkpt>
      <trkpt lat="64.32659" lon="21.01538">
        <ele>43.109538</ele>
        <time>2020-09-28T13:43:54.217Z</time>
      </trkpt>
      <trkpt lat="64.32651" lon="21.0155">
        <ele>43.263213</ele>
        <time>2020-09-28T13:43:56.225Z</time>
      </trkpt>
      <trkpt lat="64.32644" lon="21.01562">
        <ele>43.411253</ele>
        <time>2020-09-28T13:43:58.228Z</time>
      </trkpt>
      <trkpt lat="64.32632" lon="21.01579">
        <ele>43.632233</ele>
        <time>2020-09-28T13:44:01.226Z</time>
      </trkpt>
      <trkpt lat="64.32621" lon="21.01596">
        <ele>43.847189</ele>
        <time>2020-09-28T13:44:04.232Z</time>
      </trkpt>
      <trkpt lat="64.32611" lon="21.01612">
        <ele>44.047733</ele>
        <time>2020-09-28T13:44:07.250Z</time>
      </trkpt>
      <trkpt lat="64.32601" lon="21.01627">
        <ele>44.244196</ele>
        <time>2020-09-28T13:44:10.250Z</time>
      </trkpt>
      <trkpt lat="64.32592" lon="21.0164">
        <ele>44.420877</ele>
        <time>2020-09-28T13:44:13.222Z</time>
      </trkpt>
      <trkpt lat="64.32583" lon="21.01654">
        <ele>44.593804</ele>
        <time>2020-09-28T13:44:16.241Z</time>
      </trkpt>
      <trkpt lat="64.32574" lon="21.01667">
        <ele>44.766143</ele>
        <time>2020-09-28T13:44:19.221Z</time>
      </trkpt>
      <trkpt lat="64.32565" lon="21.01681">
        <ele>44.945484</ele>
        <time>2020-09-28T13:44:22.202Z</time>
      </trkpt>
      <trkpt lat="64.32556" lon="21.01695">
        <ele>45.123854</ele>
        <time>2020-09-28T13:44:25.206Z</time>
      </trkpt>
      <trkpt lat="64.32547" lon="21.01708">
        <ele>45.297773</ele>
        <time>2020-09-28T13:44:28.232Z</time>
      </trkpt>
      <trkpt lat="64.32538" lon="21.01721">
        <ele>45.469937</ele>
        <time>2020-09-28T13:44:31.210Z</time>
      </trkpt>
      <trkpt lat="64.32529" lon="21.01735">
        <ele>45.638779</ele>
        <time>2020-09-28T13:44:34.234Z</time>
      </trkpt>
      <trkpt lat="64.32521" lon="21.01747">
        <ele>45.803722</ele>
        <time>2020-09-28T13:44:37.209Z</time>
      </trkpt>
      <trkpt lat="64.32512" lon="21.01759">
        <ele>45.96953</ele>
        <time>2020-09-28T13:44:40.215Z</time>
      </trkpt>
      <trkpt lat="64.32504" lon="21.01771">
        <ele>46.134464</ele>
        <time>2020-09-28T13:44:43.216Z</time>
      </trkpt>
      <trkpt lat="64.32496" lon="21.01783">
        <ele>46.294978</ele>
        <time>2020-09-28T13:44:46.251Z</time>
      </trkpt>
      <trkpt lat="64.32488" lon="21.01795">
        <ele>46.44877</ele>
        <time>2020-09-28T13:44:49.220Z</time>
      </trkpt>
      <trkpt lat="64.3248" lon="21.01807">
        <ele>46.603801</ele>
        <time>2020-09-28T13:44:52.227Z</time>
      </trkpt>
      <trkpt lat="64.32473" lon="21.01819">
        <ele>46.755573</ele>
        <time>2020-09-28T13:44:55.223Z</time>
      </trkpt>
      <trkpt lat="64.32465" lon="21.01832">
        <ele>46.910918</ele>
        <time>2020-09-28T13:44:58.208Z</time>
      </trkpt>
      <trkpt lat="64.32457" lon="21.01844">
        <ele>47.075218</ele>
        <time>2020-09-28T13:45:01.530Z</time>
      </trkpt>
      <trkpt lat="64.32447" lon="21.0186">
        <ele>47.281871</ele>
        <time>2020-09-28T13:45:05.206Z</time>
      </trkpt>
      <trkpt lat="64.32439" lon="21.01871">
        <ele>47.43557</ele>
        <time>2020-09-28T13:45:08.212Z</time>
      </trkpt>
      <trkpt lat="64.3243" lon="21.01881">
        <ele>47.598441</ele>
        <time>2020-09-28T13:45:11.215Z</time>
      </trkpt>
      <trkpt lat="64.32421" lon="21.01892">
        <ele>47.762924</ele>
        <time>2020-09-28T13:45:14.224Z</time>
      </trkpt>
      <trkpt lat="64.32413" lon="21.01903">
        <ele>47.926459</ele>
        <time>2020-09-28T13:45:17.223Z</time>
      </trkpt>
      <trkpt lat="64.32404" lon="21.01914">
        <ele>48.093159</ele>
        <time>2020-09-28T13:45:20.224Z</time>
      </trkpt>
      <trkpt lat="64.32395" lon="21.01924">
        <ele>48.266179</ele>
        <time>2020-09-28T13:45:23.217Z</time>
      </trkpt>
      <trkpt lat="64.32385" lon="21.01934">
        <ele>48.446151</ele>
        <time>2020-09-28T13:45:26.224Z</time>
      </trkpt>
      <trkpt lat="64.32375" lon="21.01944">
        <ele>48.622651</ele>
        <time>2020-09-28T13:45:29.223Z</time>
      </trkpt>
      <trkpt lat="64.32366" lon="21.01952">
        <ele>48.791349</ele>
        <time>2020-09-28T13:45:32.229Z</time>
      </trkpt>
      <trkpt lat="64.32356" lon="21.0196">
        <ele>48.89169</ele>
        <time>2020-09-28T13:45:35.218Z</time>
      </trkpt>
      <trkpt lat="64.32347" lon="21.0197">
        <ele>48.995123</ele>
        <time>2020-09-28T13:45:38.228Z</time>
      </trkpt>
      <trkpt lat="64.32336" lon="21.01978">
        <ele>49.101531</ele>
        <time>2020-09-28T13:45:41.232Z</time>
      </trkpt>
      <trkpt lat="64.32327" lon="21.01985">
        <ele>49.199951</ele>
        <time>2020-09-28T13:45:44.240Z</time>
      </trkpt>
      <trkpt lat="64.32317" lon="21.01993">
        <ele>49.301648</ele>
        <time>2020-09-28T13:45:47.213Z</time>
      </trkpt>
      <trkpt lat="64.32308" lon="21.02003">
        <ele>49.401707</ele>
        <time>2020-09-28T13:45:50.222Z</time>
      </trkpt>
      <trkpt lat="64.32298" lon="21.02011">
        <ele>49.502189</ele>
        <time>2020-09-28T13:45:53.238Z</time>
      </trkpt>
      <trkpt lat="64.32288" lon="21.02019">
        <ele>49.606734</ele>
        <time>2020-09-28T13:45:56.219Z</time>
      </trkpt>
      <trkpt lat="64.32278" lon="21.02027">
        <ele>49.711816</ele>
        <time>2020-09-28T13:45:59.216Z</time>
      </trkpt>
      <trkpt lat="64.32268" lon="21.02036">
        <ele>49.816106</ele>
        <time>2020-09-28T13:46:02.225Z</time>
      </trkpt>
      <trkpt lat="64.32258" lon="21.02045">
        <ele>49.921621</ele>
        <time>2020-09-28T13:46:05.225Z</time>
      </trkpt>
      <trkpt lat="64.32248" lon="21.02051">
        <ele>50.022772</ele>
        <time>2020-09-28T13:46:08.225Z</time>
      </trkpt>
      <trkpt lat="64.32238" lon="21.02059">
        <ele>50.12918</ele>
        <time>2020-09-28T13:46:11.223Z</time>
      </trkpt>
      <trkpt lat="64.32228" lon="21.02067">
        <ele>50.234419</ele>
        <time>2020-09-28T13:46:14.226Z</time>
      </trkpt>
      <trkpt lat="64.32218" lon="21.02076">
        <ele>50.341015</ele>
        <time>2020-09-28T13:46:17.221Z</time>
      </trkpt>
      <trkpt lat="64.32207" lon="21.02085">
        <ele>50.452481</ele>
        <time>2020-09-28T13:46:20.244Z</time>
      </trkpt>
      <trkpt lat="64.32197" lon="21.02094">
        <ele>50.560639</ele>
        <time>2020-09-28T13:46:23.220Z</time>
      </trkpt>
      <trkpt lat="64.32187" lon="21.02102">
        <ele>50.491568</ele>
        <time>2020-09-28T13:46:26.241Z</time>
      </trkpt>
      <trkpt lat="64.32177" lon="21.0211">
        <ele>50.41082</ele>
        <time>2020-09-28T13:46:29.228Z</time>
      </trkpt>
      <trkpt lat="64.32166" lon="21.0212">
        <ele>50.321919</ele>
        <time>2020-09-28T13:46:32.296Z</time>
      </trkpt>
      <trkpt lat="64.32155" lon="21.02129">
        <ele>50.227394</ele>
        <time>2020-09-28T13:46:35.228Z</time>
      </trkpt>
      <trkpt lat="64.32143" lon="21.02139">
        <ele>50.128831</ele>
        <time>2020-09-28T13:46:38.301Z</time>
      </trkpt>
      <trkpt lat="64.32131" lon="21.0215">
        <ele>50.025027</ele>
        <time>2020-09-28T13:46:41.223Z</time>
      </trkpt>
      <trkpt lat="64.32122" lon="21.02157">
        <ele>49.949677</ele>
        <time>2020-09-28T13:46:43.216Z</time>
      </trkpt>
      <trkpt lat="64.32113" lon="21.02164">
        <ele>49.875013</ele>
        <time>2020-09-28T13:46:45.242Z</time>
      </trkpt>
      <trkpt lat="64.32104" lon="21.02172">
        <ele>49.797565</ele>
        <time>2020-09-28T13:46:47.230Z</time>
      </trkpt>
      <trkpt lat="64.32093" lon="21.0218">
        <ele>49.712775</ele>
        <time>2020-09-28T13:46:49.231Z</time>
      </trkpt>
      <trkpt lat="64.32083" lon="21.02189">
        <ele>49.62639</ele>
        <time>2020-09-28T13:46:51.270Z</time>
      </trkpt>
      <trkpt lat="64.32072" lon="21.02198">
        <ele>49.536872</ele>
        <time>2020-09-28T13:46:53.227Z</time>
      </trkpt>
      <trkpt lat="64.32061" lon="21.02206">
        <ele>49.442182</ele>
        <time>2020-09-28T13:46:55.252Z</time>
      </trkpt>
      <trkpt lat="64.3205" lon="21.02214">
        <ele>49.352078</ele>
        <time>2020-09-28T13:46:57.263Z</time>
      </trkpt>
      <trkpt lat="64.32039" lon="21.02223">
        <ele>49.264615</ele>
        <time>2020-09-28T13:46:59.258Z</time>
      </trkpt>
      <trkpt lat="64.32029" lon="21.02232">
        <ele>49.175213</ele>
        <time>2020-09-28T13:47:01.235Z</time>
      </trkpt>
      <trkpt lat="64.32018" lon="21.02241">
        <ele>48.899429</ele>
        <time>2020-09-28T13:47:03.238Z</time>
      </trkpt>
      <trkpt lat="64.32008" lon="21.02248">
        <ele>48.579431</ele>
        <time>2020-09-28T13:47:05.269Z</time>
      </trkpt>
      <trkpt lat="64.31997" lon="21.02255">
        <ele>48.259222</ele>
        <time>2020-09-28T13:47:07.226Z</time>
      </trkpt>
      <trkpt lat="64.31987" lon="21.02262">
        <ele>47.947084</ele>
        <time>2020-09-28T13:47:09.216Z</time>
      </trkpt>
      <trkpt lat="64.31977" lon="21.02269">
        <ele>47.628905</ele>
        <time>2020-09-28T13:47:11.239Z</time>
      </trkpt>
      <trkpt lat="64.31966" lon="21.02275">
        <ele>47.30146</ele>
        <time>2020-09-28T13:47:13.259Z</time>
      </trkpt>
      <trkpt lat="64.31955" lon="21.02279">
        <ele>46.976816</ele>
        <time>2020-09-28T13:47:15.224Z</time>
      </trkpt>
      <trkpt lat="64.31944" lon="21.02284">
        <ele>46.655281</ele>
        <time>2020-09-28T13:47:17.261Z</time>
      </trkpt>
      <trkpt lat="64.31933" lon="21.02289">
        <ele>46.31554</ele>
        <time>2020-09-28T13:47:19.239Z</time>
      </trkpt>
      <trkpt lat="64.31921" lon="21.02293">
        <ele>45.970914</ele>
        <time>2020-09-28T13:47:21.252Z</time>
      </trkpt>
      <trkpt lat="64.31909" lon="21.02296">
        <ele>45.626156</ele>
        <time>2020-09-28T13:47:23.235Z</time>
      </trkpt>
      <trkpt lat="64.31898" lon="21.02299">
        <ele>45.277911</ele>
        <time>2020-09-28T13:47:25.242Z</time>
      </trkpt>
      <trkpt lat="64.31886" lon="21.02303">
        <ele>44.931746</ele>
        <time>2020-09-28T13:47:27.257Z</time>
      </trkpt>
      <trkpt lat="64.31874" lon="21.02307">
        <ele>44.591901</ele>
        <time>2020-09-28T13:47:29.217Z</time>
      </trkpt>
      <trkpt lat="64.31863" lon="21.02311">
        <ele>44.248081</ele>
        <time>2020-09-28T13:47:31.220Z</time>
      </trkpt>
      <trkpt lat="64.31851" lon="21.02314">
        <ele>43.908069</ele>
        <time>2020-09-28T13:47:33.226Z</time>
      </trkpt>
      <trkpt lat="64.3184" lon="21.02318">
        <ele>43.877047</ele>
        <time>2020-09-28T13:47:35.220Z</time>
      </trkpt>
      <trkpt lat="64.31829" lon="21.02321">
        <ele>43.866681</ele>
        <time>2020-09-28T13:47:37.240Z</time>
      </trkpt>
      <trkpt lat="64.31817" lon="21.02324">
        <ele>43.856109</ele>
        <time>2020-09-28T13:47:39.234Z</time>
      </trkpt>
      <trkpt lat="64.31806" lon="21.02328">
        <ele>43.845541</ele>
        <time>2020-09-28T13:47:41.214Z</time>
      </trkpt>
      <trkpt lat="64.31794" lon="21.02331">
        <ele>43.834786</ele>
        <time>2020-09-28T13:47:43.226Z</time>
      </trkpt>
      <trkpt lat="64.31783" lon="21.02335">
        <ele>43.824117</ele>
        <time>2020-09-28T13:47:45.247Z</time>
      </trkpt>
      <trkpt lat="64.31772" lon="21.02339">
        <ele>43.813892</ele>
        <time>2020-09-28T13:47:47.220Z</time>
      </trkpt>
      <trkpt lat="64.31761" lon="21.02343">
        <ele>43.803969</ele>
        <time>2020-09-28T13:47:49.245Z</time>
      </trkpt>
      <trkpt lat="64.31751" lon="21.02348">
        <ele>43.79452</ele>
        <time>2020-09-28T13:47:51.268Z</time>
      </trkpt>
      <trkpt lat="64.31741" lon="21.02351">
        <ele>43.784976</ele>
        <time>2020-09-28T13:47:53.225Z</time>
      </trkpt>
      <trkpt lat="64.31731" lon="21.02353">
        <ele>43.77582</ele>
        <time>2020-09-28T13:47:55.232Z</time>
      </trkpt>
      <trkpt lat="64.31721" lon="21.02356">
        <ele>43.766453</ele>
        <time>2020-09-28T13:47:57.265Z</time>
      </trkpt>
      <trkpt lat="64.31711" lon="21.0236">
        <ele>43.757166</ele>
        <time>2020-09-28T13:47:59.226Z</time>
      </trkpt>
      <trkpt lat="64.31701" lon="21.02362">
        <ele>43.748189</ele>
        <time>2020-09-28T13:48:01.247Z</time>
      </trkpt>
      <trkpt lat="64.31692" lon="21.02365">
        <ele>43.739307</ele>
        <time>2020-09-28T13:48:03.232Z</time>
      </trkpt>
      <trkpt lat="64.31682" lon="21.02367">
        <ele>43.730239</ele>
        <time>2020-09-28T13:48:05.239Z</time>
      </trkpt>
      <trkpt lat="64.31672" lon="21.0237">
        <ele>43.7281</ele>
        <time>2020-09-28T13:48:07.225Z</time>
      </trkpt>
      <trkpt lat="64.31662" lon="21.02373">
        <ele>43.966288</ele>
        <time>2020-09-28T13:48:09.236Z</time>
      </trkpt>
      <trkpt lat="64.31653" lon="21.02376">
        <ele>44.202604</ele>
        <time>2020-09-28T13:48:11.227Z</time>
      </trkpt>
      <trkpt lat="64.31643" lon="21.02379">
        <ele>44.434244</ele>
        <time>2020-09-28T13:48:13.245Z</time>
      </trkpt>
      <trkpt lat="64.31634" lon="21.02382">
        <ele>44.659151</ele>
        <time>2020-09-28T13:48:15.218Z</time>
      </trkpt>
      <trkpt lat="64.31625" lon="21.02385">
        <ele>44.88325</ele>
        <time>2020-09-28T13:48:17.236Z</time>
      </trkpt>
      <trkpt lat="64.31612" lon="21.02389">
        <ele>45.205535</ele>
        <time>2020-09-28T13:48:20.227Z</time>
      </trkpt>
      <trkpt lat="64.31599" lon="21.02394">
        <ele>45.516048</ele>
        <time>2020-09-28T13:48:23.222Z</time>
      </trkpt>
      <trkpt lat="64.31587" lon="21.02398">
        <ele>45.83336</ele>
        <time>2020-09-28T13:48:26.240Z</time>
      </trkpt>
      <trkpt lat="64.31574" lon="21.02402">
        <ele>46.131661</ele>
        <time>2020-09-28T13:48:29.211Z</time>
      </trkpt>
      <trkpt lat="64.31562" lon="21.02405">
        <ele>46.428697</ele>
        <time>2020-09-28T13:48:32.264Z</time>
      </trkpt>
      <trkpt lat="64.31551" lon="21.0241">
        <ele>46.71159</ele>
        <time>2020-09-28T13:48:35.214Z</time>
      </trkpt>
      <trkpt lat="64.3154" lon="21.02413">
        <ele>46.984044</ele>
        <time>2020-09-28T13:48:38.232Z</time>
      </trkpt>
      <trkpt lat="64.31529" lon="21.02417">
        <ele>47.257021</ele>
        <time>2020-09-28T13:48:41.227Z</time>
      </trkpt>
      <trkpt lat="64.31518" lon="21.02419">
        <ele>47.531548</ele>
        <time>2020-09-28T13:48:44.231Z</time>
      </trkpt>
      <trkpt lat="64.31507" lon="21.02422">
        <ele>47.796739</ele>
        <time>2020-09-28T13:48:47.257Z</time>
      </trkpt>
      <trkpt lat="64.31496" lon="21.02425">
        <ele>48.061686</ele>
        <time>2020-09-28T13:48:50.245Z</time>
      </trkpt>
      <trkpt lat="64.31485" lon="21.0243">
        <ele>48.194897</ele>
        <time>2020-09-28T13:48:53.237Z</time>
      </trkpt>
      <trkpt lat="64.31475" lon="21.02434">
        <ele>48.301723</ele>
        <time>2020-09-28T13:48:56.221Z</time>
      </trkpt>
      <trkpt lat="64.31464" lon="21.02438">
        <ele>48.409004</ele>
        <time>2020-09-28T13:48:59.226Z</time>
      </trkpt>
      <trkpt lat="64.31453" lon="21.02441">
        <ele>48.515091</ele>
        <time>2020-09-28T13:49:02.235Z</time>
      </trkpt>
      <trkpt lat="64.31442" lon="21.02444">
        <ele>48.62802</ele>
        <time>2020-09-28T13:49:05.249Z</time>
      </trkpt>
      <trkpt lat="64.3143" lon="21.02446">
        <ele>48.74755</ele>
        <time>2020-09-28T13:49:08.240Z</time>
      </trkpt>
      <trkpt lat="64.31418" lon="21.0245">
        <ele>48.864757</ele>
        <time>2020-09-28T13:49:11.233Z</time>
      </trkpt>
      <trkpt lat="64.31405" lon="21.02453">
        <ele>48.990323</ele>
        <time>2020-09-28T13:49:14.218Z</time>
      </trkpt>
      <trkpt lat="64.31396" lon="21.02456">
        <ele>49.079705</ele>
        <time>2020-09-28T13:49:16.240Z</time>
      </trkpt>
      <trkpt lat="64.31387" lon="21.02459">
        <ele>49.174391</ele>
        <time>2020-09-28T13:49:18.238Z</time>
      </trkpt>
      <trkpt lat="64.31377" lon="21.02463">
        <ele>49.270405</ele>
        <time>2020-09-28T13:49:20.229Z</time>
      </trkpt>
      <trkpt lat="64.31367" lon="21.02467">
        <ele>49.368432</ele>
        <time>2020-09-28T13:49:22.234Z</time>
      </trkpt>
      <trkpt lat="64.31357" lon="21.0247">
        <ele>49.470559</ele>
        <time>2020-09-28T13:49:24.220Z</time>
      </trkpt>
      <trkpt lat="64.31347" lon="21.02474">
        <ele>49.573291</ele>
        <time>2020-09-28T13:49:26.252Z</time>
      </trkpt>
      <trkpt lat="64.31336" lon="21.02477">
        <ele>49.675698</ele>
        <time>2020-09-28T13:49:28.281Z</time>
      </trkpt>
      <trkpt lat="64.31326" lon="21.0248">
        <ele>49.775925</ele>
        <time>2020-09-28T13:49:30.222Z</time>
      </trkpt>
      <trkpt lat="64.31316" lon="21.02484">
        <ele>49.871973</ele>
        <time>2020-09-28T13:49:32.229Z</time>
      </trkpt>
      <trkpt lat="64.31306" lon="21.02487">
        <ele>49.582294</ele>
        <time>2020-09-28T13:49:34.218Z</time>
      </trkpt>
      <trkpt lat="64.31296" lon="21.0249">
        <ele>49.2906</ele>
        <time>2020-09-28T13:49:36.239Z</time>
      </trkpt>
      <trkpt lat="64.31286" lon="21.02493">
        <ele>48.990135</ele>
        <time>2020-09-28T13:49:38.252Z</time>
      </trkpt>
      <trkpt lat="64.31275" lon="21.02496">
        <ele>48.675308</ele>
        <time>2020-09-28T13:49:40.222Z</time>
      </trkpt>
      <trkpt lat="64.31264" lon="21.025">
        <ele>48.35931</ele>
        <time>2020-09-28T13:49:42.215Z</time>
      </trkpt>
      <trkpt lat="64.31253" lon="21.02503">
        <ele>48.041302</ele>
        <time>2020-09-28T13:49:44.248Z</time>
      </trkpt>
      <trkpt lat="64.31243" lon="21.02506">
        <ele>47.729195</ele>
        <time>2020-09-28T13:49:46.239Z</time>
      </trkpt>
      <trkpt lat="64.31232" lon="21.02509">
        <ele>47.413728</ele>
        <time>2020-09-28T13:49:48.220Z</time>
      </trkpt>
      <trkpt lat="64.31221" lon="21.02513">
        <ele>47.097352</ele>
        <time>2020-09-28T13:49:50.227Z</time>
      </trkpt>
      <trkpt lat="64.3121" lon="21.02517">
        <ele>46.769534</ele>
        <time>2020-09-28T13:49:52.269Z</time>
      </trkpt>
      <trkpt lat="64.31199" lon="21.0252">
        <ele>46.446367</ele>
        <time>2020-09-28T13:49:54.225Z</time>
      </trkpt>
      <trkpt lat="64.31188" lon="21.02524">
        <ele>46.12446</ele>
        <time>2020-09-28T13:49:56.240Z</time>
      </trkpt>
      <trkpt lat="64.31176" lon="21.02528">
        <ele>45.796452</ele>
        <time>2020-09-28T13:49:58.250Z</time>
      </trkpt>
      <trkpt lat="64.31165" lon="21.02531">
        <ele>45.475877</ele>
        <time>2020-09-28T13:50:00.225Z</time>
      </trkpt>
      <trkpt lat="64.31154" lon="21.02534">
        <ele>45.140326</ele>
        <time>2020-09-28T13:50:02.228Z</time>
      </trkpt>
      <trkpt lat="64.31143" lon="21.02537">
        <ele>44.822158</ele>
        <time>2020-09-28T13:50:04.233Z</time>
      </trkpt>
      <trkpt lat="64.31132" lon="21.02541">
        <ele>44.630464</ele>
        <time>2020-09-28T13:50:06.215Z</time>
      </trkpt>
      <trkpt lat="64.31121" lon="21.02545">
        <ele>44.553295</ele>
        <time>2020-09-28T13:50:08.267Z</time>
      </trkpt>
      <trkpt lat="64.3111" lon="21.02549">
        <ele>44.475479</ele>
        <time>2020-09-28T13:50:10.212Z</time>
      </trkpt>
      <trkpt lat="64.31099" lon="21.02552">
        <ele>44.397179</ele>
        <time>2020-09-28T13:50:12.264Z</time>
      </trkpt>
      <trkpt lat="64.31088" lon="21.02555">
        <ele>44.321075</ele>
        <time>2020-09-28T13:50:14.220Z</time>
      </trkpt>
      <trkpt lat="64.31078" lon="21.02559">
        <ele>44.244816</ele>
        <time>2020-09-28T13:50:16.225Z</time>
      </trkpt>
      <trkpt lat="64.31067" lon="21.02562">
        <ele>44.170594</ele>
        <time>2020-09-28T13:50:18.217Z</time>
      </trkpt>
      <trkpt lat="64.31056" lon="21.02565">
        <ele>44.095762</ele>
        <time>2020-09-28T13:50:20.210Z</time>
      </trkpt>
      <trkpt lat="64.31045" lon="21.02569">
        <ele>44.018117</ele>
        <time>2020-09-28T13:50:22.217Z</time>
      </trkpt>
      <trkpt lat="64.31035" lon="21.02572">
        <ele>43.94385</ele>
        <time>2020-09-28T13:50:24.206Z</time>
      </trkpt>
      <trkpt lat="64.31025" lon="21.02576">
        <ele>43.870446</ele>
        <time>2020-09-28T13:50:26.241Z</time>
      </trkpt>
      <trkpt lat="64.31014" lon="21.02579">
        <ele>43.796425</ele>
        <time>2020-09-28T13:50:28.246Z</time>
      </trkpt>
      <trkpt lat="64.31004" lon="21.02582">
        <ele>43.722287</ele>
        <time>2020-09-28T13:50:30.248Z</time>
      </trkpt>
      <trkpt lat="64.30993" lon="21.02585">
        <ele>43.647328</ele>
        <time>2020-09-28T13:50:32.218Z</time>
      </trkpt>
      <trkpt lat="64.30982" lon="21.02589">
        <ele>43.570416</ele>
        <time>2020-09-28T13:50:34.233Z</time>
      </trkpt>
      <trkpt lat="64.30971" lon="21.02593">
        <ele>43.493199</ele>
        <time>2020-09-28T13:50:36.229Z</time>
      </trkpt>
      <trkpt lat="64.30961" lon="21.02596">
        <ele>43.418368</ele>
        <time>2020-09-28T13:50:38.230Z</time>
      </trkpt>
      <trkpt lat="64.3095" lon="21.02599">
        <ele>43.214478</ele>
        <time>2020-09-28T13:50:40.250Z</time>
      </trkpt>
      <trkpt lat="64.30938" lon="21.02602">
        <ele>42.995202</ele>
        <time>2020-09-28T13:50:42.220Z</time>
      </trkpt>
      <trkpt lat="64.30928" lon="21.02606">
        <ele>42.784481</ele>
        <time>2020-09-28T13:50:44.238Z</time>
      </trkpt>
      <trkpt lat="64.30916" lon="21.02611">
        <ele>42.558922</ele>
        <time>2020-09-28T13:50:46.269Z</time>
      </trkpt>
      <trkpt lat="64.30905" lon="21.02615">
        <ele>42.328184</ele>
        <time>2020-09-28T13:50:48.230Z</time>
      </trkpt>
      <trkpt lat="64.30893" lon="21.0262">
        <ele>42.097308</ele>
        <time>2020-09-28T13:50:50.253Z</time>
      </trkpt>
      <trkpt lat="64.30882" lon="21.02624">
        <ele>41.876839</ele>
        <time>2020-09-28T13:50:52.252Z</time>
      </trkpt>
      <trkpt lat="64.30871" lon="21.02627">
        <ele>41.670219</ele>
        <time>2020-09-28T13:50:54.225Z</time>
      </trkpt>
      <trkpt lat="64.30861" lon="21.0263">
        <ele>41.462139</ele>
        <time>2020-09-28T13:50:56.212Z</time>
      </trkpt>
      <trkpt lat="64.3085" lon="21.02633">
        <ele>41.250783</ele>
        <time>2020-09-28T13:50:58.220Z</time>
      </trkpt>
      <trkpt lat="64.30839" lon="21.02635">
        <ele>41.04145</ele>
        <time>2020-09-28T13:51:00.230Z</time>
      </trkpt>
      <trkpt lat="64.30828" lon="21.02639">
        <ele>40.826753</ele>
        <time>2020-09-28T13:51:02.242Z</time>
      </trkpt>
      <trkpt lat="64.30817" lon="21.02642">
        <ele>40.613281</ele>
        <time>2020-09-28T13:51:04.233Z</time>
      </trkpt>
      <trkpt lat="64.30806" lon="21.02645">
        <ele>40.398053</ele>
        <time>2020-09-28T13:51:06.244Z</time>
      </trkpt>
      <trkpt lat="64.30795" lon="21.02648">
        <ele>40.183847</ele>
        <time>2020-09-28T13:51:08.219Z</time>
      </trkpt>
      <trkpt lat="64.30785" lon="21.02652">
        <ele>39.973613</ele>
        <time>2020-09-28T13:51:10.226Z</time>
      </trkpt>
      <trkpt lat="64.30774" lon="21.02655">
        <ele>40.119911</ele>
        <time>2020-09-28T13:51:12.241Z</time>
      </trkpt>
      <trkpt lat="64.30763" lon="21.02658">
        <ele>40.410576</ele>
        <time>2020-09-28T13:51:14.220Z</time>
      </trkpt>
      <trkpt lat="64.30752" lon="21.02661">
        <ele>40.716452</ele>
        <time>2020-09-28T13:51:16.221Z</time>
      </trkpt>
      <trkpt lat="64.30741" lon="21.02664">
        <ele>41.001528</ele>
        <time>2020-09-28T13:51:18.234Z</time>
      </trkpt>
      <trkpt lat="64.3073" lon="21.02667">
        <ele>41.295148</ele>
        <time>2020-09-28T13:51:20.220Z</time>
      </trkpt>
      <trkpt lat="64.3072" lon="21.0267">
        <ele>41.579102</ele>
        <time>2020-09-28T13:51:22.244Z</time>
      </trkpt>
      <trkpt lat="64.30709" lon="21.02672">
        <ele>41.861112</ele>
        <time>2020-09-28T13:51:24.210Z</time>
      </trkpt>
      <trkpt lat="64.30698" lon="21.02674">
        <ele>42.147528</ele>
        <time>2020-09-28T13:51:26.221Z</time>
      </trkpt>
      <trkpt lat="64.30688" lon="21.02677">
        <ele>42.432604</ele>
        <time>2020-09-28T13:51:28.251Z</time>
      </trkpt>
      <trkpt lat="64.30677" lon="21.0268">
        <ele>42.711705</ele>
        <time>2020-09-28T13:51:30.216Z</time>
      </trkpt>
      <trkpt lat="64.30667" lon="21.02682">
        <ele>42.993002</ele>
        <time>2020-09-28T13:51:32.244Z</time>
      </trkpt>
      <trkpt lat="64.30656" lon="21.02687">
        <ele>43.28645</ele>
        <time>2020-09-28T13:51:34.233Z</time>
      </trkpt>
      <trkpt lat="64.30645" lon="21.02691">
        <ele>43.582714</ele>
        <time>2020-09-28T13:51:36.241Z</time>
      </trkpt>
      <trkpt lat="64.30634" lon="21.02694">
        <ele>43.877008</ele>
        <time>2020-09-28T13:51:38.220Z</time>
      </trkpt>
      <trkpt lat="64.30623" lon="21.02697">
        <ele>44.172403</ele>
        <time>2020-09-28T13:51:40.220Z</time>
      </trkpt>
      <trkpt lat="64.30612" lon="21.02701">
        <ele>44.4738</ele>
        <time>2020-09-28T13:51:42.218Z</time>
      </trkpt>
      <trkpt lat="64.30601" lon="21.02704">
        <ele>44.660574</ele>
        <time>2020-09-28T13:51:44.240Z</time>
      </trkpt>
      <trkpt lat="64.3059" lon="21.02708">
        <ele>44.39878</ele>
        <time>2020-09-28T13:51:46.220Z</time>
      </trkpt>
      <trkpt lat="64.30579" lon="21.02712">
        <ele>44.133959</ele>
        <time>2020-09-28T13:51:48.228Z</time>
      </trkpt>
      <trkpt lat="64.30568" lon="21.02716">
        <ele>43.877722</ele>
        <time>2020-09-28T13:51:50.263Z</time>
      </trkpt>
      <trkpt lat="64.30557" lon="21.0272">
        <ele>43.624294</ele>
        <time>2020-09-28T13:51:52.281Z</time>
      </trkpt>
      <trkpt lat="64.30547" lon="21.02724">
        <ele>43.374787</ele>
        <time>2020-09-28T13:51:54.226Z</time>
      </trkpt>
      <trkpt lat="64.30536" lon="21.02729">
        <ele>43.122798</ele>
        <time>2020-09-28T13:51:56.216Z</time>
      </trkpt>
      <trkpt lat="64.30525" lon="21.02733">
        <ele>42.866209</ele>
        <time>2020-09-28T13:51:58.237Z</time>
      </trkpt>
      <trkpt lat="64.30515" lon="21.02738">
        <ele>42.614579</ele>
        <time>2020-09-28T13:52:00.234Z</time>
      </trkpt>
      <trkpt lat="64.30504" lon="21.02741">
        <ele>42.359307</ele>
        <time>2020-09-28T13:52:02.228Z</time>
      </trkpt>
      <trkpt lat="64.30494" lon="21.02745">
        <ele>42.113582</ele>
        <time>2020-09-28T13:52:04.237Z</time>
      </trkpt>
      <trkpt lat="64.30483" lon="21.02748">
        <ele>41.870596</ele>
        <time>2020-09-28T13:52:06.228Z</time>
      </trkpt>
      <trkpt lat="64.30473" lon="21.02752">
        <ele>41.632953</ele>
        <time>2020-09-28T13:52:08.285Z</time>
      </trkpt>
      <trkpt lat="64.30463" lon="21.02756">
        <ele>41.394013</ele>
        <time>2020-09-28T13:52:10.225Z</time>
      </trkpt>
      <trkpt lat="64.30453" lon="21.02759">
        <ele>41.152915</ele>
        <time>2020-09-28T13:52:12.217Z</time>
      </trkpt>
      <trkpt lat="64.30443" lon="21.02762">
        <ele>40.915529</ele>
        <time>2020-09-28T13:52:14.228Z</time>
      </trkpt>
      <trkpt lat="64.30433" lon="21.02765">
        <ele>40.677443</ele>
        <time>2020-09-28T13:52:16.256Z</time>
      </trkpt>
      <trkpt lat="64.30423" lon="21.02768">
        <ele>40.473547</ele>
        <time>2020-09-28T13:52:18.232Z</time>
      </trkpt>
      <trkpt lat="64.30413" lon="21.0277">
        <ele>40.353015</ele>
        <time>2020-09-28T13:52:20.223Z</time>
      </trkpt>
      <trkpt lat="64.30402" lon="21.02773">
        <ele>40.230031</ele>
        <time>2020-09-28T13:52:22.237Z</time>
      </trkpt>
      <trkpt lat="64.30392" lon="21.02776">
        <ele>40.105691</ele>
        <time>2020-09-28T13:52:24.267Z</time>
      </trkpt>
      <trkpt lat="64.30381" lon="21.0278">
        <ele>39.978956</ele>
        <time>2020-09-28T13:52:26.246Z</time>
      </trkpt>
      <trkpt lat="64.30371" lon="21.02784">
        <ele>39.855338</ele>
        <time>2020-09-28T13:52:28.230Z</time>
      </trkpt>
      <trkpt lat="64.3036" lon="21.02786">
        <ele>39.731189</ele>
        <time>2020-09-28T13:52:30.237Z</time>
      </trkpt>
      <trkpt lat="64.30349" lon="21.0279">
        <ele>39.60342</ele>
        <time>2020-09-28T13:52:32.245Z</time>
      </trkpt>
      <trkpt lat="64.30338" lon="21.02793">
        <ele>39.474358</ele>
        <time>2020-09-28T13:52:34.244Z</time>
      </trkpt>
      <trkpt lat="64.30328" lon="21.02796">
        <ele>39.347754</ele>
        <time>2020-09-28T13:52:36.222Z</time>
      </trkpt>
      <trkpt lat="64.30317" lon="21.028">
        <ele>39.220156</ele>
        <time>2020-09-28T13:52:38.221Z</time>
      </trkpt>
      <trkpt lat="64.30306" lon="21.02804">
        <ele>39.095299</ele>
        <time>2020-09-28T13:52:40.224Z</time>
      </trkpt>
      <trkpt lat="64.30296" lon="21.02807">
        <ele>38.970258</ele>
        <time>2020-09-28T13:52:42.248Z</time>
      </trkpt>
      <trkpt lat="64.30285" lon="21.02809">
        <ele>38.845001</ele>
        <time>2020-09-28T13:52:44.218Z</time>
      </trkpt>
      <trkpt lat="64.30274" lon="21.02812">
        <ele>38.716245</ele>
        <time>2020-09-28T13:52:46.233Z</time>
      </trkpt>
      <trkpt lat="64.30264" lon="21.02816">
        <ele>38.587749</ele>
        <time>2020-09-28T13:52:48.208Z</time>
      </trkpt>
      <trkpt lat="64.30252" lon="21.02819">
        <ele>38.456484</ele>
        <time>2020-09-28T13:52:50.237Z</time>
      </trkpt>
      <trkpt lat="64.30241" lon="21.02824">
        <ele>38.36659</ele>
        <time>2020-09-28T13:52:52.232Z</time>
      </trkpt>
      <trkpt lat="64.3023" lon="21.02828">
        <ele>38.314582</ele>
        <time>2020-09-28T13:52:54.237Z</time>
      </trkpt>
      <trkpt lat="64.30219" lon="21.02832">
        <ele>38.26587</ele>
        <time>2020-09-28T13:52:56.263Z</time>
      </trkpt>
      <trkpt lat="64.30208" lon="21.02836">
        <ele>38.215335</ele>
        <time>2020-09-28T13:52:58.237Z</time>
      </trkpt>
      <trkpt lat="64.30197" lon="21.0284">
        <ele>38.165087</ele>
        <time>2020-09-28T13:53:00.230Z</time>
      </trkpt>
      <trkpt lat="64.30186" lon="21.02844">
        <ele>38.116286</ele>
        <time>2020-09-28T13:53:02.220Z</time>
      </trkpt>
      <trkpt lat="64.30175" lon="21.02848">
        <ele>38.066477</ele>
        <time>2020-09-28T13:53:04.237Z</time>
      </trkpt>
      <trkpt lat="64.30163" lon="21.02855">
        <ele>38.013831</ele>
        <time>2020-09-28T13:53:06.212Z</time>
      </trkpt>
      <trkpt lat="64.30152" lon="21.0286">
        <ele>37.961788</ele>
        <time>2020-09-28T13:53:08.233Z</time>
      </trkpt>
      <trkpt lat="64.30141" lon="21.02867">
        <ele>37.911078</ele>
        <time>2020-09-28T13:53:10.252Z</time>
      </trkpt>
      <trkpt lat="64.30129" lon="21.02873">
        <ele>37.857431</ele>
        <time>2020-09-28T13:53:12.232Z</time>
      </trkpt>
      <trkpt lat="64.30118" lon="21.02881">
        <ele>37.80497</ele>
        <time>2020-09-28T13:53:14.235Z</time>
      </trkpt>
      <trkpt lat="64.30106" lon="21.02888">
        <ele>37.752387</ele>
        <time>2020-09-28T13:53:16.255Z</time>
      </trkpt>
      <trkpt lat="64.30095" lon="21.02895">
        <ele>37.698209</ele>
        <time>2020-09-28T13:53:18.232Z</time>
      </trkpt>
      <trkpt lat="64.30083" lon="21.02904">
        <ele>37.643363</ele>
        <time>2020-09-28T13:53:20.248Z</time>
      </trkpt>
      <trkpt lat="64.30071" lon="21.02913">
        <ele>37.596714</ele>
        <time>2020-09-28T13:53:22.216Z</time>
      </trkpt>
      <trkpt lat="64.3006" lon="21.02922">
        <ele>37.697161</ele>
        <time>2020-09-28T13:53:24.219Z</time>
      </trkpt>
      <trkpt lat="64.30048" lon="21.02931">
        <ele>37.797607</ele>
        <time>2020-09-28T13:53:26.243Z</time>
      </trkpt>
      <trkpt lat="64.30037" lon="21.02941">
        <ele>37.894083</ele>
        <time>2020-09-28T13:53:28.248Z</time>
      </trkpt>
      <trkpt lat="64.30025" lon="21.02951">
        <ele>37.991099</ele>
        <time>2020-09-28T13:53:30.234Z</time>
      </trkpt>
      <trkpt lat="64.30014" lon="21.02962">
        <ele>38.092598</ele>
        <time>2020-09-28T13:53:32.250Z</time>
      </trkpt>
      <trkpt lat="64.30002" lon="21.02972">
        <ele>38.193608</ele>
        <time>2020-09-28T13:53:34.222Z</time>
      </trkpt>
      <trkpt lat="64.29991" lon="21.02983">
        <ele>38.290624</ele>
        <time>2020-09-28T13:53:36.217Z</time>
      </trkpt>
      <trkpt lat="64.2998" lon="21.02993">
        <ele>38.385483</ele>
        <time>2020-09-28T13:53:38.214Z</time>
      </trkpt>
      <trkpt lat="64.29969" lon="21.03004">
        <ele>38.478515</ele>
        <time>2020-09-28T13:53:40.230Z</time>
      </trkpt>
      <trkpt lat="64.29959" lon="21.03013">
        <ele>38.569724</ele>
        <time>2020-09-28T13:53:42.230Z</time>
      </trkpt>
      <trkpt lat="64.29948" lon="21.03021">
        <ele>38.661525</ele>
        <time>2020-09-28T13:53:44.212Z</time>
      </trkpt>
      <trkpt lat="64.29938" lon="21.0303">
        <ele>38.749509</ele>
        <time>2020-09-28T13:53:46.218Z</time>
      </trkpt>
      <trkpt lat="64.29928" lon="21.03038">
        <ele>38.836453</ele>
        <time>2020-09-28T13:53:48.220Z</time>
      </trkpt>
      <trkpt lat="64.29918" lon="21.03047">
        <ele>38.920153</ele>
        <time>2020-09-28T13:53:50.216Z</time>
      </trkpt>
      <trkpt lat="64.29908" lon="21.03056">
        <ele>39.003589</ele>
        <time>2020-09-28T13:53:52.224Z</time>
      </trkpt>
      <trkpt lat="64.29899" lon="21.03065">
        <ele>38.977988</ele>
        <time>2020-09-28T13:53:54.238Z</time>
      </trkpt>
      <trkpt lat="64.29889" lon="21.03073">
        <ele>38.864164</ele>
        <time>2020-09-28T13:53:56.248Z</time>
      </trkpt>
      <trkpt lat="64.2988" lon="21.03082">
        <ele>38.746464</ele>
        <time>2020-09-28T13:53:58.255Z</time>
      </trkpt>
      <trkpt lat="64.2987" lon="21.0309">
        <ele>38.627655</ele>
        <time>2020-09-28T13:54:00.253Z</time>
      </trkpt>
      <trkpt lat="64.2986" lon="21.03097">
        <ele>38.513278</ele>
        <time>2020-09-28T13:54:02.226Z</time>
      </trkpt>
      <trkpt lat="64.29851" lon="21.03105">
        <ele>38.398162</ele>
        <time>2020-09-28T13:54:04.246Z</time>
      </trkpt>
      <trkpt lat="64.29841" lon="21.03112">
        <ele>38.28348</ele>
        <time>2020-09-28T13:54:06.237Z</time>
      </trkpt>
      <trkpt lat="64.29831" lon="21.03118">
        <ele>38.167989</ele>
        <time>2020-09-28T13:54:08.245Z</time>
      </trkpt>
      <trkpt lat="64.29821" lon="21.03124">
        <ele>38.047548</ele>
        <time>2020-09-28T13:54:10.214Z</time>
      </trkpt>
      <trkpt lat="64.29811" lon="21.03131">
        <ele>37.930141</ele>
        <time>2020-09-28T13:54:12.241Z</time>
      </trkpt>
      <trkpt lat="64.29801" lon="21.03137">
        <ele>37.818453</ele>
        <time>2020-09-28T13:54:14.244Z</time>
      </trkpt>
      <trkpt lat="64.29792" lon="21.03143">
        <ele>37.71017</ele>
        <time>2020-09-28T13:54:16.225Z</time>
      </trkpt>
      <trkpt lat="64.29783" lon="21.03148">
        <ele>37.606908</ele>
        <time>2020-09-28T13:54:18.247Z</time>
      </trkpt>
      <trkpt lat="64.29775" lon="21.03153">
        <ele>37.505707</ele>
        <time>2020-09-28T13:54:20.231Z</time>
      </trkpt>
      <trkpt lat="64.29762" lon="21.0316">
        <ele>37.35484</ele>
        <time>2020-09-28T13:54:23.241Z</time>
      </trkpt>
      <trkpt lat="64.29749" lon="21.03166">
        <ele>37.203479</ele>
        <time>2020-09-28T13:54:26.237Z</time>
      </trkpt>
      <trkpt lat="64.2974" lon="21.0317">
        <ele>37.100877</ele>
        <time>2020-09-28T13:54:28.218Z</time>
      </trkpt>
      <trkpt lat="64.29727" lon="21.03175">
        <ele>37.034145</ele>
        <time>2020-09-28T13:54:31.239Z</time>
      </trkpt>
      <trkpt lat="64.29713" lon="21.03178">
        <ele>37.116377</ele>
        <time>2020-09-28T13:54:34.230Z</time>
      </trkpt>
      <trkpt lat="64.29704" lon="21.0318">
        <ele>37.173727</ele>
        <time>2020-09-28T13:54:36.246Z</time>
      </trkpt>
      <trkpt lat="64.29695" lon="21.03182">
        <ele>37.230559</ele>
        <time>2020-09-28T13:54:38.260Z</time>
      </trkpt>
      <trkpt lat="64.29686" lon="21.03183">
        <ele>37.287155</ele>
        <time>2020-09-28T13:54:40.227Z</time>
      </trkpt>
      <trkpt lat="64.29676" lon="21.03184">
        <ele>37.343203</ele>
        <time>2020-09-28T13:54:42.220Z</time>
      </trkpt>
      <trkpt lat="64.29668" lon="21.03186">
        <ele>37.398173</ele>
        <time>2020-09-28T13:54:44.223Z</time>
      </trkpt>
      <trkpt lat="64.29659" lon="21.03188">
        <ele>37.45381</ele>
        <time>2020-09-28T13:54:46.238Z</time>
      </trkpt>
      <trkpt lat="64.29649" lon="21.0319">
        <ele>37.511181</ele>
        <time>2020-09-28T13:54:48.243Z</time>
      </trkpt>
      <trkpt lat="64.2964" lon="21.03192">
        <ele>37.56794</ele>
        <time>2020-09-28T13:54:50.232Z</time>
      </trkpt>
      <trkpt lat="64.29631" lon="21.03193">
        <ele>37.624656</ele>
        <time>2020-09-28T13:54:52.237Z</time>
      </trkpt>
      <trkpt lat="64.29621" lon="21.03195">
        <ele>37.682738</ele>
        <time>2020-09-28T13:54:54.226Z</time>
      </trkpt>
      <trkpt lat="64.29612" lon="21.03198">
        <ele>37.741432</ele>
        <time>2020-09-28T13:54:56.233Z</time>
      </trkpt>
      <trkpt lat="64.29602" lon="21.03199">
        <ele>37.801178</ele>
        <time>2020-09-28T13:54:58.244Z</time>
      </trkpt>
      <trkpt lat="64.29593" lon="21.032">
        <ele>37.859638</ele>
        <time>2020-09-28T13:55:00.233Z</time>
      </trkpt>
      <trkpt lat="64.29583" lon="21.03202">
        <ele>37.917033</ele>
        <time>2020-09-28T13:55:02.248Z</time>
      </trkpt>
      <trkpt lat="64.29574" lon="21.03203">
        <ele>37.97612</ele>
        <time>2020-09-28T13:55:04.224Z</time>
      </trkpt>
      <trkpt lat="64.29564" lon="21.03204">
        <ele>38.035835</ele>
        <time>2020-09-28T13:55:06.231Z</time>
      </trkpt>
      <trkpt lat="64.29555" lon="21.03205">
        <ele>38.093709</ele>
        <time>2020-09-28T13:55:08.268Z</time>
      </trkpt>
      <trkpt lat="64.29545" lon="21.03208">
        <ele>38.153162</ele>
        <time>2020-09-28T13:55:10.239Z</time>
      </trkpt>
      <trkpt lat="64.29536" lon="21.0321">
        <ele>38.213076</ele>
        <time>2020-09-28T13:55:12.228Z</time>
      </trkpt>
      <trkpt lat="64.29527" lon="21.03212">
        <ele>38.273101</ele>
        <time>2020-09-28T13:55:14.223Z</time>
      </trkpt>
      <trkpt lat="64.29517" lon="21.03214">
        <ele>38.3336</ele>
        <time>2020-09-28T13:55:16.221Z</time>
      </trkpt>
      <trkpt lat="64.29508" lon="21.03216">
        <ele>38.393444</ele>
        <time>2020-09-28T13:55:18.232Z</time>
      </trkpt>
      <trkpt lat="64.29499" lon="21.03217">
        <ele>38.450148</ele>
        <time>2020-09-28T13:55:20.241Z</time>
      </trkpt>
      <trkpt lat="64.29486" lon="21.03219">
        <ele>38.534074</ele>
        <time>2020-09-28T13:55:23.211Z</time>
      </trkpt>
      <trkpt lat="64.29476" lon="21.03221">
        <ele>38.591959</ele>
        <time>2020-09-28T13:55:25.233Z</time>
      </trkpt>
      <trkpt lat="64.29467" lon="21.03222">
        <ele>38.651727</ele>
        <time>2020-09-28T13:55:27.227Z</time>
      </trkpt>
      <trkpt lat="64.29458" lon="21.03224">
        <ele>38.711641</ele>
        <time>2020-09-28T13:55:29.239Z</time>
      </trkpt>
      <trkpt lat="64.29448" lon="21.03226">
        <ele>38.77022</ele>
        <time>2020-09-28T13:55:31.245Z</time>
      </trkpt>
      <trkpt lat="64.29439" lon="21.03227">
        <ele>38.828166</ele>
        <time>2020-09-28T13:55:33.244Z</time>
      </trkpt>
      <trkpt lat="64.29426" lon="21.0323">
        <ele>38.913492</ele>
        <time>2020-09-28T13:55:36.272Z</time>
      </trkpt>
      <trkpt lat="64.29413" lon="21.03232">
        <ele>38.998718</ele>
        <time>2020-09-28T13:55:39.240Z</time>
      </trkpt>
      <trkpt lat="64.29404" lon="21.03234">
        <ele>39.055447</ele>
        <time>2020-09-28T13:55:41.224Z</time>
      </trkpt>
      <trkpt lat="64.29394" lon="21.03236">
        <ele>39.114048</ele>
        <time>2020-09-28T13:55:43.230Z</time>
      </trkpt>
      <trkpt lat="64.29381" lon="21.03238">
        <ele>39.19872</ele>
        <time>2020-09-28T13:55:46.232Z</time>
      </trkpt>
      <trkpt lat="64.29372" lon="21.0324">
        <ele>39.257605</ele>
        <time>2020-09-28T13:55:48.229Z</time>
      </trkpt>
      <trkpt lat="64.29363" lon="21.03241">
        <ele>39.330665</ele>
        <time>2020-09-28T13:55:50.218Z</time>
      </trkpt>
      <trkpt lat="64.29353" lon="21.03243">
        <ele>39.407423</ele>
        <time>2020-09-28T13:55:52.297Z</time>
      </trkpt>
      <trkpt lat="64.29343" lon="21.03245">
        <ele>39.478987</ele>
        <time>2020-09-28T13:55:54.221Z</time>
      </trkpt>
      <trkpt lat="64.29334" lon="21.03246">
        <ele>39.551137</ele>
        <time>2020-09-28T13:55:56.250Z</time>
      </trkpt>
      <trkpt lat="64.29325" lon="21.03248">
        <ele>39.620479</ele>
        <time>2020-09-28T13:55:58.223Z</time>
      </trkpt>
      <trkpt lat="64.29312" lon="21.03251">
        <ele>39.722072</ele>
        <time>2020-09-28T13:56:01.233Z</time>
      </trkpt>
      <trkpt lat="64.29299" lon="21.03254">
        <ele>39.821285</ele>
        <time>2020-09-28T13:56:04.229Z</time>
      </trkpt>
      <trkpt lat="64.29286" lon="21.03256">
        <ele>39.922638</ele>
        <time>2020-09-28T13:56:07.277Z</time>
      </trkpt>
      <trkpt lat="64.29272" lon="21.03259">
        <ele>40.024994</ele>
        <time>2020-09-28T13:56:10.236Z</time>
      </trkpt>
      <trkpt lat="64.29263" lon="21.0326">
        <ele>40.098</ele>
        <time>2020-09-28T13:56:12.249Z</time>
      </trkpt>
      <trkpt lat="64.29253" lon="21.03262">
        <ele>40.170113</ele>
        <time>2020-09-28T13:56:14.248Z</time>
      </trkpt>
      <trkpt lat="64.29244" lon="21.03263">
        <ele>40.243028</ele>
        <time>2020-09-28T13:56:16.284Z</time>
      </trkpt>
      <trkpt lat="64.29234" lon="21.03264">
        <ele>40.316749</ele>
        <time>2020-09-28T13:56:18.232Z</time>
      </trkpt>
      <trkpt lat="64.29225" lon="21.03267">
        <ele>40.387806</ele>
        <time>2020-09-28T13:56:20.230Z</time>
      </trkpt>
      <trkpt lat="64.29216" lon="21.03268">
        <ele>40.459154</ele>
        <time>2020-09-28T13:56:22.240Z</time>
      </trkpt>
      <trkpt lat="64.29207" lon="21.03269">
        <ele>40.528225</ele>
        <time>2020-09-28T13:56:24.248Z</time>
      </trkpt>
      <trkpt lat="64.29193" lon="21.0327">
        <ele>40.63463</ele>
        <time>2020-09-28T13:56:27.235Z</time>
      </trkpt>
      <trkpt lat="64.2918" lon="21.03273">
        <ele>41.195677</ele>
        <time>2020-09-28T13:56:30.245Z</time>
      </trkpt>
      <trkpt lat="64.29171" lon="21.03275">
        <ele>41.588991</ele>
        <time>2020-09-28T13:56:32.233Z</time>
      </trkpt>
      <trkpt lat="64.29158" lon="21.03277">
        <ele>42.120976</ele>
        <time>2020-09-28T13:56:35.240Z</time>
      </trkpt>
      <trkpt lat="64.29145" lon="21.0328">
        <ele>42.640336</ele>
        <time>2020-09-28T13:56:38.232Z</time>
      </trkpt>
      <trkpt lat="64.29134" lon="21.03282">
        <ele>43.133983</ele>
        <time>2020-09-28T13:56:41.228Z</time>
      </trkpt>
      <trkpt lat="64.29122" lon="21.03284">
        <ele>43.626674</ele>
        <time>2020-09-28T13:56:44.224Z</time>
      </trkpt>
      <trkpt lat="64.29111" lon="21.03286">
        <ele>44.086509</ele>
        <time>2020-09-28T13:56:47.232Z</time>
      </trkpt>
      <trkpt lat="64.291" lon="21.03287">
        <ele>44.541941</ele>
        <time>2020-09-28T13:56:50.240Z</time>
      </trkpt>
      <trkpt lat="64.29088" lon="21.03289">
        <ele>45.030668</ele>
        <time>2020-09-28T13:56:53.225Z</time>
      </trkpt>
      <trkpt lat="64.29077" lon="21.0329">
        <ele>45.498039</ele>
        <time>2020-09-28T13:56:56.219Z</time>
      </trkpt>
      <trkpt lat="64.29066" lon="21.03292">
        <ele>45.954451</ele>
        <time>2020-09-28T13:56:59.254Z</time>
      </trkpt>
      <trkpt lat="64.29055" lon="21.03294">
        <ele>46.422605</ele>
        <time>2020-09-28T13:57:02.240Z</time>
      </trkpt>
      <trkpt lat="64.29044" lon="21.03296">
        <ele>46.899481</ele>
        <time>2020-09-28T13:57:05.236Z</time>
      </trkpt>
      <trkpt lat="64.29032" lon="21.03298">
        <ele>47.376357</ele>
        <time>2020-09-28T13:57:08.225Z</time>
      </trkpt>
      <trkpt lat="64.29021" lon="21.033">
        <ele>47.856992</ele>
        <time>2020-09-28T13:57:11.247Z</time>
      </trkpt>
      <trkpt lat="64.29009" lon="21.03302">
        <ele>48.083598</ele>
        <time>2020-09-28T13:57:14.240Z</time>
      </trkpt>
      <trkpt lat="64.28997" lon="21.03306">
        <ele>47.983477</ele>
        <time>2020-09-28T13:57:17.237Z</time>
      </trkpt>
      <trkpt lat="64.28986" lon="21.0331">
        <ele>47.890978</ele>
        <time>2020-09-28T13:57:20.241Z</time>
      </trkpt>
      <trkpt lat="64.28974" lon="21.03312">
        <ele>47.79726</ele>
        <time>2020-09-28T13:57:23.237Z</time>
      </trkpt>
      <trkpt lat="64.28964" lon="21.03314">
        <ele>47.708821</ele>
        <time>2020-09-28T13:57:26.227Z</time>
      </trkpt>
      <trkpt lat="64.28954" lon="21.03315">
        <ele>47.623808</ele>
        <time>2020-09-28T13:57:29.218Z</time>
      </trkpt>
      <trkpt lat="64.28944" lon="21.03317">
        <ele>47.539379</ele>
        <time>2020-09-28T13:57:32.225Z</time>
      </trkpt>
      <trkpt lat="64.28933" lon="21.03319">
        <ele>47.451663</ele>
        <time>2020-09-28T13:57:35.219Z</time>
      </trkpt>
      <trkpt lat="64.28924" lon="21.0332">
        <ele>47.374966</ele>
        <time>2020-09-28T13:57:38.225Z</time>
      </trkpt>
      <trkpt lat="64.28914" lon="21.03321">
        <ele>47.291598</ele>
        <time>2020-09-28T13:57:41.237Z</time>
      </trkpt>
      <trkpt lat="64.28903" lon="21.03324">
        <ele>47.204466</ele>
        <time>2020-09-28T13:57:44.238Z</time>
      </trkpt>
      <trkpt lat="64.28893" lon="21.03325">
        <ele>47.113672</ele>
        <time>2020-09-28T13:57:47.225Z</time>
      </trkpt>
      <trkpt lat="64.28882" lon="21.03327">
        <ele>47.022637</ele>
        <time>2020-09-28T13:57:50.231Z</time>
      </trkpt>
      <trkpt lat="64.28871" lon="21.03329">
        <ele>46.930647</ele>
        <time>2020-09-28T13:57:53.280Z</time>
      </trkpt>
      <trkpt lat="64.2886" lon="21.03334">
        <ele>46.84186</ele>
        <time>2020-09-28T13:57:56.219Z</time>
      </trkpt>
      <trkpt lat="64.28849" lon="21.03336">
        <ele>46.746617</ele>
        <time>2020-09-28T13:57:59.231Z</time>
      </trkpt>
      <trkpt lat="64.28837" lon="21.03339">
        <ele>46.651005</ele>
        <time>2020-09-28T13:58:02.225Z</time>
      </trkpt>
      <trkpt lat="64.28824" lon="21.03344">
        <ele>46.309475</ele>
        <time>2020-09-28T13:58:05.243Z</time>
      </trkpt>
      <trkpt lat="64.28814" lon="21.03349">
        <ele>46.032231</ele>
        <time>2020-09-28T13:58:07.297Z</time>
      </trkpt>
      <trkpt lat="64.28804" lon="21.03353">
        <ele>45.7289</ele>
        <time>2020-09-28T13:58:09.222Z</time>
      </trkpt>
      <trkpt lat="64.28793" lon="21.03358">
        <ele>45.413487</ele>
        <time>2020-09-28T13:58:11.242Z</time>
      </trkpt>
      <trkpt lat="64.28782" lon="21.03365">
        <ele>45.079403</ele>
        <time>2020-09-28T13:58:13.241Z</time>
      </trkpt>
      <trkpt lat="64.28769" lon="21.03373">
        <ele>44.719552</ele>
        <time>2020-09-28T13:58:15.268Z</time>
      </trkpt>
      <trkpt lat="64.28757" lon="21.0338">
        <ele>44.365266</ele>
        <time>2020-09-28T13:58:17.217Z</time>
      </trkpt>
      <trkpt lat="64.28746" lon="21.03387">
        <ele>44.026881</ele>
        <time>2020-09-28T13:58:19.261Z</time>
      </trkpt>
      <trkpt lat="64.28734" lon="21.03395">
        <ele>43.682734</ele>
        <time>2020-09-28T13:58:21.214Z</time>
      </trkpt>
      <trkpt lat="64.28722" lon="21.03403">
        <ele>43.333137</ele>
        <time>2020-09-28T13:58:23.242Z</time>
      </trkpt>
      <trkpt lat="64.28711" lon="21.0341">
        <ele>43.008458</ele>
        <time>2020-09-28T13:58:25.242Z</time>
      </trkpt>
      <trkpt lat="64.287" lon="21.03416">
        <ele>42.682326</ele>
        <time>2020-09-28T13:58:27.237Z</time>
      </trkpt>
      <trkpt lat="64.2869" lon="21.03423">
        <ele>42.378796</ele>
        <time>2020-09-28T13:58:29.229Z</time>
      </trkpt>
      <trkpt lat="64.2868" lon="21.0343">
        <ele>42.082456</ele>
        <time>2020-09-28T13:58:31.217Z</time>
      </trkpt>
      <trkpt lat="64.2867" lon="21.03436">
        <ele>41.800063</ele>
        <time>2020-09-28T13:58:33.237Z</time>
      </trkpt>
      <trkpt lat="64.28661" lon="21.03442">
        <ele>41.52928</ele>
        <time>2020-09-28T13:58:35.239Z</time>
      </trkpt>
      <trkpt lat="64.28652" lon="21.03449">
        <ele>41.697308</ele>
        <time>2020-09-28T13:58:37.273Z</time>
      </trkpt>
      <trkpt lat="64.28643" lon="21.03455">
        <ele>41.881692</ele>
        <time>2020-09-28T13:58:39.220Z</time>
      </trkpt>
      <trkpt lat="64.28633" lon="21.0346">
        <ele>42.070968</ele>
        <time>2020-09-28T13:58:41.234Z</time>
      </trkpt>
      <trkpt lat="64.28624" lon="21.03466">
        <ele>42.25623</ele>
        <time>2020-09-28T13:58:43.235Z</time>
      </trkpt>
      <trkpt lat="64.28615" lon="21.03473">
        <ele>42.437241</ele>
        <time>2020-09-28T13:58:45.237Z</time>
      </trkpt>
      <trkpt lat="64.28606" lon="21.03479">
        <ele>42.613666</ele>
        <time>2020-09-28T13:58:47.226Z</time>
      </trkpt>
      <trkpt lat="64.28597" lon="21.03484">
        <ele>42.786008</ele>
        <time>2020-09-28T13:58:49.227Z</time>
      </trkpt>
      <trkpt lat="64.28588" lon="21.03489">
        <ele>42.956945</ele>
        <time>2020-09-28T13:58:51.231Z</time>
      </trkpt>
      <trkpt lat="64.28575" lon="21.03497">
        <ele>43.209235</ele>
        <time>2020-09-28T13:58:54.220Z</time>
      </trkpt>
      <trkpt lat="64.28564" lon="21.03505">
        <ele>43.434098</ele>
        <time>2020-09-28T13:58:57.238Z</time>
      </trkpt>
      <trkpt lat="64.28553" lon="21.03511">
        <ele>43.651515</ele>
        <time>2020-09-28T13:59:00.240Z</time>
      </trkpt>
      <trkpt lat="64.28542" lon="21.03517">
        <ele>43.851185</ele>
        <time>2020-09-28T13:59:03.227Z</time>
      </trkpt>
      <trkpt lat="64.28533" lon="21.03523">
        <ele>44.036586</ele>
        <time>2020-09-28T13:59:06.240Z</time>
      </trkpt>
      <trkpt lat="64.28524" lon="21.03529">
        <ele>44.221848</ele>
        <time>2020-09-28T13:59:09.227Z</time>
      </trkpt>
      <trkpt lat="64.28515" lon="21.03535">
        <ele>44.39826</ele>
        <time>2020-09-28T13:59:12.224Z</time>
      </trkpt>
      <trkpt lat="64.28505" lon="21.0354">
        <ele>44.584052</ele>
        <time>2020-09-28T13:59:15.270Z</time>
      </trkpt>
      <trkpt lat="64.28494" lon="21.03548">
        <ele>44.810335</ele>
        <time>2020-09-28T13:59:19.246Z</time>
      </trkpt>
      <trkpt lat="64.28484" lon="21.03554">
        <ele>44.96973</ele>
        <time>2020-09-28T13:59:22.240Z</time>
      </trkpt>
      <trkpt lat="64.28473" lon="21.0356">
        <ele>45.0744</ele>
        <time>2020-09-28T13:59:25.218Z</time>
      </trkpt>
      <trkpt lat="64.28462" lon="21.03566">
        <ele>45.185256</ele>
        <time>2020-09-28T13:59:28.225Z</time>
      </trkpt>
      <trkpt lat="64.28452" lon="21.03572">
        <ele>45.285799</ele>
        <time>2020-09-28T13:59:31.227Z</time>
      </trkpt>
      <trkpt lat="64.28442" lon="21.03579">
        <ele>45.396342</ele>
        <time>2020-09-28T13:59:34.233Z</time>
      </trkpt>
      <trkpt lat="64.28429" lon="21.03588">
        <ele>45.524485</ele>
        <time>2020-09-28T13:59:37.249Z</time>
      </trkpt>
      <trkpt lat="64.2842" lon="21.03594">
        <ele>45.614717</ele>
        <time>2020-09-28T13:59:39.245Z</time>
      </trkpt>
      <trkpt lat="64.28412" lon="21.036">
        <ele>45.702378</ele>
        <time>2020-09-28T13:59:41.228Z</time>
      </trkpt>
      <trkpt lat="64.28399" lon="21.0361">
        <ele>45.834995</ele>
        <time>2020-09-28T13:59:44.228Z</time>
      </trkpt>
      <trkpt lat="64.28389" lon="21.03615">
        <ele>45.936385</ele>
        <time>2020-09-28T13:59:46.239Z</time>
      </trkpt>
      <trkpt lat="64.28379" lon="21.03621">
        <ele>46.03481</ele>
        <time>2020-09-28T13:59:48.226Z</time>
      </trkpt>
      <trkpt lat="64.2837" lon="21.03627">
        <ele>46.1325</ele>
        <time>2020-09-28T13:59:50.225Z</time>
      </trkpt>
      <trkpt lat="64.28361" lon="21.03634">
        <ele>46.224558</ele>
        <time>2020-09-28T13:59:52.249Z</time>
      </trkpt>
      <trkpt lat="64.28353" lon="21.03646">
        <ele>46.318411</ele>
        <time>2020-09-28T13:59:54.233Z</time>
      </trkpt>
      <trkpt lat="64.28343" lon="21.03657">
        <ele>46.427805</ele>
        <time>2020-09-28T13:59:56.220Z</time>
      </trkpt>
      <trkpt lat="64.28333" lon="21.03669">
        <ele>46.533601</ele>
        <time>2020-09-28T13:59:58.288Z</time>
      </trkpt>
      <trkpt lat="64.28324" lon="21.03679">
        <ele>46.631832</ele>
        <time>2020-09-28T14:00:00.249Z</time>
      </trkpt>
      <trkpt lat="64.28316" lon="21.03693">
        <ele>46.674385</ele>
        <time>2020-09-28T14:00:02.242Z</time>
      </trkpt>
      <trkpt lat="64.28308" lon="21.03704">
        <ele>46.61174</ele>
        <time>2020-09-28T14:00:04.228Z</time>
      </trkpt>
      <trkpt lat="64.283" lon="21.03718">
        <ele>46.546504</ele>
        <time>2020-09-28T14:00:06.223Z</time>
      </trkpt>
      <trkpt lat="64.28292" lon="21.03731">
        <ele>46.480368</ele>
        <time>2020-09-28T14:00:08.262Z</time>
      </trkpt>
      <trkpt lat="64.28285" lon="21.03746">
        <ele>46.41621</ele>
        <time>2020-09-28T14:00:10.220Z</time>
      </trkpt>
      <trkpt lat="64.28277" lon="21.03762">
        <ele>46.350034</ele>
        <time>2020-09-28T14:00:12.228Z</time>
      </trkpt>
      <trkpt lat="64.2827" lon="21.03779">
        <ele>46.281346</ele>
        <time>2020-09-28T14:00:14.235Z</time>
      </trkpt>
      <trkpt lat="64.28263" lon="21.03794">
        <ele>46.218939</ele>
        <time>2020-09-28T14:00:16.224Z</time>
      </trkpt>
      <trkpt lat="64.28257" lon="21.0381">
        <ele>46.158098</ele>
        <time>2020-09-28T14:00:18.245Z</time>
      </trkpt>
      <trkpt lat="64.2825" lon="21.03826">
        <ele>46.096206</ele>
        <time>2020-09-28T14:00:20.232Z</time>
      </trkpt>
      <trkpt lat="64.28245" lon="21.03843">
        <ele>46.034467</ele>
        <time>2020-09-28T14:00:22.254Z</time>
      </trkpt>
      <trkpt lat="64.28238" lon="21.0386">
        <ele>45.969114</ele>
        <time>2020-09-28T14:00:24.225Z</time>
      </trkpt>
      <trkpt lat="64.28231" lon="21.03877">
        <ele>45.903777</ele>
        <time>2020-09-28T14:00:26.240Z</time>
      </trkpt>
      <trkpt lat="64.28224" lon="21.03892">
        <ele>45.839908</ele>
        <time>2020-09-28T14:00:28.229Z</time>
      </trkpt>
      <trkpt lat="64.28214" lon="21.03913">
        <ele>45.751767</ele>
        <time>2020-09-28T14:00:31.220Z</time>
      </trkpt>
      <trkpt lat="64.28207" lon="21.03928">
        <ele>45.687174</ele>
        <time>2020-09-28T14:00:33.246Z</time>
      </trkpt>
      <trkpt lat="64.28199" lon="21.03941">
        <ele>45.62352</ele>
        <time>2020-09-28T14:00:35.227Z</time>
      </trkpt>
      <trkpt lat="64.28191" lon="21.03953">
        <ele>45.559237</ele>
        <time>2020-09-28T14:00:37.241Z</time>
      </trkpt>
      <trkpt lat="64.28182" lon="21.03962">
        <ele>45.470846</ele>
        <time>2020-09-28T14:00:39.246Z</time>
      </trkpt>
      <trkpt lat="64.28172" lon="21.03971">
        <ele>45.330697</ele>
        <time>2020-09-28T14:00:41.247Z</time>
      </trkpt>
      <trkpt lat="64.28164" lon="21.03981">
        <ele>45.194563</ele>
        <time>2020-09-28T14:00:43.239Z</time>
      </trkpt>
      <trkpt lat="64.28155" lon="21.03991">
        <ele>45.057981</ele>
        <time>2020-09-28T14:00:45.243Z</time>
      </trkpt>
      <trkpt lat="64.28147" lon="21.04">
        <ele>44.929272</ele>
        <time>2020-09-28T14:00:47.267Z</time>
      </trkpt>
      <trkpt lat="64.28138" lon="21.04009">
        <ele>44.798802</ele>
        <time>2020-09-28T14:00:49.226Z</time>
      </trkpt>
      <trkpt lat="64.2813" lon="21.04018">
        <ele>44.670353</ele>
        <time>2020-09-28T14:00:51.220Z</time>
      </trkpt>
      <trkpt lat="64.28121" lon="21.04027">
        <ele>44.538108</ele>
        <time>2020-09-28T14:00:53.215Z</time>
      </trkpt>
      <trkpt lat="64.28112" lon="21.04036">
        <ele>44.403571</ele>
        <time>2020-09-28T14:00:55.256Z</time>
      </trkpt>
      <trkpt lat="64.28104" lon="21.04046">
        <ele>44.266757</ele>
        <time>2020-09-28T14:00:57.226Z</time>
      </trkpt>
      <trkpt lat="64.28094" lon="21.04056">
        <ele>44.124808</ele>
        <time>2020-09-28T14:00:59.241Z</time>
      </trkpt>
      <trkpt lat="64.28085" lon="21.04066">
        <ele>43.981873</ele>
        <time>2020-09-28T14:01:01.251Z</time>
      </trkpt>
      <trkpt lat="64.28076" lon="21.04074">
        <ele>43.841629</ele>
        <time>2020-09-28T14:01:03.250Z</time>
      </trkpt>
      <trkpt lat="64.28066" lon="21.04084">
        <ele>43.696101</ele>
        <time>2020-09-28T14:01:05.259Z</time>
      </trkpt>
      <trkpt lat="64.28056" lon="21.04094">
        <ele>43.546569</ele>
        <time>2020-09-28T14:01:07.243Z</time>
      </trkpt>
      <trkpt lat="64.28046" lon="21.04103">
        <ele>43.394948</ele>
        <time>2020-09-28T14:01:09.279Z</time>
      </trkpt>
      <trkpt lat="64.28037" lon="21.04112">
        <ele>43.247522</ele>
        <time>2020-09-28T14:01:11.272Z</time>
      </trkpt>
      <trkpt lat="64.28027" lon="21.04121">
        <ele>43.097275</ele>
        <time>2020-09-28T14:01:13.228Z</time>
      </trkpt>
      <trkpt lat="64.28017" lon="21.04131">
        <ele>42.923768</ele>
        <time>2020-09-28T14:01:15.246Z</time>
      </trkpt>
      <trkpt lat="64.28008" lon="21.04141">
        <ele>42.696263</ele>
        <time>2020-09-28T14:01:17.251Z</time>
      </trkpt>
      <trkpt lat="64.27998" lon="21.04153">
        <ele>42.469711</ele>
        <time>2020-09-28T14:01:19.223Z</time>
      </trkpt>
      <trkpt lat="64.27989" lon="21.04165">
        <ele>42.233075</ele>
        <time>2020-09-28T14:01:21.229Z</time>
      </trkpt>
      <trkpt lat="64.27979" lon="21.0418">
        <ele>41.984267</ele>
        <time>2020-09-28T14:01:23.237Z</time>
      </trkpt>
      <trkpt lat="64.2797" lon="21.04192">
        <ele>41.750903</ele>
        <time>2020-09-28T14:01:25.241Z</time>
      </trkpt>
      <trkpt lat="64.27962" lon="21.04203">
        <ele>41.553158</ele>
        <time>2020-09-28T14:01:27.243Z</time>
      </trkpt>
      <trkpt lat="64.27952" lon="21.04215">
        <ele>41.302647</ele>
        <time>2020-09-28T14:01:30.271Z</time>
      </trkpt>
      <trkpt lat="64.27939" lon="21.04214">
        <ele>41.032026</ele>
        <time>2020-09-28T14:01:33.231Z</time>
      </trkpt>
      <trkpt lat="64.2793" lon="21.04193">
        <ele>40.761345</ele>
        <time>2020-09-28T14:01:36.226Z</time>
      </trkpt>
      <trkpt lat="64.27926" lon="21.04175">
        <ele>40.561725</ele>
        <time>2020-09-28T14:01:38.262Z</time>
      </trkpt>
      <trkpt lat="64.2792" lon="21.04159">
        <ele>40.36674</ele>
        <time>2020-09-28T14:01:40.238Z</time>
      </trkpt>
      <trkpt lat="64.27913" lon="21.04142">
        <ele>40.149014</ele>
        <time>2020-09-28T14:01:42.292Z</time>
      </trkpt>
      <trkpt lat="64.27906" lon="21.04123">
        <ele>39.904414</ele>
        <time>2020-09-28T14:01:44.233Z</time>
      </trkpt>
      <trkpt lat="64.27897" lon="21.04102">
        <ele>39.636755</ele>
        <time>2020-09-28T14:01:46.229Z</time>
      </trkpt>
      <trkpt lat="64.27888" lon="21.04083">
        <ele>39.363161</ele>
        <time>2020-09-28T14:01:48.229Z</time>
      </trkpt>
      <trkpt lat="64.27878" lon="21.04061">
        <ele>39.112133</ele>
        <time>2020-09-28T14:01:50.217Z</time>
      </trkpt>
      <trkpt lat="64.27868" lon="21.04038">
        <ele>39.132488</ele>
        <time>2020-09-28T14:01:52.234Z</time>
      </trkpt>
      <trkpt lat="64.27857" lon="21.04019">
        <ele>39.152246</ele>
        <time>2020-09-28T14:01:54.278Z</time>
      </trkpt>
      <trkpt lat="64.27847" lon="21.04001">
        <ele>39.170883</ele>
        <time>2020-09-28T14:01:56.220Z</time>
      </trkpt>
      <trkpt lat="64.27836" lon="21.03992">
        <ele>39.187328</ele>
        <time>2020-09-28T14:01:58.222Z</time>
      </trkpt>
      <trkpt lat="64.27826" lon="21.04">
        <ele>39.20347</ele>
        <time>2020-09-28T14:02:00.225Z</time>
      </trkpt>
      <trkpt lat="64.27817" lon="21.04018">
        <ele>39.220427</ele>
        <time>2020-09-28T14:02:02.272Z</time>
      </trkpt>
      <trkpt lat="64.27809" lon="21.04038">
        <ele>39.237141</ele>
        <time>2020-09-28T14:02:04.263Z</time>
      </trkpt>
      <trkpt lat="64.27803" lon="21.04054">
        <ele>39.251655</ele>
        <time>2020-09-28T14:02:06.269Z</time>
      </trkpt>
      <trkpt lat="64.27796" lon="21.04069">
        <ele>39.264787</ele>
        <time>2020-09-28T14:02:08.226Z</time>
      </trkpt>
      <trkpt lat="64.27787" lon="21.0409">
        <ele>39.283977</ele>
        <time>2020-09-28T14:02:11.217Z</time>
      </trkpt>
      <trkpt lat="64.27779" lon="21.04102">
        <ele>39.29729</ele>
        <time>2020-09-28T14:02:13.249Z</time>
      </trkpt>
      <trkpt lat="64.27772" lon="21.04116">
        <ele>39.311335</ele>
        <time>2020-09-28T14:02:15.225Z</time>
      </trkpt>
      <trkpt lat="64.27764" lon="21.04128">
        <ele>39.325202</ele>
        <time>2020-09-28T14:02:17.219Z</time>
      </trkpt>
      <trkpt lat="64.27756" lon="21.04141">
        <ele>39.33919</ele>
        <time>2020-09-28T14:02:19.226Z</time>
      </trkpt>
      <trkpt lat="64.27748" lon="21.04154">
        <ele>39.353946</ele>
        <time>2020-09-28T14:02:21.230Z</time>
      </trkpt>
      <trkpt lat="64.2774" lon="21.04166">
        <ele>39.367913</ele>
        <time>2020-09-28T14:02:23.219Z</time>
      </trkpt>
      <trkpt lat="64.27732" lon="21.04178">
        <ele>39.573891</ele>
        <time>2020-09-28T14:02:25.248Z</time>
      </trkpt>
      <trkpt lat="64.27724" lon="21.04189">
        <ele>39.858765</ele>
        <time>2020-09-28T14:02:27.240Z</time>
      </trkpt>
      <trkpt lat="64.27717" lon="21.042">
        <ele>40.141428</ele>
        <time>2020-09-28T14:02:29.216Z</time>
      </trkpt>
      <trkpt lat="64.27706" lon="21.04215">
        <ele>40.548397</ele>
        <time>2020-09-28T14:02:32.291Z</time>
      </trkpt>
      <trkpt lat="64.27694" lon="21.0423">
        <ele>40.957414</ele>
        <time>2020-09-28T14:02:35.253Z</time>
      </trkpt>
      <trkpt lat="64.27683" lon="21.04245">
        <ele>41.368446</ele>
        <time>2020-09-28T14:02:38.249Z</time>
      </trkpt>
      <trkpt lat="64.27673" lon="21.0426">
        <ele>41.742269</ele>
        <time>2020-09-28T14:02:41.219Z</time>
      </trkpt>
      <trkpt lat="64.27663" lon="21.04274">
        <ele>42.120024</ele>
        <time>2020-09-28T14:02:44.217Z</time>
      </trkpt>
      <trkpt lat="64.27653" lon="21.04288">
        <ele>42.475007</ele>
        <time>2020-09-28T14:02:47.279Z</time>
      </trkpt>
      <trkpt lat="64.27644" lon="21.04303">
        <ele>42.817419</ele>
        <time>2020-09-28T14:02:50.270Z</time>
      </trkpt>
      <trkpt lat="64.27635" lon="21.04317">
        <ele>43.174317</ele>
        <time>2020-09-28T14:02:53.219Z</time>
      </trkpt>
      <trkpt lat="64.27626" lon="21.04331">
        <ele>43.499881</ele>
        <time>2020-09-28T14:02:56.220Z</time>
      </trkpt>
      <trkpt lat="64.27617" lon="21.04345">
        <ele>43.846632</ele>
        <time>2020-09-28T14:02:59.246Z</time>
      </trkpt>
      <trkpt lat="64.27608" lon="21.04358">
        <ele>44.192438</ele>
        <time>2020-09-28T14:03:02.227Z</time>
      </trkpt>
      <trkpt lat="64.27597" lon="21.04371">
        <ele>44.56477</ele>
        <time>2020-09-28T14:03:05.226Z</time>
      </trkpt>
      <trkpt lat="64.27587" lon="21.04386">
        <ele>44.93549</ele>
        <time>2020-09-28T14:03:08.242Z</time>
      </trkpt>
      <trkpt lat="64.27576" lon="21.04399">
        <ele>44.72609</ele>
        <time>2020-09-28T14:03:11.223Z</time>
      </trkpt>
      <trkpt lat="64.27566" lon="21.04415">
        <ele>44.34088</ele>
        <time>2020-09-28T14:03:14.221Z</time>
      </trkpt>
      <trkpt lat="64.27555" lon="21.04429">
        <ele>43.966516</ele>
        <time>2020-09-28T14:03:17.230Z</time>
      </trkpt>
      <trkpt lat="64.27546" lon="21.04444">
        <ele>43.614308</ele>
        <time>2020-09-28T14:03:20.224Z</time>
      </trkpt>
      <trkpt lat="64.27535" lon="21.04459">
        <ele>43.23401</ele>
        <time>2020-09-28T14:03:23.221Z</time>
      </trkpt>
      <trkpt lat="64.27524" lon="21.04473">
        <ele>42.853799</ele>
        <time>2020-09-28T14:03:26.227Z</time>
      </trkpt>
      <trkpt lat="64.27514" lon="21.04487">
        <ele>42.483549</ele>
        <time>2020-09-28T14:03:29.250Z</time>
      </trkpt>
      <trkpt lat="64.27503" lon="21.04502">
        <ele>42.095349</ele>
        <time>2020-09-28T14:03:32.234Z</time>
      </trkpt>
      <trkpt lat="64.27493" lon="21.04517">
        <ele>41.719325</ele>
        <time>2020-09-28T14:03:35.252Z</time>
      </trkpt>
      <trkpt lat="64.27485" lon="21.04528">
        <ele>41.44081</ele>
        <time>2020-09-28T14:03:37.213Z</time>
      </trkpt>
      <trkpt lat="64.27476" lon="21.04538">
        <ele>41.140285</ele>
        <time>2020-09-28T14:03:39.224Z</time>
      </trkpt>
      <trkpt lat="64.27468" lon="21.0455">
        <ele>40.843641</ele>
        <time>2020-09-28T14:03:41.232Z</time>
      </trkpt>
      <trkpt lat="64.2746" lon="21.04562">
        <ele>40.538255</ele>
        <time>2020-09-28T14:03:43.233Z</time>
      </trkpt>
      <trkpt lat="64.27452" lon="21.04574">
        <ele>40.248932</ele>
        <time>2020-09-28T14:03:45.219Z</time>
      </trkpt>
      <trkpt lat="64.27444" lon="21.04585">
        <ele>39.964433</ele>
        <time>2020-09-28T14:03:47.226Z</time>
      </trkpt>
      <trkpt lat="64.27436" lon="21.04596">
        <ele>39.674624</ele>
        <time>2020-09-28T14:03:49.221Z</time>
      </trkpt>
      <trkpt lat="64.27427" lon="21.04605">
        <ele>39.449898</ele>
        <time>2020-09-28T14:03:51.246Z</time>
      </trkpt>
      <trkpt lat="64.27419" lon="21.04613">
        <ele>39.309516</ele>
        <time>2020-09-28T14:03:53.223Z</time>
      </trkpt>
      <trkpt lat="64.2741" lon="21.04623">
        <ele>39.162624</ele>
        <time>2020-09-28T14:03:55.253Z</time>
      </trkpt>
      <trkpt lat="64.27401" lon="21.04632">
        <ele>39.014116</ele>
        <time>2020-09-28T14:03:57.260Z</time>
      </trkpt>
      <trkpt lat="64.27392" lon="21.04641">
        <ele>38.867935</ele>
        <time>2020-09-28T14:03:59.247Z</time>
      </trkpt>
      <trkpt lat="64.27383" lon="21.0465">
        <ele>38.721505</ele>
        <time>2020-09-28T14:04:01.218Z</time>
      </trkpt>
      <trkpt lat="64.27373" lon="21.04659">
        <ele>38.566122</ele>
        <time>2020-09-28T14:04:03.240Z</time>
      </trkpt>
      <trkpt lat="64.27363" lon="21.04669">
        <ele>38.398144</ele>
        <time>2020-09-28T14:04:05.221Z</time>
      </trkpt>
      <trkpt lat="64.27352" lon="21.04679">
        <ele>38.220662</ele>
        <time>2020-09-28T14:04:07.226Z</time>
      </trkpt>
      <trkpt lat="64.27342" lon="21.04688">
        <ele>38.054165</ele>
        <time>2020-09-28T14:04:09.251Z</time>
      </trkpt>
      <trkpt lat="64.27332" lon="21.04698">
        <ele>37.894123</ele>
        <time>2020-09-28T14:04:11.226Z</time>
      </trkpt>
      <trkpt lat="64.27322" lon="21.04708">
        <ele>37.734693</ele>
        <time>2020-09-28T14:04:13.256Z</time>
      </trkpt>
      <trkpt lat="64.27312" lon="21.04718">
        <ele>37.571881</ele>
        <time>2020-09-28T14:04:15.227Z</time>
      </trkpt>
      <trkpt lat="64.27303" lon="21.04727">
        <ele>37.412345</ele>
        <time>2020-09-28T14:04:17.227Z</time>
      </trkpt>
      <trkpt lat="64.27294" lon="21.04736">
        <ele>37.26981</ele>
        <time>2020-09-28T14:04:19.275Z</time>
      </trkpt>
      <trkpt lat="64.27285" lon="21.04745">
        <ele>37.122618</ele>
        <time>2020-09-28T14:04:21.222Z</time>
      </trkpt>
      <trkpt lat="64.27276" lon="21.04755">
        <ele>36.974276</ele>
        <time>2020-09-28T14:04:23.218Z</time>
      </trkpt>
      <trkpt lat="64.27268" lon="21.04767">
        <ele>36.832064</ele>
        <time>2020-09-28T14:04:25.232Z</time>
      </trkpt>
      <trkpt lat="64.27261" lon="21.04781">
        <ele>36.818102</ele>
        <time>2020-09-28T14:04:27.233Z</time>
      </trkpt>
      <trkpt lat="64.27255" lon="21.04797">
        <ele>36.841383</ele>
        <time>2020-09-28T14:04:29.254Z</time>
      </trkpt>
      <trkpt lat="64.27249" lon="21.04816">
        <ele>36.86599</ele>
        <time>2020-09-28T14:04:31.224Z</time>
      </trkpt>
      <trkpt lat="64.27241" lon="21.04834">
        <ele>36.892641</ele>
        <time>2020-09-28T14:04:33.229Z</time>
      </trkpt>
      <trkpt lat="64.27231" lon="21.04847">
        <ele>36.920068</ele>
        <time>2020-09-28T14:04:35.248Z</time>
      </trkpt>
      <trkpt lat="64.2722" lon="21.0485">
        <ele>36.947242</ele>
        <time>2020-09-28T14:04:37.240Z</time>
      </trkpt>
      <trkpt lat="64.2721" lon="21.04841">
        <ele>36.973529</ele>
        <time>2020-09-28T14:04:39.264Z</time>
      </trkpt>
      <trkpt lat="64.27201" lon="21.04828">
        <ele>36.999899</ele>
        <time>2020-09-28T14:04:41.229Z</time>
      </trkpt>
      <trkpt lat="64.27192" lon="21.04818">
        <ele>37.024067</ele>
        <time>2020-09-28T14:04:43.230Z</time>
      </trkpt>
      <trkpt lat="64.27183" lon="21.04809">
        <ele>37.049592</ele>
        <time>2020-09-28T14:04:45.223Z</time>
      </trkpt>
      <trkpt lat="64.27173" lon="21.04801">
        <ele>37.074011</ele>
        <time>2020-09-28T14:04:47.228Z</time>
      </trkpt>
      <trkpt lat="64.27165" lon="21.04793">
        <ele>37.097326</ele>
        <time>2020-09-28T14:04:49.217Z</time>
      </trkpt>
      <trkpt lat="64.27156" lon="21.04785">
        <ele>37.120184</ele>
        <time>2020-09-28T14:04:51.231Z</time>
      </trkpt>
      <trkpt lat="64.27147" lon="21.04778">
        <ele>37.144274</ele>
        <time>2020-09-28T14:04:53.227Z</time>
      </trkpt>
      <trkpt lat="64.27137" lon="21.0477">
        <ele>37.168199</ele>
        <time>2020-09-28T14:04:55.226Z</time>
      </trkpt>
      <trkpt lat="64.27128" lon="21.04761">
        <ele>37.192508</ele>
        <time>2020-09-28T14:04:57.248Z</time>
      </trkpt>
      <trkpt lat="64.27119" lon="21.04753">
        <ele>37.215978</ele>
        <time>2020-09-28T14:04:59.267Z</time>
      </trkpt>
      <trkpt lat="64.2711" lon="21.04747">
        <ele>37.239773</ele>
        <time>2020-09-28T14:05:01.243Z</time>
      </trkpt>
      <trkpt lat="64.27101" lon="21.0474">
        <ele>37.341411</ele>
        <time>2020-09-28T14:05:03.233Z</time>
      </trkpt>
      <trkpt lat="64.27092" lon="21.04734">
        <ele>37.446364</ele>
        <time>2020-09-28T14:05:05.242Z</time>
      </trkpt>
      <trkpt lat="64.27082" lon="21.04729">
        <ele>37.550214</ele>
        <time>2020-09-28T14:05:07.236Z</time>
      </trkpt>
      <trkpt lat="64.27073" lon="21.04723">
        <ele>37.653474</ele>
        <time>2020-09-28T14:05:09.245Z</time>
      </trkpt>
      <trkpt lat="64.27064" lon="21.04717">
        <ele>37.756322</ele>
        <time>2020-09-28T14:05:11.242Z</time>
      </trkpt>
      <trkpt lat="64.27055" lon="21.04711">
        <ele>37.859832</ele>
        <time>2020-09-28T14:05:13.226Z</time>
      </trkpt>
      <trkpt lat="64.27046" lon="21.04706">
        <ele>37.959197</ele>
        <time>2020-09-28T14:05:15.234Z</time>
      </trkpt>
      <trkpt lat="64.27037" lon="21.04701">
        <ele>38.062098</ele>
        <time>2020-09-28T14:05:17.233Z</time>
      </trkpt>
      <trkpt lat="64.27024" lon="21.04694">
        <ele>38.210081</ele>
        <time>2020-09-28T14:05:20.253Z</time>
      </trkpt>
      <trkpt lat="64.27015" lon="21.0469">
        <ele>38.312632</ele>
        <time>2020-09-28T14:05:22.241Z</time>
      </trkpt>
      <trkpt lat="64.27006" lon="21.04686">
        <ele>38.418338</ele>
        <time>2020-09-28T14:05:24.229Z</time>
      </trkpt>
      <trkpt lat="64.26996" lon="21.04682">
        <ele>38.527207</ele>
        <time>2020-09-28T14:05:26.217Z</time>
      </trkpt>
      <trkpt lat="64.26986" lon="21.04678">
        <ele>38.634608</ele>
        <time>2020-09-28T14:05:28.237Z</time>
      </trkpt>
      <trkpt lat="64.26977" lon="21.04673">
        <ele>38.738787</ele>
        <time>2020-09-28T14:05:30.236Z</time>
      </trkpt>
      <trkpt lat="64.26967" lon="21.0467">
        <ele>38.844258</ele>
        <time>2020-09-28T14:05:32.242Z</time>
      </trkpt>
      <trkpt lat="64.26958" lon="21.04666">
        <ele>38.949963</ele>
        <time>2020-09-28T14:05:34.228Z</time>
      </trkpt>
      <trkpt lat="64.26948" lon="21.04662">
        <ele>39.058683</ele>
        <time>2020-09-28T14:05:36.216Z</time>
      </trkpt>
      <trkpt lat="64.26938" lon="21.0466">
        <ele>39.165537</ele>
        <time>2020-09-28T14:05:38.237Z</time>
      </trkpt>
      <trkpt lat="64.26929" lon="21.04658">
        <ele>39.273501</ele>
        <time>2020-09-28T14:05:40.282Z</time>
      </trkpt>
      <trkpt lat="64.26919" lon="21.04656">
        <ele>39.386621</ele>
        <time>2020-09-28T14:05:42.217Z</time>
      </trkpt>
      <trkpt lat="64.2691" lon="21.04653">
        <ele>39.495234</ele>
        <time>2020-09-28T14:05:44.217Z</time>
      </trkpt>
      <trkpt lat="64.26897" lon="21.04647">
        <ele>39.650827</ele>
        <time>2020-09-28T14:05:47.244Z</time>
      </trkpt>
      <trkpt lat="64.2689" lon="21.04622">
        <ele>39.807061</ele>
        <time>2020-09-28T14:05:50.239Z</time>
      </trkpt>
      <trkpt lat="64.2689" lon="21.04598">
        <ele>39.925854</ele>
        <time>2020-09-28T14:05:52.259Z</time>
      </trkpt>
      <trkpt lat="64.26888" lon="21.04575">
        <ele>40.04589</ele>
        <time>2020-09-28T14:05:54.230Z</time>
      </trkpt>
      <trkpt lat="64.26886" lon="21.04554">
        <ele>40.160581</ele>
        <time>2020-09-28T14:05:56.229Z</time>
      </trkpt>
      <trkpt lat="64.26883" lon="21.04532">
        <ele>40.273109</ele>
        <time>2020-09-28T14:05:58.243Z</time>
      </trkpt>
      <trkpt lat="64.26881" lon="21.04512">
        <ele>40.380339</ele>
        <time>2020-09-28T14:06:00.237Z</time>
      </trkpt>
      <trkpt lat="64.26877" lon="21.04484">
        <ele>40.5348</ele>
        <time>2020-09-28T14:06:03.237Z</time>
      </trkpt>
      <trkpt lat="64.26873" lon="21.04457">
        <ele>40.679526</ele>
        <time>2020-09-28T14:06:06.218Z</time>
      </trkpt>
      <trkpt lat="64.26871" lon="21.04429">
        <ele>40.82635</ele>
        <time>2020-09-28T14:06:09.230Z</time>
      </trkpt>
      <trkpt lat="64.26867" lon="21.04402">
        <ele>40.971569</ele>
        <time>2020-09-28T14:06:12.229Z</time>
      </trkpt>
      <trkpt lat="64.26864" lon="21.04375">
        <ele>41.113029</ele>
        <time>2020-09-28T14:06:15.229Z</time>
      </trkpt>
      <trkpt lat="64.26863" lon="21.04351">
        <ele>41.239774</ele>
        <time>2020-09-28T14:06:18.242Z</time>
      </trkpt>
      <trkpt lat="64.26862" lon="21.0433">
        <ele>41.340362</ele>
        <time>2020-09-28T14:06:21.298Z</time>
      </trkpt>
      <trkpt lat="64.2686" lon="21.04306">
        <ele>41.340362</ele>
        <time>2020-09-28T14:06:26.221Z</time>
      </trkpt>
      <trkpt lat="64.26858" lon="21.04285">
        <ele>41.340362</ele>
        <time>2020-09-28T14:06:32.236Z</time>
      </trkpt>
      <trkpt lat="64.26859" lon="21.04261">
        <ele>41.340362</ele>
        <time>2020-09-28T14:06:38.218Z</time>
      </trkpt>
      <trkpt lat="64.26858" lon="21.0424">
        <ele>41.340362</ele>
        <time>2020-09-28T14:06:43.225Z</time>
      </trkpt>
      <trkpt lat="64.26854" lon="21.04219">
        <ele>41.340362</ele>
        <time>2020-09-28T14:06:49.223Z</time>
      </trkpt>
      <trkpt lat="64.26852" lon="21.04196">
        <ele>41.340362</ele>
        <time>2020-09-28T14:06:55.284Z</time>
      </trkpt>
      <trkpt lat="64.2685" lon="21.04175">
        <ele>41.340362</ele>
        <time>2020-09-28T14:07:02.217Z</time>
      </trkpt>
      <trkpt lat="64.26846" lon="21.04155">
        <ele>41.340362</ele>
        <time>2020-09-28T14:07:09.243Z</time>
      </trkpt>
      <trkpt lat="64.26843" lon="21.04136">
        <ele>41.340362</ele>
        <time>2020-09-28T14:07:15.228Z</time>
      </trkpt>
      <trkpt lat="64.26841" lon="21.04114">
        <ele>41.340362</ele>
        <time>2020-09-28T14:07:21.243Z</time>
      </trkpt>
      <trkpt lat="64.26839" lon="21.04093">
        <ele>41.340362</ele>
        <time>2020-09-28T14:07:28.252Z</time>
      </trkpt>
      <trkpt lat="64.26842" lon="21.04113">
        <ele>41.340362</ele>
        <time>2020-09-28T14:16:49.241Z</time>
      </trkpt>
      <trkpt lat="64.26843" lon="21.04134">
        <ele>41.340362</ele>
        <time>2020-09-28T14:16:59.239Z</time>
      </trkpt>
      <trkpt lat="64.26845" lon="21.04156">
        <ele>41.340362</ele>
        <time>2020-09-28T14:17:08.233Z</time>
      </trkpt>
      <trkpt lat="64.26842" lon="21.04177">
        <ele>41.340362</ele>
        <time>2020-09-28T14:17:17.228Z</time>
      </trkpt>
      <trkpt lat="64.26839" lon="21.04197">
        <ele>41.340362</ele>
        <time>2020-09-28T14:17:28.226Z</time>
      </trkpt>
      <trkpt lat="64.26847" lon="21.04199">
        <ele>41.340362</ele>
        <time>2020-09-28T14:34:27.330Z</time>
      </trkpt>
    </trkseg>
  </trk>
</gpx>